<?xml version="1.0" encoding="UTF-8" standalone="no" ?>
<gpx xmlns="http://www.topografix.com/GPX/1/1" xmlns:xsi="http://www.w3.org/2001/XMLSchema-instance" xsi:schemaLocation="http://www.topografix.com/GPX/1/1 http://www.topografix.com/GPX/1/1/gpx.xsd" version="1.1" creator="VisuGPX - https://www.visugpx.com">
  <metadata>
    <name>VTT du mercredi 30 septembre 2020 à 3 (Sabot, Montcey, noix) </name>
    <desc><![CDATA[Temps ensoleillé et un parcours varié : Jardin anglais, mémorial de la résistance, liaison Sabot-Montcey (km 8) par un chemin assez caillouteux que Christine  ne connaissait pas, ramassage de noix à partir de Montcey, Affligem (km 21) dans une ambiance sympathique.
PS : hier j'ai pris mon vélo vert pour un petit parcours/ramassage de noix et la roue avant était crevée ce matin. J'ai donc pris mon vélo blanc pour notre sortie  et sa roue avant avant est crevée cet après-midi. La poisse !!!]]></desc>
  </metadata>
  <wpt lat="47.64463" lon="6.18273">
    <ele>227.55</ele>
    <name><![CDATA[0000083]]></name>
    <type><![CDATA[Point de départ]]></type>
  </wpt>
  <wpt lat="47.64465" lon="6.18043">
    <ele>223.11</ele>
    <name><![CDATA[0000084]]></name>
    <desc><![CDATA[<p><br /><h3>Nom: Segment: 1</h3><br />Heure de départ: 09/30/2020 09:44<br/>Heure d'arrivée: 09/30/2020 12:26<br/>Distance: 21,1km (02:41)<br/>Temps déplacement: 01:56<br/>Vitesse moyenne: 7,82 km/h<br/>Vitesse moyenne mouv.: 10,84 km/h<br/>Vitesse Max.: 36,04 km/h<br/>Altitude minimale: 219 m<br/>Altitude maximale: 365 m<br/>Vitesse de montée: 227,9 m/h<br/>Vitesse de descente: -212,5 m/h<br/>Gain d'altitude: 267 m<br/>Perte d'altitude: -244 m<br/>Temps de montée: 01:10<br/>Temps de descente: 01:08<br/></p>]]></desc>
    <type><![CDATA[Point d'arrivée]]></type>
  </wpt>
  <trk>
    <name><![CDATA[2020-09-30 09:44]]></name>
    <desc><![CDATA[<p>Heure de départ: 09/30/2020 09:44<br/>Heure d'arrivée: 09/30/2020 12:26<br/>Distance: 21,1 km (02:41)<br/>Temps déplacement: 01:56<br/>Vitesse moyenne: 7,82 km/h<br/>Vitesse moyenne mouv.: 10,86 km/h<br/>Vitesse Max.: 36,04 km/h<br/>Altitude minimale: 219 m<br/>Altitude maximale: 365 m<br/>Vitesse de montée: 210,3 m/h<br/>Vitesse de descente: -193,3 m/h<br/>Gain d'altitude: 254 m<br/>Perte d'altitude: -238 m<br/>Temps de montée: 01:12<br/>Temps de descente: 01:14<br/></p><hr align="center" width="480" style="height: 2px; width: 517px"/>]]></desc>
    <trkseg>
      <trkpt lat="47.64463" lon="6.18273">
        <ele>227.55</ele>
        <time>2020-09-30T07:44:18Z</time>
      </trkpt>
      <trkpt lat="47.64468" lon="6.1827">
        <ele>227.55</ele>
        <time>2020-09-30T07:44:20Z</time>
      </trkpt>
      <trkpt lat="47.64472" lon="6.18261">
        <ele>227.55</ele>
        <time>2020-09-30T07:44:22Z</time>
      </trkpt>
      <trkpt lat="47.64478" lon="6.1825">
        <ele>227.55</ele>
        <time>2020-09-30T07:44:23Z</time>
      </trkpt>
      <trkpt lat="47.64483" lon="6.18243">
        <ele>227.55</ele>
        <time>2020-09-30T07:44:28Z</time>
      </trkpt>
      <trkpt lat="47.64487" lon="6.18236">
        <ele>227.55</ele>
        <time>2020-09-30T07:44:30Z</time>
      </trkpt>
      <trkpt lat="47.64491" lon="6.18228">
        <ele>227.55</ele>
        <time>2020-09-30T07:44:31Z</time>
      </trkpt>
      <trkpt lat="47.64495" lon="6.18219">
        <ele>227.55</ele>
        <time>2020-09-30T07:44:34Z</time>
      </trkpt>
      <trkpt lat="47.64498" lon="6.18211">
        <ele>227.55</ele>
        <time>2020-09-30T07:44:36Z</time>
      </trkpt>
      <trkpt lat="47.64501" lon="6.18202">
        <ele>227.55</ele>
        <time>2020-09-30T07:44:37Z</time>
      </trkpt>
      <trkpt lat="47.64503" lon="6.18195">
        <ele>227.55</ele>
        <time>2020-09-30T07:44:39Z</time>
      </trkpt>
      <trkpt lat="47.64504" lon="6.18186">
        <ele>227.55</ele>
        <time>2020-09-30T07:44:40Z</time>
      </trkpt>
      <trkpt lat="47.64504" lon="6.18179">
        <ele>227.55</ele>
        <time>2020-09-30T07:44:42Z</time>
      </trkpt>
      <trkpt lat="47.64503" lon="6.1817">
        <ele>227.55</ele>
        <time>2020-09-30T07:44:43Z</time>
      </trkpt>
      <trkpt lat="47.64502" lon="6.18163">
        <ele>227.55</ele>
        <time>2020-09-30T07:44:44Z</time>
      </trkpt>
      <trkpt lat="47.645" lon="6.18156">
        <ele>227.55</ele>
        <time>2020-09-30T07:44:45Z</time>
      </trkpt>
      <trkpt lat="47.64499" lon="6.18147">
        <ele>227.55</ele>
        <time>2020-09-30T07:44:47Z</time>
      </trkpt>
      <trkpt lat="47.64497" lon="6.18137">
        <ele>227.55</ele>
        <time>2020-09-30T07:44:48Z</time>
      </trkpt>
      <trkpt lat="47.64497" lon="6.18129">
        <ele>227.55</ele>
        <time>2020-09-30T07:44:50Z</time>
      </trkpt>
      <trkpt lat="47.64499" lon="6.18114">
        <ele>227.55</ele>
        <time>2020-09-30T07:44:52Z</time>
      </trkpt>
      <trkpt lat="47.64501" lon="6.18101">
        <ele>227.55</ele>
        <time>2020-09-30T07:44:53Z</time>
      </trkpt>
      <trkpt lat="47.64503" lon="6.18091">
        <ele>227.55</ele>
        <time>2020-09-30T07:44:57Z</time>
      </trkpt>
      <trkpt lat="47.64505" lon="6.18083">
        <ele>227.55</ele>
        <time>2020-09-30T07:44:59Z</time>
      </trkpt>
      <trkpt lat="47.64507" lon="6.18073">
        <ele>227.55</ele>
        <time>2020-09-30T07:45:01Z</time>
      </trkpt>
      <trkpt lat="47.64509" lon="6.18066">
        <ele>227.55</ele>
        <time>2020-09-30T07:45:02Z</time>
      </trkpt>
      <trkpt lat="47.6451" lon="6.18057">
        <ele>227.55</ele>
        <time>2020-09-30T07:45:05Z</time>
      </trkpt>
      <trkpt lat="47.64506" lon="6.18051">
        <ele>227.55</ele>
        <time>2020-09-30T07:45:07Z</time>
      </trkpt>
      <trkpt lat="47.64502" lon="6.1805">
        <ele>227.55</ele>
        <time>2020-09-30T07:45:08Z</time>
      </trkpt>
      <trkpt lat="47.6449" lon="6.18044">
        <ele>227.55</ele>
        <time>2020-09-30T07:45:11Z</time>
      </trkpt>
      <trkpt lat="47.64476" lon="6.18033">
        <ele>227.55</ele>
        <time>2020-09-30T07:45:13Z</time>
      </trkpt>
      <trkpt lat="47.64471" lon="6.1803">
        <ele>227.55</ele>
        <time>2020-09-30T07:45:16Z</time>
      </trkpt>
      <trkpt lat="47.64461" lon="6.18034">
        <ele>227.55</ele>
        <time>2020-09-30T07:45:19Z</time>
      </trkpt>
      <trkpt lat="47.64455" lon="6.18038">
        <ele>225.46</ele>
        <time>2020-09-30T07:45:23Z</time>
      </trkpt>
      <trkpt lat="47.64454" lon="6.18032">
        <ele>223.15</ele>
        <time>2020-09-30T07:46:45Z</time>
      </trkpt>
      <trkpt lat="47.6445" lon="6.18025">
        <ele>223.15</ele>
        <time>2020-09-30T07:46:49Z</time>
      </trkpt>
      <trkpt lat="47.64445" lon="6.18016">
        <ele>223.15</ele>
        <time>2020-09-30T07:46:50Z</time>
      </trkpt>
      <trkpt lat="47.64441" lon="6.18003">
        <ele>223.15</ele>
        <time>2020-09-30T07:46:52Z</time>
      </trkpt>
      <trkpt lat="47.64439" lon="6.17994">
        <ele>223.15</ele>
        <time>2020-09-30T07:46:55Z</time>
      </trkpt>
      <trkpt lat="47.64436" lon="6.17985">
        <ele>223.15</ele>
        <time>2020-09-30T07:46:56Z</time>
      </trkpt>
      <trkpt lat="47.64432" lon="6.17975">
        <ele>223.15</ele>
        <time>2020-09-30T07:46:58Z</time>
      </trkpt>
      <trkpt lat="47.64426" lon="6.17961">
        <ele>223.15</ele>
        <time>2020-09-30T07:47:02Z</time>
      </trkpt>
      <trkpt lat="47.6442" lon="6.1795">
        <ele>223.15</ele>
        <time>2020-09-30T07:47:06Z</time>
      </trkpt>
      <trkpt lat="47.64417" lon="6.17943">
        <ele>223.15</ele>
        <time>2020-09-30T07:47:09Z</time>
      </trkpt>
      <trkpt lat="47.64415" lon="6.17935">
        <ele>223.15</ele>
        <time>2020-09-30T07:47:11Z</time>
      </trkpt>
      <trkpt lat="47.64411" lon="6.17926">
        <ele>223.15</ele>
        <time>2020-09-30T07:47:12Z</time>
      </trkpt>
      <trkpt lat="47.64407" lon="6.17918">
        <ele>223.15</ele>
        <time>2020-09-30T07:47:16Z</time>
      </trkpt>
      <trkpt lat="47.64405" lon="6.17913">
        <ele>223.15</ele>
        <time>2020-09-30T07:47:17Z</time>
      </trkpt>
      <trkpt lat="47.644" lon="6.17905">
        <ele>223.15</ele>
        <time>2020-09-30T07:47:20Z</time>
      </trkpt>
      <trkpt lat="47.64392" lon="6.1789">
        <ele>223.15</ele>
        <time>2020-09-30T07:47:21Z</time>
      </trkpt>
      <trkpt lat="47.64388" lon="6.17884">
        <ele>223.15</ele>
        <time>2020-09-30T07:47:24Z</time>
      </trkpt>
      <trkpt lat="47.64384" lon="6.17878">
        <ele>223.15</ele>
        <time>2020-09-30T07:47:26Z</time>
      </trkpt>
      <trkpt lat="47.64378" lon="6.1787">
        <ele>223.15</ele>
        <time>2020-09-30T07:47:28Z</time>
      </trkpt>
      <trkpt lat="47.64372" lon="6.17861">
        <ele>223.15</ele>
        <time>2020-09-30T07:47:30Z</time>
      </trkpt>
      <trkpt lat="47.64369" lon="6.17856">
        <ele>223.15</ele>
        <time>2020-09-30T07:47:31Z</time>
      </trkpt>
      <trkpt lat="47.64362" lon="6.17849">
        <ele>223.15</ele>
        <time>2020-09-30T07:47:33Z</time>
      </trkpt>
      <trkpt lat="47.64355" lon="6.17841">
        <ele>223.15</ele>
        <time>2020-09-30T07:47:35Z</time>
      </trkpt>
      <trkpt lat="47.64349" lon="6.17834">
        <ele>223.15</ele>
        <time>2020-09-30T07:47:37Z</time>
      </trkpt>
      <trkpt lat="47.64344" lon="6.17822">
        <ele>223.15</ele>
        <time>2020-09-30T07:47:39Z</time>
      </trkpt>
      <trkpt lat="47.64341" lon="6.17812">
        <ele>223.15</ele>
        <time>2020-09-30T07:47:42Z</time>
      </trkpt>
      <trkpt lat="47.64326" lon="6.17798">
        <ele>223.15</ele>
        <time>2020-09-30T07:47:43Z</time>
      </trkpt>
      <trkpt lat="47.64321" lon="6.17794">
        <ele>223.15</ele>
        <time>2020-09-30T07:47:44Z</time>
      </trkpt>
      <trkpt lat="47.64316" lon="6.17791">
        <ele>223.15</ele>
        <time>2020-09-30T07:47:45Z</time>
      </trkpt>
      <trkpt lat="47.6431" lon="6.17788">
        <ele>223.15</ele>
        <time>2020-09-30T07:47:46Z</time>
      </trkpt>
      <trkpt lat="47.64305" lon="6.17784">
        <ele>224.41</ele>
        <time>2020-09-30T07:47:47Z</time>
      </trkpt>
      <trkpt lat="47.643" lon="6.1778">
        <ele>224.8</ele>
        <time>2020-09-30T07:47:48Z</time>
      </trkpt>
      <trkpt lat="47.64296" lon="6.17777">
        <ele>224.93</ele>
        <time>2020-09-30T07:47:49Z</time>
      </trkpt>
      <trkpt lat="47.64292" lon="6.17773">
        <ele>224.96</ele>
        <time>2020-09-30T07:47:50Z</time>
      </trkpt>
      <trkpt lat="47.64288" lon="6.17771">
        <ele>224.97</ele>
        <time>2020-09-30T07:47:51Z</time>
      </trkpt>
      <trkpt lat="47.6428" lon="6.17767">
        <ele>224.94</ele>
        <time>2020-09-30T07:47:53Z</time>
      </trkpt>
      <trkpt lat="47.64273" lon="6.17762">
        <ele>224.89</ele>
        <time>2020-09-30T07:47:55Z</time>
      </trkpt>
      <trkpt lat="47.64265" lon="6.17758">
        <ele>224.85</ele>
        <time>2020-09-30T07:47:57Z</time>
      </trkpt>
      <trkpt lat="47.64258" lon="6.17754">
        <ele>224.83</ele>
        <time>2020-09-30T07:48:01Z</time>
      </trkpt>
      <trkpt lat="47.64247" lon="6.17747">
        <ele>224.75</ele>
        <time>2020-09-30T07:48:02Z</time>
      </trkpt>
      <trkpt lat="47.64243" lon="6.17744">
        <ele>224.73</ele>
        <time>2020-09-30T07:48:03Z</time>
      </trkpt>
      <trkpt lat="47.64237" lon="6.17739">
        <ele>224.71</ele>
        <time>2020-09-30T07:48:06Z</time>
      </trkpt>
      <trkpt lat="47.64224" lon="6.17726">
        <ele>224.64</ele>
        <time>2020-09-30T07:48:08Z</time>
      </trkpt>
      <trkpt lat="47.64217" lon="6.17719">
        <ele>224.6</ele>
        <time>2020-09-30T07:48:10Z</time>
      </trkpt>
      <trkpt lat="47.64211" lon="6.17712">
        <ele>224.58</ele>
        <time>2020-09-30T07:48:13Z</time>
      </trkpt>
      <trkpt lat="47.64203" lon="6.17702">
        <ele>224.5</ele>
        <time>2020-09-30T07:48:14Z</time>
      </trkpt>
      <trkpt lat="47.64198" lon="6.17695">
        <ele>224.47</ele>
        <time>2020-09-30T07:48:17Z</time>
      </trkpt>
      <trkpt lat="47.64195" lon="6.1769">
        <ele>224.46</ele>
        <time>2020-09-30T07:48:18Z</time>
      </trkpt>
      <trkpt lat="47.64187" lon="6.17679">
        <ele>224.38</ele>
        <time>2020-09-30T07:48:19Z</time>
      </trkpt>
      <trkpt lat="47.6418" lon="6.17671">
        <ele>224.34</ele>
        <time>2020-09-30T07:48:23Z</time>
      </trkpt>
      <trkpt lat="47.64176" lon="6.17666">
        <ele>224.29</ele>
        <time>2020-09-30T07:48:24Z</time>
      </trkpt>
      <trkpt lat="47.64173" lon="6.17662">
        <ele>224.26</ele>
        <time>2020-09-30T07:48:25Z</time>
      </trkpt>
      <trkpt lat="47.64168" lon="6.17655">
        <ele>224.18</ele>
        <time>2020-09-30T07:48:27Z</time>
      </trkpt>
      <trkpt lat="47.64159" lon="6.17643">
        <ele>224.07</ele>
        <time>2020-09-30T07:48:30Z</time>
      </trkpt>
      <trkpt lat="47.64152" lon="6.17633">
        <ele>223.99</ele>
        <time>2020-09-30T07:48:31Z</time>
      </trkpt>
      <trkpt lat="47.64146" lon="6.17626">
        <ele>223.98</ele>
        <time>2020-09-30T07:48:33Z</time>
      </trkpt>
      <trkpt lat="47.64142" lon="6.1762">
        <ele>223.98</ele>
        <time>2020-09-30T07:48:36Z</time>
      </trkpt>
      <trkpt lat="47.64137" lon="6.17613">
        <ele>223.99</ele>
        <time>2020-09-30T07:48:38Z</time>
      </trkpt>
      <trkpt lat="47.64134" lon="6.17608">
        <ele>224</ele>
        <time>2020-09-30T07:48:40Z</time>
      </trkpt>
      <trkpt lat="47.64129" lon="6.17601">
        <ele>224.03</ele>
        <time>2020-09-30T07:48:41Z</time>
      </trkpt>
      <trkpt lat="47.64125" lon="6.17596">
        <ele>224.05</ele>
        <time>2020-09-30T07:48:43Z</time>
      </trkpt>
      <trkpt lat="47.64117" lon="6.17584">
        <ele>224.11</ele>
        <time>2020-09-30T07:48:45Z</time>
      </trkpt>
      <trkpt lat="47.64113" lon="6.17579">
        <ele>224.15</ele>
        <time>2020-09-30T07:48:47Z</time>
      </trkpt>
      <trkpt lat="47.64108" lon="6.17573">
        <ele>224.22</ele>
        <time>2020-09-30T07:48:48Z</time>
      </trkpt>
      <trkpt lat="47.64098" lon="6.17559">
        <ele>224.41</ele>
        <time>2020-09-30T07:48:50Z</time>
      </trkpt>
      <trkpt lat="47.64094" lon="6.17554">
        <ele>224.49</ele>
        <time>2020-09-30T07:48:53Z</time>
      </trkpt>
      <trkpt lat="47.64091" lon="6.17549">
        <ele>224.58</ele>
        <time>2020-09-30T07:48:54Z</time>
      </trkpt>
      <trkpt lat="47.64084" lon="6.17541">
        <ele>224.61</ele>
        <time>2020-09-30T07:48:55Z</time>
      </trkpt>
      <trkpt lat="47.6408" lon="6.17536">
        <ele>224.63</ele>
        <time>2020-09-30T07:48:58Z</time>
      </trkpt>
      <trkpt lat="47.64074" lon="6.17528">
        <ele>224.67</ele>
        <time>2020-09-30T07:49:01Z</time>
      </trkpt>
      <trkpt lat="47.64068" lon="6.1752">
        <ele>224.87</ele>
        <time>2020-09-30T07:49:03Z</time>
      </trkpt>
      <trkpt lat="47.64065" lon="6.17515">
        <ele>225.03</ele>
        <time>2020-09-30T07:49:04Z</time>
      </trkpt>
      <trkpt lat="47.64055" lon="6.17503">
        <ele>225.32</ele>
        <time>2020-09-30T07:49:08Z</time>
      </trkpt>
      <trkpt lat="47.64051" lon="6.17498">
        <ele>225.49</ele>
        <time>2020-09-30T07:49:09Z</time>
      </trkpt>
      <trkpt lat="47.64047" lon="6.17493">
        <ele>225.55</ele>
        <time>2020-09-30T07:49:10Z</time>
      </trkpt>
      <trkpt lat="47.6404" lon="6.17483">
        <ele>225.64</ele>
        <time>2020-09-30T07:49:11Z</time>
      </trkpt>
      <trkpt lat="47.64035" lon="6.17475">
        <ele>225.66</ele>
        <time>2020-09-30T07:49:14Z</time>
      </trkpt>
      <trkpt lat="47.64032" lon="6.1747">
        <ele>225.62</ele>
        <time>2020-09-30T07:49:16Z</time>
      </trkpt>
      <trkpt lat="47.64028" lon="6.17464">
        <ele>225.59</ele>
        <time>2020-09-30T07:49:17Z</time>
      </trkpt>
      <trkpt lat="47.64022" lon="6.17455">
        <ele>225.53</ele>
        <time>2020-09-30T07:49:19Z</time>
      </trkpt>
      <trkpt lat="47.64019" lon="6.1745">
        <ele>225.49</ele>
        <time>2020-09-30T07:49:20Z</time>
      </trkpt>
      <trkpt lat="47.64013" lon="6.17442">
        <ele>225.47</ele>
        <time>2020-09-30T07:49:22Z</time>
      </trkpt>
      <trkpt lat="47.64008" lon="6.17434">
        <ele>225.48</ele>
        <time>2020-09-30T07:49:23Z</time>
      </trkpt>
      <trkpt lat="47.63999" lon="6.17431">
        <ele>225.48</ele>
        <time>2020-09-30T07:49:26Z</time>
      </trkpt>
      <trkpt lat="47.63994" lon="6.17424">
        <ele>225.48</ele>
        <time>2020-09-30T07:49:29Z</time>
      </trkpt>
      <trkpt lat="47.63986" lon="6.17411">
        <ele>225.5</ele>
        <time>2020-09-30T07:49:33Z</time>
      </trkpt>
      <trkpt lat="47.63981" lon="6.17406">
        <ele>225.51</ele>
        <time>2020-09-30T07:49:35Z</time>
      </trkpt>
      <trkpt lat="47.63975" lon="6.17402">
        <ele>225.52</ele>
        <time>2020-09-30T07:49:36Z</time>
      </trkpt>
      <trkpt lat="47.63969" lon="6.17398">
        <ele>225.53</ele>
        <time>2020-09-30T07:49:38Z</time>
      </trkpt>
      <trkpt lat="47.63965" lon="6.17395">
        <ele>225.53</ele>
        <time>2020-09-30T07:49:39Z</time>
      </trkpt>
      <trkpt lat="47.63959" lon="6.17391">
        <ele>225.54</ele>
        <time>2020-09-30T07:49:40Z</time>
      </trkpt>
      <trkpt lat="47.63953" lon="6.17387">
        <ele>225.54</ele>
        <time>2020-09-30T07:49:43Z</time>
      </trkpt>
      <trkpt lat="47.63943" lon="6.1738">
        <ele>225.55</ele>
        <time>2020-09-30T07:49:46Z</time>
      </trkpt>
      <trkpt lat="47.63936" lon="6.17374">
        <ele>225.55</ele>
        <time>2020-09-30T07:49:49Z</time>
      </trkpt>
      <trkpt lat="47.63931" lon="6.1737">
        <ele>225.56</ele>
        <time>2020-09-30T07:49:50Z</time>
      </trkpt>
      <trkpt lat="47.63921" lon="6.17359">
        <ele>225.58</ele>
        <time>2020-09-30T07:49:52Z</time>
      </trkpt>
      <trkpt lat="47.63916" lon="6.17352">
        <ele>225.59</ele>
        <time>2020-09-30T07:49:56Z</time>
      </trkpt>
      <trkpt lat="47.63911" lon="6.17347">
        <ele>225.6</ele>
        <time>2020-09-30T07:49:58Z</time>
      </trkpt>
      <trkpt lat="47.63902" lon="6.17336">
        <ele>225.63</ele>
        <time>2020-09-30T07:50:01Z</time>
      </trkpt>
      <trkpt lat="47.63896" lon="6.1733">
        <ele>225.64</ele>
        <time>2020-09-30T07:50:04Z</time>
      </trkpt>
      <trkpt lat="47.63886" lon="6.17319">
        <ele>225.69</ele>
        <time>2020-09-30T07:50:06Z</time>
      </trkpt>
      <trkpt lat="47.63881" lon="6.17313">
        <ele>225.7</ele>
        <time>2020-09-30T07:50:08Z</time>
      </trkpt>
      <trkpt lat="47.63876" lon="6.17307">
        <ele>225.71</ele>
        <time>2020-09-30T07:50:12Z</time>
      </trkpt>
      <trkpt lat="47.63872" lon="6.17302">
        <ele>225.72</ele>
        <time>2020-09-30T07:50:13Z</time>
      </trkpt>
      <trkpt lat="47.63867" lon="6.17295">
        <ele>225.79</ele>
        <time>2020-09-30T07:50:16Z</time>
      </trkpt>
      <trkpt lat="47.63858" lon="6.17285">
        <ele>225.83</ele>
        <time>2020-09-30T07:50:18Z</time>
      </trkpt>
      <trkpt lat="47.63849" lon="6.17275">
        <ele>225.86</ele>
        <time>2020-09-30T07:50:21Z</time>
      </trkpt>
      <trkpt lat="47.6384" lon="6.17266">
        <ele>225.92</ele>
        <time>2020-09-30T07:50:25Z</time>
      </trkpt>
      <trkpt lat="47.63835" lon="6.17259">
        <ele>226.01</ele>
        <time>2020-09-30T07:50:26Z</time>
      </trkpt>
      <trkpt lat="47.63831" lon="6.17253">
        <ele>226.07</ele>
        <time>2020-09-30T07:50:28Z</time>
      </trkpt>
      <trkpt lat="47.63822" lon="6.17239">
        <ele>226.2</ele>
        <time>2020-09-30T07:50:29Z</time>
      </trkpt>
      <trkpt lat="47.63817" lon="6.17232">
        <ele>226.26</ele>
        <time>2020-09-30T07:50:32Z</time>
      </trkpt>
      <trkpt lat="47.63809" lon="6.17218">
        <ele>226.37</ele>
        <time>2020-09-30T07:50:35Z</time>
      </trkpt>
      <trkpt lat="47.63802" lon="6.17204">
        <ele>226.47</ele>
        <time>2020-09-30T07:50:38Z</time>
      </trkpt>
      <trkpt lat="47.63799" lon="6.17199">
        <ele>226.5</ele>
        <time>2020-09-30T07:50:40Z</time>
      </trkpt>
      <trkpt lat="47.63795" lon="6.17192">
        <ele>226.54</ele>
        <time>2020-09-30T07:50:41Z</time>
      </trkpt>
      <trkpt lat="47.63791" lon="6.17186">
        <ele>226.56</ele>
        <time>2020-09-30T07:50:42Z</time>
      </trkpt>
      <trkpt lat="47.63787" lon="6.1718">
        <ele>226.58</ele>
        <time>2020-09-30T07:50:44Z</time>
      </trkpt>
      <trkpt lat="47.63784" lon="6.17174">
        <ele>226.61</ele>
        <time>2020-09-30T07:50:45Z</time>
      </trkpt>
      <trkpt lat="47.6378" lon="6.17168">
        <ele>226.64</ele>
        <time>2020-09-30T07:50:47Z</time>
      </trkpt>
      <trkpt lat="47.63772" lon="6.17154">
        <ele>226.67</ele>
        <time>2020-09-30T07:50:50Z</time>
      </trkpt>
      <trkpt lat="47.63768" lon="6.17147">
        <ele>226.7</ele>
        <time>2020-09-30T07:50:51Z</time>
      </trkpt>
      <trkpt lat="47.63759" lon="6.17131">
        <ele>226.73</ele>
        <time>2020-09-30T07:50:55Z</time>
      </trkpt>
      <trkpt lat="47.63754" lon="6.17124">
        <ele>226.76</ele>
        <time>2020-09-30T07:50:56Z</time>
      </trkpt>
      <trkpt lat="47.63749" lon="6.17115">
        <ele>226.78</ele>
        <time>2020-09-30T07:50:58Z</time>
      </trkpt>
      <trkpt lat="47.6374" lon="6.171">
        <ele>226.79</ele>
        <time>2020-09-30T07:51:00Z</time>
      </trkpt>
      <trkpt lat="47.63736" lon="6.17093">
        <ele>226.79</ele>
        <time>2020-09-30T07:51:03Z</time>
      </trkpt>
      <trkpt lat="47.63728" lon="6.1708">
        <ele>226.79</ele>
        <time>2020-09-30T07:51:05Z</time>
      </trkpt>
      <trkpt lat="47.63722" lon="6.17072">
        <ele>226.79</ele>
        <time>2020-09-30T07:51:09Z</time>
      </trkpt>
      <trkpt lat="47.63718" lon="6.17066">
        <ele>226.79</ele>
        <time>2020-09-30T07:51:10Z</time>
      </trkpt>
      <trkpt lat="47.63713" lon="6.17057">
        <ele>226.79</ele>
        <time>2020-09-30T07:51:13Z</time>
      </trkpt>
      <trkpt lat="47.63704" lon="6.17043">
        <ele>226.81</ele>
        <time>2020-09-30T07:51:14Z</time>
      </trkpt>
      <trkpt lat="47.63701" lon="6.17037">
        <ele>226.83</ele>
        <time>2020-09-30T07:51:17Z</time>
      </trkpt>
      <trkpt lat="47.63696" lon="6.17031">
        <ele>226.85</ele>
        <time>2020-09-30T07:51:19Z</time>
      </trkpt>
      <trkpt lat="47.63687" lon="6.17016">
        <ele>226.89</ele>
        <time>2020-09-30T07:51:21Z</time>
      </trkpt>
      <trkpt lat="47.63682" lon="6.17008">
        <ele>226.9</ele>
        <time>2020-09-30T07:51:25Z</time>
      </trkpt>
      <trkpt lat="47.63679" lon="6.17002">
        <ele>226.9</ele>
        <time>2020-09-30T07:51:26Z</time>
      </trkpt>
      <trkpt lat="47.63673" lon="6.16993">
        <ele>226.9</ele>
        <time>2020-09-30T07:51:28Z</time>
      </trkpt>
      <trkpt lat="47.63669" lon="6.16987">
        <ele>226.9</ele>
        <time>2020-09-30T07:51:30Z</time>
      </trkpt>
      <trkpt lat="47.63662" lon="6.16974">
        <ele>226.9</ele>
        <time>2020-09-30T07:51:33Z</time>
      </trkpt>
      <trkpt lat="47.63658" lon="6.16969">
        <ele>226.9</ele>
        <time>2020-09-30T07:51:34Z</time>
      </trkpt>
      <trkpt lat="47.63652" lon="6.16968">
        <ele>226.9</ele>
        <time>2020-09-30T07:51:36Z</time>
      </trkpt>
      <trkpt lat="47.63647" lon="6.16971">
        <ele>226.9</ele>
        <time>2020-09-30T07:51:39Z</time>
      </trkpt>
      <trkpt lat="47.63637" lon="6.16983">
        <ele>226.86</ele>
        <time>2020-09-30T07:51:44Z</time>
      </trkpt>
      <trkpt lat="47.63631" lon="6.1699">
        <ele>226.84</ele>
        <time>2020-09-30T07:51:46Z</time>
      </trkpt>
      <trkpt lat="47.63627" lon="6.16996">
        <ele>226.82</ele>
        <time>2020-09-30T07:51:48Z</time>
      </trkpt>
      <trkpt lat="47.63621" lon="6.17004">
        <ele>226.79</ele>
        <time>2020-09-30T07:51:51Z</time>
      </trkpt>
      <trkpt lat="47.63618" lon="6.17009">
        <ele>226.77</ele>
        <time>2020-09-30T07:51:52Z</time>
      </trkpt>
      <trkpt lat="47.63615" lon="6.17014">
        <ele>226.76</ele>
        <time>2020-09-30T07:51:53Z</time>
      </trkpt>
      <trkpt lat="47.63609" lon="6.17021">
        <ele>226.66</ele>
        <time>2020-09-30T07:51:55Z</time>
      </trkpt>
      <trkpt lat="47.63606" lon="6.17026">
        <ele>226.56</ele>
        <time>2020-09-30T07:51:56Z</time>
      </trkpt>
      <trkpt lat="47.63598" lon="6.17038">
        <ele>226.32</ele>
        <time>2020-09-30T07:51:59Z</time>
      </trkpt>
      <trkpt lat="47.63588" lon="6.17056">
        <ele>226.29</ele>
        <time>2020-09-30T07:52:03Z</time>
      </trkpt>
      <trkpt lat="47.63588" lon="6.17074">
        <ele>226.27</ele>
        <time>2020-09-30T07:52:07Z</time>
      </trkpt>
      <trkpt lat="47.63588" lon="6.17085">
        <ele>226.26</ele>
        <time>2020-09-30T07:52:09Z</time>
      </trkpt>
      <trkpt lat="47.63589" lon="6.17094">
        <ele>226.25</ele>
        <time>2020-09-30T07:52:11Z</time>
      </trkpt>
      <trkpt lat="47.63591" lon="6.17111">
        <ele>226.24</ele>
        <time>2020-09-30T07:52:14Z</time>
      </trkpt>
      <trkpt lat="47.63591" lon="6.17122">
        <ele>226.23</ele>
        <time>2020-09-30T07:52:16Z</time>
      </trkpt>
      <trkpt lat="47.63591" lon="6.17129">
        <ele>226.23</ele>
        <time>2020-09-30T07:52:18Z</time>
      </trkpt>
      <trkpt lat="47.63591" lon="6.17139">
        <ele>226.19</ele>
        <time>2020-09-30T07:52:20Z</time>
      </trkpt>
      <trkpt lat="47.63587" lon="6.17144">
        <ele>226.19</ele>
        <time>2020-09-30T07:52:22Z</time>
      </trkpt>
      <trkpt lat="47.63582" lon="6.17144">
        <ele>226.18</ele>
        <time>2020-09-30T07:52:24Z</time>
      </trkpt>
      <trkpt lat="47.63576" lon="6.17144">
        <ele>226.17</ele>
        <time>2020-09-30T07:52:26Z</time>
      </trkpt>
      <trkpt lat="47.63569" lon="6.17144">
        <ele>226.17</ele>
        <time>2020-09-30T07:52:29Z</time>
      </trkpt>
      <trkpt lat="47.63563" lon="6.17145">
        <ele>226.16</ele>
        <time>2020-09-30T07:52:31Z</time>
      </trkpt>
      <trkpt lat="47.63559" lon="6.17145">
        <ele>226.15</ele>
        <time>2020-09-30T07:52:32Z</time>
      </trkpt>
      <trkpt lat="47.63552" lon="6.17145">
        <ele>226.13</ele>
        <time>2020-09-30T07:52:33Z</time>
      </trkpt>
      <trkpt lat="47.63546" lon="6.17146">
        <ele>226.13</ele>
        <time>2020-09-30T07:52:37Z</time>
      </trkpt>
      <trkpt lat="47.63541" lon="6.17147">
        <ele>226.12</ele>
        <time>2020-09-30T07:52:39Z</time>
      </trkpt>
      <trkpt lat="47.63535" lon="6.17148">
        <ele>226.1</ele>
        <time>2020-09-30T07:52:40Z</time>
      </trkpt>
      <trkpt lat="47.6353" lon="6.17151">
        <ele>226.09</ele>
        <time>2020-09-30T07:52:42Z</time>
      </trkpt>
      <trkpt lat="47.63524" lon="6.17152">
        <ele>226.07</ele>
        <time>2020-09-30T07:52:44Z</time>
      </trkpt>
      <trkpt lat="47.63519" lon="6.17152">
        <ele>226.05</ele>
        <time>2020-09-30T07:52:45Z</time>
      </trkpt>
      <trkpt lat="47.63514" lon="6.17152">
        <ele>226.04</ele>
        <time>2020-09-30T07:52:49Z</time>
      </trkpt>
      <trkpt lat="47.63508" lon="6.17151">
        <ele>226.02</ele>
        <time>2020-09-30T07:52:52Z</time>
      </trkpt>
      <trkpt lat="47.63503" lon="6.17151">
        <ele>226</ele>
        <time>2020-09-30T07:52:54Z</time>
      </trkpt>
      <trkpt lat="47.63497" lon="6.1715">
        <ele>225.99</ele>
        <time>2020-09-30T07:52:56Z</time>
      </trkpt>
      <trkpt lat="47.63491" lon="6.1715">
        <ele>225.97</ele>
        <time>2020-09-30T07:52:59Z</time>
      </trkpt>
      <trkpt lat="47.63478" lon="6.17151">
        <ele>225.9</ele>
        <time>2020-09-30T07:53:03Z</time>
      </trkpt>
      <trkpt lat="47.63473" lon="6.17151">
        <ele>225.8</ele>
        <time>2020-09-30T07:53:04Z</time>
      </trkpt>
      <trkpt lat="47.63468" lon="6.17152">
        <ele>225.78</ele>
        <time>2020-09-30T07:53:05Z</time>
      </trkpt>
      <trkpt lat="47.63455" lon="6.17152">
        <ele>225.76</ele>
        <time>2020-09-30T07:53:09Z</time>
      </trkpt>
      <trkpt lat="47.63448" lon="6.17151">
        <ele>225.76</ele>
        <time>2020-09-30T07:53:10Z</time>
      </trkpt>
      <trkpt lat="47.63441" lon="6.1715">
        <ele>225.75</ele>
        <time>2020-09-30T07:53:12Z</time>
      </trkpt>
      <trkpt lat="47.63436" lon="6.1715">
        <ele>225.74</ele>
        <time>2020-09-30T07:53:14Z</time>
      </trkpt>
      <trkpt lat="47.63431" lon="6.1715">
        <ele>225.74</ele>
        <time>2020-09-30T07:53:15Z</time>
      </trkpt>
      <trkpt lat="47.63418" lon="6.17152">
        <ele>225.69</ele>
        <time>2020-09-30T07:53:19Z</time>
      </trkpt>
      <trkpt lat="47.634" lon="6.17152">
        <ele>225.59</ele>
        <time>2020-09-30T07:53:22Z</time>
      </trkpt>
      <trkpt lat="47.63385" lon="6.17141">
        <ele>225.56</ele>
        <time>2020-09-30T07:53:24Z</time>
      </trkpt>
      <trkpt lat="47.6338" lon="6.17137">
        <ele>225.56</ele>
        <time>2020-09-30T07:53:25Z</time>
      </trkpt>
      <trkpt lat="47.63373" lon="6.1713">
        <ele>225.57</ele>
        <time>2020-09-30T07:53:27Z</time>
      </trkpt>
      <trkpt lat="47.63367" lon="6.17124">
        <ele>225.57</ele>
        <time>2020-09-30T07:53:30Z</time>
      </trkpt>
      <trkpt lat="47.63363" lon="6.17121">
        <ele>225.59</ele>
        <time>2020-09-30T07:53:32Z</time>
      </trkpt>
      <trkpt lat="47.63356" lon="6.17118">
        <ele>225.59</ele>
        <time>2020-09-30T07:53:33Z</time>
      </trkpt>
      <trkpt lat="47.63351" lon="6.17116">
        <ele>225.6</ele>
        <time>2020-09-30T07:53:35Z</time>
      </trkpt>
      <trkpt lat="47.63343" lon="6.17115">
        <ele>225.61</ele>
        <time>2020-09-30T07:53:37Z</time>
      </trkpt>
      <trkpt lat="47.63332" lon="6.17114">
        <ele>225.62</ele>
        <time>2020-09-30T07:53:39Z</time>
      </trkpt>
      <trkpt lat="47.63324" lon="6.17112">
        <ele>225.62</ele>
        <time>2020-09-30T07:53:41Z</time>
      </trkpt>
      <trkpt lat="47.63319" lon="6.17111">
        <ele>225.61</ele>
        <time>2020-09-30T07:53:43Z</time>
      </trkpt>
      <trkpt lat="47.63312" lon="6.17109">
        <ele>225.61</ele>
        <time>2020-09-30T07:53:44Z</time>
      </trkpt>
      <trkpt lat="47.63306" lon="6.17106">
        <ele>225.61</ele>
        <time>2020-09-30T07:53:46Z</time>
      </trkpt>
      <trkpt lat="47.63301" lon="6.17104">
        <ele>225.61</ele>
        <time>2020-09-30T07:53:48Z</time>
      </trkpt>
      <trkpt lat="47.63295" lon="6.171">
        <ele>225.61</ele>
        <time>2020-09-30T07:53:50Z</time>
      </trkpt>
      <trkpt lat="47.6329" lon="6.17096">
        <ele>225.6</ele>
        <time>2020-09-30T07:53:52Z</time>
      </trkpt>
      <trkpt lat="47.63281" lon="6.17089">
        <ele>225.6</ele>
        <time>2020-09-30T07:53:54Z</time>
      </trkpt>
      <trkpt lat="47.63274" lon="6.17085">
        <ele>225.59</ele>
        <time>2020-09-30T07:53:57Z</time>
      </trkpt>
      <trkpt lat="47.63268" lon="6.17084">
        <ele>225.59</ele>
        <time>2020-09-30T07:53:58Z</time>
      </trkpt>
      <trkpt lat="47.63257" lon="6.17084">
        <ele>225.58</ele>
        <time>2020-09-30T07:54:02Z</time>
      </trkpt>
      <trkpt lat="47.63252" lon="6.17085">
        <ele>225.58</ele>
        <time>2020-09-30T07:54:03Z</time>
      </trkpt>
      <trkpt lat="47.63241" lon="6.17088">
        <ele>225.57</ele>
        <time>2020-09-30T07:54:06Z</time>
      </trkpt>
      <trkpt lat="47.63236" lon="6.17091">
        <ele>225.56</ele>
        <time>2020-09-30T07:54:08Z</time>
      </trkpt>
      <trkpt lat="47.63231" lon="6.17093">
        <ele>225.56</ele>
        <time>2020-09-30T07:54:10Z</time>
      </trkpt>
      <trkpt lat="47.63226" lon="6.17096">
        <ele>225.55</ele>
        <time>2020-09-30T07:54:12Z</time>
      </trkpt>
      <trkpt lat="47.63219" lon="6.17099">
        <ele>225.54</ele>
        <time>2020-09-30T07:54:13Z</time>
      </trkpt>
      <trkpt lat="47.63215" lon="6.17102">
        <ele>225.53</ele>
        <time>2020-09-30T07:54:18Z</time>
      </trkpt>
      <trkpt lat="47.63211" lon="6.17106">
        <ele>225.52</ele>
        <time>2020-09-30T07:54:21Z</time>
      </trkpt>
      <trkpt lat="47.63206" lon="6.17108">
        <ele>225.52</ele>
        <time>2020-09-30T07:54:24Z</time>
      </trkpt>
      <trkpt lat="47.63201" lon="6.1711">
        <ele>225.52</ele>
        <time>2020-09-30T07:54:26Z</time>
      </trkpt>
      <trkpt lat="47.63196" lon="6.17113">
        <ele>225.52</ele>
        <time>2020-09-30T07:54:27Z</time>
      </trkpt>
      <trkpt lat="47.6319" lon="6.17115">
        <ele>225.5</ele>
        <time>2020-09-30T07:54:29Z</time>
      </trkpt>
      <trkpt lat="47.63186" lon="6.17117">
        <ele>225.49</ele>
        <time>2020-09-30T07:54:31Z</time>
      </trkpt>
      <trkpt lat="47.63178" lon="6.17117">
        <ele>225.47</ele>
        <time>2020-09-30T07:54:33Z</time>
      </trkpt>
      <trkpt lat="47.63162" lon="6.17113">
        <ele>225.43</ele>
        <time>2020-09-30T07:54:36Z</time>
      </trkpt>
      <trkpt lat="47.63148" lon="6.17108">
        <ele>225.41</ele>
        <time>2020-09-30T07:54:38Z</time>
      </trkpt>
      <trkpt lat="47.63142" lon="6.17103">
        <ele>225.41</ele>
        <time>2020-09-30T07:54:42Z</time>
      </trkpt>
      <trkpt lat="47.63133" lon="6.17094">
        <ele>225.4</ele>
        <time>2020-09-30T07:54:45Z</time>
      </trkpt>
      <trkpt lat="47.63129" lon="6.17091">
        <ele>225.4</ele>
        <time>2020-09-30T07:54:47Z</time>
      </trkpt>
      <trkpt lat="47.63124" lon="6.17088">
        <ele>225.39</ele>
        <time>2020-09-30T07:54:48Z</time>
      </trkpt>
      <trkpt lat="47.63117" lon="6.17084">
        <ele>225.38</ele>
        <time>2020-09-30T07:54:51Z</time>
      </trkpt>
      <trkpt lat="47.63111" lon="6.17083">
        <ele>225.35</ele>
        <time>2020-09-30T07:54:52Z</time>
      </trkpt>
      <trkpt lat="47.63106" lon="6.17082">
        <ele>225.33</ele>
        <time>2020-09-30T07:54:53Z</time>
      </trkpt>
      <trkpt lat="47.63096" lon="6.17079">
        <ele>225.32</ele>
        <time>2020-09-30T07:54:56Z</time>
      </trkpt>
      <trkpt lat="47.63091" lon="6.17078">
        <ele>225.31</ele>
        <time>2020-09-30T07:54:57Z</time>
      </trkpt>
      <trkpt lat="47.63085" lon="6.17076">
        <ele>225.31</ele>
        <time>2020-09-30T07:54:59Z</time>
      </trkpt>
      <trkpt lat="47.63073" lon="6.17074">
        <ele>225.3</ele>
        <time>2020-09-30T07:55:02Z</time>
      </trkpt>
      <trkpt lat="47.63067" lon="6.17073">
        <ele>225.28</ele>
        <time>2020-09-30T07:55:04Z</time>
      </trkpt>
      <trkpt lat="47.63059" lon="6.17071">
        <ele>225.28</ele>
        <time>2020-09-30T07:55:06Z</time>
      </trkpt>
      <trkpt lat="47.63051" lon="6.17069">
        <ele>225.27</ele>
        <time>2020-09-30T07:55:09Z</time>
      </trkpt>
      <trkpt lat="47.63039" lon="6.17067">
        <ele>225.26</ele>
        <time>2020-09-30T07:55:10Z</time>
      </trkpt>
      <trkpt lat="47.63032" lon="6.17066">
        <ele>225.25</ele>
        <time>2020-09-30T07:55:15Z</time>
      </trkpt>
      <trkpt lat="47.63025" lon="6.17066">
        <ele>225.24</ele>
        <time>2020-09-30T07:55:17Z</time>
      </trkpt>
      <trkpt lat="47.63013" lon="6.17064">
        <ele>225.24</ele>
        <time>2020-09-30T07:55:21Z</time>
      </trkpt>
      <trkpt lat="47.63007" lon="6.1706">
        <ele>225.25</ele>
        <time>2020-09-30T07:55:23Z</time>
      </trkpt>
      <trkpt lat="47.63001" lon="6.17054">
        <ele>225.25</ele>
        <time>2020-09-30T07:55:24Z</time>
      </trkpt>
      <trkpt lat="47.62996" lon="6.17048">
        <ele>225.25</ele>
        <time>2020-09-30T07:55:25Z</time>
      </trkpt>
      <trkpt lat="47.62992" lon="6.17042">
        <ele>225.25</ele>
        <time>2020-09-30T07:55:27Z</time>
      </trkpt>
      <trkpt lat="47.62988" lon="6.17036">
        <ele>225.24</ele>
        <time>2020-09-30T07:55:28Z</time>
      </trkpt>
      <trkpt lat="47.62982" lon="6.1702">
        <ele>225.24</ele>
        <time>2020-09-30T07:55:29Z</time>
      </trkpt>
      <trkpt lat="47.62979" lon="6.17014">
        <ele>225.23</ele>
        <time>2020-09-30T07:55:31Z</time>
      </trkpt>
      <trkpt lat="47.62974" lon="6.17011">
        <ele>225.23</ele>
        <time>2020-09-30T07:55:33Z</time>
      </trkpt>
      <trkpt lat="47.62969" lon="6.17004">
        <ele>225.22</ele>
        <time>2020-09-30T07:55:39Z</time>
      </trkpt>
      <trkpt lat="47.62965" lon="6.17">
        <ele>225.19</ele>
        <time>2020-09-30T07:55:40Z</time>
      </trkpt>
      <trkpt lat="47.62961" lon="6.16996">
        <ele>225.18</ele>
        <time>2020-09-30T07:55:42Z</time>
      </trkpt>
      <trkpt lat="47.62955" lon="6.16989">
        <ele>225.12</ele>
        <time>2020-09-30T07:55:44Z</time>
      </trkpt>
      <trkpt lat="47.62949" lon="6.16984">
        <ele>225.1</ele>
        <time>2020-09-30T07:55:46Z</time>
      </trkpt>
      <trkpt lat="47.62942" lon="6.16979">
        <ele>225.1</ele>
        <time>2020-09-30T07:55:48Z</time>
      </trkpt>
      <trkpt lat="47.62938" lon="6.16976">
        <ele>225.09</ele>
        <time>2020-09-30T07:55:50Z</time>
      </trkpt>
      <trkpt lat="47.62933" lon="6.1698">
        <ele>225.1</ele>
        <time>2020-09-30T07:55:50Z</time>
      </trkpt>
      <trkpt lat="47.62931" lon="6.16991">
        <ele>225.1</ele>
        <time>2020-09-30T07:55:54Z</time>
      </trkpt>
      <trkpt lat="47.62932" lon="6.16999">
        <ele>225.1</ele>
        <time>2020-09-30T07:55:59Z</time>
      </trkpt>
      <trkpt lat="47.62933" lon="6.17006">
        <ele>225.09</ele>
        <time>2020-09-30T07:56:01Z</time>
      </trkpt>
      <trkpt lat="47.62933" lon="6.17015">
        <ele>225.09</ele>
        <time>2020-09-30T07:56:03Z</time>
      </trkpt>
      <trkpt lat="47.62934" lon="6.17024">
        <ele>225.08</ele>
        <time>2020-09-30T07:56:04Z</time>
      </trkpt>
      <trkpt lat="47.62934" lon="6.17034">
        <ele>225.08</ele>
        <time>2020-09-30T07:56:07Z</time>
      </trkpt>
      <trkpt lat="47.62931" lon="6.17041">
        <ele>225.07</ele>
        <time>2020-09-30T07:56:09Z</time>
      </trkpt>
      <trkpt lat="47.62927" lon="6.17038">
        <ele>225.06</ele>
        <time>2020-09-30T07:56:12Z</time>
      </trkpt>
      <trkpt lat="47.62923" lon="6.17033">
        <ele>225.06</ele>
        <time>2020-09-30T07:56:13Z</time>
      </trkpt>
      <trkpt lat="47.6292" lon="6.17029">
        <ele>225.06</ele>
        <time>2020-09-30T07:56:15Z</time>
      </trkpt>
      <trkpt lat="47.62915" lon="6.17023">
        <ele>225.04</ele>
        <time>2020-09-30T07:56:16Z</time>
      </trkpt>
      <trkpt lat="47.62902" lon="6.17015">
        <ele>225.03</ele>
        <time>2020-09-30T07:56:20Z</time>
      </trkpt>
      <trkpt lat="47.62892" lon="6.17008">
        <ele>225.03</ele>
        <time>2020-09-30T07:56:22Z</time>
      </trkpt>
      <trkpt lat="47.62888" lon="6.17004">
        <ele>225.03</ele>
        <time>2020-09-30T07:56:24Z</time>
      </trkpt>
      <trkpt lat="47.62882" lon="6.16998">
        <ele>225.03</ele>
        <time>2020-09-30T07:56:26Z</time>
      </trkpt>
      <trkpt lat="47.6288" lon="6.17005">
        <ele>225.03</ele>
        <time>2020-09-30T07:56:32Z</time>
      </trkpt>
      <trkpt lat="47.62875" lon="6.17004">
        <ele>220.86</ele>
        <time>2020-09-30T07:56:38Z</time>
      </trkpt>
      <trkpt lat="47.6287" lon="6.17001">
        <ele>220.46</ele>
        <time>2020-09-30T07:56:40Z</time>
      </trkpt>
      <trkpt lat="47.62865" lon="6.16999">
        <ele>220.45</ele>
        <time>2020-09-30T07:56:42Z</time>
      </trkpt>
      <trkpt lat="47.6286" lon="6.16993">
        <ele>220.45</ele>
        <time>2020-09-30T07:56:42Z</time>
      </trkpt>
      <trkpt lat="47.62852" lon="6.16985">
        <ele>220.45</ele>
        <time>2020-09-30T07:56:43Z</time>
      </trkpt>
      <trkpt lat="47.62846" lon="6.16979">
        <ele>220.45</ele>
        <time>2020-09-30T07:56:45Z</time>
      </trkpt>
      <trkpt lat="47.62837" lon="6.16963">
        <ele>220.45</ele>
        <time>2020-09-30T07:56:47Z</time>
      </trkpt>
      <trkpt lat="47.62822" lon="6.16943">
        <ele>220.45</ele>
        <time>2020-09-30T07:56:49Z</time>
      </trkpt>
      <trkpt lat="47.62816" lon="6.16934">
        <ele>220.45</ele>
        <time>2020-09-30T07:56:50Z</time>
      </trkpt>
      <trkpt lat="47.62812" lon="6.16929">
        <ele>220.45</ele>
        <time>2020-09-30T07:56:50Z</time>
      </trkpt>
      <trkpt lat="47.62807" lon="6.16923">
        <ele>220.45</ele>
        <time>2020-09-30T07:56:51Z</time>
      </trkpt>
      <trkpt lat="47.62799" lon="6.16914">
        <ele>220.45</ele>
        <time>2020-09-30T07:56:54Z</time>
      </trkpt>
      <trkpt lat="47.62794" lon="6.16908">
        <ele>220.45</ele>
        <time>2020-09-30T07:56:55Z</time>
      </trkpt>
      <trkpt lat="47.62782" lon="6.16888">
        <ele>220.45</ele>
        <time>2020-09-30T07:56:56Z</time>
      </trkpt>
      <trkpt lat="47.62777" lon="6.1688">
        <ele>220.45</ele>
        <time>2020-09-30T07:57:01Z</time>
      </trkpt>
      <trkpt lat="47.62769" lon="6.16865">
        <ele>220.45</ele>
        <time>2020-09-30T07:57:04Z</time>
      </trkpt>
      <trkpt lat="47.62764" lon="6.16857">
        <ele>220.45</ele>
        <time>2020-09-30T07:57:05Z</time>
      </trkpt>
      <trkpt lat="47.62761" lon="6.16852">
        <ele>220.45</ele>
        <time>2020-09-30T07:57:07Z</time>
      </trkpt>
      <trkpt lat="47.62754" lon="6.16839">
        <ele>220.45</ele>
        <time>2020-09-30T07:57:09Z</time>
      </trkpt>
      <trkpt lat="47.62751" lon="6.16834">
        <ele>220.45</ele>
        <time>2020-09-30T07:57:11Z</time>
      </trkpt>
      <trkpt lat="47.62746" lon="6.16827">
        <ele>220.45</ele>
        <time>2020-09-30T07:57:12Z</time>
      </trkpt>
      <trkpt lat="47.62743" lon="6.16823">
        <ele>220.45</ele>
        <time>2020-09-30T07:57:13Z</time>
      </trkpt>
      <trkpt lat="47.62739" lon="6.16818">
        <ele>220.45</ele>
        <time>2020-09-30T07:57:14Z</time>
      </trkpt>
      <trkpt lat="47.62734" lon="6.16815">
        <ele>220.45</ele>
        <time>2020-09-30T07:57:15Z</time>
      </trkpt>
      <trkpt lat="47.6273" lon="6.16813">
        <ele>220.45</ele>
        <time>2020-09-30T07:57:16Z</time>
      </trkpt>
      <trkpt lat="47.62724" lon="6.1681">
        <ele>220.45</ele>
        <time>2020-09-30T07:57:18Z</time>
      </trkpt>
      <trkpt lat="47.62719" lon="6.16808">
        <ele>220.45</ele>
        <time>2020-09-30T07:57:19Z</time>
      </trkpt>
      <trkpt lat="47.62713" lon="6.16806">
        <ele>220.45</ele>
        <time>2020-09-30T07:57:20Z</time>
      </trkpt>
      <trkpt lat="47.62708" lon="6.16804">
        <ele>220.45</ele>
        <time>2020-09-30T07:57:22Z</time>
      </trkpt>
      <trkpt lat="47.62696" lon="6.16799">
        <ele>220.45</ele>
        <time>2020-09-30T07:57:24Z</time>
      </trkpt>
      <trkpt lat="47.62691" lon="6.16795">
        <ele>220.45</ele>
        <time>2020-09-30T07:57:26Z</time>
      </trkpt>
      <trkpt lat="47.62688" lon="6.1679">
        <ele>220.45</ele>
        <time>2020-09-30T07:57:27Z</time>
      </trkpt>
      <trkpt lat="47.62684" lon="6.16784">
        <ele>220.45</ele>
        <time>2020-09-30T07:57:28Z</time>
      </trkpt>
      <trkpt lat="47.62679" lon="6.16776">
        <ele>220.45</ele>
        <time>2020-09-30T07:57:30Z</time>
      </trkpt>
      <trkpt lat="47.62674" lon="6.16766">
        <ele>220.45</ele>
        <time>2020-09-30T07:57:32Z</time>
      </trkpt>
      <trkpt lat="47.62671" lon="6.1676">
        <ele>220.45</ele>
        <time>2020-09-30T07:57:33Z</time>
      </trkpt>
      <trkpt lat="47.62666" lon="6.16754">
        <ele>220.45</ele>
        <time>2020-09-30T07:57:35Z</time>
      </trkpt>
      <trkpt lat="47.62652" lon="6.16743">
        <ele>220.45</ele>
        <time>2020-09-30T07:57:36Z</time>
      </trkpt>
      <trkpt lat="47.62644" lon="6.16739">
        <ele>224.29</ele>
        <time>2020-09-30T07:57:41Z</time>
      </trkpt>
      <trkpt lat="47.62632" lon="6.16731">
        <ele>225.93</ele>
        <time>2020-09-30T07:57:44Z</time>
      </trkpt>
      <trkpt lat="47.62618" lon="6.16722">
        <ele>226</ele>
        <time>2020-09-30T07:57:48Z</time>
      </trkpt>
      <trkpt lat="47.62612" lon="6.16718">
        <ele>226</ele>
        <time>2020-09-30T07:57:49Z</time>
      </trkpt>
      <trkpt lat="47.62606" lon="6.16716">
        <ele>226</ele>
        <time>2020-09-30T07:57:51Z</time>
      </trkpt>
      <trkpt lat="47.62597" lon="6.16718">
        <ele>226</ele>
        <time>2020-09-30T07:57:54Z</time>
      </trkpt>
      <trkpt lat="47.62592" lon="6.1672">
        <ele>226</ele>
        <time>2020-09-30T07:57:55Z</time>
      </trkpt>
      <trkpt lat="47.62589" lon="6.16724">
        <ele>225.99</ele>
        <time>2020-09-30T07:57:56Z</time>
      </trkpt>
      <trkpt lat="47.62582" lon="6.16733">
        <ele>225.97</ele>
        <time>2020-09-30T07:57:59Z</time>
      </trkpt>
      <trkpt lat="47.62576" lon="6.16738">
        <ele>225.95</ele>
        <time>2020-09-30T07:58:01Z</time>
      </trkpt>
      <trkpt lat="47.6257" lon="6.16738">
        <ele>225.95</ele>
        <time>2020-09-30T07:58:03Z</time>
      </trkpt>
      <trkpt lat="47.62566" lon="6.1673">
        <ele>225.94</ele>
        <time>2020-09-30T07:58:05Z</time>
      </trkpt>
      <trkpt lat="47.62561" lon="6.16722">
        <ele>225.94</ele>
        <time>2020-09-30T07:58:08Z</time>
      </trkpt>
      <trkpt lat="47.62557" lon="6.16716">
        <ele>225.95</ele>
        <time>2020-09-30T07:58:09Z</time>
      </trkpt>
      <trkpt lat="47.62546" lon="6.16712">
        <ele>225.95</ele>
        <time>2020-09-30T07:58:12Z</time>
      </trkpt>
      <trkpt lat="47.6254" lon="6.16711">
        <ele>225.96</ele>
        <time>2020-09-30T07:58:14Z</time>
      </trkpt>
      <trkpt lat="47.62535" lon="6.16709">
        <ele>225.97</ele>
        <time>2020-09-30T07:58:16Z</time>
      </trkpt>
      <trkpt lat="47.62529" lon="6.16707">
        <ele>225.98</ele>
        <time>2020-09-30T07:58:18Z</time>
      </trkpt>
      <trkpt lat="47.62522" lon="6.16704">
        <ele>225.99</ele>
        <time>2020-09-30T07:58:19Z</time>
      </trkpt>
      <trkpt lat="47.62516" lon="6.16701">
        <ele>226.01</ele>
        <time>2020-09-30T07:58:21Z</time>
      </trkpt>
      <trkpt lat="47.62509" lon="6.16697">
        <ele>226.03</ele>
        <time>2020-09-30T07:58:24Z</time>
      </trkpt>
      <trkpt lat="47.62503" lon="6.16694">
        <ele>226.06</ele>
        <time>2020-09-30T07:58:26Z</time>
      </trkpt>
      <trkpt lat="47.62496" lon="6.1669">
        <ele>226.08</ele>
        <time>2020-09-30T07:58:28Z</time>
      </trkpt>
      <trkpt lat="47.62492" lon="6.16685">
        <ele>226.21</ele>
        <time>2020-09-30T07:58:29Z</time>
      </trkpt>
      <trkpt lat="47.62488" lon="6.1668">
        <ele>226.26</ele>
        <time>2020-09-30T07:58:31Z</time>
      </trkpt>
      <trkpt lat="47.62485" lon="6.16675">
        <ele>226.29</ele>
        <time>2020-09-30T07:58:32Z</time>
      </trkpt>
      <trkpt lat="47.62479" lon="6.16667">
        <ele>226.31</ele>
        <time>2020-09-30T07:58:33Z</time>
      </trkpt>
      <trkpt lat="47.62475" lon="6.16662">
        <ele>226.35</ele>
        <time>2020-09-30T07:58:35Z</time>
      </trkpt>
      <trkpt lat="47.62465" lon="6.16662">
        <ele>226.39</ele>
        <time>2020-09-30T07:58:39Z</time>
      </trkpt>
      <trkpt lat="47.62461" lon="6.16654">
        <ele>226.46</ele>
        <time>2020-09-30T07:58:39Z</time>
      </trkpt>
      <trkpt lat="47.62458" lon="6.16649">
        <ele>226.5</ele>
        <time>2020-09-30T07:58:41Z</time>
      </trkpt>
      <trkpt lat="47.62455" lon="6.16643">
        <ele>226.54</ele>
        <time>2020-09-30T07:58:43Z</time>
      </trkpt>
      <trkpt lat="47.62451" lon="6.16635">
        <ele>226.58</ele>
        <time>2020-09-30T07:58:45Z</time>
      </trkpt>
      <trkpt lat="47.62448" lon="6.16629">
        <ele>226.61</ele>
        <time>2020-09-30T07:58:49Z</time>
      </trkpt>
      <trkpt lat="47.62442" lon="6.16616">
        <ele>226.7</ele>
        <time>2020-09-30T07:58:50Z</time>
      </trkpt>
      <trkpt lat="47.62439" lon="6.1661">
        <ele>226.73</ele>
        <time>2020-09-30T07:58:54Z</time>
      </trkpt>
      <trkpt lat="47.62434" lon="6.16603">
        <ele>226.77</ele>
        <time>2020-09-30T07:58:56Z</time>
      </trkpt>
      <trkpt lat="47.62431" lon="6.16597">
        <ele>226.82</ele>
        <time>2020-09-30T07:58:58Z</time>
      </trkpt>
      <trkpt lat="47.62427" lon="6.16588">
        <ele>226.87</ele>
        <time>2020-09-30T07:59:00Z</time>
      </trkpt>
      <trkpt lat="47.62424" lon="6.1658">
        <ele>226.92</ele>
        <time>2020-09-30T07:59:02Z</time>
      </trkpt>
      <trkpt lat="47.62421" lon="6.16573">
        <ele>226.95</ele>
        <time>2020-09-30T07:59:04Z</time>
      </trkpt>
      <trkpt lat="47.62419" lon="6.16564">
        <ele>227</ele>
        <time>2020-09-30T07:59:06Z</time>
      </trkpt>
      <trkpt lat="47.62419" lon="6.16545">
        <ele>227.1</ele>
        <time>2020-09-30T07:59:10Z</time>
      </trkpt>
      <trkpt lat="47.6242" lon="6.16537">
        <ele>227.19</ele>
        <time>2020-09-30T07:59:10Z</time>
      </trkpt>
      <trkpt lat="47.62421" lon="6.16528">
        <ele>227.26</ele>
        <time>2020-09-30T07:59:13Z</time>
      </trkpt>
      <trkpt lat="47.62421" lon="6.16518">
        <ele>227.31</ele>
        <time>2020-09-30T07:59:19Z</time>
      </trkpt>
      <trkpt lat="47.62417" lon="6.165">
        <ele>227.42</ele>
        <time>2020-09-30T07:59:20Z</time>
      </trkpt>
      <trkpt lat="47.62414" lon="6.16491">
        <ele>227.47</ele>
        <time>2020-09-30T07:59:22Z</time>
      </trkpt>
      <trkpt lat="47.6241" lon="6.16483">
        <ele>227.49</ele>
        <time>2020-09-30T07:59:27Z</time>
      </trkpt>
      <trkpt lat="47.62406" lon="6.16476">
        <ele>227.54</ele>
        <time>2020-09-30T07:59:29Z</time>
      </trkpt>
      <trkpt lat="47.62398" lon="6.16456">
        <ele>227.63</ele>
        <time>2020-09-30T07:59:30Z</time>
      </trkpt>
      <trkpt lat="47.62395" lon="6.16448">
        <ele>227.66</ele>
        <time>2020-09-30T07:59:35Z</time>
      </trkpt>
      <trkpt lat="47.62384" lon="6.16441">
        <ele>227.76</ele>
        <time>2020-09-30T07:59:36Z</time>
      </trkpt>
      <trkpt lat="47.62379" lon="6.16444">
        <ele>227.82</ele>
        <time>2020-09-30T07:59:38Z</time>
      </trkpt>
      <trkpt lat="47.62373" lon="6.16448">
        <ele>227.86</ele>
        <time>2020-09-30T07:59:40Z</time>
      </trkpt>
      <trkpt lat="47.62368" lon="6.16453">
        <ele>227.91</ele>
        <time>2020-09-30T07:59:42Z</time>
      </trkpt>
      <trkpt lat="47.62363" lon="6.16456">
        <ele>227.95</ele>
        <time>2020-09-30T07:59:44Z</time>
      </trkpt>
      <trkpt lat="47.62359" lon="6.16458">
        <ele>227.98</ele>
        <time>2020-09-30T07:59:49Z</time>
      </trkpt>
      <trkpt lat="47.62354" lon="6.16454">
        <ele>228.01</ele>
        <time>2020-09-30T07:59:50Z</time>
      </trkpt>
      <trkpt lat="47.62349" lon="6.16448">
        <ele>228.05</ele>
        <time>2020-09-30T07:59:53Z</time>
      </trkpt>
      <trkpt lat="47.62336" lon="6.16443">
        <ele>228.15</ele>
        <time>2020-09-30T07:59:54Z</time>
      </trkpt>
      <trkpt lat="47.62331" lon="6.16441">
        <ele>228.18</ele>
        <time>2020-09-30T07:59:56Z</time>
      </trkpt>
      <trkpt lat="47.62325" lon="6.16439">
        <ele>228.22</ele>
        <time>2020-09-30T07:59:58Z</time>
      </trkpt>
      <trkpt lat="47.62321" lon="6.16437">
        <ele>228.27</ele>
        <time>2020-09-30T08:00:11Z</time>
      </trkpt>
      <trkpt lat="47.62317" lon="6.16434">
        <ele>228.49</ele>
        <time>2020-09-30T08:01:08Z</time>
      </trkpt>
      <trkpt lat="47.62312" lon="6.16435">
        <ele>228.65</ele>
        <time>2020-09-30T08:01:18Z</time>
      </trkpt>
      <trkpt lat="47.62309" lon="6.16443">
        <ele>228.69</ele>
        <time>2020-09-30T08:01:21Z</time>
      </trkpt>
      <trkpt lat="47.62306" lon="6.16449">
        <ele>228.7</ele>
        <time>2020-09-30T08:01:26Z</time>
      </trkpt>
      <trkpt lat="47.62299" lon="6.16465">
        <ele>228.72</ele>
        <time>2020-09-30T08:01:29Z</time>
      </trkpt>
      <trkpt lat="47.62287" lon="6.16487">
        <ele>228.74</ele>
        <time>2020-09-30T08:01:29Z</time>
      </trkpt>
      <trkpt lat="47.62284" lon="6.16492">
        <ele>228.75</ele>
        <time>2020-09-30T08:01:30Z</time>
      </trkpt>
      <trkpt lat="47.62277" lon="6.16504">
        <ele>228.76</ele>
        <time>2020-09-30T08:01:32Z</time>
      </trkpt>
      <trkpt lat="47.62272" lon="6.16511">
        <ele>228.76</ele>
        <time>2020-09-30T08:01:34Z</time>
      </trkpt>
      <trkpt lat="47.62266" lon="6.16519">
        <ele>228.77</ele>
        <time>2020-09-30T08:01:36Z</time>
      </trkpt>
      <trkpt lat="47.62262" lon="6.16527">
        <ele>228.77</ele>
        <time>2020-09-30T08:01:38Z</time>
      </trkpt>
      <trkpt lat="47.62259" lon="6.16537">
        <ele>228.78</ele>
        <time>2020-09-30T08:01:40Z</time>
      </trkpt>
      <trkpt lat="47.62255" lon="6.16543">
        <ele>228.78</ele>
        <time>2020-09-30T08:01:45Z</time>
      </trkpt>
      <trkpt lat="47.6225" lon="6.16546">
        <ele>228.78</ele>
        <time>2020-09-30T08:01:46Z</time>
      </trkpt>
      <trkpt lat="47.62245" lon="6.1655">
        <ele>228.77</ele>
        <time>2020-09-30T08:01:48Z</time>
      </trkpt>
      <trkpt lat="47.62245" lon="6.16558">
        <ele>228.77</ele>
        <time>2020-09-30T08:01:49Z</time>
      </trkpt>
      <trkpt lat="47.62243" lon="6.16565">
        <ele>228.77</ele>
        <time>2020-09-30T08:01:54Z</time>
      </trkpt>
      <trkpt lat="47.62241" lon="6.16576">
        <ele>228.76</ele>
        <time>2020-09-30T08:01:54Z</time>
      </trkpt>
      <trkpt lat="47.6224" lon="6.16583">
        <ele>228.76</ele>
        <time>2020-09-30T08:01:58Z</time>
      </trkpt>
      <trkpt lat="47.62238" lon="6.16594">
        <ele>228.75</ele>
        <time>2020-09-30T08:01:58Z</time>
      </trkpt>
      <trkpt lat="47.62237" lon="6.16605">
        <ele>228.74</ele>
        <time>2020-09-30T08:02:00Z</time>
      </trkpt>
      <trkpt lat="47.62236" lon="6.16614">
        <ele>228.73</ele>
        <time>2020-09-30T08:02:02Z</time>
      </trkpt>
      <trkpt lat="47.62234" lon="6.16626">
        <ele>228.73</ele>
        <time>2020-09-30T08:02:04Z</time>
      </trkpt>
      <trkpt lat="47.62233" lon="6.16635">
        <ele>228.72</ele>
        <time>2020-09-30T08:02:09Z</time>
      </trkpt>
      <trkpt lat="47.62232" lon="6.16644">
        <ele>228.71</ele>
        <time>2020-09-30T08:02:10Z</time>
      </trkpt>
      <trkpt lat="47.6223" lon="6.16655">
        <ele>228.7</ele>
        <time>2020-09-30T08:02:10Z</time>
      </trkpt>
      <trkpt lat="47.62229" lon="6.16662">
        <ele>228.69</ele>
        <time>2020-09-30T08:02:14Z</time>
      </trkpt>
      <trkpt lat="47.62227" lon="6.16672">
        <ele>228.68</ele>
        <time>2020-09-30T08:02:16Z</time>
      </trkpt>
      <trkpt lat="47.62225" lon="6.16687">
        <ele>228.67</ele>
        <time>2020-09-30T08:02:20Z</time>
      </trkpt>
      <trkpt lat="47.62222" lon="6.16704">
        <ele>228.65</ele>
        <time>2020-09-30T08:02:21Z</time>
      </trkpt>
      <trkpt lat="47.6222" lon="6.16713">
        <ele>228.64</ele>
        <time>2020-09-30T08:02:26Z</time>
      </trkpt>
      <trkpt lat="47.62217" lon="6.16733">
        <ele>228.63</ele>
        <time>2020-09-30T08:02:27Z</time>
      </trkpt>
      <trkpt lat="47.62215" lon="6.16741">
        <ele>228.62</ele>
        <time>2020-09-30T08:02:32Z</time>
      </trkpt>
      <trkpt lat="47.62209" lon="6.16757">
        <ele>228.61</ele>
        <time>2020-09-30T08:02:36Z</time>
      </trkpt>
      <trkpt lat="47.62207" lon="6.16763">
        <ele>228.61</ele>
        <time>2020-09-30T08:02:38Z</time>
      </trkpt>
      <trkpt lat="47.622" lon="6.16774">
        <ele>228.6</ele>
        <time>2020-09-30T08:02:40Z</time>
      </trkpt>
      <trkpt lat="47.62199" lon="6.16781">
        <ele>222.21</ele>
        <time>2020-09-30T08:03:15Z</time>
      </trkpt>
      <trkpt lat="47.62198" lon="6.16788">
        <ele>222.15</ele>
        <time>2020-09-30T08:03:15Z</time>
      </trkpt>
      <trkpt lat="47.62197" lon="6.16798">
        <ele>222.15</ele>
        <time>2020-09-30T08:03:21Z</time>
      </trkpt>
      <trkpt lat="47.62194" lon="6.16824">
        <ele>222.15</ele>
        <time>2020-09-30T08:03:24Z</time>
      </trkpt>
      <trkpt lat="47.62193" lon="6.16831">
        <ele>222.15</ele>
        <time>2020-09-30T08:03:25Z</time>
      </trkpt>
      <trkpt lat="47.6219" lon="6.16852">
        <ele>222.15</ele>
        <time>2020-09-30T08:03:29Z</time>
      </trkpt>
      <trkpt lat="47.62189" lon="6.16861">
        <ele>222.15</ele>
        <time>2020-09-30T08:03:31Z</time>
      </trkpt>
      <trkpt lat="47.62187" lon="6.1687">
        <ele>222.15</ele>
        <time>2020-09-30T08:03:33Z</time>
      </trkpt>
      <trkpt lat="47.62185" lon="6.1688">
        <ele>222.15</ele>
        <time>2020-09-30T08:03:35Z</time>
      </trkpt>
      <trkpt lat="47.62184" lon="6.16889">
        <ele>222.15</ele>
        <time>2020-09-30T08:03:37Z</time>
      </trkpt>
      <trkpt lat="47.62183" lon="6.16911">
        <ele>222.15</ele>
        <time>2020-09-30T08:03:38Z</time>
      </trkpt>
      <trkpt lat="47.62181" lon="6.16921">
        <ele>222.15</ele>
        <time>2020-09-30T08:03:40Z</time>
      </trkpt>
      <trkpt lat="47.6218" lon="6.1693">
        <ele>222.15</ele>
        <time>2020-09-30T08:03:42Z</time>
      </trkpt>
      <trkpt lat="47.62178" lon="6.16939">
        <ele>222.15</ele>
        <time>2020-09-30T08:03:44Z</time>
      </trkpt>
      <trkpt lat="47.62177" lon="6.16946">
        <ele>222.15</ele>
        <time>2020-09-30T08:03:49Z</time>
      </trkpt>
      <trkpt lat="47.62175" lon="6.16953">
        <ele>222.15</ele>
        <time>2020-09-30T08:03:51Z</time>
      </trkpt>
      <trkpt lat="47.62174" lon="6.16961">
        <ele>221.08</ele>
        <time>2020-09-30T08:04:04Z</time>
      </trkpt>
      <trkpt lat="47.62173" lon="6.1697">
        <ele>221.05</ele>
        <time>2020-09-30T08:04:04Z</time>
      </trkpt>
      <trkpt lat="47.62172" lon="6.16978">
        <ele>221.05</ele>
        <time>2020-09-30T08:04:10Z</time>
      </trkpt>
      <trkpt lat="47.62169" lon="6.16992">
        <ele>219.78</ele>
        <time>2020-09-30T08:04:10Z</time>
      </trkpt>
      <trkpt lat="47.62166" lon="6.16999">
        <ele>219.69</ele>
        <time>2020-09-30T08:04:11Z</time>
      </trkpt>
      <trkpt lat="47.62163" lon="6.1701">
        <ele>219.65</ele>
        <time>2020-09-30T08:04:13Z</time>
      </trkpt>
      <trkpt lat="47.62161" lon="6.17019">
        <ele>219.65</ele>
        <time>2020-09-30T08:04:15Z</time>
      </trkpt>
      <trkpt lat="47.6216" lon="6.17028">
        <ele>219.65</ele>
        <time>2020-09-30T08:04:17Z</time>
      </trkpt>
      <trkpt lat="47.62159" lon="6.17037">
        <ele>219.65</ele>
        <time>2020-09-30T08:04:19Z</time>
      </trkpt>
      <trkpt lat="47.62158" lon="6.17046">
        <ele>219.65</ele>
        <time>2020-09-30T08:04:23Z</time>
      </trkpt>
      <trkpt lat="47.62154" lon="6.17067">
        <ele>219.65</ele>
        <time>2020-09-30T08:04:26Z</time>
      </trkpt>
      <trkpt lat="47.62153" lon="6.17076">
        <ele>219.65</ele>
        <time>2020-09-30T08:04:28Z</time>
      </trkpt>
      <trkpt lat="47.62151" lon="6.17086">
        <ele>219.65</ele>
        <time>2020-09-30T08:04:29Z</time>
      </trkpt>
      <trkpt lat="47.62145" lon="6.17123">
        <ele>219.65</ele>
        <time>2020-09-30T08:04:29Z</time>
      </trkpt>
      <trkpt lat="47.62143" lon="6.17132">
        <ele>219.65</ele>
        <time>2020-09-30T08:04:30Z</time>
      </trkpt>
      <trkpt lat="47.62142" lon="6.17142">
        <ele>219.65</ele>
        <time>2020-09-30T08:04:31Z</time>
      </trkpt>
      <trkpt lat="47.6214" lon="6.17151">
        <ele>219.65</ele>
        <time>2020-09-30T08:04:32Z</time>
      </trkpt>
      <trkpt lat="47.62138" lon="6.1716">
        <ele>219.65</ele>
        <time>2020-09-30T08:04:33Z</time>
      </trkpt>
      <trkpt lat="47.62137" lon="6.17168">
        <ele>219.65</ele>
        <time>2020-09-30T08:04:34Z</time>
      </trkpt>
      <trkpt lat="47.62135" lon="6.17176">
        <ele>219.65</ele>
        <time>2020-09-30T08:04:35Z</time>
      </trkpt>
      <trkpt lat="47.62134" lon="6.17184">
        <ele>219.65</ele>
        <time>2020-09-30T08:04:36Z</time>
      </trkpt>
      <trkpt lat="47.62132" lon="6.17191">
        <ele>219.65</ele>
        <time>2020-09-30T08:04:37Z</time>
      </trkpt>
      <trkpt lat="47.62131" lon="6.17198">
        <ele>219.65</ele>
        <time>2020-09-30T08:04:38Z</time>
      </trkpt>
      <trkpt lat="47.62129" lon="6.17205">
        <ele>219.65</ele>
        <time>2020-09-30T08:04:39Z</time>
      </trkpt>
      <trkpt lat="47.62128" lon="6.17211">
        <ele>219.65</ele>
        <time>2020-09-30T08:04:40Z</time>
      </trkpt>
      <trkpt lat="47.62126" lon="6.17218">
        <ele>219.65</ele>
        <time>2020-09-30T08:04:41Z</time>
      </trkpt>
      <trkpt lat="47.62125" lon="6.17225">
        <ele>219.65</ele>
        <time>2020-09-30T08:04:42Z</time>
      </trkpt>
      <trkpt lat="47.62124" lon="6.17231">
        <ele>219.65</ele>
        <time>2020-09-30T08:04:43Z</time>
      </trkpt>
      <trkpt lat="47.62122" lon="6.17238">
        <ele>219.65</ele>
        <time>2020-09-30T08:04:44Z</time>
      </trkpt>
      <trkpt lat="47.62121" lon="6.17245">
        <ele>219.65</ele>
        <time>2020-09-30T08:04:45Z</time>
      </trkpt>
      <trkpt lat="47.6212" lon="6.17251">
        <ele>219.65</ele>
        <time>2020-09-30T08:04:46Z</time>
      </trkpt>
      <trkpt lat="47.62118" lon="6.17258">
        <ele>219.65</ele>
        <time>2020-09-30T08:04:47Z</time>
      </trkpt>
      <trkpt lat="47.62117" lon="6.17264">
        <ele>219.65</ele>
        <time>2020-09-30T08:04:48Z</time>
      </trkpt>
      <trkpt lat="47.62116" lon="6.17271">
        <ele>219.65</ele>
        <time>2020-09-30T08:04:49Z</time>
      </trkpt>
      <trkpt lat="47.62114" lon="6.17278">
        <ele>219.65</ele>
        <time>2020-09-30T08:04:50Z</time>
      </trkpt>
      <trkpt lat="47.62113" lon="6.17284">
        <ele>219.65</ele>
        <time>2020-09-30T08:04:51Z</time>
      </trkpt>
      <trkpt lat="47.62111" lon="6.17291">
        <ele>219.65</ele>
        <time>2020-09-30T08:04:52Z</time>
      </trkpt>
      <trkpt lat="47.6211" lon="6.17298">
        <ele>219.65</ele>
        <time>2020-09-30T08:04:53Z</time>
      </trkpt>
      <trkpt lat="47.62109" lon="6.17304">
        <ele>219.65</ele>
        <time>2020-09-30T08:04:54Z</time>
      </trkpt>
      <trkpt lat="47.62108" lon="6.17311">
        <ele>219.65</ele>
        <time>2020-09-30T08:04:55Z</time>
      </trkpt>
      <trkpt lat="47.62107" lon="6.17318">
        <ele>219.65</ele>
        <time>2020-09-30T08:04:56Z</time>
      </trkpt>
      <trkpt lat="47.62106" lon="6.17324">
        <ele>219.65</ele>
        <time>2020-09-30T08:04:57Z</time>
      </trkpt>
      <trkpt lat="47.62105" lon="6.17331">
        <ele>219.65</ele>
        <time>2020-09-30T08:04:58Z</time>
      </trkpt>
      <trkpt lat="47.62104" lon="6.17338">
        <ele>219.65</ele>
        <time>2020-09-30T08:04:59Z</time>
      </trkpt>
      <trkpt lat="47.62104" lon="6.17345">
        <ele>219.65</ele>
        <time>2020-09-30T08:05:00Z</time>
      </trkpt>
      <trkpt lat="47.62103" lon="6.17356">
        <ele>219.65</ele>
        <time>2020-09-30T08:05:02Z</time>
      </trkpt>
      <trkpt lat="47.62102" lon="6.17363">
        <ele>219.65</ele>
        <time>2020-09-30T08:05:03Z</time>
      </trkpt>
      <trkpt lat="47.62102" lon="6.17375">
        <ele>219.65</ele>
        <time>2020-09-30T08:05:05Z</time>
      </trkpt>
      <trkpt lat="47.62101" lon="6.17386">
        <ele>219.65</ele>
        <time>2020-09-30T08:05:07Z</time>
      </trkpt>
      <trkpt lat="47.62097" lon="6.17392">
        <ele>224.29</ele>
        <time>2020-09-30T08:05:12Z</time>
      </trkpt>
      <trkpt lat="47.62098" lon="6.17406">
        <ele>226.11</ele>
        <time>2020-09-30T08:05:14Z</time>
      </trkpt>
      <trkpt lat="47.62099" lon="6.17419">
        <ele>226.08</ele>
        <time>2020-09-30T08:05:16Z</time>
      </trkpt>
      <trkpt lat="47.62099" lon="6.17437">
        <ele>226</ele>
        <time>2020-09-30T08:05:19Z</time>
      </trkpt>
      <trkpt lat="47.62099" lon="6.17453">
        <ele>225.92</ele>
        <time>2020-09-30T08:05:21Z</time>
      </trkpt>
      <trkpt lat="47.62098" lon="6.17461">
        <ele>225.89</ele>
        <time>2020-09-30T08:05:23Z</time>
      </trkpt>
      <trkpt lat="47.62098" lon="6.17469">
        <ele>225.83</ele>
        <time>2020-09-30T08:05:24Z</time>
      </trkpt>
      <trkpt lat="47.62098" lon="6.17477">
        <ele>225.8</ele>
        <time>2020-09-30T08:05:26Z</time>
      </trkpt>
      <trkpt lat="47.62098" lon="6.17488">
        <ele>225.77</ele>
        <time>2020-09-30T08:05:28Z</time>
      </trkpt>
      <trkpt lat="47.62098" lon="6.17496">
        <ele>225.76</ele>
        <time>2020-09-30T08:05:29Z</time>
      </trkpt>
      <trkpt lat="47.62098" lon="6.17503">
        <ele>225.77</ele>
        <time>2020-09-30T08:05:30Z</time>
      </trkpt>
      <trkpt lat="47.62098" lon="6.17511">
        <ele>225.78</ele>
        <time>2020-09-30T08:05:31Z</time>
      </trkpt>
      <trkpt lat="47.62098" lon="6.17519">
        <ele>225.76</ele>
        <time>2020-09-30T08:05:33Z</time>
      </trkpt>
      <trkpt lat="47.62098" lon="6.17529">
        <ele>225.76</ele>
        <time>2020-09-30T08:05:34Z</time>
      </trkpt>
      <trkpt lat="47.62098" lon="6.17536">
        <ele>225.76</ele>
        <time>2020-09-30T08:05:36Z</time>
      </trkpt>
      <trkpt lat="47.62097" lon="6.1756">
        <ele>225.75</ele>
        <time>2020-09-30T08:05:40Z</time>
      </trkpt>
      <trkpt lat="47.62095" lon="6.17576">
        <ele>225.64</ele>
        <time>2020-09-30T08:05:42Z</time>
      </trkpt>
      <trkpt lat="47.62095" lon="6.17583">
        <ele>225.59</ele>
        <time>2020-09-30T08:05:44Z</time>
      </trkpt>
      <trkpt lat="47.62094" lon="6.1759">
        <ele>225.54</ele>
        <time>2020-09-30T08:05:45Z</time>
      </trkpt>
      <trkpt lat="47.62093" lon="6.17599">
        <ele>225.46</ele>
        <time>2020-09-30T08:05:47Z</time>
      </trkpt>
      <trkpt lat="47.62093" lon="6.17606">
        <ele>225.43</ele>
        <time>2020-09-30T08:05:48Z</time>
      </trkpt>
      <trkpt lat="47.62092" lon="6.17617">
        <ele>225.42</ele>
        <time>2020-09-30T08:05:49Z</time>
      </trkpt>
      <trkpt lat="47.6209" lon="6.17634">
        <ele>225.38</ele>
        <time>2020-09-30T08:05:52Z</time>
      </trkpt>
      <trkpt lat="47.62089" lon="6.17644">
        <ele>225.39</ele>
        <time>2020-09-30T08:05:54Z</time>
      </trkpt>
      <trkpt lat="47.62089" lon="6.17654">
        <ele>225.41</ele>
        <time>2020-09-30T08:05:56Z</time>
      </trkpt>
      <trkpt lat="47.62087" lon="6.17671">
        <ele>225.41</ele>
        <time>2020-09-30T08:05:59Z</time>
      </trkpt>
      <trkpt lat="47.62086" lon="6.17681">
        <ele>225.42</ele>
        <time>2020-09-30T08:06:00Z</time>
      </trkpt>
      <trkpt lat="47.62085" lon="6.17689">
        <ele>225.44</ele>
        <time>2020-09-30T08:06:02Z</time>
      </trkpt>
      <trkpt lat="47.62085" lon="6.17697">
        <ele>225.46</ele>
        <time>2020-09-30T08:06:03Z</time>
      </trkpt>
      <trkpt lat="47.62085" lon="6.17705">
        <ele>225.45</ele>
        <time>2020-09-30T08:06:04Z</time>
      </trkpt>
      <trkpt lat="47.62083" lon="6.17725">
        <ele>225.21</ele>
        <time>2020-09-30T08:06:08Z</time>
      </trkpt>
      <trkpt lat="47.62082" lon="6.17735">
        <ele>225.01</ele>
        <time>2020-09-30T08:06:09Z</time>
      </trkpt>
      <trkpt lat="47.62081" lon="6.1775">
        <ele>225</ele>
        <time>2020-09-30T08:06:12Z</time>
      </trkpt>
      <trkpt lat="47.62079" lon="6.17774">
        <ele>224.88</ele>
        <time>2020-09-30T08:06:13Z</time>
      </trkpt>
      <trkpt lat="47.62078" lon="6.17784">
        <ele>224.84</ele>
        <time>2020-09-30T08:06:17Z</time>
      </trkpt>
      <trkpt lat="47.62078" lon="6.17791">
        <ele>224.81</ele>
        <time>2020-09-30T08:06:19Z</time>
      </trkpt>
      <trkpt lat="47.62076" lon="6.1781">
        <ele>224.77</ele>
        <time>2020-09-30T08:06:22Z</time>
      </trkpt>
      <trkpt lat="47.62075" lon="6.17819">
        <ele>224.76</ele>
        <time>2020-09-30T08:06:24Z</time>
      </trkpt>
      <trkpt lat="47.62074" lon="6.17827">
        <ele>224.76</ele>
        <time>2020-09-30T08:06:25Z</time>
      </trkpt>
      <trkpt lat="47.62074" lon="6.17838">
        <ele>224.75</ele>
        <time>2020-09-30T08:06:28Z</time>
      </trkpt>
      <trkpt lat="47.62072" lon="6.17847">
        <ele>224.74</ele>
        <time>2020-09-30T08:06:29Z</time>
      </trkpt>
      <trkpt lat="47.62066" lon="6.17862">
        <ele>224.68</ele>
        <time>2020-09-30T08:06:30Z</time>
      </trkpt>
      <trkpt lat="47.62063" lon="6.17871">
        <ele>224.67</ele>
        <time>2020-09-30T08:06:32Z</time>
      </trkpt>
      <trkpt lat="47.62062" lon="6.17881">
        <ele>224.64</ele>
        <time>2020-09-30T08:06:34Z</time>
      </trkpt>
      <trkpt lat="47.62061" lon="6.17893">
        <ele>224.44</ele>
        <time>2020-09-30T08:06:36Z</time>
      </trkpt>
      <trkpt lat="47.6206" lon="6.17905">
        <ele>224.33</ele>
        <time>2020-09-30T08:06:38Z</time>
      </trkpt>
      <trkpt lat="47.62059" lon="6.17917">
        <ele>224.33</ele>
        <time>2020-09-30T08:06:40Z</time>
      </trkpt>
      <trkpt lat="47.62059" lon="6.17924">
        <ele>224.42</ele>
        <time>2020-09-30T08:06:41Z</time>
      </trkpt>
      <trkpt lat="47.62058" lon="6.17935">
        <ele>224.54</ele>
        <time>2020-09-30T08:06:46Z</time>
      </trkpt>
      <trkpt lat="47.62056" lon="6.17954">
        <ele>224.83</ele>
        <time>2020-09-30T08:06:46Z</time>
      </trkpt>
      <trkpt lat="47.62055" lon="6.1796">
        <ele>224.89</ele>
        <time>2020-09-30T08:06:47Z</time>
      </trkpt>
      <trkpt lat="47.62054" lon="6.17969">
        <ele>224.94</ele>
        <time>2020-09-30T08:06:51Z</time>
      </trkpt>
      <trkpt lat="47.62053" lon="6.17989">
        <ele>225</ele>
        <time>2020-09-30T08:06:52Z</time>
      </trkpt>
      <trkpt lat="47.62052" lon="6.18001">
        <ele>225</ele>
        <time>2020-09-30T08:06:54Z</time>
      </trkpt>
      <trkpt lat="47.62051" lon="6.18012">
        <ele>225</ele>
        <time>2020-09-30T08:06:56Z</time>
      </trkpt>
      <trkpt lat="47.6205" lon="6.18022">
        <ele>225</ele>
        <time>2020-09-30T08:06:58Z</time>
      </trkpt>
      <trkpt lat="47.62049" lon="6.18034">
        <ele>224.98</ele>
        <time>2020-09-30T08:07:00Z</time>
      </trkpt>
      <trkpt lat="47.62048" lon="6.18045">
        <ele>224.94</ele>
        <time>2020-09-30T08:07:02Z</time>
      </trkpt>
      <trkpt lat="47.62047" lon="6.18055">
        <ele>224.92</ele>
        <time>2020-09-30T08:07:07Z</time>
      </trkpt>
      <trkpt lat="47.62045" lon="6.18073">
        <ele>224.91</ele>
        <time>2020-09-30T08:07:09Z</time>
      </trkpt>
      <trkpt lat="47.62044" lon="6.18081">
        <ele>224.89</ele>
        <time>2020-09-30T08:07:11Z</time>
      </trkpt>
      <trkpt lat="47.62044" lon="6.1809">
        <ele>224.81</ele>
        <time>2020-09-30T08:07:12Z</time>
      </trkpt>
      <trkpt lat="47.62044" lon="6.18109">
        <ele>224.68</ele>
        <time>2020-09-30T08:07:16Z</time>
      </trkpt>
      <trkpt lat="47.62044" lon="6.18119">
        <ele>224.58</ele>
        <time>2020-09-30T08:07:17Z</time>
      </trkpt>
      <trkpt lat="47.62046" lon="6.18128">
        <ele>224.52</ele>
        <time>2020-09-30T08:07:19Z</time>
      </trkpt>
      <trkpt lat="47.62048" lon="6.18141">
        <ele>224.44</ele>
        <time>2020-09-30T08:07:21Z</time>
      </trkpt>
      <trkpt lat="47.62049" lon="6.18152">
        <ele>224.37</ele>
        <time>2020-09-30T08:07:23Z</time>
      </trkpt>
      <trkpt lat="47.62053" lon="6.18173">
        <ele>224.2</ele>
        <time>2020-09-30T08:07:23Z</time>
      </trkpt>
      <trkpt lat="47.62055" lon="6.1818">
        <ele>224.16</ele>
        <time>2020-09-30T08:07:27Z</time>
      </trkpt>
      <trkpt lat="47.62059" lon="6.18202">
        <ele>224.11</ele>
        <time>2020-09-30T08:07:28Z</time>
      </trkpt>
      <trkpt lat="47.6206" lon="6.18209">
        <ele>224.08</ele>
        <time>2020-09-30T08:07:29Z</time>
      </trkpt>
      <trkpt lat="47.62062" lon="6.18218">
        <ele>224.07</ele>
        <time>2020-09-30T08:07:33Z</time>
      </trkpt>
      <trkpt lat="47.62064" lon="6.1823">
        <ele>224.07</ele>
        <time>2020-09-30T08:07:34Z</time>
      </trkpt>
      <trkpt lat="47.62065" lon="6.18238">
        <ele>224.07</ele>
        <time>2020-09-30T08:07:37Z</time>
      </trkpt>
      <trkpt lat="47.62066" lon="6.18249">
        <ele>224.07</ele>
        <time>2020-09-30T08:07:40Z</time>
      </trkpt>
      <trkpt lat="47.62068" lon="6.18257">
        <ele>224.08</ele>
        <time>2020-09-30T08:07:41Z</time>
      </trkpt>
      <trkpt lat="47.6207" lon="6.18266">
        <ele>224.09</ele>
        <time>2020-09-30T08:07:42Z</time>
      </trkpt>
      <trkpt lat="47.62071" lon="6.18275">
        <ele>224.12</ele>
        <time>2020-09-30T08:07:47Z</time>
      </trkpt>
      <trkpt lat="47.62071" lon="6.18283">
        <ele>224.15</ele>
        <time>2020-09-30T08:07:48Z</time>
      </trkpt>
      <trkpt lat="47.62073" lon="6.18291">
        <ele>224.19</ele>
        <time>2020-09-30T08:07:52Z</time>
      </trkpt>
      <trkpt lat="47.62075" lon="6.18297">
        <ele>224.21</ele>
        <time>2020-09-30T08:07:57Z</time>
      </trkpt>
      <trkpt lat="47.62077" lon="6.18305">
        <ele>224.24</ele>
        <time>2020-09-30T08:07:59Z</time>
      </trkpt>
      <trkpt lat="47.62079" lon="6.18311">
        <ele>224.45</ele>
        <time>2020-09-30T08:08:32Z</time>
      </trkpt>
      <trkpt lat="47.62082" lon="6.1832">
        <ele>224.7</ele>
        <time>2020-09-30T08:08:35Z</time>
      </trkpt>
      <trkpt lat="47.62083" lon="6.18327">
        <ele>225.09</ele>
        <time>2020-09-30T08:08:36Z</time>
      </trkpt>
      <trkpt lat="47.62084" lon="6.18333">
        <ele>225.21</ele>
        <time>2020-09-30T08:08:38Z</time>
      </trkpt>
      <trkpt lat="47.62091" lon="6.18375">
        <ele>222.62</ele>
        <time>2020-09-30T08:08:39Z</time>
      </trkpt>
      <trkpt lat="47.62092" lon="6.18386">
        <ele>222.43</ele>
        <time>2020-09-30T08:08:40Z</time>
      </trkpt>
      <trkpt lat="47.62093" lon="6.18393">
        <ele>222.37</ele>
        <time>2020-09-30T08:08:41Z</time>
      </trkpt>
      <trkpt lat="47.62092" lon="6.18402">
        <ele>222.35</ele>
        <time>2020-09-30T08:08:43Z</time>
      </trkpt>
      <trkpt lat="47.62093" lon="6.1841">
        <ele>222.35</ele>
        <time>2020-09-30T08:08:46Z</time>
      </trkpt>
      <trkpt lat="47.62094" lon="6.18417">
        <ele>225.5</ele>
        <time>2020-09-30T08:09:43Z</time>
      </trkpt>
      <trkpt lat="47.62099" lon="6.1842">
        <ele>225</ele>
        <time>2020-09-30T08:09:50Z</time>
      </trkpt>
      <trkpt lat="47.62104" lon="6.18419">
        <ele>224.95</ele>
        <time>2020-09-30T08:09:52Z</time>
      </trkpt>
      <trkpt lat="47.6211" lon="6.1842">
        <ele>224.95</ele>
        <time>2020-09-30T08:09:53Z</time>
      </trkpt>
      <trkpt lat="47.62117" lon="6.18421">
        <ele>224.95</ele>
        <time>2020-09-30T08:09:54Z</time>
      </trkpt>
      <trkpt lat="47.62124" lon="6.18423">
        <ele>224.95</ele>
        <time>2020-09-30T08:09:55Z</time>
      </trkpt>
      <trkpt lat="47.62129" lon="6.18427">
        <ele>224.95</ele>
        <time>2020-09-30T08:09:56Z</time>
      </trkpt>
      <trkpt lat="47.62136" lon="6.18435">
        <ele>224.95</ele>
        <time>2020-09-30T08:09:58Z</time>
      </trkpt>
      <trkpt lat="47.6214" lon="6.18443">
        <ele>224.95</ele>
        <time>2020-09-30T08:10:00Z</time>
      </trkpt>
      <trkpt lat="47.62142" lon="6.18451">
        <ele>224.95</ele>
        <time>2020-09-30T08:10:04Z</time>
      </trkpt>
      <trkpt lat="47.62142" lon="6.18459">
        <ele>224.95</ele>
        <time>2020-09-30T08:10:07Z</time>
      </trkpt>
      <trkpt lat="47.6214" lon="6.18473">
        <ele>224.95</ele>
        <time>2020-09-30T08:10:09Z</time>
      </trkpt>
      <trkpt lat="47.62138" lon="6.18482">
        <ele>224.95</ele>
        <time>2020-09-30T08:10:12Z</time>
      </trkpt>
      <trkpt lat="47.62135" lon="6.1849">
        <ele>224.95</ele>
        <time>2020-09-30T08:10:17Z</time>
      </trkpt>
      <trkpt lat="47.62135" lon="6.18499">
        <ele>224.95</ele>
        <time>2020-09-30T08:10:20Z</time>
      </trkpt>
      <trkpt lat="47.62134" lon="6.18507">
        <ele>224.95</ele>
        <time>2020-09-30T08:10:22Z</time>
      </trkpt>
      <trkpt lat="47.62135" lon="6.18515">
        <ele>224.95</ele>
        <time>2020-09-30T08:10:23Z</time>
      </trkpt>
      <trkpt lat="47.62138" lon="6.18523">
        <ele>224.95</ele>
        <time>2020-09-30T08:10:26Z</time>
      </trkpt>
      <trkpt lat="47.62141" lon="6.18531">
        <ele>224.95</ele>
        <time>2020-09-30T08:10:29Z</time>
      </trkpt>
      <trkpt lat="47.62145" lon="6.18538">
        <ele>224.95</ele>
        <time>2020-09-30T08:10:33Z</time>
      </trkpt>
      <trkpt lat="47.62149" lon="6.18545">
        <ele>224.95</ele>
        <time>2020-09-30T08:10:35Z</time>
      </trkpt>
      <trkpt lat="47.62152" lon="6.1855">
        <ele>224.95</ele>
        <time>2020-09-30T08:10:37Z</time>
      </trkpt>
      <trkpt lat="47.62156" lon="6.18555">
        <ele>224.95</ele>
        <time>2020-09-30T08:10:42Z</time>
      </trkpt>
      <trkpt lat="47.6216" lon="6.18561">
        <ele>224.95</ele>
        <time>2020-09-30T08:10:45Z</time>
      </trkpt>
      <trkpt lat="47.62165" lon="6.18566">
        <ele>225.21</ele>
        <time>2020-09-30T08:10:46Z</time>
      </trkpt>
      <trkpt lat="47.62169" lon="6.18571">
        <ele>225.36</ele>
        <time>2020-09-30T08:10:49Z</time>
      </trkpt>
      <trkpt lat="47.62173" lon="6.18576">
        <ele>225.4</ele>
        <time>2020-09-30T08:10:52Z</time>
      </trkpt>
      <trkpt lat="47.62178" lon="6.18582">
        <ele>225.45</ele>
        <time>2020-09-30T08:10:58Z</time>
      </trkpt>
      <trkpt lat="47.62183" lon="6.18587">
        <ele>225.51</ele>
        <time>2020-09-30T08:10:59Z</time>
      </trkpt>
      <trkpt lat="47.62187" lon="6.18591">
        <ele>225.57</ele>
        <time>2020-09-30T08:11:02Z</time>
      </trkpt>
      <trkpt lat="47.62192" lon="6.18595">
        <ele>225.61</ele>
        <time>2020-09-30T08:11:07Z</time>
      </trkpt>
      <trkpt lat="47.62197" lon="6.18599">
        <ele>225.66</ele>
        <time>2020-09-30T08:11:09Z</time>
      </trkpt>
      <trkpt lat="47.62202" lon="6.18603">
        <ele>225.73</ele>
        <time>2020-09-30T08:11:11Z</time>
      </trkpt>
      <trkpt lat="47.62206" lon="6.18607">
        <ele>225.79</ele>
        <time>2020-09-30T08:11:14Z</time>
      </trkpt>
      <trkpt lat="47.62211" lon="6.18612">
        <ele>225.86</ele>
        <time>2020-09-30T08:11:17Z</time>
      </trkpt>
      <trkpt lat="47.62216" lon="6.18615">
        <ele>225.92</ele>
        <time>2020-09-30T08:11:20Z</time>
      </trkpt>
      <trkpt lat="47.62221" lon="6.18619">
        <ele>225.99</ele>
        <time>2020-09-30T08:11:23Z</time>
      </trkpt>
      <trkpt lat="47.62225" lon="6.18624">
        <ele>226.04</ele>
        <time>2020-09-30T08:11:28Z</time>
      </trkpt>
      <trkpt lat="47.6223" lon="6.18629">
        <ele>226.13</ele>
        <time>2020-09-30T08:11:29Z</time>
      </trkpt>
      <trkpt lat="47.62235" lon="6.18632">
        <ele>226.21</ele>
        <time>2020-09-30T08:11:32Z</time>
      </trkpt>
      <trkpt lat="47.62239" lon="6.18636">
        <ele>226.29</ele>
        <time>2020-09-30T08:11:35Z</time>
      </trkpt>
      <trkpt lat="47.62244" lon="6.18641">
        <ele>226.39</ele>
        <time>2020-09-30T08:11:39Z</time>
      </trkpt>
      <trkpt lat="47.62248" lon="6.18645">
        <ele>226.48</ele>
        <time>2020-09-30T08:11:42Z</time>
      </trkpt>
      <trkpt lat="47.62252" lon="6.18648">
        <ele>226.57</ele>
        <time>2020-09-30T08:11:45Z</time>
      </trkpt>
      <trkpt lat="47.62257" lon="6.18653">
        <ele>226.66</ele>
        <time>2020-09-30T08:11:48Z</time>
      </trkpt>
      <trkpt lat="47.62261" lon="6.18658">
        <ele>226.73</ele>
        <time>2020-09-30T08:11:53Z</time>
      </trkpt>
      <trkpt lat="47.62263" lon="6.18664">
        <ele>226.85</ele>
        <time>2020-09-30T08:11:54Z</time>
      </trkpt>
      <trkpt lat="47.62265" lon="6.18671">
        <ele>226.92</ele>
        <time>2020-09-30T08:11:59Z</time>
      </trkpt>
      <trkpt lat="47.62267" lon="6.18678">
        <ele>227.05</ele>
        <time>2020-09-30T08:12:00Z</time>
      </trkpt>
      <trkpt lat="47.62269" lon="6.18685">
        <ele>227.15</ele>
        <time>2020-09-30T08:12:05Z</time>
      </trkpt>
      <trkpt lat="47.62271" lon="6.18692">
        <ele>227.28</ele>
        <time>2020-09-30T08:12:07Z</time>
      </trkpt>
      <trkpt lat="47.62274" lon="6.18699">
        <ele>227.43</ele>
        <time>2020-09-30T08:12:11Z</time>
      </trkpt>
      <trkpt lat="47.62277" lon="6.18706">
        <ele>227.57</ele>
        <time>2020-09-30T08:12:15Z</time>
      </trkpt>
      <trkpt lat="47.62279" lon="6.18712">
        <ele>227.68</ele>
        <time>2020-09-30T08:12:18Z</time>
      </trkpt>
      <trkpt lat="47.62282" lon="6.1872">
        <ele>227.83</ele>
        <time>2020-09-30T08:12:22Z</time>
      </trkpt>
      <trkpt lat="47.62285" lon="6.18725">
        <ele>227.94</ele>
        <time>2020-09-30T08:12:25Z</time>
      </trkpt>
      <trkpt lat="47.6229" lon="6.18729">
        <ele>228.06</ele>
        <time>2020-09-30T08:12:31Z</time>
      </trkpt>
      <trkpt lat="47.62294" lon="6.18733">
        <ele>228.18</ele>
        <time>2020-09-30T08:12:34Z</time>
      </trkpt>
      <trkpt lat="47.62299" lon="6.18738">
        <ele>228.31</ele>
        <time>2020-09-30T08:12:37Z</time>
      </trkpt>
      <trkpt lat="47.62302" lon="6.18743">
        <ele>228.43</ele>
        <time>2020-09-30T08:12:40Z</time>
      </trkpt>
      <trkpt lat="47.62311" lon="6.18756">
        <ele>228.68</ele>
        <time>2020-09-30T08:12:43Z</time>
      </trkpt>
      <trkpt lat="47.62315" lon="6.18764">
        <ele>228.76</ele>
        <time>2020-09-30T08:12:48Z</time>
      </trkpt>
      <trkpt lat="47.62319" lon="6.1877">
        <ele>228.89</ele>
        <time>2020-09-30T08:12:48Z</time>
      </trkpt>
      <trkpt lat="47.62322" lon="6.18777">
        <ele>228.98</ele>
        <time>2020-09-30T08:12:52Z</time>
      </trkpt>
      <trkpt lat="47.62325" lon="6.18784">
        <ele>229.11</ele>
        <time>2020-09-30T08:12:53Z</time>
      </trkpt>
      <trkpt lat="47.62327" lon="6.18791">
        <ele>229.24</ele>
        <time>2020-09-30T08:12:56Z</time>
      </trkpt>
      <trkpt lat="47.6233" lon="6.18798">
        <ele>229.36</ele>
        <time>2020-09-30T08:12:59Z</time>
      </trkpt>
      <trkpt lat="47.62333" lon="6.18804">
        <ele>229.46</ele>
        <time>2020-09-30T08:13:04Z</time>
      </trkpt>
      <trkpt lat="47.62335" lon="6.18811">
        <ele>229.6</ele>
        <time>2020-09-30T08:13:06Z</time>
      </trkpt>
      <trkpt lat="47.62337" lon="6.18818">
        <ele>229.73</ele>
        <time>2020-09-30T08:13:09Z</time>
      </trkpt>
      <trkpt lat="47.6234" lon="6.18826">
        <ele>229.87</ele>
        <time>2020-09-30T08:13:13Z</time>
      </trkpt>
      <trkpt lat="47.62343" lon="6.18833">
        <ele>229.99</ele>
        <time>2020-09-30T08:13:16Z</time>
      </trkpt>
      <trkpt lat="47.62345" lon="6.18839">
        <ele>230.11</ele>
        <time>2020-09-30T08:13:18Z</time>
      </trkpt>
      <trkpt lat="47.62347" lon="6.18847">
        <ele>230.24</ele>
        <time>2020-09-30T08:13:21Z</time>
      </trkpt>
      <trkpt lat="47.6235" lon="6.18853">
        <ele>230.38</ele>
        <time>2020-09-30T08:13:22Z</time>
      </trkpt>
      <trkpt lat="47.62352" lon="6.18861">
        <ele>230.5</ele>
        <time>2020-09-30T08:13:25Z</time>
      </trkpt>
      <trkpt lat="47.62354" lon="6.18867">
        <ele>230.65</ele>
        <time>2020-09-30T08:13:28Z</time>
      </trkpt>
      <trkpt lat="47.62356" lon="6.18873">
        <ele>230.76</ele>
        <time>2020-09-30T08:13:32Z</time>
      </trkpt>
      <trkpt lat="47.62358" lon="6.18881">
        <ele>230.9</ele>
        <time>2020-09-30T08:13:36Z</time>
      </trkpt>
      <trkpt lat="47.6236" lon="6.18887">
        <ele>231.08</ele>
        <time>2020-09-30T08:13:37Z</time>
      </trkpt>
      <trkpt lat="47.62363" lon="6.18894">
        <ele>231.22</ele>
        <time>2020-09-30T08:13:43Z</time>
      </trkpt>
      <trkpt lat="47.62367" lon="6.189">
        <ele>231.41</ele>
        <time>2020-09-30T08:13:44Z</time>
      </trkpt>
      <trkpt lat="47.62371" lon="6.18906">
        <ele>231.56</ele>
        <time>2020-09-30T08:13:47Z</time>
      </trkpt>
      <trkpt lat="47.62376" lon="6.18911">
        <ele>231.67</ele>
        <time>2020-09-30T08:13:51Z</time>
      </trkpt>
      <trkpt lat="47.62378" lon="6.18918">
        <ele>231.81</ele>
        <time>2020-09-30T08:13:54Z</time>
      </trkpt>
      <trkpt lat="47.62383" lon="6.1892">
        <ele>232.02</ele>
        <time>2020-09-30T08:13:59Z</time>
      </trkpt>
      <trkpt lat="47.6239" lon="6.18916">
        <ele>232.1</ele>
        <time>2020-09-30T08:14:00Z</time>
      </trkpt>
      <trkpt lat="47.62396" lon="6.18913">
        <ele>232.15</ele>
        <time>2020-09-30T08:14:02Z</time>
      </trkpt>
      <trkpt lat="47.62407" lon="6.18912">
        <ele>232.36</ele>
        <time>2020-09-30T08:14:04Z</time>
      </trkpt>
      <trkpt lat="47.62411" lon="6.18915">
        <ele>232.48</ele>
        <time>2020-09-30T08:14:07Z</time>
      </trkpt>
      <trkpt lat="47.62415" lon="6.1892">
        <ele>232.59</ele>
        <time>2020-09-30T08:14:10Z</time>
      </trkpt>
      <trkpt lat="47.62418" lon="6.18925">
        <ele>232.7</ele>
        <time>2020-09-30T08:14:13Z</time>
      </trkpt>
      <trkpt lat="47.62422" lon="6.18931">
        <ele>232.8</ele>
        <time>2020-09-30T08:14:18Z</time>
      </trkpt>
      <trkpt lat="47.62426" lon="6.18934">
        <ele>232.87</ele>
        <time>2020-09-30T08:14:21Z</time>
      </trkpt>
      <trkpt lat="47.62432" lon="6.18936">
        <ele>232.96</ele>
        <time>2020-09-30T08:14:23Z</time>
      </trkpt>
      <trkpt lat="47.62437" lon="6.18935">
        <ele>233.06</ele>
        <time>2020-09-30T08:14:24Z</time>
      </trkpt>
      <trkpt lat="47.62443" lon="6.1893">
        <ele>233.15</ele>
        <time>2020-09-30T08:14:27Z</time>
      </trkpt>
      <trkpt lat="47.62447" lon="6.18926">
        <ele>233.21</ele>
        <time>2020-09-30T08:14:29Z</time>
      </trkpt>
      <trkpt lat="47.62451" lon="6.18921">
        <ele>233.29</ele>
        <time>2020-09-30T08:14:32Z</time>
      </trkpt>
      <trkpt lat="47.62455" lon="6.18916">
        <ele>233.38</ele>
        <time>2020-09-30T08:14:35Z</time>
      </trkpt>
      <trkpt lat="47.62459" lon="6.18911">
        <ele>233.45</ele>
        <time>2020-09-30T08:14:39Z</time>
      </trkpt>
      <trkpt lat="47.62463" lon="6.18906">
        <ele>233.55</ele>
        <time>2020-09-30T08:14:41Z</time>
      </trkpt>
      <trkpt lat="47.62466" lon="6.189">
        <ele>233.63</ele>
        <time>2020-09-30T08:14:47Z</time>
      </trkpt>
      <trkpt lat="47.6247" lon="6.18894">
        <ele>233.7</ele>
        <time>2020-09-30T08:14:50Z</time>
      </trkpt>
      <trkpt lat="47.62473" lon="6.18888">
        <ele>233.79</ele>
        <time>2020-09-30T08:14:51Z</time>
      </trkpt>
      <trkpt lat="47.62477" lon="6.18883">
        <ele>233.84</ele>
        <time>2020-09-30T08:14:56Z</time>
      </trkpt>
      <trkpt lat="47.6248" lon="6.18879">
        <ele>233.9</ele>
        <time>2020-09-30T08:14:58Z</time>
      </trkpt>
      <trkpt lat="47.62484" lon="6.18874">
        <ele>233.97</ele>
        <time>2020-09-30T08:15:00Z</time>
      </trkpt>
      <trkpt lat="47.62488" lon="6.18869">
        <ele>234.02</ele>
        <time>2020-09-30T08:15:04Z</time>
      </trkpt>
      <trkpt lat="47.62492" lon="6.18863">
        <ele>234.09</ele>
        <time>2020-09-30T08:15:06Z</time>
      </trkpt>
      <trkpt lat="47.62495" lon="6.18859">
        <ele>234.17</ele>
        <time>2020-09-30T08:15:10Z</time>
      </trkpt>
      <trkpt lat="47.625" lon="6.18857">
        <ele>234.24</ele>
        <time>2020-09-30T08:15:14Z</time>
      </trkpt>
      <trkpt lat="47.62505" lon="6.18854">
        <ele>234.53</ele>
        <time>2020-09-30T08:16:21Z</time>
      </trkpt>
      <trkpt lat="47.6251" lon="6.1886">
        <ele>234.91</ele>
        <time>2020-09-30T08:16:49Z</time>
      </trkpt>
      <trkpt lat="47.62515" lon="6.18862">
        <ele>235.14</ele>
        <time>2020-09-30T08:16:51Z</time>
      </trkpt>
      <trkpt lat="47.6252" lon="6.18864">
        <ele>235.27</ele>
        <time>2020-09-30T08:16:54Z</time>
      </trkpt>
      <trkpt lat="47.62528" lon="6.18865">
        <ele>235.37</ele>
        <time>2020-09-30T08:16:56Z</time>
      </trkpt>
      <trkpt lat="47.62532" lon="6.18865">
        <ele>235.42</ele>
        <time>2020-09-30T08:16:59Z</time>
      </trkpt>
      <trkpt lat="47.62537" lon="6.18866">
        <ele>235.53</ele>
        <time>2020-09-30T08:17:00Z</time>
      </trkpt>
      <trkpt lat="47.6254" lon="6.18871">
        <ele>235.67</ele>
        <time>2020-09-30T08:17:03Z</time>
      </trkpt>
      <trkpt lat="47.62542" lon="6.18879">
        <ele>235.8</ele>
        <time>2020-09-30T08:17:06Z</time>
      </trkpt>
      <trkpt lat="47.62547" lon="6.18882">
        <ele>235.92</ele>
        <time>2020-09-30T08:17:11Z</time>
      </trkpt>
      <trkpt lat="47.62552" lon="6.18882">
        <ele>236.08</ele>
        <time>2020-09-30T08:17:14Z</time>
      </trkpt>
      <trkpt lat="47.62557" lon="6.18883">
        <ele>236.24</ele>
        <time>2020-09-30T08:17:16Z</time>
      </trkpt>
      <trkpt lat="47.62562" lon="6.18885">
        <ele>236.35</ele>
        <time>2020-09-30T08:17:19Z</time>
      </trkpt>
      <trkpt lat="47.62567" lon="6.18886">
        <ele>236.58</ele>
        <time>2020-09-30T08:17:20Z</time>
      </trkpt>
      <trkpt lat="47.62572" lon="6.18888">
        <ele>236.71</ele>
        <time>2020-09-30T08:17:25Z</time>
      </trkpt>
      <trkpt lat="47.62578" lon="6.18889">
        <ele>236.95</ele>
        <time>2020-09-30T08:17:26Z</time>
      </trkpt>
      <trkpt lat="47.62582" lon="6.18889">
        <ele>237.1</ele>
        <time>2020-09-30T08:17:30Z</time>
      </trkpt>
      <trkpt lat="47.62588" lon="6.1889">
        <ele>237.29</ele>
        <time>2020-09-30T08:17:34Z</time>
      </trkpt>
      <trkpt lat="47.62593" lon="6.18892">
        <ele>237.51</ele>
        <time>2020-09-30T08:17:37Z</time>
      </trkpt>
      <trkpt lat="47.62599" lon="6.18895">
        <ele>237.75</ele>
        <time>2020-09-30T08:17:38Z</time>
      </trkpt>
      <trkpt lat="47.62603" lon="6.18897">
        <ele>237.91</ele>
        <time>2020-09-30T08:17:42Z</time>
      </trkpt>
      <trkpt lat="47.62608" lon="6.18899">
        <ele>238.05</ele>
        <time>2020-09-30T08:17:45Z</time>
      </trkpt>
      <trkpt lat="47.62619" lon="6.18905">
        <ele>238.35</ele>
        <time>2020-09-30T08:17:48Z</time>
      </trkpt>
      <trkpt lat="47.62624" lon="6.18907">
        <ele>238.49</ele>
        <time>2020-09-30T08:17:50Z</time>
      </trkpt>
      <trkpt lat="47.6263" lon="6.1891">
        <ele>238.69</ele>
        <time>2020-09-30T08:17:51Z</time>
      </trkpt>
      <trkpt lat="47.62636" lon="6.18912">
        <ele>238.88</ele>
        <time>2020-09-30T08:17:56Z</time>
      </trkpt>
      <trkpt lat="47.62642" lon="6.18913">
        <ele>239.1</ele>
        <time>2020-09-30T08:17:59Z</time>
      </trkpt>
      <trkpt lat="47.62647" lon="6.18915">
        <ele>239.33</ele>
        <time>2020-09-30T08:18:01Z</time>
      </trkpt>
      <trkpt lat="47.62654" lon="6.18916">
        <ele>239.59</ele>
        <time>2020-09-30T08:18:05Z</time>
      </trkpt>
      <trkpt lat="47.62659" lon="6.18916">
        <ele>239.8</ele>
        <time>2020-09-30T08:18:07Z</time>
      </trkpt>
      <trkpt lat="47.62664" lon="6.18916">
        <ele>240.06</ele>
        <time>2020-09-30T08:18:11Z</time>
      </trkpt>
      <trkpt lat="47.62669" lon="6.18918">
        <ele>240.29</ele>
        <time>2020-09-30T08:18:13Z</time>
      </trkpt>
      <trkpt lat="47.62674" lon="6.1892">
        <ele>240.53</ele>
        <time>2020-09-30T08:18:14Z</time>
      </trkpt>
      <trkpt lat="47.6268" lon="6.1892">
        <ele>240.76</ele>
        <time>2020-09-30T08:18:17Z</time>
      </trkpt>
      <trkpt lat="47.62686" lon="6.18919">
        <ele>240.95</ele>
        <time>2020-09-30T08:18:22Z</time>
      </trkpt>
      <trkpt lat="47.62692" lon="6.18918">
        <ele>241.29</ele>
        <time>2020-09-30T08:18:23Z</time>
      </trkpt>
      <trkpt lat="47.62697" lon="6.18918">
        <ele>241.47</ele>
        <time>2020-09-30T08:18:27Z</time>
      </trkpt>
      <trkpt lat="47.62703" lon="6.18919">
        <ele>241.82</ele>
        <time>2020-09-30T08:18:29Z</time>
      </trkpt>
      <trkpt lat="47.62708" lon="6.1892">
        <ele>242.01</ele>
        <time>2020-09-30T08:18:33Z</time>
      </trkpt>
      <trkpt lat="47.62714" lon="6.18921">
        <ele>242.33</ele>
        <time>2020-09-30T08:18:35Z</time>
      </trkpt>
      <trkpt lat="47.62719" lon="6.18923">
        <ele>242.64</ele>
        <time>2020-09-30T08:18:41Z</time>
      </trkpt>
      <trkpt lat="47.62725" lon="6.18924">
        <ele>243</ele>
        <time>2020-09-30T08:18:45Z</time>
      </trkpt>
      <trkpt lat="47.62732" lon="6.18924">
        <ele>243.32</ele>
        <time>2020-09-30T08:18:46Z</time>
      </trkpt>
      <trkpt lat="47.62738" lon="6.18926">
        <ele>243.61</ele>
        <time>2020-09-30T08:18:49Z</time>
      </trkpt>
      <trkpt lat="47.62744" lon="6.18926">
        <ele>243.88</ele>
        <time>2020-09-30T08:18:52Z</time>
      </trkpt>
      <trkpt lat="47.62749" lon="6.18927">
        <ele>244.1</ele>
        <time>2020-09-30T08:18:57Z</time>
      </trkpt>
      <trkpt lat="47.62754" lon="6.1893">
        <ele>244.37</ele>
        <time>2020-09-30T08:18:59Z</time>
      </trkpt>
      <trkpt lat="47.62758" lon="6.18932">
        <ele>244.65</ele>
        <time>2020-09-30T08:19:00Z</time>
      </trkpt>
      <trkpt lat="47.62762" lon="6.18934">
        <ele>244.85</ele>
        <time>2020-09-30T08:19:05Z</time>
      </trkpt>
      <trkpt lat="47.62768" lon="6.18936">
        <ele>245.12</ele>
        <time>2020-09-30T08:19:07Z</time>
      </trkpt>
      <trkpt lat="47.62772" lon="6.18937">
        <ele>245.31</ele>
        <time>2020-09-30T08:19:10Z</time>
      </trkpt>
      <trkpt lat="47.62778" lon="6.18938">
        <ele>245.6</ele>
        <time>2020-09-30T08:19:12Z</time>
      </trkpt>
      <trkpt lat="47.62782" lon="6.1894">
        <ele>245.78</ele>
        <time>2020-09-30T08:19:15Z</time>
      </trkpt>
      <trkpt lat="47.62787" lon="6.18941">
        <ele>246.07</ele>
        <time>2020-09-30T08:19:17Z</time>
      </trkpt>
      <trkpt lat="47.62792" lon="6.18942">
        <ele>246.36</ele>
        <time>2020-09-30T08:19:18Z</time>
      </trkpt>
      <trkpt lat="47.62797" lon="6.18943">
        <ele>246.55</ele>
        <time>2020-09-30T08:19:22Z</time>
      </trkpt>
      <trkpt lat="47.62803" lon="6.18944">
        <ele>246.91</ele>
        <time>2020-09-30T08:19:24Z</time>
      </trkpt>
      <trkpt lat="47.62807" lon="6.18949">
        <ele>247.16</ele>
        <time>2020-09-30T08:19:28Z</time>
      </trkpt>
      <trkpt lat="47.62813" lon="6.18953">
        <ele>247.52</ele>
        <time>2020-09-30T08:19:30Z</time>
      </trkpt>
      <trkpt lat="47.62818" lon="6.18955">
        <ele>247.82</ele>
        <time>2020-09-30T08:19:33Z</time>
      </trkpt>
      <trkpt lat="47.62823" lon="6.18958">
        <ele>248.02</ele>
        <time>2020-09-30T08:19:37Z</time>
      </trkpt>
      <trkpt lat="47.62827" lon="6.18962">
        <ele>248.31</ele>
        <time>2020-09-30T08:19:38Z</time>
      </trkpt>
      <trkpt lat="47.62832" lon="6.18966">
        <ele>248.51</ele>
        <time>2020-09-30T08:19:43Z</time>
      </trkpt>
      <trkpt lat="47.62837" lon="6.18968">
        <ele>248.83</ele>
        <time>2020-09-30T08:19:45Z</time>
      </trkpt>
      <trkpt lat="47.62842" lon="6.18971">
        <ele>249.09</ele>
        <time>2020-09-30T08:19:48Z</time>
      </trkpt>
      <trkpt lat="47.62847" lon="6.18977">
        <ele>249.38</ele>
        <time>2020-09-30T08:19:51Z</time>
      </trkpt>
      <trkpt lat="47.62852" lon="6.1898">
        <ele>249.68</ele>
        <time>2020-09-30T08:19:54Z</time>
      </trkpt>
      <trkpt lat="47.62857" lon="6.18984">
        <ele>249.97</ele>
        <time>2020-09-30T08:19:55Z</time>
      </trkpt>
      <trkpt lat="47.62861" lon="6.18987">
        <ele>250.16</ele>
        <time>2020-09-30T08:19:59Z</time>
      </trkpt>
      <trkpt lat="47.62865" lon="6.18991">
        <ele>250.36</ele>
        <time>2020-09-30T08:20:01Z</time>
      </trkpt>
      <trkpt lat="47.6287" lon="6.18993">
        <ele>250.62</ele>
        <time>2020-09-30T08:20:02Z</time>
      </trkpt>
      <trkpt lat="47.62874" lon="6.18996">
        <ele>250.86</ele>
        <time>2020-09-30T08:20:06Z</time>
      </trkpt>
      <trkpt lat="47.62879" lon="6.19">
        <ele>251.13</ele>
        <time>2020-09-30T08:20:09Z</time>
      </trkpt>
      <trkpt lat="47.62883" lon="6.19004">
        <ele>251.43</ele>
        <time>2020-09-30T08:20:12Z</time>
      </trkpt>
      <trkpt lat="47.62888" lon="6.19008">
        <ele>251.71</ele>
        <time>2020-09-30T08:20:15Z</time>
      </trkpt>
      <trkpt lat="47.62892" lon="6.19011">
        <ele>252.01</ele>
        <time>2020-09-30T08:20:15Z</time>
      </trkpt>
      <trkpt lat="47.62897" lon="6.19015">
        <ele>252.21</ele>
        <time>2020-09-30T08:20:21Z</time>
      </trkpt>
      <trkpt lat="47.62902" lon="6.1902">
        <ele>252.49</ele>
        <time>2020-09-30T08:20:23Z</time>
      </trkpt>
      <trkpt lat="47.62907" lon="6.19025">
        <ele>252.7</ele>
        <time>2020-09-30T08:20:26Z</time>
      </trkpt>
      <trkpt lat="47.62911" lon="6.19029">
        <ele>252.91</ele>
        <time>2020-09-30T08:20:28Z</time>
      </trkpt>
      <trkpt lat="47.62915" lon="6.19034">
        <ele>253.17</ele>
        <time>2020-09-30T08:20:30Z</time>
      </trkpt>
      <trkpt lat="47.62919" lon="6.19038">
        <ele>253.39</ele>
        <time>2020-09-30T08:20:32Z</time>
      </trkpt>
      <trkpt lat="47.62922" lon="6.19044">
        <ele>253.64</ele>
        <time>2020-09-30T08:20:35Z</time>
      </trkpt>
      <trkpt lat="47.62924" lon="6.19051">
        <ele>253.86</ele>
        <time>2020-09-30T08:20:38Z</time>
      </trkpt>
      <trkpt lat="47.62928" lon="6.19059">
        <ele>254.17</ele>
        <time>2020-09-30T08:20:38Z</time>
      </trkpt>
      <trkpt lat="47.62932" lon="6.19064">
        <ele>254.37</ele>
        <time>2020-09-30T08:20:40Z</time>
      </trkpt>
      <trkpt lat="47.62938" lon="6.19072">
        <ele>254.56</ele>
        <time>2020-09-30T08:20:45Z</time>
      </trkpt>
      <trkpt lat="47.62943" lon="6.19079">
        <ele>254.83</ele>
        <time>2020-09-30T08:20:48Z</time>
      </trkpt>
      <trkpt lat="47.62947" lon="6.19083">
        <ele>255.01</ele>
        <time>2020-09-30T08:20:50Z</time>
      </trkpt>
      <trkpt lat="47.62953" lon="6.19091">
        <ele>255.21</ele>
        <time>2020-09-30T08:20:53Z</time>
      </trkpt>
      <trkpt lat="47.6296" lon="6.19102">
        <ele>255.62</ele>
        <time>2020-09-30T08:20:56Z</time>
      </trkpt>
      <trkpt lat="47.62965" lon="6.19108">
        <ele>255.91</ele>
        <time>2020-09-30T08:20:56Z</time>
      </trkpt>
      <trkpt lat="47.6297" lon="6.19112">
        <ele>256.05</ele>
        <time>2020-09-30T08:21:01Z</time>
      </trkpt>
      <trkpt lat="47.62979" lon="6.19122">
        <ele>256.52</ele>
        <time>2020-09-30T08:21:02Z</time>
      </trkpt>
      <trkpt lat="47.62983" lon="6.19126">
        <ele>256.68</ele>
        <time>2020-09-30T08:21:07Z</time>
      </trkpt>
      <trkpt lat="47.62992" lon="6.19135">
        <ele>257.09</ele>
        <time>2020-09-30T08:21:10Z</time>
      </trkpt>
      <trkpt lat="47.62997" lon="6.19141">
        <ele>257.33</ele>
        <time>2020-09-30T08:21:13Z</time>
      </trkpt>
      <trkpt lat="47.63001" lon="6.19146">
        <ele>257.52</ele>
        <time>2020-09-30T08:21:15Z</time>
      </trkpt>
      <trkpt lat="47.63006" lon="6.1915">
        <ele>257.78</ele>
        <time>2020-09-30T08:21:17Z</time>
      </trkpt>
      <trkpt lat="47.6301" lon="6.19152">
        <ele>257.96</ele>
        <time>2020-09-30T08:21:18Z</time>
      </trkpt>
      <trkpt lat="47.63015" lon="6.19155">
        <ele>258.18</ele>
        <time>2020-09-30T08:21:20Z</time>
      </trkpt>
      <trkpt lat="47.6302" lon="6.19157">
        <ele>258.32</ele>
        <time>2020-09-30T08:21:22Z</time>
      </trkpt>
      <trkpt lat="47.63032" lon="6.19164">
        <ele>258.82</ele>
        <time>2020-09-30T08:21:27Z</time>
      </trkpt>
      <trkpt lat="47.63037" lon="6.19166">
        <ele>259.03</ele>
        <time>2020-09-30T08:21:29Z</time>
      </trkpt>
      <trkpt lat="47.63041" lon="6.19168">
        <ele>259.24</ele>
        <time>2020-09-30T08:21:30Z</time>
      </trkpt>
      <trkpt lat="47.63047" lon="6.1917">
        <ele>259.44</ele>
        <time>2020-09-30T08:21:33Z</time>
      </trkpt>
      <trkpt lat="47.63058" lon="6.19175">
        <ele>259.94</ele>
        <time>2020-09-30T08:21:37Z</time>
      </trkpt>
      <trkpt lat="47.63063" lon="6.19178">
        <ele>260.16</ele>
        <time>2020-09-30T08:21:40Z</time>
      </trkpt>
      <trkpt lat="47.63068" lon="6.19181">
        <ele>260.35</ele>
        <time>2020-09-30T08:21:42Z</time>
      </trkpt>
      <trkpt lat="47.63078" lon="6.19184">
        <ele>260.83</ele>
        <time>2020-09-30T08:21:47Z</time>
      </trkpt>
      <trkpt lat="47.63084" lon="6.19187">
        <ele>261.1</ele>
        <time>2020-09-30T08:21:50Z</time>
      </trkpt>
      <trkpt lat="47.63089" lon="6.19189">
        <ele>261.38</ele>
        <time>2020-09-30T08:21:52Z</time>
      </trkpt>
      <trkpt lat="47.63093" lon="6.19192">
        <ele>261.58</ele>
        <time>2020-09-30T08:21:55Z</time>
      </trkpt>
      <trkpt lat="47.63097" lon="6.19198">
        <ele>261.84</ele>
        <time>2020-09-30T08:21:57Z</time>
      </trkpt>
      <trkpt lat="47.63101" lon="6.19203">
        <ele>262.05</ele>
        <time>2020-09-30T08:22:00Z</time>
      </trkpt>
      <trkpt lat="47.63105" lon="6.19206">
        <ele>262.33</ele>
        <time>2020-09-30T08:22:03Z</time>
      </trkpt>
      <trkpt lat="47.63104" lon="6.19215">
        <ele>262.78</ele>
        <time>2020-09-30T08:22:04Z</time>
      </trkpt>
      <trkpt lat="47.63107" lon="6.19221">
        <ele>263.3</ele>
        <time>2020-09-30T08:22:12Z</time>
      </trkpt>
      <trkpt lat="47.63113" lon="6.19223">
        <ele>263.69</ele>
        <time>2020-09-30T08:22:17Z</time>
      </trkpt>
      <trkpt lat="47.63117" lon="6.19227">
        <ele>264.16</ele>
        <time>2020-09-30T08:22:18Z</time>
      </trkpt>
      <trkpt lat="47.63121" lon="6.19231">
        <ele>264.48</ele>
        <time>2020-09-30T08:22:21Z</time>
      </trkpt>
      <trkpt lat="47.63126" lon="6.19237">
        <ele>264.88</ele>
        <time>2020-09-30T08:22:25Z</time>
      </trkpt>
      <trkpt lat="47.63131" lon="6.19241">
        <ele>265.28</ele>
        <time>2020-09-30T08:22:31Z</time>
      </trkpt>
      <trkpt lat="47.63136" lon="6.19243">
        <ele>265.72</ele>
        <time>2020-09-30T08:22:32Z</time>
      </trkpt>
      <trkpt lat="47.63142" lon="6.19245">
        <ele>266.09</ele>
        <time>2020-09-30T08:22:39Z</time>
      </trkpt>
      <trkpt lat="47.63147" lon="6.19246">
        <ele>266.47</ele>
        <time>2020-09-30T08:22:41Z</time>
      </trkpt>
      <trkpt lat="47.63152" lon="6.19248">
        <ele>266.85</ele>
        <time>2020-09-30T08:22:41Z</time>
      </trkpt>
      <trkpt lat="47.63158" lon="6.19249">
        <ele>267.21</ele>
        <time>2020-09-30T08:22:44Z</time>
      </trkpt>
      <trkpt lat="47.63162" lon="6.1925">
        <ele>267.55</ele>
        <time>2020-09-30T08:22:49Z</time>
      </trkpt>
      <trkpt lat="47.63167" lon="6.19251">
        <ele>268.05</ele>
        <time>2020-09-30T08:22:50Z</time>
      </trkpt>
      <trkpt lat="47.63172" lon="6.19255">
        <ele>268.49</ele>
        <time>2020-09-30T08:22:56Z</time>
      </trkpt>
      <trkpt lat="47.63177" lon="6.19258">
        <ele>268.98</ele>
        <time>2020-09-30T08:22:57Z</time>
      </trkpt>
      <trkpt lat="47.63182" lon="6.19263">
        <ele>269.57</ele>
        <time>2020-09-30T08:23:01Z</time>
      </trkpt>
      <trkpt lat="47.63185" lon="6.19268">
        <ele>269.87</ele>
        <time>2020-09-30T08:23:06Z</time>
      </trkpt>
      <trkpt lat="47.6319" lon="6.19272">
        <ele>270.42</ele>
        <time>2020-09-30T08:23:07Z</time>
      </trkpt>
      <trkpt lat="47.63194" lon="6.19278">
        <ele>270.89</ele>
        <time>2020-09-30T08:23:13Z</time>
      </trkpt>
      <trkpt lat="47.63197" lon="6.19285">
        <ele>271.46</ele>
        <time>2020-09-30T08:23:17Z</time>
      </trkpt>
      <trkpt lat="47.63201" lon="6.19292">
        <ele>272.03</ele>
        <time>2020-09-30T08:23:21Z</time>
      </trkpt>
      <trkpt lat="47.63205" lon="6.19297">
        <ele>272.6</ele>
        <time>2020-09-30T08:23:22Z</time>
      </trkpt>
      <trkpt lat="47.63209" lon="6.19299">
        <ele>273.02</ele>
        <time>2020-09-30T08:23:25Z</time>
      </trkpt>
      <trkpt lat="47.63213" lon="6.19305">
        <ele>273.56</ele>
        <time>2020-09-30T08:23:29Z</time>
      </trkpt>
      <trkpt lat="47.63217" lon="6.19311">
        <ele>273.96</ele>
        <time>2020-09-30T08:23:35Z</time>
      </trkpt>
      <trkpt lat="47.6322" lon="6.19316">
        <ele>274.35</ele>
        <time>2020-09-30T08:23:39Z</time>
      </trkpt>
      <trkpt lat="47.63225" lon="6.19319">
        <ele>274.85</ele>
        <time>2020-09-30T08:23:42Z</time>
      </trkpt>
      <trkpt lat="47.63232" lon="6.19319">
        <ele>275.32</ele>
        <time>2020-09-30T08:23:43Z</time>
      </trkpt>
      <trkpt lat="47.63237" lon="6.19319">
        <ele>275.61</ele>
        <time>2020-09-30T08:23:45Z</time>
      </trkpt>
      <trkpt lat="47.63242" lon="6.19319">
        <ele>276</ele>
        <time>2020-09-30T08:23:48Z</time>
      </trkpt>
      <trkpt lat="47.63241" lon="6.19327">
        <ele>277.44</ele>
        <time>2020-09-30T08:24:42Z</time>
      </trkpt>
      <trkpt lat="47.63238" lon="6.19333">
        <ele>278.86</ele>
        <time>2020-09-30T08:24:55Z</time>
      </trkpt>
      <trkpt lat="47.63236" lon="6.1934">
        <ele>280.2</ele>
        <time>2020-09-30T08:25:00Z</time>
      </trkpt>
      <trkpt lat="47.63232" lon="6.19348">
        <ele>282.47</ele>
        <time>2020-09-30T08:25:02Z</time>
      </trkpt>
      <trkpt lat="47.63227" lon="6.19356">
        <ele>284.35</ele>
        <time>2020-09-30T08:25:04Z</time>
      </trkpt>
      <trkpt lat="47.63224" lon="6.19362">
        <ele>286.02</ele>
        <time>2020-09-30T08:25:04Z</time>
      </trkpt>
      <trkpt lat="47.63219" lon="6.19368">
        <ele>287.83</ele>
        <time>2020-09-30T08:25:06Z</time>
      </trkpt>
      <trkpt lat="47.63202" lon="6.19392">
        <ele>290.81</ele>
        <time>2020-09-30T08:25:06Z</time>
      </trkpt>
      <trkpt lat="47.63198" lon="6.194">
        <ele>291.31</ele>
        <time>2020-09-30T08:25:07Z</time>
      </trkpt>
      <trkpt lat="47.63193" lon="6.19408">
        <ele>291.72</ele>
        <time>2020-09-30T08:25:08Z</time>
      </trkpt>
      <trkpt lat="47.63189" lon="6.19417">
        <ele>292.05</ele>
        <time>2020-09-30T08:25:09Z</time>
      </trkpt>
      <trkpt lat="47.63184" lon="6.19424">
        <ele>292.33</ele>
        <time>2020-09-30T08:25:10Z</time>
      </trkpt>
      <trkpt lat="47.6318" lon="6.19431">
        <ele>292.57</ele>
        <time>2020-09-30T08:25:11Z</time>
      </trkpt>
      <trkpt lat="47.63174" lon="6.1944">
        <ele>292.83</ele>
        <time>2020-09-30T08:25:13Z</time>
      </trkpt>
      <trkpt lat="47.63171" lon="6.19446">
        <ele>292.88</ele>
        <time>2020-09-30T08:25:15Z</time>
      </trkpt>
      <trkpt lat="47.63166" lon="6.19451">
        <ele>293.12</ele>
        <time>2020-09-30T08:25:20Z</time>
      </trkpt>
      <trkpt lat="47.63163" lon="6.19455">
        <ele>293.24</ele>
        <time>2020-09-30T08:25:21Z</time>
      </trkpt>
      <trkpt lat="47.63159" lon="6.1946">
        <ele>293.34</ele>
        <time>2020-09-30T08:25:23Z</time>
      </trkpt>
      <trkpt lat="47.63153" lon="6.19468">
        <ele>293.45</ele>
        <time>2020-09-30T08:25:24Z</time>
      </trkpt>
      <trkpt lat="47.63142" lon="6.19483">
        <ele>293.54</ele>
        <time>2020-09-30T08:25:25Z</time>
      </trkpt>
      <trkpt lat="47.63136" lon="6.19494">
        <ele>293.55</ele>
        <time>2020-09-30T08:25:30Z</time>
      </trkpt>
      <trkpt lat="47.63131" lon="6.19501">
        <ele>293.53</ele>
        <time>2020-09-30T08:25:31Z</time>
      </trkpt>
      <trkpt lat="47.63127" lon="6.19507">
        <ele>293.51</ele>
        <time>2020-09-30T08:25:33Z</time>
      </trkpt>
      <trkpt lat="47.63123" lon="6.19514">
        <ele>293.47</ele>
        <time>2020-09-30T08:25:34Z</time>
      </trkpt>
      <trkpt lat="47.63116" lon="6.19532">
        <ele>293.45</ele>
        <time>2020-09-30T08:25:37Z</time>
      </trkpt>
      <trkpt lat="47.63115" lon="6.19543">
        <ele>293.44</ele>
        <time>2020-09-30T08:25:39Z</time>
      </trkpt>
      <trkpt lat="47.63115" lon="6.1955">
        <ele>293.44</ele>
        <time>2020-09-30T08:25:41Z</time>
      </trkpt>
      <trkpt lat="47.63117" lon="6.19559">
        <ele>293.43</ele>
        <time>2020-09-30T08:25:42Z</time>
      </trkpt>
      <trkpt lat="47.63122" lon="6.19576">
        <ele>293.42</ele>
        <time>2020-09-30T08:25:46Z</time>
      </trkpt>
      <trkpt lat="47.63124" lon="6.19582">
        <ele>293.43</ele>
        <time>2020-09-30T08:25:47Z</time>
      </trkpt>
      <trkpt lat="47.63127" lon="6.19591">
        <ele>293.44</ele>
        <time>2020-09-30T08:25:47Z</time>
      </trkpt>
      <trkpt lat="47.6313" lon="6.19597">
        <ele>293.44</ele>
        <time>2020-09-30T08:25:52Z</time>
      </trkpt>
      <trkpt lat="47.63132" lon="6.19603">
        <ele>293.45</ele>
        <time>2020-09-30T08:25:53Z</time>
      </trkpt>
      <trkpt lat="47.63135" lon="6.19611">
        <ele>293.47</ele>
        <time>2020-09-30T08:25:55Z</time>
      </trkpt>
      <trkpt lat="47.63138" lon="6.19618">
        <ele>293.5</ele>
        <time>2020-09-30T08:25:57Z</time>
      </trkpt>
      <trkpt lat="47.63145" lon="6.19631">
        <ele>293.57</ele>
        <time>2020-09-30T08:26:01Z</time>
      </trkpt>
      <trkpt lat="47.63148" lon="6.19639">
        <ele>293.62</ele>
        <time>2020-09-30T08:26:03Z</time>
      </trkpt>
      <trkpt lat="47.63152" lon="6.19647">
        <ele>293.68</ele>
        <time>2020-09-30T08:26:05Z</time>
      </trkpt>
      <trkpt lat="47.63155" lon="6.19657">
        <ele>293.78</ele>
        <time>2020-09-30T08:26:07Z</time>
      </trkpt>
      <trkpt lat="47.63159" lon="6.19666">
        <ele>293.85</ele>
        <time>2020-09-30T08:26:10Z</time>
      </trkpt>
      <trkpt lat="47.63161" lon="6.19675">
        <ele>293.96</ele>
        <time>2020-09-30T08:26:12Z</time>
      </trkpt>
      <trkpt lat="47.63164" lon="6.19684">
        <ele>294.07</ele>
        <time>2020-09-30T08:26:12Z</time>
      </trkpt>
      <trkpt lat="47.63166" lon="6.19692">
        <ele>294.13</ele>
        <time>2020-09-30T08:26:17Z</time>
      </trkpt>
      <trkpt lat="47.63168" lon="6.19703">
        <ele>294.27</ele>
        <time>2020-09-30T08:26:17Z</time>
      </trkpt>
      <trkpt lat="47.63171" lon="6.1971">
        <ele>294.35</ele>
        <time>2020-09-30T08:26:19Z</time>
      </trkpt>
      <trkpt lat="47.63173" lon="6.19717">
        <ele>294.43</ele>
        <time>2020-09-30T08:26:21Z</time>
      </trkpt>
      <trkpt lat="47.63177" lon="6.19723">
        <ele>294.52</ele>
        <time>2020-09-30T08:26:27Z</time>
      </trkpt>
      <trkpt lat="47.63178" lon="6.19731">
        <ele>294.64</ele>
        <time>2020-09-30T08:26:30Z</time>
      </trkpt>
      <trkpt lat="47.63181" lon="6.19738">
        <ele>294.79</ele>
        <time>2020-09-30T08:26:34Z</time>
      </trkpt>
      <trkpt lat="47.63184" lon="6.19745">
        <ele>294.93</ele>
        <time>2020-09-30T08:26:34Z</time>
      </trkpt>
      <trkpt lat="47.63186" lon="6.19751">
        <ele>295.02</ele>
        <time>2020-09-30T08:26:40Z</time>
      </trkpt>
      <trkpt lat="47.63189" lon="6.19758">
        <ele>295.08</ele>
        <time>2020-09-30T08:26:42Z</time>
      </trkpt>
      <trkpt lat="47.63193" lon="6.19765">
        <ele>295.14</ele>
        <time>2020-09-30T08:26:44Z</time>
      </trkpt>
      <trkpt lat="47.63197" lon="6.19772">
        <ele>295.19</ele>
        <time>2020-09-30T08:26:47Z</time>
      </trkpt>
      <trkpt lat="47.63201" lon="6.1978">
        <ele>295.26</ele>
        <time>2020-09-30T08:26:49Z</time>
      </trkpt>
      <trkpt lat="47.63205" lon="6.19785">
        <ele>295.3</ele>
        <time>2020-09-30T08:26:52Z</time>
      </trkpt>
      <trkpt lat="47.63209" lon="6.19789">
        <ele>295.36</ele>
        <time>2020-09-30T08:26:55Z</time>
      </trkpt>
      <trkpt lat="47.63215" lon="6.19791">
        <ele>295.43</ele>
        <time>2020-09-30T08:26:58Z</time>
      </trkpt>
      <trkpt lat="47.63219" lon="6.19795">
        <ele>295.48</ele>
        <time>2020-09-30T08:26:58Z</time>
      </trkpt>
      <trkpt lat="47.63223" lon="6.19799">
        <ele>295.52</ele>
        <time>2020-09-30T08:27:04Z</time>
      </trkpt>
      <trkpt lat="47.63228" lon="6.19806">
        <ele>295.58</ele>
        <time>2020-09-30T08:27:06Z</time>
      </trkpt>
      <trkpt lat="47.63231" lon="6.19812">
        <ele>295.64</ele>
        <time>2020-09-30T08:27:09Z</time>
      </trkpt>
      <trkpt lat="47.63236" lon="6.19819">
        <ele>295.7</ele>
        <time>2020-09-30T08:27:13Z</time>
      </trkpt>
      <trkpt lat="47.63239" lon="6.19825">
        <ele>295.78</ele>
        <time>2020-09-30T08:27:15Z</time>
      </trkpt>
      <trkpt lat="47.63242" lon="6.1983">
        <ele>295.82</ele>
        <time>2020-09-30T08:27:18Z</time>
      </trkpt>
      <trkpt lat="47.63246" lon="6.19836">
        <ele>295.89</ele>
        <time>2020-09-30T08:27:20Z</time>
      </trkpt>
      <trkpt lat="47.63249" lon="6.19842">
        <ele>295.94</ele>
        <time>2020-09-30T08:27:22Z</time>
      </trkpt>
      <trkpt lat="47.63252" lon="6.19847">
        <ele>295.99</ele>
        <time>2020-09-30T08:27:24Z</time>
      </trkpt>
      <trkpt lat="47.63256" lon="6.19852">
        <ele>296.04</ele>
        <time>2020-09-30T08:27:26Z</time>
      </trkpt>
      <trkpt lat="47.63259" lon="6.19859">
        <ele>296.09</ele>
        <time>2020-09-30T08:27:28Z</time>
      </trkpt>
      <trkpt lat="47.63261" lon="6.19865">
        <ele>296.14</ele>
        <time>2020-09-30T08:27:30Z</time>
      </trkpt>
      <trkpt lat="47.63264" lon="6.19871">
        <ele>296.19</ele>
        <time>2020-09-30T08:27:32Z</time>
      </trkpt>
      <trkpt lat="47.63267" lon="6.19879">
        <ele>296.25</ele>
        <time>2020-09-30T08:27:35Z</time>
      </trkpt>
      <trkpt lat="47.63272" lon="6.19892">
        <ele>296.39</ele>
        <time>2020-09-30T08:27:39Z</time>
      </trkpt>
      <trkpt lat="47.63274" lon="6.19899">
        <ele>296.48</ele>
        <time>2020-09-30T08:27:41Z</time>
      </trkpt>
      <trkpt lat="47.63276" lon="6.19904">
        <ele>296.56</ele>
        <time>2020-09-30T08:27:42Z</time>
      </trkpt>
      <trkpt lat="47.63279" lon="6.19911">
        <ele>296.63</ele>
        <time>2020-09-30T08:27:44Z</time>
      </trkpt>
      <trkpt lat="47.63282" lon="6.19918">
        <ele>296.71</ele>
        <time>2020-09-30T08:27:47Z</time>
      </trkpt>
      <trkpt lat="47.63285" lon="6.19926">
        <ele>296.86</ele>
        <time>2020-09-30T08:27:47Z</time>
      </trkpt>
      <trkpt lat="47.63289" lon="6.19932">
        <ele>297</ele>
        <time>2020-09-30T08:27:53Z</time>
      </trkpt>
      <trkpt lat="47.63295" lon="6.19944">
        <ele>297.3</ele>
        <time>2020-09-30T08:27:58Z</time>
      </trkpt>
      <trkpt lat="47.63297" lon="6.19951">
        <ele>297.57</ele>
        <time>2020-09-30T08:28:02Z</time>
      </trkpt>
      <trkpt lat="47.63299" lon="6.19959">
        <ele>297.9</ele>
        <time>2020-09-30T08:28:07Z</time>
      </trkpt>
      <trkpt lat="47.633" lon="6.19966">
        <ele>298.25</ele>
        <time>2020-09-30T08:28:12Z</time>
      </trkpt>
      <trkpt lat="47.63303" lon="6.1996">
        <ele>301.39</ele>
        <time>2020-09-30T08:29:39Z</time>
      </trkpt>
      <trkpt lat="47.63302" lon="6.19952">
        <ele>301.67</ele>
        <time>2020-09-30T08:29:42Z</time>
      </trkpt>
      <trkpt lat="47.63301" lon="6.19946">
        <ele>302.73</ele>
        <time>2020-09-30T08:30:13Z</time>
      </trkpt>
      <trkpt lat="47.63297" lon="6.1994">
        <ele>303.66</ele>
        <time>2020-09-30T08:30:25Z</time>
      </trkpt>
      <trkpt lat="47.63294" lon="6.19932">
        <ele>304.23</ele>
        <time>2020-09-30T08:30:29Z</time>
      </trkpt>
      <trkpt lat="47.63291" lon="6.19923">
        <ele>304.53</ele>
        <time>2020-09-30T08:30:32Z</time>
      </trkpt>
      <trkpt lat="47.63288" lon="6.19916">
        <ele>304.88</ele>
        <time>2020-09-30T08:30:35Z</time>
      </trkpt>
      <trkpt lat="47.63286" lon="6.19909">
        <ele>305.05</ele>
        <time>2020-09-30T08:30:36Z</time>
      </trkpt>
      <trkpt lat="47.63278" lon="6.19892">
        <ele>305.6</ele>
        <time>2020-09-30T08:30:37Z</time>
      </trkpt>
      <trkpt lat="47.63275" lon="6.19886">
        <ele>305.73</ele>
        <time>2020-09-30T08:30:42Z</time>
      </trkpt>
      <trkpt lat="47.63272" lon="6.19879">
        <ele>305.97</ele>
        <time>2020-09-30T08:30:44Z</time>
      </trkpt>
      <trkpt lat="47.63266" lon="6.19864">
        <ele>306.36</ele>
        <time>2020-09-30T08:30:48Z</time>
      </trkpt>
      <trkpt lat="47.63262" lon="6.19857">
        <ele>306.55</ele>
        <time>2020-09-30T08:30:49Z</time>
      </trkpt>
      <trkpt lat="47.63258" lon="6.19848">
        <ele>306.74</ele>
        <time>2020-09-30T08:30:52Z</time>
      </trkpt>
      <trkpt lat="47.63255" lon="6.19841">
        <ele>306.92</ele>
        <time>2020-09-30T08:30:53Z</time>
      </trkpt>
      <trkpt lat="47.63252" lon="6.19836">
        <ele>307.09</ele>
        <time>2020-09-30T08:30:55Z</time>
      </trkpt>
      <trkpt lat="47.63248" lon="6.19829">
        <ele>307.27</ele>
        <time>2020-09-30T08:30:57Z</time>
      </trkpt>
      <trkpt lat="47.63243" lon="6.1982">
        <ele>307.93</ele>
        <time>2020-09-30T08:31:00Z</time>
      </trkpt>
      <trkpt lat="47.6324" lon="6.19813">
        <ele>308.27</ele>
        <time>2020-09-30T08:31:01Z</time>
      </trkpt>
      <trkpt lat="47.63234" lon="6.19803">
        <ele>308.76</ele>
        <time>2020-09-30T08:31:04Z</time>
      </trkpt>
      <trkpt lat="47.63229" lon="6.19796">
        <ele>309.61</ele>
        <time>2020-09-30T08:31:06Z</time>
      </trkpt>
      <trkpt lat="47.63224" lon="6.19791">
        <ele>310</ele>
        <time>2020-09-30T08:31:07Z</time>
      </trkpt>
      <trkpt lat="47.63209" lon="6.19772">
        <ele>310.68</ele>
        <time>2020-09-30T08:31:08Z</time>
      </trkpt>
      <trkpt lat="47.63205" lon="6.19764">
        <ele>310.8</ele>
        <time>2020-09-30T08:31:09Z</time>
      </trkpt>
      <trkpt lat="47.63202" lon="6.19757">
        <ele>310.88</ele>
        <time>2020-09-30T08:31:10Z</time>
      </trkpt>
      <trkpt lat="47.632" lon="6.19751">
        <ele>310.94</ele>
        <time>2020-09-30T08:31:11Z</time>
      </trkpt>
      <trkpt lat="47.63197" lon="6.19741">
        <ele>310.97</ele>
        <time>2020-09-30T08:31:13Z</time>
      </trkpt>
      <trkpt lat="47.63195" lon="6.19733">
        <ele>310.98</ele>
        <time>2020-09-30T08:31:15Z</time>
      </trkpt>
      <trkpt lat="47.6319" lon="6.19728">
        <ele>310.99</ele>
        <time>2020-09-30T08:31:20Z</time>
      </trkpt>
      <trkpt lat="47.63188" lon="6.19722">
        <ele>311</ele>
        <time>2020-09-30T08:31:23Z</time>
      </trkpt>
      <trkpt lat="47.63184" lon="6.19716">
        <ele>311.01</ele>
        <time>2020-09-30T08:31:24Z</time>
      </trkpt>
      <trkpt lat="47.63179" lon="6.19704">
        <ele>311.05</ele>
        <time>2020-09-30T08:31:27Z</time>
      </trkpt>
      <trkpt lat="47.63174" lon="6.19696">
        <ele>311.09</ele>
        <time>2020-09-30T08:31:28Z</time>
      </trkpt>
      <trkpt lat="47.63167" lon="6.19681">
        <ele>311.12</ele>
        <time>2020-09-30T08:31:31Z</time>
      </trkpt>
      <trkpt lat="47.63164" lon="6.19675">
        <ele>311.13</ele>
        <time>2020-09-30T08:31:32Z</time>
      </trkpt>
      <trkpt lat="47.6316" lon="6.19666">
        <ele>311.15</ele>
        <time>2020-09-30T08:31:33Z</time>
      </trkpt>
      <trkpt lat="47.63155" lon="6.19659">
        <ele>311.16</ele>
        <time>2020-09-30T08:31:35Z</time>
      </trkpt>
      <trkpt lat="47.63151" lon="6.19651">
        <ele>311.16</ele>
        <time>2020-09-30T08:31:36Z</time>
      </trkpt>
      <trkpt lat="47.63148" lon="6.19644">
        <ele>311.17</ele>
        <time>2020-09-30T08:31:36Z</time>
      </trkpt>
      <trkpt lat="47.63145" lon="6.19637">
        <ele>311.17</ele>
        <time>2020-09-30T08:31:38Z</time>
      </trkpt>
      <trkpt lat="47.63134" lon="6.19609">
        <ele>311.16</ele>
        <time>2020-09-30T08:31:38Z</time>
      </trkpt>
      <trkpt lat="47.63131" lon="6.19602">
        <ele>311.14</ele>
        <time>2020-09-30T08:31:39Z</time>
      </trkpt>
      <trkpt lat="47.63128" lon="6.19594">
        <ele>311.13</ele>
        <time>2020-09-30T08:31:40Z</time>
      </trkpt>
      <trkpt lat="47.63125" lon="6.19587">
        <ele>311.12</ele>
        <time>2020-09-30T08:31:41Z</time>
      </trkpt>
      <trkpt lat="47.63122" lon="6.1958">
        <ele>311.11</ele>
        <time>2020-09-30T08:31:42Z</time>
      </trkpt>
      <trkpt lat="47.6312" lon="6.19572">
        <ele>311.1</ele>
        <time>2020-09-30T08:31:43Z</time>
      </trkpt>
      <trkpt lat="47.63118" lon="6.19565">
        <ele>311.09</ele>
        <time>2020-09-30T08:31:44Z</time>
      </trkpt>
      <trkpt lat="47.63117" lon="6.19558">
        <ele>311.08</ele>
        <time>2020-09-30T08:31:45Z</time>
      </trkpt>
      <trkpt lat="47.63118" lon="6.1955">
        <ele>311.07</ele>
        <time>2020-09-30T08:31:46Z</time>
      </trkpt>
      <trkpt lat="47.63119" lon="6.19543">
        <ele>311.05</ele>
        <time>2020-09-30T08:31:47Z</time>
      </trkpt>
      <trkpt lat="47.63121" lon="6.19537">
        <ele>311.03</ele>
        <time>2020-09-30T08:31:48Z</time>
      </trkpt>
      <trkpt lat="47.63126" lon="6.19527">
        <ele>311.02</ele>
        <time>2020-09-30T08:31:50Z</time>
      </trkpt>
      <trkpt lat="47.6313" lon="6.19519">
        <ele>311.02</ele>
        <time>2020-09-30T08:31:52Z</time>
      </trkpt>
      <trkpt lat="47.63134" lon="6.19514">
        <ele>311.01</ele>
        <time>2020-09-30T08:31:54Z</time>
      </trkpt>
      <trkpt lat="47.63138" lon="6.19509">
        <ele>311</ele>
        <time>2020-09-30T08:31:56Z</time>
      </trkpt>
      <trkpt lat="47.63145" lon="6.19501">
        <ele>310.98</ele>
        <time>2020-09-30T08:32:00Z</time>
      </trkpt>
      <trkpt lat="47.63149" lon="6.19493">
        <ele>310.97</ele>
        <time>2020-09-30T08:32:06Z</time>
      </trkpt>
      <trkpt lat="47.63154" lon="6.19486">
        <ele>310.95</ele>
        <time>2020-09-30T08:32:09Z</time>
      </trkpt>
      <trkpt lat="47.63157" lon="6.19482">
        <ele>310.94</ele>
        <time>2020-09-30T08:32:09Z</time>
      </trkpt>
      <trkpt lat="47.63161" lon="6.19475">
        <ele>310.93</ele>
        <time>2020-09-30T08:32:13Z</time>
      </trkpt>
      <trkpt lat="47.63165" lon="6.1947">
        <ele>310.92</ele>
        <time>2020-09-30T08:32:16Z</time>
      </trkpt>
      <trkpt lat="47.63168" lon="6.19465">
        <ele>310.92</ele>
        <time>2020-09-30T08:32:19Z</time>
      </trkpt>
      <trkpt lat="47.63173" lon="6.1946">
        <ele>310.92</ele>
        <time>2020-09-30T08:32:22Z</time>
      </trkpt>
      <trkpt lat="47.63177" lon="6.19455">
        <ele>310.93</ele>
        <time>2020-09-30T08:32:25Z</time>
      </trkpt>
      <trkpt lat="47.63181" lon="6.19449">
        <ele>310.95</ele>
        <time>2020-09-30T08:32:28Z</time>
      </trkpt>
      <trkpt lat="47.63185" lon="6.19442">
        <ele>310.98</ele>
        <time>2020-09-30T08:32:31Z</time>
      </trkpt>
      <trkpt lat="47.63189" lon="6.19436">
        <ele>311.01</ele>
        <time>2020-09-30T08:32:34Z</time>
      </trkpt>
      <trkpt lat="47.63191" lon="6.1943">
        <ele>311.05</ele>
        <time>2020-09-30T08:32:38Z</time>
      </trkpt>
      <trkpt lat="47.63195" lon="6.19422">
        <ele>311.12</ele>
        <time>2020-09-30T08:32:42Z</time>
      </trkpt>
      <trkpt lat="47.63198" lon="6.19416">
        <ele>311.16</ele>
        <time>2020-09-30T08:32:46Z</time>
      </trkpt>
      <trkpt lat="47.63202" lon="6.19408">
        <ele>311.21</ele>
        <time>2020-09-30T08:32:49Z</time>
      </trkpt>
      <trkpt lat="47.63205" lon="6.19403">
        <ele>311.26</ele>
        <time>2020-09-30T08:32:52Z</time>
      </trkpt>
      <trkpt lat="47.63209" lon="6.19398">
        <ele>311.33</ele>
        <time>2020-09-30T08:32:53Z</time>
      </trkpt>
      <trkpt lat="47.63212" lon="6.19392">
        <ele>311.37</ele>
        <time>2020-09-30T08:32:58Z</time>
      </trkpt>
      <trkpt lat="47.63216" lon="6.19386">
        <ele>311.45</ele>
        <time>2020-09-30T08:32:59Z</time>
      </trkpt>
      <trkpt lat="47.6322" lon="6.1938">
        <ele>311.49</ele>
        <time>2020-09-30T08:33:03Z</time>
      </trkpt>
      <trkpt lat="47.63224" lon="6.19375">
        <ele>311.56</ele>
        <time>2020-09-30T08:33:07Z</time>
      </trkpt>
      <trkpt lat="47.63228" lon="6.19371">
        <ele>311.61</ele>
        <time>2020-09-30T08:33:10Z</time>
      </trkpt>
      <trkpt lat="47.63231" lon="6.19364">
        <ele>311.67</ele>
        <time>2020-09-30T08:33:12Z</time>
      </trkpt>
      <trkpt lat="47.63233" lon="6.19357">
        <ele>311.74</ele>
        <time>2020-09-30T08:33:15Z</time>
      </trkpt>
      <trkpt lat="47.63236" lon="6.19351">
        <ele>311.8</ele>
        <time>2020-09-30T08:33:16Z</time>
      </trkpt>
      <trkpt lat="47.63239" lon="6.19345">
        <ele>311.87</ele>
        <time>2020-09-30T08:33:19Z</time>
      </trkpt>
      <trkpt lat="47.63242" lon="6.19339">
        <ele>312.02</ele>
        <time>2020-09-30T08:33:36Z</time>
      </trkpt>
      <trkpt lat="47.63245" lon="6.19333">
        <ele>312.13</ele>
        <time>2020-09-30T08:33:41Z</time>
      </trkpt>
      <trkpt lat="47.63249" lon="6.19325">
        <ele>312.21</ele>
        <time>2020-09-30T08:33:43Z</time>
      </trkpt>
      <trkpt lat="47.63252" lon="6.19318">
        <ele>312.34</ele>
        <time>2020-09-30T08:33:46Z</time>
      </trkpt>
      <trkpt lat="47.63254" lon="6.1931">
        <ele>312.41</ele>
        <time>2020-09-30T08:33:51Z</time>
      </trkpt>
      <trkpt lat="47.63255" lon="6.19302">
        <ele>312.46</ele>
        <time>2020-09-30T08:33:52Z</time>
      </trkpt>
      <trkpt lat="47.63259" lon="6.19293">
        <ele>312.55</ele>
        <time>2020-09-30T08:33:54Z</time>
      </trkpt>
      <trkpt lat="47.63262" lon="6.19288">
        <ele>312.6</ele>
        <time>2020-09-30T08:33:58Z</time>
      </trkpt>
      <trkpt lat="47.63266" lon="6.19281">
        <ele>312.7</ele>
        <time>2020-09-30T08:34:00Z</time>
      </trkpt>
      <trkpt lat="47.6327" lon="6.19275">
        <ele>312.76</ele>
        <time>2020-09-30T08:34:05Z</time>
      </trkpt>
      <trkpt lat="47.63273" lon="6.1927">
        <ele>312.83</ele>
        <time>2020-09-30T08:34:08Z</time>
      </trkpt>
      <trkpt lat="47.63278" lon="6.19266">
        <ele>312.94</ele>
        <time>2020-09-30T08:34:09Z</time>
      </trkpt>
      <trkpt lat="47.63281" lon="6.19261">
        <ele>313</ele>
        <time>2020-09-30T08:34:13Z</time>
      </trkpt>
      <trkpt lat="47.63284" lon="6.19255">
        <ele>313.08</ele>
        <time>2020-09-30T08:34:14Z</time>
      </trkpt>
      <trkpt lat="47.63287" lon="6.19249">
        <ele>313.15</ele>
        <time>2020-09-30T08:34:18Z</time>
      </trkpt>
      <trkpt lat="47.63291" lon="6.19244">
        <ele>313.23</ele>
        <time>2020-09-30T08:34:21Z</time>
      </trkpt>
      <trkpt lat="47.63294" lon="6.19237">
        <ele>313.31</ele>
        <time>2020-09-30T08:34:22Z</time>
      </trkpt>
      <trkpt lat="47.63297" lon="6.1923">
        <ele>313.39</ele>
        <time>2020-09-30T08:34:26Z</time>
      </trkpt>
      <trkpt lat="47.63301" lon="6.19224">
        <ele>313.53</ele>
        <time>2020-09-30T08:34:28Z</time>
      </trkpt>
      <trkpt lat="47.63304" lon="6.19217">
        <ele>313.61</ele>
        <time>2020-09-30T08:34:32Z</time>
      </trkpt>
      <trkpt lat="47.63307" lon="6.1921">
        <ele>313.71</ele>
        <time>2020-09-30T08:34:35Z</time>
      </trkpt>
      <trkpt lat="47.63308" lon="6.19203">
        <ele>313.78</ele>
        <time>2020-09-30T08:34:38Z</time>
      </trkpt>
      <trkpt lat="47.6331" lon="6.19196">
        <ele>313.89</ele>
        <time>2020-09-30T08:34:41Z</time>
      </trkpt>
      <trkpt lat="47.63318" lon="6.19182">
        <ele>314.04</ele>
        <time>2020-09-30T08:34:46Z</time>
      </trkpt>
      <trkpt lat="47.63322" lon="6.19177">
        <ele>314.1</ele>
        <time>2020-09-30T08:34:47Z</time>
      </trkpt>
      <trkpt lat="47.63327" lon="6.19173">
        <ele>314.14</ele>
        <time>2020-09-30T08:34:49Z</time>
      </trkpt>
      <trkpt lat="47.63332" lon="6.19168">
        <ele>314.19</ele>
        <time>2020-09-30T08:34:50Z</time>
      </trkpt>
      <trkpt lat="47.63337" lon="6.19163">
        <ele>314.26</ele>
        <time>2020-09-30T08:34:52Z</time>
      </trkpt>
      <trkpt lat="47.63341" lon="6.1916">
        <ele>314.3</ele>
        <time>2020-09-30T08:34:54Z</time>
      </trkpt>
      <trkpt lat="47.63346" lon="6.19155">
        <ele>314.36</ele>
        <time>2020-09-30T08:34:56Z</time>
      </trkpt>
      <trkpt lat="47.63354" lon="6.19145">
        <ele>314.52</ele>
        <time>2020-09-30T08:35:00Z</time>
      </trkpt>
      <trkpt lat="47.63359" lon="6.19138">
        <ele>314.59</ele>
        <time>2020-09-30T08:35:02Z</time>
      </trkpt>
      <trkpt lat="47.63363" lon="6.19133">
        <ele>314.66</ele>
        <time>2020-09-30T08:35:05Z</time>
      </trkpt>
      <trkpt lat="47.63366" lon="6.19127">
        <ele>314.74</ele>
        <time>2020-09-30T08:35:07Z</time>
      </trkpt>
      <trkpt lat="47.63369" lon="6.19121">
        <ele>314.8</ele>
        <time>2020-09-30T08:35:09Z</time>
      </trkpt>
      <trkpt lat="47.63371" lon="6.19113">
        <ele>314.91</ele>
        <time>2020-09-30T08:35:12Z</time>
      </trkpt>
      <trkpt lat="47.63373" lon="6.19104">
        <ele>315</ele>
        <time>2020-09-30T08:35:15Z</time>
      </trkpt>
      <trkpt lat="47.63375" lon="6.19096">
        <ele>315.08</ele>
        <time>2020-09-30T08:35:17Z</time>
      </trkpt>
      <trkpt lat="47.63378" lon="6.19089">
        <ele>315.15</ele>
        <time>2020-09-30T08:35:18Z</time>
      </trkpt>
      <trkpt lat="47.63381" lon="6.1908">
        <ele>315.22</ele>
        <time>2020-09-30T08:35:21Z</time>
      </trkpt>
      <trkpt lat="47.63387" lon="6.19063">
        <ele>315.37</ele>
        <time>2020-09-30T08:35:24Z</time>
      </trkpt>
      <trkpt lat="47.63391" lon="6.19055">
        <ele>315.44</ele>
        <time>2020-09-30T08:35:26Z</time>
      </trkpt>
      <trkpt lat="47.63396" lon="6.19047">
        <ele>315.54</ele>
        <time>2020-09-30T08:35:27Z</time>
      </trkpt>
      <trkpt lat="47.634" lon="6.19042">
        <ele>315.59</ele>
        <time>2020-09-30T08:35:30Z</time>
      </trkpt>
      <trkpt lat="47.63404" lon="6.19035">
        <ele>315.66</ele>
        <time>2020-09-30T08:35:32Z</time>
      </trkpt>
      <trkpt lat="47.6341" lon="6.19028">
        <ele>315.74</ele>
        <time>2020-09-30T08:35:35Z</time>
      </trkpt>
      <trkpt lat="47.63414" lon="6.19023">
        <ele>315.82</ele>
        <time>2020-09-30T08:35:36Z</time>
      </trkpt>
      <trkpt lat="47.63421" lon="6.19015">
        <ele>316.18</ele>
        <time>2020-09-30T08:35:37Z</time>
      </trkpt>
      <trkpt lat="47.63425" lon="6.19011">
        <ele>316.52</ele>
        <time>2020-09-30T08:35:40Z</time>
      </trkpt>
      <trkpt lat="47.63435" lon="6.19001">
        <ele>317.25</ele>
        <time>2020-09-30T08:35:43Z</time>
      </trkpt>
      <trkpt lat="47.6344" lon="6.18997">
        <ele>317.46</ele>
        <time>2020-09-30T08:35:45Z</time>
      </trkpt>
      <trkpt lat="47.63445" lon="6.18993">
        <ele>317.6</ele>
        <time>2020-09-30T08:35:46Z</time>
      </trkpt>
      <trkpt lat="47.6345" lon="6.18988">
        <ele>317.8</ele>
        <time>2020-09-30T08:35:47Z</time>
      </trkpt>
      <trkpt lat="47.63455" lon="6.18985">
        <ele>317.88</ele>
        <time>2020-09-30T08:35:49Z</time>
      </trkpt>
      <trkpt lat="47.63461" lon="6.1898">
        <ele>318.02</ele>
        <time>2020-09-30T08:35:50Z</time>
      </trkpt>
      <trkpt lat="47.63465" lon="6.18976">
        <ele>318.08</ele>
        <time>2020-09-30T08:35:51Z</time>
      </trkpt>
      <trkpt lat="47.6347" lon="6.18972">
        <ele>318.15</ele>
        <time>2020-09-30T08:35:53Z</time>
      </trkpt>
      <trkpt lat="47.63478" lon="6.18967">
        <ele>318.23</ele>
        <time>2020-09-30T08:35:55Z</time>
      </trkpt>
      <trkpt lat="47.6349" lon="6.18957">
        <ele>318.33</ele>
        <time>2020-09-30T08:35:58Z</time>
      </trkpt>
      <trkpt lat="47.63497" lon="6.18953">
        <ele>318.38</ele>
        <time>2020-09-30T08:35:59Z</time>
      </trkpt>
      <trkpt lat="47.63502" lon="6.18949">
        <ele>318.4</ele>
        <time>2020-09-30T08:36:01Z</time>
      </trkpt>
      <trkpt lat="47.63507" lon="6.18946">
        <ele>318.42</ele>
        <time>2020-09-30T08:36:02Z</time>
      </trkpt>
      <trkpt lat="47.63512" lon="6.18942">
        <ele>318.44</ele>
        <time>2020-09-30T08:36:03Z</time>
      </trkpt>
      <trkpt lat="47.63519" lon="6.18935">
        <ele>318.47</ele>
        <time>2020-09-30T08:36:05Z</time>
      </trkpt>
      <trkpt lat="47.63523" lon="6.18931">
        <ele>318.48</ele>
        <time>2020-09-30T08:36:06Z</time>
      </trkpt>
      <trkpt lat="47.63537" lon="6.18914">
        <ele>318.52</ele>
        <time>2020-09-30T08:36:07Z</time>
      </trkpt>
      <trkpt lat="47.63542" lon="6.18909">
        <ele>318.52</ele>
        <time>2020-09-30T08:36:08Z</time>
      </trkpt>
      <trkpt lat="47.63546" lon="6.18904">
        <ele>318.52</ele>
        <time>2020-09-30T08:36:09Z</time>
      </trkpt>
      <trkpt lat="47.63551" lon="6.18899">
        <ele>318.52</ele>
        <time>2020-09-30T08:36:10Z</time>
      </trkpt>
      <trkpt lat="47.63555" lon="6.18895">
        <ele>318.52</ele>
        <time>2020-09-30T08:36:11Z</time>
      </trkpt>
      <trkpt lat="47.63559" lon="6.18889">
        <ele>318.52</ele>
        <time>2020-09-30T08:36:12Z</time>
      </trkpt>
      <trkpt lat="47.63563" lon="6.18884">
        <ele>318.52</ele>
        <time>2020-09-30T08:36:13Z</time>
      </trkpt>
      <trkpt lat="47.63567" lon="6.18878">
        <ele>318.51</ele>
        <time>2020-09-30T08:36:14Z</time>
      </trkpt>
      <trkpt lat="47.63571" lon="6.18872">
        <ele>318.5</ele>
        <time>2020-09-30T08:36:15Z</time>
      </trkpt>
      <trkpt lat="47.63574" lon="6.18866">
        <ele>318.5</ele>
        <time>2020-09-30T08:36:16Z</time>
      </trkpt>
      <trkpt lat="47.63578" lon="6.18861">
        <ele>318.49</ele>
        <time>2020-09-30T08:36:17Z</time>
      </trkpt>
      <trkpt lat="47.63581" lon="6.18856">
        <ele>318.49</ele>
        <time>2020-09-30T08:36:18Z</time>
      </trkpt>
      <trkpt lat="47.63584" lon="6.18851">
        <ele>318.48</ele>
        <time>2020-09-30T08:36:19Z</time>
      </trkpt>
      <trkpt lat="47.63587" lon="6.18845">
        <ele>318.48</ele>
        <time>2020-09-30T08:36:20Z</time>
      </trkpt>
      <trkpt lat="47.63593" lon="6.18836">
        <ele>318.49</ele>
        <time>2020-09-30T08:36:22Z</time>
      </trkpt>
      <trkpt lat="47.63597" lon="6.18826">
        <ele>318.5</ele>
        <time>2020-09-30T08:36:24Z</time>
      </trkpt>
      <trkpt lat="47.636" lon="6.18816">
        <ele>318.5</ele>
        <time>2020-09-30T08:36:26Z</time>
      </trkpt>
      <trkpt lat="47.63602" lon="6.18807">
        <ele>318.5</ele>
        <time>2020-09-30T08:36:28Z</time>
      </trkpt>
      <trkpt lat="47.63604" lon="6.18798">
        <ele>318.5</ele>
        <time>2020-09-30T08:36:30Z</time>
      </trkpt>
      <trkpt lat="47.63605" lon="6.18788">
        <ele>318.5</ele>
        <time>2020-09-30T08:36:32Z</time>
      </trkpt>
      <trkpt lat="47.63605" lon="6.1878">
        <ele>318.49</ele>
        <time>2020-09-30T08:36:36Z</time>
      </trkpt>
      <trkpt lat="47.63608" lon="6.18773">
        <ele>318.49</ele>
        <time>2020-09-30T08:36:38Z</time>
      </trkpt>
      <trkpt lat="47.63612" lon="6.18768">
        <ele>318.48</ele>
        <time>2020-09-30T08:36:40Z</time>
      </trkpt>
      <trkpt lat="47.63617" lon="6.18767">
        <ele>318.47</ele>
        <time>2020-09-30T08:36:43Z</time>
      </trkpt>
      <trkpt lat="47.63621" lon="6.1877">
        <ele>318.45</ele>
        <time>2020-09-30T08:36:44Z</time>
      </trkpt>
      <trkpt lat="47.63616" lon="6.18771">
        <ele>318.43</ele>
        <time>2020-09-30T08:37:01Z</time>
      </trkpt>
      <trkpt lat="47.63621" lon="6.18775">
        <ele>316.3</ele>
        <time>2020-09-30T08:41:29Z</time>
      </trkpt>
      <trkpt lat="47.63626" lon="6.1878">
        <ele>316.07</ele>
        <time>2020-09-30T08:41:37Z</time>
      </trkpt>
      <trkpt lat="47.63634" lon="6.18792">
        <ele>315.9</ele>
        <time>2020-09-30T08:41:40Z</time>
      </trkpt>
      <trkpt lat="47.63639" lon="6.18799">
        <ele>315.79</ele>
        <time>2020-09-30T08:41:41Z</time>
      </trkpt>
      <trkpt lat="47.63643" lon="6.18804">
        <ele>315.75</ele>
        <time>2020-09-30T08:41:42Z</time>
      </trkpt>
      <trkpt lat="47.63648" lon="6.1881">
        <ele>315.71</ele>
        <time>2020-09-30T08:41:45Z</time>
      </trkpt>
      <trkpt lat="47.63652" lon="6.18814">
        <ele>315.63</ele>
        <time>2020-09-30T08:41:48Z</time>
      </trkpt>
      <trkpt lat="47.63656" lon="6.18818">
        <ele>315.57</ele>
        <time>2020-09-30T08:41:50Z</time>
      </trkpt>
      <trkpt lat="47.63664" lon="6.18828">
        <ele>315.41</ele>
        <time>2020-09-30T08:41:54Z</time>
      </trkpt>
      <trkpt lat="47.63668" lon="6.18832">
        <ele>315.32</ele>
        <time>2020-09-30T08:41:58Z</time>
      </trkpt>
      <trkpt lat="47.63672" lon="6.18837">
        <ele>315.22</ele>
        <time>2020-09-30T08:41:59Z</time>
      </trkpt>
      <trkpt lat="47.63676" lon="6.18842">
        <ele>315.16</ele>
        <time>2020-09-30T08:42:04Z</time>
      </trkpt>
      <trkpt lat="47.6368" lon="6.18846">
        <ele>315.07</ele>
        <time>2020-09-30T08:42:05Z</time>
      </trkpt>
      <trkpt lat="47.63683" lon="6.18851">
        <ele>315.02</ele>
        <time>2020-09-30T08:42:10Z</time>
      </trkpt>
      <trkpt lat="47.63687" lon="6.18856">
        <ele>314.93</ele>
        <time>2020-09-30T08:42:13Z</time>
      </trkpt>
      <trkpt lat="47.63693" lon="6.18862">
        <ele>314.85</ele>
        <time>2020-09-30T08:42:18Z</time>
      </trkpt>
      <trkpt lat="47.63696" lon="6.18866">
        <ele>314.79</ele>
        <time>2020-09-30T08:42:21Z</time>
      </trkpt>
      <trkpt lat="47.63701" lon="6.18869">
        <ele>314.75</ele>
        <time>2020-09-30T08:42:24Z</time>
      </trkpt>
      <trkpt lat="47.63706" lon="6.18873">
        <ele>314.69</ele>
        <time>2020-09-30T08:42:28Z</time>
      </trkpt>
      <trkpt lat="47.6371" lon="6.18878">
        <ele>314.63</ele>
        <time>2020-09-30T08:42:31Z</time>
      </trkpt>
      <trkpt lat="47.63716" lon="6.18883">
        <ele>314.59</ele>
        <time>2020-09-30T08:42:36Z</time>
      </trkpt>
      <trkpt lat="47.63719" lon="6.18888">
        <ele>314.55</ele>
        <time>2020-09-30T08:42:41Z</time>
      </trkpt>
      <trkpt lat="47.63724" lon="6.18895">
        <ele>314.51</ele>
        <time>2020-09-30T08:42:45Z</time>
      </trkpt>
      <trkpt lat="47.63727" lon="6.18901">
        <ele>314.49</ele>
        <time>2020-09-30T08:42:51Z</time>
      </trkpt>
      <trkpt lat="47.6373" lon="6.18906">
        <ele>314.47</ele>
        <time>2020-09-30T08:42:54Z</time>
      </trkpt>
      <trkpt lat="47.63734" lon="6.18911">
        <ele>314.45</ele>
        <time>2020-09-30T08:42:58Z</time>
      </trkpt>
      <trkpt lat="47.63738" lon="6.18916">
        <ele>314.44</ele>
        <time>2020-09-30T08:43:01Z</time>
      </trkpt>
      <trkpt lat="47.63741" lon="6.1892">
        <ele>314.43</ele>
        <time>2020-09-30T08:43:06Z</time>
      </trkpt>
      <trkpt lat="47.63745" lon="6.18925">
        <ele>314.43</ele>
        <time>2020-09-30T08:43:09Z</time>
      </trkpt>
      <trkpt lat="47.63751" lon="6.18932">
        <ele>314.43</ele>
        <time>2020-09-30T08:43:16Z</time>
      </trkpt>
      <trkpt lat="47.63755" lon="6.18938">
        <ele>314.43</ele>
        <time>2020-09-30T08:43:21Z</time>
      </trkpt>
      <trkpt lat="47.63759" lon="6.18943">
        <ele>314.44</ele>
        <time>2020-09-30T08:43:23Z</time>
      </trkpt>
      <trkpt lat="47.63763" lon="6.18947">
        <ele>314.45</ele>
        <time>2020-09-30T08:43:29Z</time>
      </trkpt>
      <trkpt lat="47.63768" lon="6.18951">
        <ele>314.46</ele>
        <time>2020-09-30T08:43:32Z</time>
      </trkpt>
      <trkpt lat="47.63773" lon="6.18955">
        <ele>314.47</ele>
        <time>2020-09-30T08:43:36Z</time>
      </trkpt>
      <trkpt lat="47.63778" lon="6.18959">
        <ele>314.5</ele>
        <time>2020-09-30T08:43:42Z</time>
      </trkpt>
      <trkpt lat="47.63783" lon="6.18966">
        <ele>314.52</ele>
        <time>2020-09-30T08:43:46Z</time>
      </trkpt>
      <trkpt lat="47.63787" lon="6.1897">
        <ele>314.55</ele>
        <time>2020-09-30T08:43:50Z</time>
      </trkpt>
      <trkpt lat="47.6379" lon="6.18974">
        <ele>314.58</ele>
        <time>2020-09-30T08:43:54Z</time>
      </trkpt>
      <trkpt lat="47.63794" lon="6.18979">
        <ele>314.6</ele>
        <time>2020-09-30T08:43:57Z</time>
      </trkpt>
      <trkpt lat="47.63797" lon="6.18984">
        <ele>314.62</ele>
        <time>2020-09-30T08:44:01Z</time>
      </trkpt>
      <trkpt lat="47.63802" lon="6.18989">
        <ele>314.65</ele>
        <time>2020-09-30T08:44:03Z</time>
      </trkpt>
      <trkpt lat="47.63805" lon="6.18993">
        <ele>314.67</ele>
        <time>2020-09-30T08:44:07Z</time>
      </trkpt>
      <trkpt lat="47.6381" lon="6.18998">
        <ele>314.69</ele>
        <time>2020-09-30T08:44:11Z</time>
      </trkpt>
      <trkpt lat="47.63814" lon="6.19002">
        <ele>314.71</ele>
        <time>2020-09-30T08:44:13Z</time>
      </trkpt>
      <trkpt lat="47.63818" lon="6.19006">
        <ele>314.73</ele>
        <time>2020-09-30T08:44:14Z</time>
      </trkpt>
      <trkpt lat="47.63822" lon="6.19011">
        <ele>314.75</ele>
        <time>2020-09-30T08:44:17Z</time>
      </trkpt>
      <trkpt lat="47.63826" lon="6.19015">
        <ele>314.78</ele>
        <time>2020-09-30T08:44:21Z</time>
      </trkpt>
      <trkpt lat="47.63831" lon="6.1902">
        <ele>314.81</ele>
        <time>2020-09-30T08:44:23Z</time>
      </trkpt>
      <trkpt lat="47.63835" lon="6.19024">
        <ele>314.85</ele>
        <time>2020-09-30T08:44:26Z</time>
      </trkpt>
      <trkpt lat="47.63839" lon="6.19028">
        <ele>314.88</ele>
        <time>2020-09-30T08:44:29Z</time>
      </trkpt>
      <trkpt lat="47.63844" lon="6.19033">
        <ele>314.92</ele>
        <time>2020-09-30T08:44:33Z</time>
      </trkpt>
      <trkpt lat="47.63847" lon="6.19037">
        <ele>314.95</ele>
        <time>2020-09-30T08:44:35Z</time>
      </trkpt>
      <trkpt lat="47.63851" lon="6.19041">
        <ele>314.99</ele>
        <time>2020-09-30T08:44:38Z</time>
      </trkpt>
      <trkpt lat="47.63855" lon="6.19045">
        <ele>315.04</ele>
        <time>2020-09-30T08:44:42Z</time>
      </trkpt>
      <trkpt lat="47.63859" lon="6.1905">
        <ele>315.08</ele>
        <time>2020-09-30T08:44:44Z</time>
      </trkpt>
      <trkpt lat="47.63863" lon="6.19054">
        <ele>315.13</ele>
        <time>2020-09-30T08:44:48Z</time>
      </trkpt>
      <trkpt lat="47.63867" lon="6.1906">
        <ele>315.19</ele>
        <time>2020-09-30T08:44:52Z</time>
      </trkpt>
      <trkpt lat="47.63871" lon="6.19064">
        <ele>315.26</ele>
        <time>2020-09-30T08:44:53Z</time>
      </trkpt>
      <trkpt lat="47.63875" lon="6.19068">
        <ele>315.32</ele>
        <time>2020-09-30T08:44:58Z</time>
      </trkpt>
      <trkpt lat="47.63878" lon="6.19073">
        <ele>315.37</ele>
        <time>2020-09-30T08:45:01Z</time>
      </trkpt>
      <trkpt lat="47.63882" lon="6.19078">
        <ele>315.44</ele>
        <time>2020-09-30T08:45:05Z</time>
      </trkpt>
      <trkpt lat="47.63886" lon="6.19081">
        <ele>315.48</ele>
        <time>2020-09-30T08:45:08Z</time>
      </trkpt>
      <trkpt lat="47.6389" lon="6.19086">
        <ele>315.54</ele>
        <time>2020-09-30T08:45:11Z</time>
      </trkpt>
      <trkpt lat="47.63894" lon="6.19092">
        <ele>315.59</ele>
        <time>2020-09-30T08:45:14Z</time>
      </trkpt>
      <trkpt lat="47.63897" lon="6.19098">
        <ele>315.63</ele>
        <time>2020-09-30T08:45:16Z</time>
      </trkpt>
      <trkpt lat="47.63902" lon="6.19105">
        <ele>315.7</ele>
        <time>2020-09-30T08:45:19Z</time>
      </trkpt>
      <trkpt lat="47.63905" lon="6.1911">
        <ele>315.76</ele>
        <time>2020-09-30T08:45:21Z</time>
      </trkpt>
      <trkpt lat="47.63908" lon="6.19115">
        <ele>315.8</ele>
        <time>2020-09-30T08:45:23Z</time>
      </trkpt>
      <trkpt lat="47.63912" lon="6.1912">
        <ele>315.84</ele>
        <time>2020-09-30T08:45:26Z</time>
      </trkpt>
      <trkpt lat="47.63916" lon="6.19125">
        <ele>315.9</ele>
        <time>2020-09-30T08:45:28Z</time>
      </trkpt>
      <trkpt lat="47.63919" lon="6.1913">
        <ele>315.93</ele>
        <time>2020-09-30T08:45:31Z</time>
      </trkpt>
      <trkpt lat="47.63923" lon="6.19135">
        <ele>315.98</ele>
        <time>2020-09-30T08:45:33Z</time>
      </trkpt>
      <trkpt lat="47.63927" lon="6.1914">
        <ele>316.02</ele>
        <time>2020-09-30T08:45:35Z</time>
      </trkpt>
      <trkpt lat="47.63931" lon="6.19144">
        <ele>316.07</ele>
        <time>2020-09-30T08:45:35Z</time>
      </trkpt>
      <trkpt lat="47.63935" lon="6.19148">
        <ele>316.12</ele>
        <time>2020-09-30T08:45:38Z</time>
      </trkpt>
      <trkpt lat="47.63939" lon="6.19153">
        <ele>316.18</ele>
        <time>2020-09-30T08:45:41Z</time>
      </trkpt>
      <trkpt lat="47.63944" lon="6.19159">
        <ele>316.23</ele>
        <time>2020-09-30T08:45:48Z</time>
      </trkpt>
      <trkpt lat="47.63949" lon="6.19161">
        <ele>316.29</ele>
        <time>2020-09-30T08:45:51Z</time>
      </trkpt>
      <trkpt lat="47.63953" lon="6.19166">
        <ele>316.36</ele>
        <time>2020-09-30T08:45:51Z</time>
      </trkpt>
      <trkpt lat="47.63958" lon="6.1917">
        <ele>316.39</ele>
        <time>2020-09-30T08:45:56Z</time>
      </trkpt>
      <trkpt lat="47.63962" lon="6.19175">
        <ele>316.46</ele>
        <time>2020-09-30T08:45:57Z</time>
      </trkpt>
      <trkpt lat="47.63967" lon="6.1918">
        <ele>316.52</ele>
        <time>2020-09-30T08:46:03Z</time>
      </trkpt>
      <trkpt lat="47.63971" lon="6.19183">
        <ele>316.57</ele>
        <time>2020-09-30T08:46:06Z</time>
      </trkpt>
      <trkpt lat="47.63974" lon="6.19188">
        <ele>316.64</ele>
        <time>2020-09-30T08:46:10Z</time>
      </trkpt>
      <trkpt lat="47.6398" lon="6.19192">
        <ele>316.71</ele>
        <time>2020-09-30T08:46:14Z</time>
      </trkpt>
      <trkpt lat="47.63986" lon="6.19189">
        <ele>316.78</ele>
        <time>2020-09-30T08:46:19Z</time>
      </trkpt>
      <trkpt lat="47.6399" lon="6.19185">
        <ele>316.84</ele>
        <time>2020-09-30T08:46:21Z</time>
      </trkpt>
      <trkpt lat="47.63995" lon="6.1918">
        <ele>316.89</ele>
        <time>2020-09-30T08:46:24Z</time>
      </trkpt>
      <trkpt lat="47.64" lon="6.19177">
        <ele>316.95</ele>
        <time>2020-09-30T08:46:27Z</time>
      </trkpt>
      <trkpt lat="47.64006" lon="6.19175">
        <ele>317</ele>
        <time>2020-09-30T08:46:30Z</time>
      </trkpt>
      <trkpt lat="47.64011" lon="6.19177">
        <ele>317.05</ele>
        <time>2020-09-30T08:46:34Z</time>
      </trkpt>
      <trkpt lat="47.64016" lon="6.1918">
        <ele>317.11</ele>
        <time>2020-09-30T08:46:38Z</time>
      </trkpt>
      <trkpt lat="47.64021" lon="6.19182">
        <ele>317.18</ele>
        <time>2020-09-30T08:46:42Z</time>
      </trkpt>
      <trkpt lat="47.64025" lon="6.19186">
        <ele>317.23</ele>
        <time>2020-09-30T08:46:46Z</time>
      </trkpt>
      <trkpt lat="47.64029" lon="6.1919">
        <ele>317.3</ele>
        <time>2020-09-30T08:46:50Z</time>
      </trkpt>
      <trkpt lat="47.64033" lon="6.19193">
        <ele>317.35</ele>
        <time>2020-09-30T08:46:53Z</time>
      </trkpt>
      <trkpt lat="47.64038" lon="6.19198">
        <ele>317.39</ele>
        <time>2020-09-30T08:46:56Z</time>
      </trkpt>
      <trkpt lat="47.64041" lon="6.19203">
        <ele>317.45</ele>
        <time>2020-09-30T08:47:00Z</time>
      </trkpt>
      <trkpt lat="47.64045" lon="6.19208">
        <ele>317.51</ele>
        <time>2020-09-30T08:47:03Z</time>
      </trkpt>
      <trkpt lat="47.64049" lon="6.19212">
        <ele>317.57</ele>
        <time>2020-09-30T08:47:07Z</time>
      </trkpt>
      <trkpt lat="47.64053" lon="6.19213">
        <ele>317.64</ele>
        <time>2020-09-30T08:47:08Z</time>
      </trkpt>
      <trkpt lat="47.64057" lon="6.19215">
        <ele>317.7</ele>
        <time>2020-09-30T08:47:12Z</time>
      </trkpt>
      <trkpt lat="47.64062" lon="6.19218">
        <ele>317.76</ele>
        <time>2020-09-30T08:47:19Z</time>
      </trkpt>
      <trkpt lat="47.64067" lon="6.1922">
        <ele>317.81</ele>
        <time>2020-09-30T08:47:24Z</time>
      </trkpt>
      <trkpt lat="47.64072" lon="6.19225">
        <ele>317.85</ele>
        <time>2020-09-30T08:47:26Z</time>
      </trkpt>
      <trkpt lat="47.64074" lon="6.1923">
        <ele>317.89</ele>
        <time>2020-09-30T08:47:26Z</time>
      </trkpt>
      <trkpt lat="47.64077" lon="6.19237">
        <ele>317.92</ele>
        <time>2020-09-30T08:47:31Z</time>
      </trkpt>
      <trkpt lat="47.64079" lon="6.19245">
        <ele>317.96</ele>
        <time>2020-09-30T08:47:35Z</time>
      </trkpt>
      <trkpt lat="47.64081" lon="6.19252">
        <ele>318</ele>
        <time>2020-09-30T08:47:37Z</time>
      </trkpt>
      <trkpt lat="47.64083" lon="6.19258">
        <ele>318.04</ele>
        <time>2020-09-30T08:47:40Z</time>
      </trkpt>
      <trkpt lat="47.64084" lon="6.19265">
        <ele>318.1</ele>
        <time>2020-09-30T08:47:44Z</time>
      </trkpt>
      <trkpt lat="47.64086" lon="6.19272">
        <ele>318.14</ele>
        <time>2020-09-30T08:47:48Z</time>
      </trkpt>
      <trkpt lat="47.64088" lon="6.19279">
        <ele>318.2</ele>
        <time>2020-09-30T08:47:52Z</time>
      </trkpt>
      <trkpt lat="47.64091" lon="6.19285">
        <ele>318.24</ele>
        <time>2020-09-30T08:47:55Z</time>
      </trkpt>
      <trkpt lat="47.64093" lon="6.19292">
        <ele>318.28</ele>
        <time>2020-09-30T08:47:58Z</time>
      </trkpt>
      <trkpt lat="47.64098" lon="6.19299">
        <ele>318.32</ele>
        <time>2020-09-30T08:48:01Z</time>
      </trkpt>
      <trkpt lat="47.64101" lon="6.19304">
        <ele>318.36</ele>
        <time>2020-09-30T08:48:03Z</time>
      </trkpt>
      <trkpt lat="47.64105" lon="6.19309">
        <ele>318.4</ele>
        <time>2020-09-30T08:48:05Z</time>
      </trkpt>
      <trkpt lat="47.64109" lon="6.19315">
        <ele>318.44</ele>
        <time>2020-09-30T08:48:08Z</time>
      </trkpt>
      <trkpt lat="47.64113" lon="6.1932">
        <ele>318.5</ele>
        <time>2020-09-30T08:48:10Z</time>
      </trkpt>
      <trkpt lat="47.64117" lon="6.19325">
        <ele>318.56</ele>
        <time>2020-09-30T08:48:13Z</time>
      </trkpt>
      <trkpt lat="47.6412" lon="6.19332">
        <ele>318.62</ele>
        <time>2020-09-30T08:48:13Z</time>
      </trkpt>
      <trkpt lat="47.64124" lon="6.19337">
        <ele>318.68</ele>
        <time>2020-09-30T08:48:20Z</time>
      </trkpt>
      <trkpt lat="47.64126" lon="6.19344">
        <ele>318.77</ele>
        <time>2020-09-30T08:48:23Z</time>
      </trkpt>
      <trkpt lat="47.64128" lon="6.1935">
        <ele>318.83</ele>
        <time>2020-09-30T08:48:26Z</time>
      </trkpt>
      <trkpt lat="47.64131" lon="6.19357">
        <ele>318.92</ele>
        <time>2020-09-30T08:48:31Z</time>
      </trkpt>
      <trkpt lat="47.64133" lon="6.19364">
        <ele>319.02</ele>
        <time>2020-09-30T08:48:35Z</time>
      </trkpt>
      <trkpt lat="47.64134" lon="6.19372">
        <ele>319.13</ele>
        <time>2020-09-30T08:48:39Z</time>
      </trkpt>
      <trkpt lat="47.64136" lon="6.19379">
        <ele>319.25</ele>
        <time>2020-09-30T08:48:40Z</time>
      </trkpt>
      <trkpt lat="47.64138" lon="6.19388">
        <ele>319.33</ele>
        <time>2020-09-30T08:48:46Z</time>
      </trkpt>
      <trkpt lat="47.64141" lon="6.19395">
        <ele>319.46</ele>
        <time>2020-09-30T08:48:48Z</time>
      </trkpt>
      <trkpt lat="47.64144" lon="6.19401">
        <ele>319.59</ele>
        <time>2020-09-30T08:48:52Z</time>
      </trkpt>
      <trkpt lat="47.64147" lon="6.19407">
        <ele>319.69</ele>
        <time>2020-09-30T08:48:59Z</time>
      </trkpt>
      <trkpt lat="47.64148" lon="6.19413">
        <ele>319.82</ele>
        <time>2020-09-30T08:49:03Z</time>
      </trkpt>
      <trkpt lat="47.64151" lon="6.19422">
        <ele>319.93</ele>
        <time>2020-09-30T08:49:07Z</time>
      </trkpt>
      <trkpt lat="47.64152" lon="6.1943">
        <ele>320.1</ele>
        <time>2020-09-30T08:49:10Z</time>
      </trkpt>
      <trkpt lat="47.64154" lon="6.19438">
        <ele>320.24</ele>
        <time>2020-09-30T08:49:14Z</time>
      </trkpt>
      <trkpt lat="47.64154" lon="6.19445">
        <ele>320.35</ele>
        <time>2020-09-30T08:49:17Z</time>
      </trkpt>
      <trkpt lat="47.64155" lon="6.19452">
        <ele>320.51</ele>
        <time>2020-09-30T08:49:18Z</time>
      </trkpt>
      <trkpt lat="47.64157" lon="6.1946">
        <ele>320.67</ele>
        <time>2020-09-30T08:49:25Z</time>
      </trkpt>
      <trkpt lat="47.64159" lon="6.19466">
        <ele>320.87</ele>
        <time>2020-09-30T08:49:30Z</time>
      </trkpt>
      <trkpt lat="47.64162" lon="6.19473">
        <ele>321.01</ele>
        <time>2020-09-30T08:49:34Z</time>
      </trkpt>
      <trkpt lat="47.64167" lon="6.19481">
        <ele>321.12</ele>
        <time>2020-09-30T08:49:36Z</time>
      </trkpt>
      <trkpt lat="47.6417" lon="6.19486">
        <ele>321.29</ele>
        <time>2020-09-30T08:49:37Z</time>
      </trkpt>
      <trkpt lat="47.64174" lon="6.19491">
        <ele>321.43</ele>
        <time>2020-09-30T08:49:44Z</time>
      </trkpt>
      <trkpt lat="47.64176" lon="6.19497">
        <ele>321.56</ele>
        <time>2020-09-30T08:49:47Z</time>
      </trkpt>
      <trkpt lat="47.64179" lon="6.19503">
        <ele>321.79</ele>
        <time>2020-09-30T08:49:52Z</time>
      </trkpt>
      <trkpt lat="47.64182" lon="6.19509">
        <ele>321.94</ele>
        <time>2020-09-30T08:49:54Z</time>
      </trkpt>
      <trkpt lat="47.64186" lon="6.19516">
        <ele>322.05</ele>
        <time>2020-09-30T08:49:57Z</time>
      </trkpt>
      <trkpt lat="47.64189" lon="6.19523">
        <ele>322.37</ele>
        <time>2020-09-30T08:49:59Z</time>
      </trkpt>
      <trkpt lat="47.64191" lon="6.19529">
        <ele>322.67</ele>
        <time>2020-09-30T08:50:08Z</time>
      </trkpt>
      <trkpt lat="47.64192" lon="6.19536">
        <ele>322.94</ele>
        <time>2020-09-30T08:50:12Z</time>
      </trkpt>
      <trkpt lat="47.64192" lon="6.19543">
        <ele>323.11</ele>
        <time>2020-09-30T08:50:12Z</time>
      </trkpt>
      <trkpt lat="47.64193" lon="6.19551">
        <ele>323.22</ele>
        <time>2020-09-30T08:50:17Z</time>
      </trkpt>
      <trkpt lat="47.64195" lon="6.19559">
        <ele>323.44</ele>
        <time>2020-09-30T08:50:18Z</time>
      </trkpt>
      <trkpt lat="47.64196" lon="6.19566">
        <ele>323.62</ele>
        <time>2020-09-30T08:50:24Z</time>
      </trkpt>
      <trkpt lat="47.64197" lon="6.19573">
        <ele>323.81</ele>
        <time>2020-09-30T08:50:24Z</time>
      </trkpt>
      <trkpt lat="47.64199" lon="6.1958">
        <ele>323.93</ele>
        <time>2020-09-30T08:50:26Z</time>
      </trkpt>
      <trkpt lat="47.64201" lon="6.1959">
        <ele>324.08</ele>
        <time>2020-09-30T08:50:31Z</time>
      </trkpt>
      <trkpt lat="47.64205" lon="6.19598">
        <ele>324.26</ele>
        <time>2020-09-30T08:50:31Z</time>
      </trkpt>
      <trkpt lat="47.64209" lon="6.19603">
        <ele>324.41</ele>
        <time>2020-09-30T08:50:33Z</time>
      </trkpt>
      <trkpt lat="47.64212" lon="6.19609">
        <ele>324.53</ele>
        <time>2020-09-30T08:50:38Z</time>
      </trkpt>
      <trkpt lat="47.64216" lon="6.19613">
        <ele>324.75</ele>
        <time>2020-09-30T08:50:40Z</time>
      </trkpt>
      <trkpt lat="47.64219" lon="6.19618">
        <ele>325.07</ele>
        <time>2020-09-30T08:50:44Z</time>
      </trkpt>
      <trkpt lat="47.6422" lon="6.19625">
        <ele>325.22</ele>
        <time>2020-09-30T08:50:47Z</time>
      </trkpt>
      <trkpt lat="47.64221" lon="6.19632">
        <ele>325.64</ele>
        <time>2020-09-30T08:50:52Z</time>
      </trkpt>
      <trkpt lat="47.64221" lon="6.19639">
        <ele>325.85</ele>
        <time>2020-09-30T08:50:55Z</time>
      </trkpt>
      <trkpt lat="47.64222" lon="6.19647">
        <ele>325.99</ele>
        <time>2020-09-30T08:50:56Z</time>
      </trkpt>
      <trkpt lat="47.64223" lon="6.19655">
        <ele>326.29</ele>
        <time>2020-09-30T08:51:00Z</time>
      </trkpt>
      <trkpt lat="47.64222" lon="6.19662">
        <ele>326.53</ele>
        <time>2020-09-30T08:51:03Z</time>
      </trkpt>
      <trkpt lat="47.64221" lon="6.19673">
        <ele>326.76</ele>
        <time>2020-09-30T08:51:07Z</time>
      </trkpt>
      <trkpt lat="47.64221" lon="6.1968">
        <ele>327.09</ele>
        <time>2020-09-30T08:51:11Z</time>
      </trkpt>
      <trkpt lat="47.6422" lon="6.19688">
        <ele>327.36</ele>
        <time>2020-09-30T08:51:15Z</time>
      </trkpt>
      <trkpt lat="47.64219" lon="6.19694">
        <ele>327.55</ele>
        <time>2020-09-30T08:51:15Z</time>
      </trkpt>
      <trkpt lat="47.64217" lon="6.19702">
        <ele>327.86</ele>
        <time>2020-09-30T08:51:23Z</time>
      </trkpt>
      <trkpt lat="47.64214" lon="6.19709">
        <ele>328.14</ele>
        <time>2020-09-30T08:51:23Z</time>
      </trkpt>
      <trkpt lat="47.64211" lon="6.19715">
        <ele>328.28</ele>
        <time>2020-09-30T08:51:29Z</time>
      </trkpt>
      <trkpt lat="47.6421" lon="6.19723">
        <ele>328.57</ele>
        <time>2020-09-30T08:51:33Z</time>
      </trkpt>
      <trkpt lat="47.6421" lon="6.19731">
        <ele>328.93</ele>
        <time>2020-09-30T08:51:38Z</time>
      </trkpt>
      <trkpt lat="47.6421" lon="6.19739">
        <ele>329.34</ele>
        <time>2020-09-30T08:51:40Z</time>
      </trkpt>
      <trkpt lat="47.64208" lon="6.19749">
        <ele>329.61</ele>
        <time>2020-09-30T08:51:47Z</time>
      </trkpt>
      <trkpt lat="47.64208" lon="6.19757">
        <ele>329.94</ele>
        <time>2020-09-30T08:51:52Z</time>
      </trkpt>
      <trkpt lat="47.64208" lon="6.19764">
        <ele>330.16</ele>
        <time>2020-09-30T08:51:56Z</time>
      </trkpt>
      <trkpt lat="47.64209" lon="6.19772">
        <ele>330.35</ele>
        <time>2020-09-30T08:51:59Z</time>
      </trkpt>
      <trkpt lat="47.6421" lon="6.19781">
        <ele>330.63</ele>
        <time>2020-09-30T08:52:02Z</time>
      </trkpt>
      <trkpt lat="47.64211" lon="6.19788">
        <ele>330.84</ele>
        <time>2020-09-30T08:52:06Z</time>
      </trkpt>
      <trkpt lat="47.64212" lon="6.19795">
        <ele>330.99</ele>
        <time>2020-09-30T08:52:08Z</time>
      </trkpt>
      <trkpt lat="47.64211" lon="6.19804">
        <ele>331.3</ele>
        <time>2020-09-30T08:52:13Z</time>
      </trkpt>
      <trkpt lat="47.64211" lon="6.19812">
        <ele>331.49</ele>
        <time>2020-09-30T08:52:16Z</time>
      </trkpt>
      <trkpt lat="47.64211" lon="6.1982">
        <ele>331.68</ele>
        <time>2020-09-30T08:52:18Z</time>
      </trkpt>
      <trkpt lat="47.6421" lon="6.19828">
        <ele>331.88</ele>
        <time>2020-09-30T08:52:21Z</time>
      </trkpt>
      <trkpt lat="47.64206" lon="6.19835">
        <ele>332.08</ele>
        <time>2020-09-30T08:52:21Z</time>
      </trkpt>
      <trkpt lat="47.64203" lon="6.19841">
        <ele>332.23</ele>
        <time>2020-09-30T08:52:26Z</time>
      </trkpt>
      <trkpt lat="47.642" lon="6.19846">
        <ele>332.45</ele>
        <time>2020-09-30T08:52:29Z</time>
      </trkpt>
      <trkpt lat="47.64196" lon="6.19851">
        <ele>332.7</ele>
        <time>2020-09-30T08:52:32Z</time>
      </trkpt>
      <trkpt lat="47.64191" lon="6.19854">
        <ele>333.03</ele>
        <time>2020-09-30T08:52:33Z</time>
      </trkpt>
      <trkpt lat="47.64186" lon="6.19857">
        <ele>333.29</ele>
        <time>2020-09-30T08:52:39Z</time>
      </trkpt>
      <trkpt lat="47.64181" lon="6.1986">
        <ele>333.56</ele>
        <time>2020-09-30T08:52:42Z</time>
      </trkpt>
      <trkpt lat="47.64177" lon="6.19862">
        <ele>333.76</ele>
        <time>2020-09-30T08:52:45Z</time>
      </trkpt>
      <trkpt lat="47.64172" lon="6.19867">
        <ele>334.01</ele>
        <time>2020-09-30T08:52:48Z</time>
      </trkpt>
      <trkpt lat="47.64167" lon="6.19874">
        <ele>334.3</ele>
        <time>2020-09-30T08:52:50Z</time>
      </trkpt>
      <trkpt lat="47.64164" lon="6.1988">
        <ele>334.49</ele>
        <time>2020-09-30T08:52:53Z</time>
      </trkpt>
      <trkpt lat="47.64158" lon="6.19892">
        <ele>334.88</ele>
        <time>2020-09-30T08:52:57Z</time>
      </trkpt>
      <trkpt lat="47.64154" lon="6.19898">
        <ele>335.13</ele>
        <time>2020-09-30T08:52:59Z</time>
      </trkpt>
      <trkpt lat="47.6415" lon="6.19906">
        <ele>335.34</ele>
        <time>2020-09-30T08:53:02Z</time>
      </trkpt>
      <trkpt lat="47.64147" lon="6.19912">
        <ele>335.5</ele>
        <time>2020-09-30T08:53:04Z</time>
      </trkpt>
      <trkpt lat="47.64144" lon="6.19919">
        <ele>335.78</ele>
        <time>2020-09-30T08:53:06Z</time>
      </trkpt>
      <trkpt lat="47.6414" lon="6.19923">
        <ele>335.96</ele>
        <time>2020-09-30T08:53:09Z</time>
      </trkpt>
      <trkpt lat="47.64137" lon="6.19929">
        <ele>336.23</ele>
        <time>2020-09-30T08:53:11Z</time>
      </trkpt>
      <trkpt lat="47.64134" lon="6.19933">
        <ele>336.42</ele>
        <time>2020-09-30T08:53:13Z</time>
      </trkpt>
      <trkpt lat="47.6413" lon="6.19938">
        <ele>336.68</ele>
        <time>2020-09-30T08:53:16Z</time>
      </trkpt>
      <trkpt lat="47.64123" lon="6.19943">
        <ele>336.95</ele>
        <time>2020-09-30T08:53:19Z</time>
      </trkpt>
      <trkpt lat="47.64119" lon="6.19948">
        <ele>337.21</ele>
        <time>2020-09-30T08:53:19Z</time>
      </trkpt>
      <trkpt lat="47.64114" lon="6.19954">
        <ele>337.4</ele>
        <time>2020-09-30T08:53:24Z</time>
      </trkpt>
      <trkpt lat="47.6411" lon="6.19958">
        <ele>337.6</ele>
        <time>2020-09-30T08:53:27Z</time>
      </trkpt>
      <trkpt lat="47.64106" lon="6.19963">
        <ele>337.86</ele>
        <time>2020-09-30T08:53:30Z</time>
      </trkpt>
      <trkpt lat="47.64103" lon="6.19969">
        <ele>338.07</ele>
        <time>2020-09-30T08:53:32Z</time>
      </trkpt>
      <trkpt lat="47.64101" lon="6.19976">
        <ele>338.33</ele>
        <time>2020-09-30T08:53:34Z</time>
      </trkpt>
      <trkpt lat="47.64098" lon="6.19983">
        <ele>338.61</ele>
        <time>2020-09-30T08:53:37Z</time>
      </trkpt>
      <trkpt lat="47.64096" lon="6.1999">
        <ele>338.89</ele>
        <time>2020-09-30T08:53:40Z</time>
      </trkpt>
      <trkpt lat="47.64094" lon="6.19997">
        <ele>339.07</ele>
        <time>2020-09-30T08:53:42Z</time>
      </trkpt>
      <trkpt lat="47.64092" lon="6.20003">
        <ele>339.28</ele>
        <time>2020-09-30T08:53:44Z</time>
      </trkpt>
      <trkpt lat="47.64093" lon="6.20012">
        <ele>339.68</ele>
        <time>2020-09-30T08:53:46Z</time>
      </trkpt>
      <trkpt lat="47.64093" lon="6.2002">
        <ele>340</ele>
        <time>2020-09-30T08:53:50Z</time>
      </trkpt>
      <trkpt lat="47.64093" lon="6.20027">
        <ele>340.64</ele>
        <time>2020-09-30T08:54:06Z</time>
      </trkpt>
      <trkpt lat="47.64095" lon="6.20035">
        <ele>341.03</ele>
        <time>2020-09-30T08:54:09Z</time>
      </trkpt>
      <trkpt lat="47.64096" lon="6.20042">
        <ele>341.23</ele>
        <time>2020-09-30T08:54:11Z</time>
      </trkpt>
      <trkpt lat="47.64096" lon="6.20065">
        <ele>341.73</ele>
        <time>2020-09-30T08:54:14Z</time>
      </trkpt>
      <trkpt lat="47.64095" lon="6.20074">
        <ele>341.87</ele>
        <time>2020-09-30T08:54:19Z</time>
      </trkpt>
      <trkpt lat="47.64093" lon="6.20083">
        <ele>342.01</ele>
        <time>2020-09-30T08:54:20Z</time>
      </trkpt>
      <trkpt lat="47.64092" lon="6.2009">
        <ele>342.17</ele>
        <time>2020-09-30T08:54:22Z</time>
      </trkpt>
      <trkpt lat="47.6409" lon="6.20099">
        <ele>342.36</ele>
        <time>2020-09-30T08:54:25Z</time>
      </trkpt>
      <trkpt lat="47.64088" lon="6.20106">
        <ele>342.49</ele>
        <time>2020-09-30T08:54:26Z</time>
      </trkpt>
      <trkpt lat="47.64085" lon="6.20115">
        <ele>342.7</ele>
        <time>2020-09-30T08:54:26Z</time>
      </trkpt>
      <trkpt lat="47.64084" lon="6.20121">
        <ele>342.8</ele>
        <time>2020-09-30T08:54:30Z</time>
      </trkpt>
      <trkpt lat="47.64082" lon="6.20128">
        <ele>342.96</ele>
        <time>2020-09-30T08:54:32Z</time>
      </trkpt>
      <trkpt lat="47.64078" lon="6.20136">
        <ele>343.16</ele>
        <time>2020-09-30T08:54:32Z</time>
      </trkpt>
      <trkpt lat="47.64075" lon="6.20141">
        <ele>343.27</ele>
        <time>2020-09-30T08:54:36Z</time>
      </trkpt>
      <trkpt lat="47.64072" lon="6.20146">
        <ele>343.42</ele>
        <time>2020-09-30T08:54:38Z</time>
      </trkpt>
      <trkpt lat="47.64068" lon="6.20152">
        <ele>343.6</ele>
        <time>2020-09-30T08:54:40Z</time>
      </trkpt>
      <trkpt lat="47.64064" lon="6.20157">
        <ele>343.8</ele>
        <time>2020-09-30T08:54:40Z</time>
      </trkpt>
      <trkpt lat="47.64059" lon="6.2016">
        <ele>343.96</ele>
        <time>2020-09-30T08:54:45Z</time>
      </trkpt>
      <trkpt lat="47.64055" lon="6.20163">
        <ele>344.13</ele>
        <time>2020-09-30T08:54:48Z</time>
      </trkpt>
      <trkpt lat="47.64051" lon="6.20166">
        <ele>344.37</ele>
        <time>2020-09-30T08:54:51Z</time>
      </trkpt>
      <trkpt lat="47.64045" lon="6.20169">
        <ele>344.65</ele>
        <time>2020-09-30T08:54:51Z</time>
      </trkpt>
      <trkpt lat="47.64041" lon="6.20171">
        <ele>344.83</ele>
        <time>2020-09-30T08:54:57Z</time>
      </trkpt>
      <trkpt lat="47.64035" lon="6.20174">
        <ele>345.1</ele>
        <time>2020-09-30T08:54:57Z</time>
      </trkpt>
      <trkpt lat="47.64031" lon="6.20176">
        <ele>345.22</ele>
        <time>2020-09-30T08:55:02Z</time>
      </trkpt>
      <trkpt lat="47.64026" lon="6.20178">
        <ele>345.43</ele>
        <time>2020-09-30T08:55:04Z</time>
      </trkpt>
      <trkpt lat="47.64021" lon="6.2018">
        <ele>345.6</ele>
        <time>2020-09-30T08:55:07Z</time>
      </trkpt>
      <trkpt lat="47.64012" lon="6.20183">
        <ele>345.97</ele>
        <time>2020-09-30T08:55:08Z</time>
      </trkpt>
      <trkpt lat="47.64006" lon="6.20185">
        <ele>346.13</ele>
        <time>2020-09-30T08:55:14Z</time>
      </trkpt>
      <trkpt lat="47.63999" lon="6.20187">
        <ele>346.41</ele>
        <time>2020-09-30T08:55:14Z</time>
      </trkpt>
      <trkpt lat="47.63995" lon="6.20189">
        <ele>346.58</ele>
        <time>2020-09-30T08:55:19Z</time>
      </trkpt>
      <trkpt lat="47.6399" lon="6.2019">
        <ele>346.73</ele>
        <time>2020-09-30T08:55:21Z</time>
      </trkpt>
      <trkpt lat="47.63985" lon="6.20191">
        <ele>346.95</ele>
        <time>2020-09-30T08:55:24Z</time>
      </trkpt>
      <trkpt lat="47.6398" lon="6.20192">
        <ele>347.1</ele>
        <time>2020-09-30T08:55:26Z</time>
      </trkpt>
      <trkpt lat="47.63975" lon="6.20194">
        <ele>347.3</ele>
        <time>2020-09-30T08:55:30Z</time>
      </trkpt>
      <trkpt lat="47.63969" lon="6.20195">
        <ele>347.51</ele>
        <time>2020-09-30T08:55:33Z</time>
      </trkpt>
      <trkpt lat="47.63964" lon="6.20198">
        <ele>347.73</ele>
        <time>2020-09-30T08:55:36Z</time>
      </trkpt>
      <trkpt lat="47.63959" lon="6.202">
        <ele>347.92</ele>
        <time>2020-09-30T08:55:39Z</time>
      </trkpt>
      <trkpt lat="47.63953" lon="6.20201">
        <ele>348.18</ele>
        <time>2020-09-30T08:55:43Z</time>
      </trkpt>
      <trkpt lat="47.63948" lon="6.20204">
        <ele>348.49</ele>
        <time>2020-09-30T08:55:44Z</time>
      </trkpt>
      <trkpt lat="47.63943" lon="6.2021">
        <ele>348.7</ele>
        <time>2020-09-30T08:55:51Z</time>
      </trkpt>
      <trkpt lat="47.63941" lon="6.2022">
        <ele>348.95</ele>
        <time>2020-09-30T08:55:55Z</time>
      </trkpt>
      <trkpt lat="47.6394" lon="6.20227">
        <ele>349.16</ele>
        <time>2020-09-30T08:55:58Z</time>
      </trkpt>
      <trkpt lat="47.63939" lon="6.20235">
        <ele>349.33</ele>
        <time>2020-09-30T08:56:00Z</time>
      </trkpt>
      <trkpt lat="47.63938" lon="6.20242">
        <ele>349.45</ele>
        <time>2020-09-30T08:56:02Z</time>
      </trkpt>
      <trkpt lat="47.63937" lon="6.20252">
        <ele>349.63</ele>
        <time>2020-09-30T08:56:06Z</time>
      </trkpt>
      <trkpt lat="47.63936" lon="6.2026">
        <ele>349.82</ele>
        <time>2020-09-30T08:56:09Z</time>
      </trkpt>
      <trkpt lat="47.63936" lon="6.20268">
        <ele>349.98</ele>
        <time>2020-09-30T08:56:12Z</time>
      </trkpt>
      <trkpt lat="47.63936" lon="6.20276">
        <ele>350.14</ele>
        <time>2020-09-30T08:56:14Z</time>
      </trkpt>
      <trkpt lat="47.63935" lon="6.20285">
        <ele>350.3</ele>
        <time>2020-09-30T08:56:18Z</time>
      </trkpt>
      <trkpt lat="47.63936" lon="6.20292">
        <ele>350.42</ele>
        <time>2020-09-30T08:56:19Z</time>
      </trkpt>
      <trkpt lat="47.63936" lon="6.20303">
        <ele>350.57</ele>
        <time>2020-09-30T08:56:23Z</time>
      </trkpt>
      <trkpt lat="47.63937" lon="6.20312">
        <ele>350.73</ele>
        <time>2020-09-30T08:56:26Z</time>
      </trkpt>
      <trkpt lat="47.63937" lon="6.20321">
        <ele>350.89</ele>
        <time>2020-09-30T08:56:29Z</time>
      </trkpt>
      <trkpt lat="47.63937" lon="6.20329">
        <ele>351.09</ele>
        <time>2020-09-30T08:56:29Z</time>
      </trkpt>
      <trkpt lat="47.63937" lon="6.20337">
        <ele>351.2</ele>
        <time>2020-09-30T08:56:35Z</time>
      </trkpt>
      <trkpt lat="47.63937" lon="6.20345">
        <ele>351.35</ele>
        <time>2020-09-30T08:56:37Z</time>
      </trkpt>
      <trkpt lat="47.63938" lon="6.20353">
        <ele>351.49</ele>
        <time>2020-09-30T08:56:40Z</time>
      </trkpt>
      <trkpt lat="47.63938" lon="6.2036">
        <ele>351.6</ele>
        <time>2020-09-30T08:56:42Z</time>
      </trkpt>
      <trkpt lat="47.63938" lon="6.20368">
        <ele>351.75</ele>
        <time>2020-09-30T08:56:45Z</time>
      </trkpt>
      <trkpt lat="47.63938" lon="6.20376">
        <ele>351.9</ele>
        <time>2020-09-30T08:56:48Z</time>
      </trkpt>
      <trkpt lat="47.63939" lon="6.20383">
        <ele>352.01</ele>
        <time>2020-09-30T08:56:50Z</time>
      </trkpt>
      <trkpt lat="47.63939" lon="6.20391">
        <ele>352.11</ele>
        <time>2020-09-30T08:56:53Z</time>
      </trkpt>
      <trkpt lat="47.63939" lon="6.20399">
        <ele>352.21</ele>
        <time>2020-09-30T08:56:54Z</time>
      </trkpt>
      <trkpt lat="47.6394" lon="6.20407">
        <ele>352.32</ele>
        <time>2020-09-30T08:56:57Z</time>
      </trkpt>
      <trkpt lat="47.6394" lon="6.20415">
        <ele>352.41</ele>
        <time>2020-09-30T08:56:58Z</time>
      </trkpt>
      <trkpt lat="47.6394" lon="6.20422">
        <ele>352.51</ele>
        <time>2020-09-30T08:57:00Z</time>
      </trkpt>
      <trkpt lat="47.63941" lon="6.20431">
        <ele>352.61</ele>
        <time>2020-09-30T08:57:02Z</time>
      </trkpt>
      <trkpt lat="47.63941" lon="6.20439">
        <ele>352.71</ele>
        <time>2020-09-30T08:57:05Z</time>
      </trkpt>
      <trkpt lat="47.63942" lon="6.20453">
        <ele>352.95</ele>
        <time>2020-09-30T08:57:09Z</time>
      </trkpt>
      <trkpt lat="47.63943" lon="6.2046">
        <ele>353.05</ele>
        <time>2020-09-30T08:57:12Z</time>
      </trkpt>
      <trkpt lat="47.63943" lon="6.20469">
        <ele>353.2</ele>
        <time>2020-09-30T08:57:15Z</time>
      </trkpt>
      <trkpt lat="47.63945" lon="6.20477">
        <ele>353.35</ele>
        <time>2020-09-30T08:57:15Z</time>
      </trkpt>
      <trkpt lat="47.63945" lon="6.20484">
        <ele>353.46</ele>
        <time>2020-09-30T08:57:20Z</time>
      </trkpt>
      <trkpt lat="47.63947" lon="6.20491">
        <ele>353.55</ele>
        <time>2020-09-30T08:57:22Z</time>
      </trkpt>
      <trkpt lat="47.63948" lon="6.205">
        <ele>353.69</ele>
        <time>2020-09-30T08:57:26Z</time>
      </trkpt>
      <trkpt lat="47.6395" lon="6.20507">
        <ele>353.81</ele>
        <time>2020-09-30T08:57:28Z</time>
      </trkpt>
      <trkpt lat="47.63951" lon="6.20517">
        <ele>353.93</ele>
        <time>2020-09-30T08:57:32Z</time>
      </trkpt>
      <trkpt lat="47.63954" lon="6.20531">
        <ele>354.13</ele>
        <time>2020-09-30T08:57:36Z</time>
      </trkpt>
      <trkpt lat="47.63955" lon="6.20539">
        <ele>354.25</ele>
        <time>2020-09-30T08:57:36Z</time>
      </trkpt>
      <trkpt lat="47.63957" lon="6.20546">
        <ele>354.33</ele>
        <time>2020-09-30T08:57:41Z</time>
      </trkpt>
      <trkpt lat="47.63957" lon="6.20554">
        <ele>354.44</ele>
        <time>2020-09-30T08:57:44Z</time>
      </trkpt>
      <trkpt lat="47.63958" lon="6.20563">
        <ele>354.56</ele>
        <time>2020-09-30T08:57:47Z</time>
      </trkpt>
      <trkpt lat="47.6396" lon="6.2057">
        <ele>354.63</ele>
        <time>2020-09-30T08:57:50Z</time>
      </trkpt>
      <trkpt lat="47.63962" lon="6.20579">
        <ele>354.77</ele>
        <time>2020-09-30T08:57:51Z</time>
      </trkpt>
      <trkpt lat="47.63964" lon="6.20585">
        <ele>354.86</ele>
        <time>2020-09-30T08:57:55Z</time>
      </trkpt>
      <trkpt lat="47.63965" lon="6.20593">
        <ele>354.96</ele>
        <time>2020-09-30T08:57:56Z</time>
      </trkpt>
      <trkpt lat="47.63966" lon="6.20601">
        <ele>355.05</ele>
        <time>2020-09-30T08:58:01Z</time>
      </trkpt>
      <trkpt lat="47.63967" lon="6.20611">
        <ele>355.18</ele>
        <time>2020-09-30T08:58:02Z</time>
      </trkpt>
      <trkpt lat="47.63969" lon="6.20618">
        <ele>355.27</ele>
        <time>2020-09-30T08:58:06Z</time>
      </trkpt>
      <trkpt lat="47.6397" lon="6.20625">
        <ele>355.37</ele>
        <time>2020-09-30T08:58:07Z</time>
      </trkpt>
      <trkpt lat="47.63972" lon="6.20631">
        <ele>355.44</ele>
        <time>2020-09-30T08:58:11Z</time>
      </trkpt>
      <trkpt lat="47.63976" lon="6.20639">
        <ele>355.58</ele>
        <time>2020-09-30T08:58:13Z</time>
      </trkpt>
      <trkpt lat="47.63977" lon="6.20646">
        <ele>355.66</ele>
        <time>2020-09-30T08:58:17Z</time>
      </trkpt>
      <trkpt lat="47.6398" lon="6.20656">
        <ele>355.77</ele>
        <time>2020-09-30T08:58:21Z</time>
      </trkpt>
      <trkpt lat="47.63982" lon="6.20663">
        <ele>355.88</ele>
        <time>2020-09-30T08:58:24Z</time>
      </trkpt>
      <trkpt lat="47.63983" lon="6.20672">
        <ele>355.98</ele>
        <time>2020-09-30T08:58:26Z</time>
      </trkpt>
      <trkpt lat="47.63985" lon="6.20679">
        <ele>356.09</ele>
        <time>2020-09-30T08:58:29Z</time>
      </trkpt>
      <trkpt lat="47.63988" lon="6.20685">
        <ele>356.23</ele>
        <time>2020-09-30T08:58:31Z</time>
      </trkpt>
      <trkpt lat="47.63988" lon="6.20691">
        <ele>357.28</ele>
        <time>2020-09-30T09:00:11Z</time>
      </trkpt>
      <trkpt lat="47.63991" lon="6.20697">
        <ele>357.76</ele>
        <time>2020-09-30T09:00:29Z</time>
      </trkpt>
      <trkpt lat="47.63997" lon="6.20702">
        <ele>358.15</ele>
        <time>2020-09-30T09:00:33Z</time>
      </trkpt>
      <trkpt lat="47.64001" lon="6.20699">
        <ele>358.43</ele>
        <time>2020-09-30T09:00:37Z</time>
      </trkpt>
      <trkpt lat="47.64008" lon="6.20699">
        <ele>358.66</ele>
        <time>2020-09-30T09:00:41Z</time>
      </trkpt>
      <trkpt lat="47.64012" lon="6.20698">
        <ele>358.87</ele>
        <time>2020-09-30T09:00:44Z</time>
      </trkpt>
      <trkpt lat="47.64007" lon="6.20697">
        <ele>359.69</ele>
        <time>2020-09-30T09:01:08Z</time>
      </trkpt>
      <trkpt lat="47.64003" lon="6.20699">
        <ele>359.92</ele>
        <time>2020-09-30T09:01:12Z</time>
      </trkpt>
      <trkpt lat="47.64003" lon="6.20707">
        <ele>360.12</ele>
        <time>2020-09-30T09:01:15Z</time>
      </trkpt>
      <trkpt lat="47.64005" lon="6.20715">
        <ele>360.4</ele>
        <time>2020-09-30T09:01:19Z</time>
      </trkpt>
      <trkpt lat="47.64008" lon="6.20724">
        <ele>360.55</ele>
        <time>2020-09-30T09:01:23Z</time>
      </trkpt>
      <trkpt lat="47.6401" lon="6.20731">
        <ele>360.73</ele>
        <time>2020-09-30T09:01:26Z</time>
      </trkpt>
      <trkpt lat="47.6401" lon="6.20738">
        <ele>360.92</ele>
        <time>2020-09-30T09:01:30Z</time>
      </trkpt>
      <trkpt lat="47.64013" lon="6.20745">
        <ele>361.15</ele>
        <time>2020-09-30T09:01:32Z</time>
      </trkpt>
      <trkpt lat="47.64014" lon="6.20752">
        <ele>361.26</ele>
        <time>2020-09-30T09:01:36Z</time>
      </trkpt>
      <trkpt lat="47.64015" lon="6.20759">
        <ele>361.35</ele>
        <time>2020-09-30T09:01:38Z</time>
      </trkpt>
      <trkpt lat="47.64017" lon="6.20766">
        <ele>361.48</ele>
        <time>2020-09-30T09:01:41Z</time>
      </trkpt>
      <trkpt lat="47.64018" lon="6.20773">
        <ele>361.58</ele>
        <time>2020-09-30T09:01:44Z</time>
      </trkpt>
      <trkpt lat="47.6402" lon="6.20781">
        <ele>361.73</ele>
        <time>2020-09-30T09:01:45Z</time>
      </trkpt>
      <trkpt lat="47.64021" lon="6.20787">
        <ele>361.8</ele>
        <time>2020-09-30T09:01:49Z</time>
      </trkpt>
      <trkpt lat="47.64023" lon="6.20794">
        <ele>361.95</ele>
        <time>2020-09-30T09:01:50Z</time>
      </trkpt>
      <trkpt lat="47.64026" lon="6.20803">
        <ele>362.05</ele>
        <time>2020-09-30T09:01:55Z</time>
      </trkpt>
      <trkpt lat="47.64032" lon="6.20821">
        <ele>362.22</ele>
        <time>2020-09-30T09:01:59Z</time>
      </trkpt>
      <trkpt lat="47.64035" lon="6.20829">
        <ele>362.34</ele>
        <time>2020-09-30T09:02:01Z</time>
      </trkpt>
      <trkpt lat="47.64036" lon="6.20836">
        <ele>362.45</ele>
        <time>2020-09-30T09:02:02Z</time>
      </trkpt>
      <trkpt lat="47.64037" lon="6.20843">
        <ele>362.54</ele>
        <time>2020-09-30T09:02:06Z</time>
      </trkpt>
      <trkpt lat="47.64038" lon="6.20852">
        <ele>362.65</ele>
        <time>2020-09-30T09:02:10Z</time>
      </trkpt>
      <trkpt lat="47.6404" lon="6.20858">
        <ele>362.76</ele>
        <time>2020-09-30T09:02:12Z</time>
      </trkpt>
      <trkpt lat="47.64041" lon="6.20866">
        <ele>362.88</ele>
        <time>2020-09-30T09:02:16Z</time>
      </trkpt>
      <trkpt lat="47.64044" lon="6.20876">
        <ele>363.01</ele>
        <time>2020-09-30T09:02:20Z</time>
      </trkpt>
      <trkpt lat="47.64045" lon="6.20883">
        <ele>363.13</ele>
        <time>2020-09-30T09:02:21Z</time>
      </trkpt>
      <trkpt lat="47.64047" lon="6.20891">
        <ele>363.21</ele>
        <time>2020-09-30T09:02:26Z</time>
      </trkpt>
      <trkpt lat="47.6405" lon="6.20907">
        <ele>363.35</ele>
        <time>2020-09-30T09:02:28Z</time>
      </trkpt>
      <trkpt lat="47.64053" lon="6.20916">
        <ele>363.41</ele>
        <time>2020-09-30T09:02:32Z</time>
      </trkpt>
      <trkpt lat="47.64056" lon="6.20927">
        <ele>363.45</ele>
        <time>2020-09-30T09:02:34Z</time>
      </trkpt>
      <trkpt lat="47.64062" lon="6.20943">
        <ele>363.53</ele>
        <time>2020-09-30T09:02:37Z</time>
      </trkpt>
      <trkpt lat="47.64067" lon="6.20962">
        <ele>363.65</ele>
        <time>2020-09-30T09:02:39Z</time>
      </trkpt>
      <trkpt lat="47.6407" lon="6.20968">
        <ele>363.7</ele>
        <time>2020-09-30T09:02:41Z</time>
      </trkpt>
      <trkpt lat="47.64069" lon="6.20976">
        <ele>363.76</ele>
        <time>2020-09-30T09:02:46Z</time>
      </trkpt>
      <trkpt lat="47.64063" lon="6.20979">
        <ele>363.84</ele>
        <time>2020-09-30T09:02:50Z</time>
      </trkpt>
      <trkpt lat="47.64058" lon="6.20983">
        <ele>363.92</ele>
        <time>2020-09-30T09:02:54Z</time>
      </trkpt>
      <trkpt lat="47.64054" lon="6.20988">
        <ele>363.99</ele>
        <time>2020-09-30T09:02:55Z</time>
      </trkpt>
      <trkpt lat="47.64054" lon="6.20997">
        <ele>364.03</ele>
        <time>2020-09-30T09:02:58Z</time>
      </trkpt>
      <trkpt lat="47.64055" lon="6.21006">
        <ele>364.07</ele>
        <time>2020-09-30T09:03:02Z</time>
      </trkpt>
      <trkpt lat="47.64057" lon="6.21014">
        <ele>364.1</ele>
        <time>2020-09-30T09:03:04Z</time>
      </trkpt>
      <trkpt lat="47.64058" lon="6.21022">
        <ele>364.13</ele>
        <time>2020-09-30T09:03:06Z</time>
      </trkpt>
      <trkpt lat="47.6406" lon="6.2103">
        <ele>364.16</ele>
        <time>2020-09-30T09:03:09Z</time>
      </trkpt>
      <trkpt lat="47.64064" lon="6.21047">
        <ele>364.22</ele>
        <time>2020-09-30T09:03:13Z</time>
      </trkpt>
      <trkpt lat="47.64067" lon="6.21055">
        <ele>364.24</ele>
        <time>2020-09-30T09:03:14Z</time>
      </trkpt>
      <trkpt lat="47.6407" lon="6.21065">
        <ele>364.26</ele>
        <time>2020-09-30T09:03:17Z</time>
      </trkpt>
      <trkpt lat="47.64071" lon="6.21073">
        <ele>364.29</ele>
        <time>2020-09-30T09:03:18Z</time>
      </trkpt>
      <trkpt lat="47.64073" lon="6.21081">
        <ele>364.31</ele>
        <time>2020-09-30T09:03:20Z</time>
      </trkpt>
      <trkpt lat="47.64075" lon="6.21089">
        <ele>364.34</ele>
        <time>2020-09-30T09:03:23Z</time>
      </trkpt>
      <trkpt lat="47.64077" lon="6.21097">
        <ele>364.36</ele>
        <time>2020-09-30T09:03:25Z</time>
      </trkpt>
      <trkpt lat="47.64079" lon="6.21103">
        <ele>364.38</ele>
        <time>2020-09-30T09:03:27Z</time>
      </trkpt>
      <trkpt lat="47.64082" lon="6.21117">
        <ele>364.41</ele>
        <time>2020-09-30T09:03:31Z</time>
      </trkpt>
      <trkpt lat="47.64085" lon="6.21125">
        <ele>364.43</ele>
        <time>2020-09-30T09:03:33Z</time>
      </trkpt>
      <trkpt lat="47.64086" lon="6.21132">
        <ele>364.46</ele>
        <time>2020-09-30T09:03:36Z</time>
      </trkpt>
      <trkpt lat="47.6409" lon="6.21142">
        <ele>364.48</ele>
        <time>2020-09-30T09:03:40Z</time>
      </trkpt>
      <trkpt lat="47.64092" lon="6.21149">
        <ele>364.51</ele>
        <time>2020-09-30T09:03:43Z</time>
      </trkpt>
      <trkpt lat="47.64095" lon="6.21155">
        <ele>364.53</ele>
        <time>2020-09-30T09:03:46Z</time>
      </trkpt>
      <trkpt lat="47.64097" lon="6.21162">
        <ele>364.58</ele>
        <time>2020-09-30T09:03:48Z</time>
      </trkpt>
      <trkpt lat="47.641" lon="6.21169">
        <ele>364.62</ele>
        <time>2020-09-30T09:03:53Z</time>
      </trkpt>
      <trkpt lat="47.64101" lon="6.21176">
        <ele>364.71</ele>
        <time>2020-09-30T09:04:06Z</time>
      </trkpt>
      <trkpt lat="47.64105" lon="6.2118">
        <ele>364.75</ele>
        <time>2020-09-30T09:04:08Z</time>
      </trkpt>
      <trkpt lat="47.64108" lon="6.21185">
        <ele>364.78</ele>
        <time>2020-09-30T09:04:11Z</time>
      </trkpt>
      <trkpt lat="47.64113" lon="6.2119">
        <ele>364.82</ele>
        <time>2020-09-30T09:04:13Z</time>
      </trkpt>
      <trkpt lat="47.64117" lon="6.21193">
        <ele>364.87</ele>
        <time>2020-09-30T09:04:17Z</time>
      </trkpt>
      <trkpt lat="47.64121" lon="6.21197">
        <ele>364.9</ele>
        <time>2020-09-30T09:04:27Z</time>
      </trkpt>
      <trkpt lat="47.64126" lon="6.212">
        <ele>364.97</ele>
        <time>2020-09-30T09:04:39Z</time>
      </trkpt>
      <trkpt lat="47.64129" lon="6.21206">
        <ele>365.01</ele>
        <time>2020-09-30T09:04:51Z</time>
      </trkpt>
      <trkpt lat="47.64131" lon="6.21212">
        <ele>365.02</ele>
        <time>2020-09-30T09:04:56Z</time>
      </trkpt>
      <trkpt lat="47.64134" lon="6.21219">
        <ele>365.04</ele>
        <time>2020-09-30T09:05:04Z</time>
      </trkpt>
      <trkpt lat="47.64135" lon="6.21225">
        <ele>365.05</ele>
        <time>2020-09-30T09:05:09Z</time>
      </trkpt>
      <trkpt lat="47.64137" lon="6.21232">
        <ele>365.06</ele>
        <time>2020-09-30T09:05:14Z</time>
      </trkpt>
      <trkpt lat="47.6414" lon="6.21238">
        <ele>365.05</ele>
        <time>2020-09-30T09:05:19Z</time>
      </trkpt>
      <trkpt lat="47.6414" lon="6.21244">
        <ele>365.05</ele>
        <time>2020-09-30T09:05:24Z</time>
      </trkpt>
      <trkpt lat="47.64139" lon="6.21253">
        <ele>365.04</ele>
        <time>2020-09-30T09:05:33Z</time>
      </trkpt>
      <trkpt lat="47.64139" lon="6.2126">
        <ele>365.03</ele>
        <time>2020-09-30T09:05:42Z</time>
      </trkpt>
      <trkpt lat="47.6414" lon="6.21268">
        <ele>365.02</ele>
        <time>2020-09-30T09:05:45Z</time>
      </trkpt>
      <trkpt lat="47.6414" lon="6.21276">
        <ele>365.02</ele>
        <time>2020-09-30T09:05:48Z</time>
      </trkpt>
      <trkpt lat="47.6414" lon="6.21285">
        <ele>365.01</ele>
        <time>2020-09-30T09:05:51Z</time>
      </trkpt>
      <trkpt lat="47.64141" lon="6.21294">
        <ele>365</ele>
        <time>2020-09-30T09:05:54Z</time>
      </trkpt>
      <trkpt lat="47.64143" lon="6.21301">
        <ele>365</ele>
        <time>2020-09-30T09:05:55Z</time>
      </trkpt>
      <trkpt lat="47.64145" lon="6.21306">
        <ele>364.99</ele>
        <time>2020-09-30T09:05:57Z</time>
      </trkpt>
      <trkpt lat="47.64148" lon="6.21315">
        <ele>364.99</ele>
        <time>2020-09-30T09:05:58Z</time>
      </trkpt>
      <trkpt lat="47.6415" lon="6.21322">
        <ele>364.98</ele>
        <time>2020-09-30T09:06:04Z</time>
      </trkpt>
      <trkpt lat="47.64152" lon="6.21329">
        <ele>364.96</ele>
        <time>2020-09-30T09:06:07Z</time>
      </trkpt>
      <trkpt lat="47.64154" lon="6.21336">
        <ele>364.95</ele>
        <time>2020-09-30T09:06:12Z</time>
      </trkpt>
      <trkpt lat="47.64156" lon="6.21342">
        <ele>364.93</ele>
        <time>2020-09-30T09:06:14Z</time>
      </trkpt>
      <trkpt lat="47.64158" lon="6.21348">
        <ele>364.91</ele>
        <time>2020-09-30T09:06:20Z</time>
      </trkpt>
      <trkpt lat="47.64157" lon="6.21356">
        <ele>364.9</ele>
        <time>2020-09-30T09:06:25Z</time>
      </trkpt>
      <trkpt lat="47.64156" lon="6.21363">
        <ele>364.89</ele>
        <time>2020-09-30T09:06:27Z</time>
      </trkpt>
      <trkpt lat="47.64154" lon="6.21369">
        <ele>364.88</ele>
        <time>2020-09-30T09:06:31Z</time>
      </trkpt>
      <trkpt lat="47.64154" lon="6.21378">
        <ele>364.86</ele>
        <time>2020-09-30T09:06:35Z</time>
      </trkpt>
      <trkpt lat="47.64157" lon="6.21382">
        <ele>364.85</ele>
        <time>2020-09-30T09:06:40Z</time>
      </trkpt>
      <trkpt lat="47.64162" lon="6.21385">
        <ele>364.83</ele>
        <time>2020-09-30T09:06:46Z</time>
      </trkpt>
      <trkpt lat="47.64167" lon="6.21387">
        <ele>364.83</ele>
        <time>2020-09-30T09:06:50Z</time>
      </trkpt>
      <trkpt lat="47.64172" lon="6.21386">
        <ele>364.82</ele>
        <time>2020-09-30T09:06:55Z</time>
      </trkpt>
      <trkpt lat="47.64176" lon="6.21384">
        <ele>364.82</ele>
        <time>2020-09-30T09:06:56Z</time>
      </trkpt>
      <trkpt lat="47.64181" lon="6.21381">
        <ele>364.82</ele>
        <time>2020-09-30T09:07:02Z</time>
      </trkpt>
      <trkpt lat="47.64186" lon="6.21378">
        <ele>364.81</ele>
        <time>2020-09-30T09:07:06Z</time>
      </trkpt>
      <trkpt lat="47.64195" lon="6.21374">
        <ele>364.8</ele>
        <time>2020-09-30T09:07:11Z</time>
      </trkpt>
      <trkpt lat="47.64199" lon="6.21379">
        <ele>364.78</ele>
        <time>2020-09-30T09:07:15Z</time>
      </trkpt>
      <trkpt lat="47.64202" lon="6.21385">
        <ele>364.77</ele>
        <time>2020-09-30T09:07:16Z</time>
      </trkpt>
      <trkpt lat="47.64205" lon="6.21391">
        <ele>364.75</ele>
        <time>2020-09-30T09:07:22Z</time>
      </trkpt>
      <trkpt lat="47.64209" lon="6.21397">
        <ele>364.74</ele>
        <time>2020-09-30T09:07:24Z</time>
      </trkpt>
      <trkpt lat="47.64212" lon="6.21404">
        <ele>364.72</ele>
        <time>2020-09-30T09:07:26Z</time>
      </trkpt>
      <trkpt lat="47.64215" lon="6.21411">
        <ele>364.72</ele>
        <time>2020-09-30T09:07:28Z</time>
      </trkpt>
      <trkpt lat="47.64217" lon="6.21418">
        <ele>364.71</ele>
        <time>2020-09-30T09:07:31Z</time>
      </trkpt>
      <trkpt lat="47.64217" lon="6.21434">
        <ele>364.69</ele>
        <time>2020-09-30T09:07:35Z</time>
      </trkpt>
      <trkpt lat="47.64216" lon="6.21444">
        <ele>364.68</ele>
        <time>2020-09-30T09:07:38Z</time>
      </trkpt>
      <trkpt lat="47.64216" lon="6.21451">
        <ele>364.68</ele>
        <time>2020-09-30T09:07:40Z</time>
      </trkpt>
      <trkpt lat="47.64216" lon="6.21459">
        <ele>364.67</ele>
        <time>2020-09-30T09:07:42Z</time>
      </trkpt>
      <trkpt lat="47.64216" lon="6.21467">
        <ele>364.67</ele>
        <time>2020-09-30T09:07:43Z</time>
      </trkpt>
      <trkpt lat="47.64216" lon="6.21474">
        <ele>364.66</ele>
        <time>2020-09-30T09:07:46Z</time>
      </trkpt>
      <trkpt lat="47.64217" lon="6.21485">
        <ele>364.65</ele>
        <time>2020-09-30T09:07:47Z</time>
      </trkpt>
      <trkpt lat="47.64218" lon="6.21492">
        <ele>364.64</ele>
        <time>2020-09-30T09:07:51Z</time>
      </trkpt>
      <trkpt lat="47.64218" lon="6.21499">
        <ele>364.64</ele>
        <time>2020-09-30T09:07:53Z</time>
      </trkpt>
      <trkpt lat="47.64219" lon="6.21515">
        <ele>364.62</ele>
        <time>2020-09-30T09:07:57Z</time>
      </trkpt>
      <trkpt lat="47.64219" lon="6.21522">
        <ele>364.61</ele>
        <time>2020-09-30T09:07:58Z</time>
      </trkpt>
      <trkpt lat="47.64219" lon="6.2153">
        <ele>364.61</ele>
        <time>2020-09-30T09:08:01Z</time>
      </trkpt>
      <trkpt lat="47.6422" lon="6.2154">
        <ele>364.6</ele>
        <time>2020-09-30T09:08:04Z</time>
      </trkpt>
      <trkpt lat="47.64221" lon="6.2155">
        <ele>364.59</ele>
        <time>2020-09-30T09:08:06Z</time>
      </trkpt>
      <trkpt lat="47.64222" lon="6.21557">
        <ele>364.59</ele>
        <time>2020-09-30T09:08:08Z</time>
      </trkpt>
      <trkpt lat="47.64222" lon="6.21564">
        <ele>364.59</ele>
        <time>2020-09-30T09:08:12Z</time>
      </trkpt>
      <trkpt lat="47.64222" lon="6.21572">
        <ele>364.6</ele>
        <time>2020-09-30T09:08:14Z</time>
      </trkpt>
      <trkpt lat="47.64222" lon="6.21581">
        <ele>364.6</ele>
        <time>2020-09-30T09:08:17Z</time>
      </trkpt>
      <trkpt lat="47.64222" lon="6.2159">
        <ele>364.61</ele>
        <time>2020-09-30T09:08:18Z</time>
      </trkpt>
      <trkpt lat="47.64223" lon="6.216">
        <ele>364.61</ele>
        <time>2020-09-30T09:08:21Z</time>
      </trkpt>
      <trkpt lat="47.64224" lon="6.21609">
        <ele>364.62</ele>
        <time>2020-09-30T09:08:26Z</time>
      </trkpt>
      <trkpt lat="47.64229" lon="6.21624">
        <ele>364.62</ele>
        <time>2020-09-30T09:08:31Z</time>
      </trkpt>
      <trkpt lat="47.64233" lon="6.21637">
        <ele>364.62</ele>
        <time>2020-09-30T09:08:35Z</time>
      </trkpt>
      <trkpt lat="47.64233" lon="6.21644">
        <ele>364.61</ele>
        <time>2020-09-30T09:08:37Z</time>
      </trkpt>
      <trkpt lat="47.64233" lon="6.21655">
        <ele>364.61</ele>
        <time>2020-09-30T09:08:39Z</time>
      </trkpt>
      <trkpt lat="47.64233" lon="6.21666">
        <ele>364.6</ele>
        <time>2020-09-30T09:08:42Z</time>
      </trkpt>
      <trkpt lat="47.64233" lon="6.21674">
        <ele>364.59</ele>
        <time>2020-09-30T09:08:43Z</time>
      </trkpt>
      <trkpt lat="47.64233" lon="6.21681">
        <ele>364.57</ele>
        <time>2020-09-30T09:08:45Z</time>
      </trkpt>
      <trkpt lat="47.64234" lon="6.21692">
        <ele>364.56</ele>
        <time>2020-09-30T09:08:46Z</time>
      </trkpt>
      <trkpt lat="47.64234" lon="6.21698">
        <ele>364.55</ele>
        <time>2020-09-30T09:08:50Z</time>
      </trkpt>
      <trkpt lat="47.64234" lon="6.21706">
        <ele>364.53</ele>
        <time>2020-09-30T09:08:51Z</time>
      </trkpt>
      <trkpt lat="47.64235" lon="6.21713">
        <ele>364.52</ele>
        <time>2020-09-30T09:08:53Z</time>
      </trkpt>
      <trkpt lat="47.64235" lon="6.2172">
        <ele>364.51</ele>
        <time>2020-09-30T09:08:54Z</time>
      </trkpt>
      <trkpt lat="47.64234" lon="6.21729">
        <ele>364.5</ele>
        <time>2020-09-30T09:08:56Z</time>
      </trkpt>
      <trkpt lat="47.64233" lon="6.21745">
        <ele>364.47</ele>
        <time>2020-09-30T09:08:59Z</time>
      </trkpt>
      <trkpt lat="47.64233" lon="6.21754">
        <ele>364.46</ele>
        <time>2020-09-30T09:09:01Z</time>
      </trkpt>
      <trkpt lat="47.64233" lon="6.21769">
        <ele>364.44</ele>
        <time>2020-09-30T09:09:05Z</time>
      </trkpt>
      <trkpt lat="47.64232" lon="6.21777">
        <ele>364.42</ele>
        <time>2020-09-30T09:09:06Z</time>
      </trkpt>
      <trkpt lat="47.64232" lon="6.21786">
        <ele>364.4</ele>
        <time>2020-09-30T09:09:07Z</time>
      </trkpt>
      <trkpt lat="47.64233" lon="6.21794">
        <ele>364.39</ele>
        <time>2020-09-30T09:09:11Z</time>
      </trkpt>
      <trkpt lat="47.64233" lon="6.21801">
        <ele>364.37</ele>
        <time>2020-09-30T09:09:14Z</time>
      </trkpt>
      <trkpt lat="47.64234" lon="6.2181">
        <ele>364.36</ele>
        <time>2020-09-30T09:09:16Z</time>
      </trkpt>
      <trkpt lat="47.64235" lon="6.21819">
        <ele>364.34</ele>
        <time>2020-09-30T09:09:18Z</time>
      </trkpt>
      <trkpt lat="47.64236" lon="6.21826">
        <ele>364.33</ele>
        <time>2020-09-30T09:09:20Z</time>
      </trkpt>
      <trkpt lat="47.64238" lon="6.21834">
        <ele>364.31</ele>
        <time>2020-09-30T09:09:22Z</time>
      </trkpt>
      <trkpt lat="47.64239" lon="6.21841">
        <ele>364.29</ele>
        <time>2020-09-30T09:09:27Z</time>
      </trkpt>
      <trkpt lat="47.6424" lon="6.21849">
        <ele>364.26</ele>
        <time>2020-09-30T09:09:31Z</time>
      </trkpt>
      <trkpt lat="47.64243" lon="6.21862">
        <ele>364.22</ele>
        <time>2020-09-30T09:09:35Z</time>
      </trkpt>
      <trkpt lat="47.64246" lon="6.21867">
        <ele>364.2</ele>
        <time>2020-09-30T09:09:37Z</time>
      </trkpt>
      <trkpt lat="47.64251" lon="6.2187">
        <ele>364.17</ele>
        <time>2020-09-30T09:09:40Z</time>
      </trkpt>
      <trkpt lat="47.64256" lon="6.21871">
        <ele>364.12</ele>
        <time>2020-09-30T09:09:44Z</time>
      </trkpt>
      <trkpt lat="47.64262" lon="6.21873">
        <ele>364.08</ele>
        <time>2020-09-30T09:09:47Z</time>
      </trkpt>
      <trkpt lat="47.64267" lon="6.21876">
        <ele>364.01</ele>
        <time>2020-09-30T09:09:51Z</time>
      </trkpt>
      <trkpt lat="47.64273" lon="6.2188">
        <ele>363.96</ele>
        <time>2020-09-30T09:09:54Z</time>
      </trkpt>
      <trkpt lat="47.64277" lon="6.21883">
        <ele>363.92</ele>
        <time>2020-09-30T09:09:56Z</time>
      </trkpt>
      <trkpt lat="47.64283" lon="6.21885">
        <ele>363.89</ele>
        <time>2020-09-30T09:09:58Z</time>
      </trkpt>
      <trkpt lat="47.64288" lon="6.21887">
        <ele>363.84</ele>
        <time>2020-09-30T09:10:00Z</time>
      </trkpt>
      <trkpt lat="47.64293" lon="6.21887">
        <ele>363.78</ele>
        <time>2020-09-30T09:10:03Z</time>
      </trkpt>
      <trkpt lat="47.64298" lon="6.21887">
        <ele>363.72</ele>
        <time>2020-09-30T09:10:04Z</time>
      </trkpt>
      <trkpt lat="47.64302" lon="6.21887">
        <ele>363.69</ele>
        <time>2020-09-30T09:10:08Z</time>
      </trkpt>
      <trkpt lat="47.64307" lon="6.21887">
        <ele>363.63</ele>
        <time>2020-09-30T09:10:11Z</time>
      </trkpt>
      <trkpt lat="47.64312" lon="6.21887">
        <ele>363.56</ele>
        <time>2020-09-30T09:10:13Z</time>
      </trkpt>
      <trkpt lat="47.64317" lon="6.21887">
        <ele>363.49</ele>
        <time>2020-09-30T09:10:14Z</time>
      </trkpt>
      <trkpt lat="47.64322" lon="6.21887">
        <ele>363.46</ele>
        <time>2020-09-30T09:10:18Z</time>
      </trkpt>
      <trkpt lat="47.6433" lon="6.21886">
        <ele>363.39</ele>
        <time>2020-09-30T09:10:20Z</time>
      </trkpt>
      <trkpt lat="47.64341" lon="6.21883">
        <ele>363.33</ele>
        <time>2020-09-30T09:10:23Z</time>
      </trkpt>
      <trkpt lat="47.64347" lon="6.2188">
        <ele>363.28</ele>
        <time>2020-09-30T09:10:24Z</time>
      </trkpt>
      <trkpt lat="47.64352" lon="6.21879">
        <ele>363.24</ele>
        <time>2020-09-30T09:10:26Z</time>
      </trkpt>
      <trkpt lat="47.64363" lon="6.21877">
        <ele>363.12</ele>
        <time>2020-09-30T09:10:30Z</time>
      </trkpt>
      <trkpt lat="47.64368" lon="6.21876">
        <ele>363.03</ele>
        <time>2020-09-30T09:10:34Z</time>
      </trkpt>
      <trkpt lat="47.64376" lon="6.2187">
        <ele>362.87</ele>
        <time>2020-09-30T09:10:36Z</time>
      </trkpt>
      <trkpt lat="47.64381" lon="6.21866">
        <ele>362.8</ele>
        <time>2020-09-30T09:10:41Z</time>
      </trkpt>
      <trkpt lat="47.64385" lon="6.21862">
        <ele>362.74</ele>
        <time>2020-09-30T09:10:44Z</time>
      </trkpt>
      <trkpt lat="47.64395" lon="6.21852">
        <ele>362.6</ele>
        <time>2020-09-30T09:10:49Z</time>
      </trkpt>
      <trkpt lat="47.64399" lon="6.21848">
        <ele>362.55</ele>
        <time>2020-09-30T09:10:50Z</time>
      </trkpt>
      <trkpt lat="47.64403" lon="6.21845">
        <ele>362.48</ele>
        <time>2020-09-30T09:10:52Z</time>
      </trkpt>
      <trkpt lat="47.6441" lon="6.21837">
        <ele>362.42</ele>
        <time>2020-09-30T09:10:52Z</time>
      </trkpt>
      <trkpt lat="47.64413" lon="6.21833">
        <ele>362.35</ele>
        <time>2020-09-30T09:10:57Z</time>
      </trkpt>
      <trkpt lat="47.64417" lon="6.21826">
        <ele>362.29</ele>
        <time>2020-09-30T09:11:00Z</time>
      </trkpt>
      <trkpt lat="47.64421" lon="6.21819">
        <ele>362.21</ele>
        <time>2020-09-30T09:11:03Z</time>
      </trkpt>
      <trkpt lat="47.64426" lon="6.21812">
        <ele>362.11</ele>
        <time>2020-09-30T09:11:05Z</time>
      </trkpt>
      <trkpt lat="47.6443" lon="6.21806">
        <ele>361.98</ele>
        <time>2020-09-30T09:11:06Z</time>
      </trkpt>
      <trkpt lat="47.64432" lon="6.218">
        <ele>361.88</ele>
        <time>2020-09-30T09:11:09Z</time>
      </trkpt>
      <trkpt lat="47.64434" lon="6.21793">
        <ele>361.78</ele>
        <time>2020-09-30T09:11:15Z</time>
      </trkpt>
      <trkpt lat="47.64437" lon="6.21786">
        <ele>361.67</ele>
        <time>2020-09-30T09:11:19Z</time>
      </trkpt>
      <trkpt lat="47.64438" lon="6.21779">
        <ele>361.55</ele>
        <time>2020-09-30T09:11:21Z</time>
      </trkpt>
      <trkpt lat="47.64439" lon="6.21772">
        <ele>361.48</ele>
        <time>2020-09-30T09:11:24Z</time>
      </trkpt>
      <trkpt lat="47.64441" lon="6.21766">
        <ele>361.42</ele>
        <time>2020-09-30T09:11:25Z</time>
      </trkpt>
      <trkpt lat="47.6444" lon="6.21757">
        <ele>361.26</ele>
        <time>2020-09-30T09:11:26Z</time>
      </trkpt>
      <trkpt lat="47.6444" lon="6.2175">
        <ele>361.16</ele>
        <time>2020-09-30T09:11:31Z</time>
      </trkpt>
      <trkpt lat="47.64438" lon="6.21742">
        <ele>361.07</ele>
        <time>2020-09-30T09:11:33Z</time>
      </trkpt>
      <trkpt lat="47.64437" lon="6.21732">
        <ele>360.99</ele>
        <time>2020-09-30T09:11:35Z</time>
      </trkpt>
      <trkpt lat="47.64436" lon="6.21725">
        <ele>360.86</ele>
        <time>2020-09-30T09:11:39Z</time>
      </trkpt>
      <trkpt lat="47.64435" lon="6.21717">
        <ele>360.71</ele>
        <time>2020-09-30T09:11:42Z</time>
      </trkpt>
      <trkpt lat="47.64435" lon="6.2171">
        <ele>360.58</ele>
        <time>2020-09-30T09:11:45Z</time>
      </trkpt>
      <trkpt lat="47.64435" lon="6.21702">
        <ele>360.42</ele>
        <time>2020-09-30T09:11:48Z</time>
      </trkpt>
      <trkpt lat="47.64436" lon="6.21695">
        <ele>360.28</ele>
        <time>2020-09-30T09:11:50Z</time>
      </trkpt>
      <trkpt lat="47.64436" lon="6.21686">
        <ele>360.09</ele>
        <time>2020-09-30T09:11:51Z</time>
      </trkpt>
      <trkpt lat="47.64436" lon="6.21678">
        <ele>360.04</ele>
        <time>2020-09-30T09:11:56Z</time>
      </trkpt>
      <trkpt lat="47.64436" lon="6.21671">
        <ele>359.92</ele>
        <time>2020-09-30T09:11:59Z</time>
      </trkpt>
      <trkpt lat="47.64436" lon="6.21664">
        <ele>359.84</ele>
        <time>2020-09-30T09:12:03Z</time>
      </trkpt>
      <trkpt lat="47.64434" lon="6.21656">
        <ele>359.78</ele>
        <time>2020-09-30T09:12:15Z</time>
      </trkpt>
      <trkpt lat="47.64433" lon="6.21644">
        <ele>359.6</ele>
        <time>2020-09-30T09:12:27Z</time>
      </trkpt>
      <trkpt lat="47.64433" lon="6.21637">
        <ele>359.39</ele>
        <time>2020-09-30T09:12:34Z</time>
      </trkpt>
      <trkpt lat="47.64433" lon="6.2163">
        <ele>359.33</ele>
        <time>2020-09-30T09:12:36Z</time>
      </trkpt>
      <trkpt lat="47.64433" lon="6.2162">
        <ele>359.18</ele>
        <time>2020-09-30T09:12:40Z</time>
      </trkpt>
      <trkpt lat="47.64432" lon="6.21602">
        <ele>358.98</ele>
        <time>2020-09-30T09:12:45Z</time>
      </trkpt>
      <trkpt lat="47.64434" lon="6.21593">
        <ele>358.92</ele>
        <time>2020-09-30T09:12:47Z</time>
      </trkpt>
      <trkpt lat="47.64435" lon="6.21587">
        <ele>358.78</ele>
        <time>2020-09-30T09:13:02Z</time>
      </trkpt>
      <trkpt lat="47.64437" lon="6.21578">
        <ele>358.56</ele>
        <time>2020-09-30T09:13:33Z</time>
      </trkpt>
      <trkpt lat="47.64441" lon="6.21573">
        <ele>358.51</ele>
        <time>2020-09-30T09:13:35Z</time>
      </trkpt>
      <trkpt lat="47.64443" lon="6.21567">
        <ele>358.37</ele>
        <time>2020-09-30T09:13:41Z</time>
      </trkpt>
      <trkpt lat="47.64448" lon="6.21561">
        <ele>358.32</ele>
        <time>2020-09-30T09:13:46Z</time>
      </trkpt>
      <trkpt lat="47.64455" lon="6.21543">
        <ele>358.26</ele>
        <time>2020-09-30T09:13:50Z</time>
      </trkpt>
      <trkpt lat="47.64458" lon="6.21537">
        <ele>358.25</ele>
        <time>2020-09-30T09:13:50Z</time>
      </trkpt>
      <trkpt lat="47.6446" lon="6.21528">
        <ele>358.23</ele>
        <time>2020-09-30T09:13:51Z</time>
      </trkpt>
      <trkpt lat="47.64463" lon="6.2152">
        <ele>358.21</ele>
        <time>2020-09-30T09:13:52Z</time>
      </trkpt>
      <trkpt lat="47.64464" lon="6.21512">
        <ele>358.19</ele>
        <time>2020-09-30T09:13:54Z</time>
      </trkpt>
      <trkpt lat="47.64465" lon="6.21502">
        <ele>358.16</ele>
        <time>2020-09-30T09:13:56Z</time>
      </trkpt>
      <trkpt lat="47.64466" lon="6.21495">
        <ele>358.13</ele>
        <time>2020-09-30T09:13:57Z</time>
      </trkpt>
      <trkpt lat="47.64468" lon="6.21484">
        <ele>358.11</ele>
        <time>2020-09-30T09:13:59Z</time>
      </trkpt>
      <trkpt lat="47.64471" lon="6.21474">
        <ele>358.09</ele>
        <time>2020-09-30T09:14:00Z</time>
      </trkpt>
      <trkpt lat="47.64474" lon="6.21466">
        <ele>358.06</ele>
        <time>2020-09-30T09:14:02Z</time>
      </trkpt>
      <trkpt lat="47.64481" lon="6.21458">
        <ele>358.03</ele>
        <time>2020-09-30T09:14:02Z</time>
      </trkpt>
      <trkpt lat="47.64487" lon="6.21454">
        <ele>358</ele>
        <time>2020-09-30T09:14:04Z</time>
      </trkpt>
      <trkpt lat="47.64494" lon="6.21451">
        <ele>357.93</ele>
        <time>2020-09-30T09:14:08Z</time>
      </trkpt>
      <trkpt lat="47.645" lon="6.21447">
        <ele>357.83</ele>
        <time>2020-09-30T09:14:10Z</time>
      </trkpt>
      <trkpt lat="47.64511" lon="6.21442">
        <ele>357.73</ele>
        <time>2020-09-30T09:14:12Z</time>
      </trkpt>
      <trkpt lat="47.64523" lon="6.21437">
        <ele>357.66</ele>
        <time>2020-09-30T09:14:14Z</time>
      </trkpt>
      <trkpt lat="47.64538" lon="6.21433">
        <ele>357.61</ele>
        <time>2020-09-30T09:14:16Z</time>
      </trkpt>
      <trkpt lat="47.64549" lon="6.2143">
        <ele>357.58</ele>
        <time>2020-09-30T09:14:18Z</time>
      </trkpt>
      <trkpt lat="47.64559" lon="6.21426">
        <ele>357.57</ele>
        <time>2020-09-30T09:14:19Z</time>
      </trkpt>
      <trkpt lat="47.64571" lon="6.21414">
        <ele>357.53</ele>
        <time>2020-09-30T09:14:22Z</time>
      </trkpt>
      <trkpt lat="47.64576" lon="6.21409">
        <ele>357.53</ele>
        <time>2020-09-30T09:14:23Z</time>
      </trkpt>
      <trkpt lat="47.64581" lon="6.21403">
        <ele>357.53</ele>
        <time>2020-09-30T09:14:25Z</time>
      </trkpt>
      <trkpt lat="47.64588" lon="6.21395">
        <ele>357.49</ele>
        <time>2020-09-30T09:14:27Z</time>
      </trkpt>
      <trkpt lat="47.64597" lon="6.21383">
        <ele>357.45</ele>
        <time>2020-09-30T09:14:29Z</time>
      </trkpt>
      <trkpt lat="47.6462" lon="6.21346">
        <ele>357.38</ele>
        <time>2020-09-30T09:14:29Z</time>
      </trkpt>
      <trkpt lat="47.64625" lon="6.21336">
        <ele>357.36</ele>
        <time>2020-09-30T09:14:30Z</time>
      </trkpt>
      <trkpt lat="47.64629" lon="6.21327">
        <ele>357.33</ele>
        <time>2020-09-30T09:14:31Z</time>
      </trkpt>
      <trkpt lat="47.64632" lon="6.21318">
        <ele>357.3</ele>
        <time>2020-09-30T09:14:32Z</time>
      </trkpt>
      <trkpt lat="47.64635" lon="6.2131">
        <ele>357.27</ele>
        <time>2020-09-30T09:14:33Z</time>
      </trkpt>
      <trkpt lat="47.64638" lon="6.21304">
        <ele>357.24</ele>
        <time>2020-09-30T09:14:34Z</time>
      </trkpt>
      <trkpt lat="47.6464" lon="6.21298">
        <ele>357.19</ele>
        <time>2020-09-30T09:14:35Z</time>
      </trkpt>
      <trkpt lat="47.64642" lon="6.21292">
        <ele>357.14</ele>
        <time>2020-09-30T09:14:36Z</time>
      </trkpt>
      <trkpt lat="47.64644" lon="6.21285">
        <ele>357.07</ele>
        <time>2020-09-30T09:14:37Z</time>
      </trkpt>
      <trkpt lat="47.64649" lon="6.21276">
        <ele>356.84</ele>
        <time>2020-09-30T09:14:40Z</time>
      </trkpt>
      <trkpt lat="47.64656" lon="6.21263">
        <ele>356.65</ele>
        <time>2020-09-30T09:14:42Z</time>
      </trkpt>
      <trkpt lat="47.6466" lon="6.21258">
        <ele>356.62</ele>
        <time>2020-09-30T09:14:46Z</time>
      </trkpt>
      <trkpt lat="47.64666" lon="6.2125">
        <ele>356.29</ele>
        <time>2020-09-30T09:14:48Z</time>
      </trkpt>
      <trkpt lat="47.64671" lon="6.21245">
        <ele>356.11</ele>
        <time>2020-09-30T09:14:49Z</time>
      </trkpt>
      <trkpt lat="47.64684" lon="6.2123">
        <ele>355.97</ele>
        <time>2020-09-30T09:14:49Z</time>
      </trkpt>
      <trkpt lat="47.6469" lon="6.21221">
        <ele>355.92</ele>
        <time>2020-09-30T09:14:54Z</time>
      </trkpt>
      <trkpt lat="47.64693" lon="6.21215">
        <ele>355.88</ele>
        <time>2020-09-30T09:14:55Z</time>
      </trkpt>
      <trkpt lat="47.64697" lon="6.21206">
        <ele>355.78</ele>
        <time>2020-09-30T09:14:56Z</time>
      </trkpt>
      <trkpt lat="47.64701" lon="6.21199">
        <ele>355.23</ele>
        <time>2020-09-30T09:14:57Z</time>
      </trkpt>
      <trkpt lat="47.64705" lon="6.21193">
        <ele>355.02</ele>
        <time>2020-09-30T09:14:59Z</time>
      </trkpt>
      <trkpt lat="47.64709" lon="6.21187">
        <ele>354.89</ele>
        <time>2020-09-30T09:15:00Z</time>
      </trkpt>
      <trkpt lat="47.64725" lon="6.21166">
        <ele>351.34</ele>
        <time>2020-09-30T09:15:00Z</time>
      </trkpt>
      <trkpt lat="47.6473" lon="6.2116">
        <ele>350.24</ele>
        <time>2020-09-30T09:15:01Z</time>
      </trkpt>
      <trkpt lat="47.64736" lon="6.21154">
        <ele>349.12</ele>
        <time>2020-09-30T09:15:02Z</time>
      </trkpt>
      <trkpt lat="47.64741" lon="6.21147">
        <ele>347.95</ele>
        <time>2020-09-30T09:15:03Z</time>
      </trkpt>
      <trkpt lat="47.64747" lon="6.21139">
        <ele>346.87</ele>
        <time>2020-09-30T09:15:04Z</time>
      </trkpt>
      <trkpt lat="47.64754" lon="6.2113">
        <ele>345.91</ele>
        <time>2020-09-30T09:15:05Z</time>
      </trkpt>
      <trkpt lat="47.64759" lon="6.21121">
        <ele>345.05</ele>
        <time>2020-09-30T09:15:06Z</time>
      </trkpt>
      <trkpt lat="47.64764" lon="6.21112">
        <ele>344.28</ele>
        <time>2020-09-30T09:15:07Z</time>
      </trkpt>
      <trkpt lat="47.64769" lon="6.21104">
        <ele>343.57</ele>
        <time>2020-09-30T09:15:08Z</time>
      </trkpt>
      <trkpt lat="47.64772" lon="6.21096">
        <ele>342.85</ele>
        <time>2020-09-30T09:15:09Z</time>
      </trkpt>
      <trkpt lat="47.64775" lon="6.21089">
        <ele>342.59</ele>
        <time>2020-09-30T09:15:10Z</time>
      </trkpt>
      <trkpt lat="47.64776" lon="6.21081">
        <ele>342.45</ele>
        <time>2020-09-30T09:15:11Z</time>
      </trkpt>
      <trkpt lat="47.64779" lon="6.21072">
        <ele>342.36</ele>
        <time>2020-09-30T09:15:13Z</time>
      </trkpt>
      <trkpt lat="47.64775" lon="6.21075">
        <ele>342.36</ele>
        <time>2020-09-30T09:15:27Z</time>
      </trkpt>
      <trkpt lat="47.64774" lon="6.21083">
        <ele>342.31</ele>
        <time>2020-09-30T09:15:28Z</time>
      </trkpt>
      <trkpt lat="47.64772" lon="6.21089">
        <ele>342.22</ele>
        <time>2020-09-30T09:15:30Z</time>
      </trkpt>
      <trkpt lat="47.64771" lon="6.21099">
        <ele>341.99</ele>
        <time>2020-09-30T09:15:33Z</time>
      </trkpt>
      <trkpt lat="47.64771" lon="6.21107">
        <ele>341.9</ele>
        <time>2020-09-30T09:15:38Z</time>
      </trkpt>
      <trkpt lat="47.6477" lon="6.21114">
        <ele>341.74</ele>
        <time>2020-09-30T09:15:39Z</time>
      </trkpt>
      <trkpt lat="47.64769" lon="6.21121">
        <ele>341.54</ele>
        <time>2020-09-30T09:15:41Z</time>
      </trkpt>
      <trkpt lat="47.64768" lon="6.21128">
        <ele>341.31</ele>
        <time>2020-09-30T09:15:43Z</time>
      </trkpt>
      <trkpt lat="47.64765" lon="6.21136">
        <ele>340.67</ele>
        <time>2020-09-30T09:15:47Z</time>
      </trkpt>
      <trkpt lat="47.64765" lon="6.21144">
        <ele>340.27</ele>
        <time>2020-09-30T09:15:49Z</time>
      </trkpt>
      <trkpt lat="47.64768" lon="6.21154">
        <ele>339.93</ele>
        <time>2020-09-30T09:15:52Z</time>
      </trkpt>
      <trkpt lat="47.64772" lon="6.21162">
        <ele>339.57</ele>
        <time>2020-09-30T09:15:54Z</time>
      </trkpt>
      <trkpt lat="47.64776" lon="6.21169">
        <ele>339.19</ele>
        <time>2020-09-30T09:15:55Z</time>
      </trkpt>
      <trkpt lat="47.6478" lon="6.21178">
        <ele>338.8</ele>
        <time>2020-09-30T09:15:58Z</time>
      </trkpt>
      <trkpt lat="47.64784" lon="6.21185">
        <ele>338.46</ele>
        <time>2020-09-30T09:15:59Z</time>
      </trkpt>
      <trkpt lat="47.64789" lon="6.21189">
        <ele>338.25</ele>
        <time>2020-09-30T09:16:01Z</time>
      </trkpt>
      <trkpt lat="47.64793" lon="6.21191">
        <ele>338.11</ele>
        <time>2020-09-30T09:16:01Z</time>
      </trkpt>
      <trkpt lat="47.64798" lon="6.21195">
        <ele>337.95</ele>
        <time>2020-09-30T09:16:03Z</time>
      </trkpt>
      <trkpt lat="47.64803" lon="6.21197">
        <ele>337.78</ele>
        <time>2020-09-30T09:16:03Z</time>
      </trkpt>
      <trkpt lat="47.64809" lon="6.21202">
        <ele>337.61</ele>
        <time>2020-09-30T09:16:05Z</time>
      </trkpt>
      <trkpt lat="47.64819" lon="6.21206">
        <ele>337.44</ele>
        <time>2020-09-30T09:16:06Z</time>
      </trkpt>
      <trkpt lat="47.64824" lon="6.21209">
        <ele>337.28</ele>
        <time>2020-09-30T09:16:06Z</time>
      </trkpt>
      <trkpt lat="47.6483" lon="6.21213">
        <ele>337.12</ele>
        <time>2020-09-30T09:16:07Z</time>
      </trkpt>
      <trkpt lat="47.64835" lon="6.21217">
        <ele>336.96</ele>
        <time>2020-09-30T09:16:09Z</time>
      </trkpt>
      <trkpt lat="47.64839" lon="6.2122">
        <ele>336.81</ele>
        <time>2020-09-30T09:16:10Z</time>
      </trkpt>
      <trkpt lat="47.64844" lon="6.21233">
        <ele>336.39</ele>
        <time>2020-09-30T09:16:12Z</time>
      </trkpt>
      <trkpt lat="47.64846" lon="6.21242">
        <ele>336.15</ele>
        <time>2020-09-30T09:16:14Z</time>
      </trkpt>
      <trkpt lat="47.64848" lon="6.21249">
        <ele>336.05</ele>
        <time>2020-09-30T09:16:15Z</time>
      </trkpt>
      <trkpt lat="47.64851" lon="6.21261">
        <ele>335.86</ele>
        <time>2020-09-30T09:16:17Z</time>
      </trkpt>
      <trkpt lat="47.64852" lon="6.21272">
        <ele>335.64</ele>
        <time>2020-09-30T09:16:20Z</time>
      </trkpt>
      <trkpt lat="47.64853" lon="6.21281">
        <ele>335.47</ele>
        <time>2020-09-30T09:16:22Z</time>
      </trkpt>
      <trkpt lat="47.64856" lon="6.21296">
        <ele>335.25</ele>
        <time>2020-09-30T09:16:24Z</time>
      </trkpt>
      <trkpt lat="47.64858" lon="6.21309">
        <ele>335.06</ele>
        <time>2020-09-30T09:16:24Z</time>
      </trkpt>
      <trkpt lat="47.64859" lon="6.21316">
        <ele>334.98</ele>
        <time>2020-09-30T09:16:25Z</time>
      </trkpt>
      <trkpt lat="47.6486" lon="6.21327">
        <ele>334.9</ele>
        <time>2020-09-30T09:16:29Z</time>
      </trkpt>
      <trkpt lat="47.64861" lon="6.21334">
        <ele>334.85</ele>
        <time>2020-09-30T09:16:30Z</time>
      </trkpt>
      <trkpt lat="47.64865" lon="6.21355">
        <ele>334.61</ele>
        <time>2020-09-30T09:16:31Z</time>
      </trkpt>
      <trkpt lat="47.64866" lon="6.21363">
        <ele>334.53</ele>
        <time>2020-09-30T09:16:36Z</time>
      </trkpt>
      <trkpt lat="47.64868" lon="6.21383">
        <ele>334.29</ele>
        <time>2020-09-30T09:16:39Z</time>
      </trkpt>
      <trkpt lat="47.64872" lon="6.21398">
        <ele>334.16</ele>
        <time>2020-09-30T09:16:42Z</time>
      </trkpt>
      <trkpt lat="47.64874" lon="6.21406">
        <ele>334.08</ele>
        <time>2020-09-30T09:16:44Z</time>
      </trkpt>
      <trkpt lat="47.64878" lon="6.21415">
        <ele>334</ele>
        <time>2020-09-30T09:16:47Z</time>
      </trkpt>
      <trkpt lat="47.64887" lon="6.21417">
        <ele>333.84</ele>
        <time>2020-09-30T09:16:52Z</time>
      </trkpt>
      <trkpt lat="47.64891" lon="6.21417">
        <ele>333.7</ele>
        <time>2020-09-30T09:16:55Z</time>
      </trkpt>
      <trkpt lat="47.64896" lon="6.21419">
        <ele>333.59</ele>
        <time>2020-09-30T09:16:55Z</time>
      </trkpt>
      <trkpt lat="47.64901" lon="6.21419">
        <ele>333.49</ele>
        <time>2020-09-30T09:17:00Z</time>
      </trkpt>
      <trkpt lat="47.64906" lon="6.21421">
        <ele>333.42</ele>
        <time>2020-09-30T09:17:03Z</time>
      </trkpt>
      <trkpt lat="47.64911" lon="6.21421">
        <ele>333.33</ele>
        <time>2020-09-30T09:17:05Z</time>
      </trkpt>
      <trkpt lat="47.64915" lon="6.2142">
        <ele>333.18</ele>
        <time>2020-09-30T09:17:08Z</time>
      </trkpt>
      <trkpt lat="47.64921" lon="6.2142">
        <ele>333.05</ele>
        <time>2020-09-30T09:17:11Z</time>
      </trkpt>
      <trkpt lat="47.64926" lon="6.21419">
        <ele>332.94</ele>
        <time>2020-09-30T09:17:13Z</time>
      </trkpt>
      <trkpt lat="47.64932" lon="6.21417">
        <ele>332.83</ele>
        <time>2020-09-30T09:17:15Z</time>
      </trkpt>
      <trkpt lat="47.6494" lon="6.21414">
        <ele>332.74</ele>
        <time>2020-09-30T09:17:17Z</time>
      </trkpt>
      <trkpt lat="47.64944" lon="6.21412">
        <ele>332.68</ele>
        <time>2020-09-30T09:17:17Z</time>
      </trkpt>
      <trkpt lat="47.6495" lon="6.21411">
        <ele>332.57</ele>
        <time>2020-09-30T09:17:19Z</time>
      </trkpt>
      <trkpt lat="47.64958" lon="6.21409">
        <ele>332.47</ele>
        <time>2020-09-30T09:17:22Z</time>
      </trkpt>
      <trkpt lat="47.64967" lon="6.21409">
        <ele>332.36</ele>
        <time>2020-09-30T09:17:23Z</time>
      </trkpt>
      <trkpt lat="47.64973" lon="6.21409">
        <ele>332.29</ele>
        <time>2020-09-30T09:17:25Z</time>
      </trkpt>
      <trkpt lat="47.64979" lon="6.21408">
        <ele>332.19</ele>
        <time>2020-09-30T09:17:27Z</time>
      </trkpt>
      <trkpt lat="47.64985" lon="6.21408">
        <ele>332.04</ele>
        <time>2020-09-30T09:17:29Z</time>
      </trkpt>
      <trkpt lat="47.64996" lon="6.2141">
        <ele>331.65</ele>
        <time>2020-09-30T09:17:35Z</time>
      </trkpt>
      <trkpt lat="47.65002" lon="6.21412">
        <ele>331.42</ele>
        <time>2020-09-30T09:17:38Z</time>
      </trkpt>
      <trkpt lat="47.65008" lon="6.21414">
        <ele>331.12</ele>
        <time>2020-09-30T09:17:42Z</time>
      </trkpt>
      <trkpt lat="47.65017" lon="6.21414">
        <ele>330.83</ele>
        <time>2020-09-30T09:17:42Z</time>
      </trkpt>
      <trkpt lat="47.65023" lon="6.21415">
        <ele>330.81</ele>
        <time>2020-09-30T09:17:46Z</time>
      </trkpt>
      <trkpt lat="47.65046" lon="6.21418">
        <ele>330.69</ele>
        <time>2020-09-30T09:17:47Z</time>
      </trkpt>
      <trkpt lat="47.65062" lon="6.21416">
        <ele>330.58</ele>
        <time>2020-09-30T09:17:49Z</time>
      </trkpt>
      <trkpt lat="47.65067" lon="6.21415">
        <ele>330.54</ele>
        <time>2020-09-30T09:17:50Z</time>
      </trkpt>
      <trkpt lat="47.65072" lon="6.21413">
        <ele>330.48</ele>
        <time>2020-09-30T09:17:51Z</time>
      </trkpt>
      <trkpt lat="47.65077" lon="6.21411">
        <ele>330.41</ele>
        <time>2020-09-30T09:17:53Z</time>
      </trkpt>
      <trkpt lat="47.65082" lon="6.21411">
        <ele>330.33</ele>
        <time>2020-09-30T09:17:56Z</time>
      </trkpt>
      <trkpt lat="47.65087" lon="6.21409">
        <ele>330.21</ele>
        <time>2020-09-30T09:17:58Z</time>
      </trkpt>
      <trkpt lat="47.65093" lon="6.21407">
        <ele>330.11</ele>
        <time>2020-09-30T09:17:58Z</time>
      </trkpt>
      <trkpt lat="47.65097" lon="6.21406">
        <ele>330.07</ele>
        <time>2020-09-30T09:18:02Z</time>
      </trkpt>
      <trkpt lat="47.65103" lon="6.21404">
        <ele>329.99</ele>
        <time>2020-09-30T09:18:04Z</time>
      </trkpt>
      <trkpt lat="47.65109" lon="6.21401">
        <ele>329.92</ele>
        <time>2020-09-30T09:18:06Z</time>
      </trkpt>
      <trkpt lat="47.65115" lon="6.21398">
        <ele>329.85</ele>
        <time>2020-09-30T09:18:08Z</time>
      </trkpt>
      <trkpt lat="47.6512" lon="6.21396">
        <ele>329.75</ele>
        <time>2020-09-30T09:18:08Z</time>
      </trkpt>
      <trkpt lat="47.65126" lon="6.21392">
        <ele>329.69</ele>
        <time>2020-09-30T09:18:13Z</time>
      </trkpt>
      <trkpt lat="47.65132" lon="6.21388">
        <ele>329.62</ele>
        <time>2020-09-30T09:18:16Z</time>
      </trkpt>
      <trkpt lat="47.65138" lon="6.21385">
        <ele>329.55</ele>
        <time>2020-09-30T09:18:19Z</time>
      </trkpt>
      <trkpt lat="47.65144" lon="6.21381">
        <ele>329.47</ele>
        <time>2020-09-30T09:18:19Z</time>
      </trkpt>
      <trkpt lat="47.65149" lon="6.21378">
        <ele>329.41</ele>
        <time>2020-09-30T09:18:25Z</time>
      </trkpt>
      <trkpt lat="47.65154" lon="6.21376">
        <ele>329.36</ele>
        <time>2020-09-30T09:18:28Z</time>
      </trkpt>
      <trkpt lat="47.65159" lon="6.21375">
        <ele>329.3</ele>
        <time>2020-09-30T09:18:32Z</time>
      </trkpt>
      <trkpt lat="47.65163" lon="6.21374">
        <ele>329.24</ele>
        <time>2020-09-30T09:18:37Z</time>
      </trkpt>
      <trkpt lat="47.65168" lon="6.21372">
        <ele>329.19</ele>
        <time>2020-09-30T09:18:41Z</time>
      </trkpt>
      <trkpt lat="47.65173" lon="6.2137">
        <ele>329.15</ele>
        <time>2020-09-30T09:18:44Z</time>
      </trkpt>
      <trkpt lat="47.65178" lon="6.21367">
        <ele>329.05</ele>
        <time>2020-09-30T09:18:49Z</time>
      </trkpt>
      <trkpt lat="47.65182" lon="6.21362">
        <ele>328.98</ele>
        <time>2020-09-30T09:18:49Z</time>
      </trkpt>
      <trkpt lat="47.65185" lon="6.21356">
        <ele>328.94</ele>
        <time>2020-09-30T09:18:54Z</time>
      </trkpt>
      <trkpt lat="47.6519" lon="6.21352">
        <ele>328.9</ele>
        <time>2020-09-30T09:18:57Z</time>
      </trkpt>
      <trkpt lat="47.65194" lon="6.21348">
        <ele>328.87</ele>
        <time>2020-09-30T09:18:59Z</time>
      </trkpt>
      <trkpt lat="47.65199" lon="6.21344">
        <ele>328.84</ele>
        <time>2020-09-30T09:19:01Z</time>
      </trkpt>
      <trkpt lat="47.65206" lon="6.21339">
        <ele>328.81</ele>
        <time>2020-09-30T09:19:03Z</time>
      </trkpt>
      <trkpt lat="47.65211" lon="6.21336">
        <ele>328.79</ele>
        <time>2020-09-30T09:19:04Z</time>
      </trkpt>
      <trkpt lat="47.65215" lon="6.21333">
        <ele>328.76</ele>
        <time>2020-09-30T09:19:06Z</time>
      </trkpt>
      <trkpt lat="47.65219" lon="6.21331">
        <ele>328.74</ele>
        <time>2020-09-30T09:19:09Z</time>
      </trkpt>
      <trkpt lat="47.65224" lon="6.21329">
        <ele>328.69</ele>
        <time>2020-09-30T09:19:10Z</time>
      </trkpt>
      <trkpt lat="47.65229" lon="6.21328">
        <ele>328.66</ele>
        <time>2020-09-30T09:19:13Z</time>
      </trkpt>
      <trkpt lat="47.65233" lon="6.21327">
        <ele>328.63</ele>
        <time>2020-09-30T09:19:16Z</time>
      </trkpt>
      <trkpt lat="47.65238" lon="6.21325">
        <ele>328.61</ele>
        <time>2020-09-30T09:19:22Z</time>
      </trkpt>
      <trkpt lat="47.65247" lon="6.21322">
        <ele>328.56</ele>
        <time>2020-09-30T09:19:26Z</time>
      </trkpt>
      <trkpt lat="47.65253" lon="6.21321">
        <ele>328.53</ele>
        <time>2020-09-30T09:19:29Z</time>
      </trkpt>
      <trkpt lat="47.6526" lon="6.21319">
        <ele>328.51</ele>
        <time>2020-09-30T09:19:31Z</time>
      </trkpt>
      <trkpt lat="47.65264" lon="6.21319">
        <ele>328.47</ele>
        <time>2020-09-30T09:19:33Z</time>
      </trkpt>
      <trkpt lat="47.6527" lon="6.21319">
        <ele>328.43</ele>
        <time>2020-09-30T09:19:36Z</time>
      </trkpt>
      <trkpt lat="47.65275" lon="6.21319">
        <ele>328.36</ele>
        <time>2020-09-30T09:19:40Z</time>
      </trkpt>
      <trkpt lat="47.65281" lon="6.21319">
        <ele>328.29</ele>
        <time>2020-09-30T09:19:41Z</time>
      </trkpt>
      <trkpt lat="47.65285" lon="6.21321">
        <ele>328.25</ele>
        <time>2020-09-30T09:19:46Z</time>
      </trkpt>
      <trkpt lat="47.65291" lon="6.21324">
        <ele>328.19</ele>
        <time>2020-09-30T09:19:50Z</time>
      </trkpt>
      <trkpt lat="47.65296" lon="6.21326">
        <ele>328.1</ele>
        <time>2020-09-30T09:19:53Z</time>
      </trkpt>
      <trkpt lat="47.653" lon="6.21328">
        <ele>328.03</ele>
        <time>2020-09-30T09:19:53Z</time>
      </trkpt>
      <trkpt lat="47.65306" lon="6.21331">
        <ele>327.95</ele>
        <time>2020-09-30T09:20:00Z</time>
      </trkpt>
      <trkpt lat="47.6531" lon="6.21334">
        <ele>327.87</ele>
        <time>2020-09-30T09:20:00Z</time>
      </trkpt>
      <trkpt lat="47.65315" lon="6.21336">
        <ele>327.82</ele>
        <time>2020-09-30T09:20:02Z</time>
      </trkpt>
      <trkpt lat="47.6532" lon="6.21339">
        <ele>327.75</ele>
        <time>2020-09-30T09:20:08Z</time>
      </trkpt>
      <trkpt lat="47.65325" lon="6.21341">
        <ele>327.7</ele>
        <time>2020-09-30T09:20:10Z</time>
      </trkpt>
      <trkpt lat="47.65329" lon="6.21345">
        <ele>327.63</ele>
        <time>2020-09-30T09:20:11Z</time>
      </trkpt>
      <trkpt lat="47.65332" lon="6.21349">
        <ele>327.53</ele>
        <time>2020-09-30T09:20:18Z</time>
      </trkpt>
      <trkpt lat="47.65336" lon="6.21357">
        <ele>327.4</ele>
        <time>2020-09-30T09:20:25Z</time>
      </trkpt>
      <trkpt lat="47.6534" lon="6.21362">
        <ele>327.29</ele>
        <time>2020-09-30T09:20:30Z</time>
      </trkpt>
      <trkpt lat="47.65345" lon="6.21365">
        <ele>327.23</ele>
        <time>2020-09-30T09:20:32Z</time>
      </trkpt>
      <trkpt lat="47.65349" lon="6.21367">
        <ele>327.17</ele>
        <time>2020-09-30T09:20:37Z</time>
      </trkpt>
      <trkpt lat="47.65354" lon="6.21369">
        <ele>327.11</ele>
        <time>2020-09-30T09:21:02Z</time>
      </trkpt>
      <trkpt lat="47.65358" lon="6.21372">
        <ele>327.04</ele>
        <time>2020-09-30T09:21:07Z</time>
      </trkpt>
      <trkpt lat="47.65362" lon="6.21377">
        <ele>326.97</ele>
        <time>2020-09-30T09:21:10Z</time>
      </trkpt>
      <trkpt lat="47.65366" lon="6.21381">
        <ele>326.94</ele>
        <time>2020-09-30T09:21:15Z</time>
      </trkpt>
      <trkpt lat="47.65371" lon="6.21387">
        <ele>326.9</ele>
        <time>2020-09-30T09:21:16Z</time>
      </trkpt>
      <trkpt lat="47.65374" lon="6.21393">
        <ele>326.88</ele>
        <time>2020-09-30T09:21:19Z</time>
      </trkpt>
      <trkpt lat="47.65378" lon="6.21398">
        <ele>326.83</ele>
        <time>2020-09-30T09:21:27Z</time>
      </trkpt>
      <trkpt lat="47.65381" lon="6.21405">
        <ele>326.76</ele>
        <time>2020-09-30T09:21:30Z</time>
      </trkpt>
      <trkpt lat="47.65383" lon="6.21411">
        <ele>326.71</ele>
        <time>2020-09-30T09:21:37Z</time>
      </trkpt>
      <trkpt lat="47.65386" lon="6.21419">
        <ele>326.66</ele>
        <time>2020-09-30T09:21:43Z</time>
      </trkpt>
      <trkpt lat="47.65389" lon="6.21425">
        <ele>326.63</ele>
        <time>2020-09-30T09:21:43Z</time>
      </trkpt>
      <trkpt lat="47.65391" lon="6.21432">
        <ele>326.56</ele>
        <time>2020-09-30T09:21:49Z</time>
      </trkpt>
      <trkpt lat="47.65394" lon="6.21436">
        <ele>326.51</ele>
        <time>2020-09-30T09:22:14Z</time>
      </trkpt>
      <trkpt lat="47.65397" lon="6.21442">
        <ele>326.47</ele>
        <time>2020-09-30T09:22:27Z</time>
      </trkpt>
      <trkpt lat="47.654" lon="6.21448">
        <ele>326.46</ele>
        <time>2020-09-30T09:22:31Z</time>
      </trkpt>
      <trkpt lat="47.65402" lon="6.21456">
        <ele>326.45</ele>
        <time>2020-09-30T09:22:34Z</time>
      </trkpt>
      <trkpt lat="47.65404" lon="6.21463">
        <ele>326.45</ele>
        <time>2020-09-30T09:22:37Z</time>
      </trkpt>
      <trkpt lat="47.65406" lon="6.21469">
        <ele>326.44</ele>
        <time>2020-09-30T09:22:40Z</time>
      </trkpt>
      <trkpt lat="47.6541" lon="6.21475">
        <ele>326.43</ele>
        <time>2020-09-30T09:22:43Z</time>
      </trkpt>
      <trkpt lat="47.65414" lon="6.2148">
        <ele>326.43</ele>
        <time>2020-09-30T09:22:43Z</time>
      </trkpt>
      <trkpt lat="47.65417" lon="6.21485">
        <ele>326.42</ele>
        <time>2020-09-30T09:22:47Z</time>
      </trkpt>
      <trkpt lat="47.65421" lon="6.21492">
        <ele>326.42</ele>
        <time>2020-09-30T09:22:48Z</time>
      </trkpt>
      <trkpt lat="47.65424" lon="6.21498">
        <ele>326.41</ele>
        <time>2020-09-30T09:22:54Z</time>
      </trkpt>
      <trkpt lat="47.65428" lon="6.21504">
        <ele>326.41</ele>
        <time>2020-09-30T09:22:56Z</time>
      </trkpt>
      <trkpt lat="47.65431" lon="6.2151">
        <ele>326.41</ele>
        <time>2020-09-30T09:22:58Z</time>
      </trkpt>
      <trkpt lat="47.65439" lon="6.21523">
        <ele>326.4</ele>
        <time>2020-09-30T09:23:02Z</time>
      </trkpt>
      <trkpt lat="47.65443" lon="6.21529">
        <ele>326.39</ele>
        <time>2020-09-30T09:23:06Z</time>
      </trkpt>
      <trkpt lat="47.65447" lon="6.21537">
        <ele>326.39</ele>
        <time>2020-09-30T09:23:09Z</time>
      </trkpt>
      <trkpt lat="47.65449" lon="6.21545">
        <ele>326.39</ele>
        <time>2020-09-30T09:23:11Z</time>
      </trkpt>
      <trkpt lat="47.6545" lon="6.21552">
        <ele>326.39</ele>
        <time>2020-09-30T09:23:14Z</time>
      </trkpt>
      <trkpt lat="47.65451" lon="6.21559">
        <ele>326.4</ele>
        <time>2020-09-30T09:23:17Z</time>
      </trkpt>
      <trkpt lat="47.65452" lon="6.21566">
        <ele>326.4</ele>
        <time>2020-09-30T09:23:22Z</time>
      </trkpt>
      <trkpt lat="47.65454" lon="6.21574">
        <ele>326.4</ele>
        <time>2020-09-30T09:23:24Z</time>
      </trkpt>
      <trkpt lat="47.65456" lon="6.21581">
        <ele>326.4</ele>
        <time>2020-09-30T09:23:26Z</time>
      </trkpt>
      <trkpt lat="47.65458" lon="6.21588">
        <ele>326.39</ele>
        <time>2020-09-30T09:23:31Z</time>
      </trkpt>
      <trkpt lat="47.6546" lon="6.21595">
        <ele>326.39</ele>
        <time>2020-09-30T09:23:34Z</time>
      </trkpt>
      <trkpt lat="47.65462" lon="6.21601">
        <ele>326.39</ele>
        <time>2020-09-30T09:23:36Z</time>
      </trkpt>
      <trkpt lat="47.65464" lon="6.21608">
        <ele>326.39</ele>
        <time>2020-09-30T09:23:39Z</time>
      </trkpt>
      <trkpt lat="47.65467" lon="6.21615">
        <ele>326.38</ele>
        <time>2020-09-30T09:23:42Z</time>
      </trkpt>
      <trkpt lat="47.65469" lon="6.21621">
        <ele>326.38</ele>
        <time>2020-09-30T09:23:45Z</time>
      </trkpt>
      <trkpt lat="47.65473" lon="6.21627">
        <ele>326.38</ele>
        <time>2020-09-30T09:23:46Z</time>
      </trkpt>
      <trkpt lat="47.65478" lon="6.21633">
        <ele>326.38</ele>
        <time>2020-09-30T09:23:49Z</time>
      </trkpt>
      <trkpt lat="47.65482" lon="6.21639">
        <ele>326.38</ele>
        <time>2020-09-30T09:23:51Z</time>
      </trkpt>
      <trkpt lat="47.65486" lon="6.21645">
        <ele>326.38</ele>
        <time>2020-09-30T09:23:54Z</time>
      </trkpt>
      <trkpt lat="47.6549" lon="6.2165">
        <ele>326.38</ele>
        <time>2020-09-30T09:23:56Z</time>
      </trkpt>
      <trkpt lat="47.65497" lon="6.21659">
        <ele>326.38</ele>
        <time>2020-09-30T09:23:58Z</time>
      </trkpt>
      <trkpt lat="47.65504" lon="6.21668">
        <ele>326.39</ele>
        <time>2020-09-30T09:24:00Z</time>
      </trkpt>
      <trkpt lat="47.65509" lon="6.21677">
        <ele>326.39</ele>
        <time>2020-09-30T09:24:02Z</time>
      </trkpt>
      <trkpt lat="47.65516" lon="6.21688">
        <ele>326.39</ele>
        <time>2020-09-30T09:24:03Z</time>
      </trkpt>
      <trkpt lat="47.65519" lon="6.21693">
        <ele>326.39</ele>
        <time>2020-09-30T09:24:04Z</time>
      </trkpt>
      <trkpt lat="47.65524" lon="6.21701">
        <ele>326.4</ele>
        <time>2020-09-30T09:24:07Z</time>
      </trkpt>
      <trkpt lat="47.65529" lon="6.21706">
        <ele>326.4</ele>
        <time>2020-09-30T09:24:09Z</time>
      </trkpt>
      <trkpt lat="47.65534" lon="6.2171">
        <ele>326.41</ele>
        <time>2020-09-30T09:24:12Z</time>
      </trkpt>
      <trkpt lat="47.6554" lon="6.21713">
        <ele>326.41</ele>
        <time>2020-09-30T09:24:16Z</time>
      </trkpt>
      <trkpt lat="47.65545" lon="6.21713">
        <ele>326.41</ele>
        <time>2020-09-30T09:24:18Z</time>
      </trkpt>
      <trkpt lat="47.65551" lon="6.21714">
        <ele>326.41</ele>
        <time>2020-09-30T09:24:21Z</time>
      </trkpt>
      <trkpt lat="47.65556" lon="6.21714">
        <ele>326.4</ele>
        <time>2020-09-30T09:24:23Z</time>
      </trkpt>
      <trkpt lat="47.65562" lon="6.21713">
        <ele>326.4</ele>
        <time>2020-09-30T09:24:25Z</time>
      </trkpt>
      <trkpt lat="47.65568" lon="6.21712">
        <ele>326.39</ele>
        <time>2020-09-30T09:24:26Z</time>
      </trkpt>
      <trkpt lat="47.65573" lon="6.2171">
        <ele>326.38</ele>
        <time>2020-09-30T09:24:30Z</time>
      </trkpt>
      <trkpt lat="47.65577" lon="6.21709">
        <ele>326.37</ele>
        <time>2020-09-30T09:24:33Z</time>
      </trkpt>
      <trkpt lat="47.65584" lon="6.21709">
        <ele>326.36</ele>
        <time>2020-09-30T09:24:35Z</time>
      </trkpt>
      <trkpt lat="47.65588" lon="6.21715">
        <ele>326.34</ele>
        <time>2020-09-30T09:24:38Z</time>
      </trkpt>
      <trkpt lat="47.65587" lon="6.21722">
        <ele>326.33</ele>
        <time>2020-09-30T09:24:43Z</time>
      </trkpt>
      <trkpt lat="47.65577" lon="6.21729">
        <ele>326.3</ele>
        <time>2020-09-30T09:24:47Z</time>
      </trkpt>
      <trkpt lat="47.65573" lon="6.21733">
        <ele>326.3</ele>
        <time>2020-09-30T09:24:50Z</time>
      </trkpt>
      <trkpt lat="47.65566" lon="6.21744">
        <ele>326.28</ele>
        <time>2020-09-30T09:24:53Z</time>
      </trkpt>
      <trkpt lat="47.65563" lon="6.2175">
        <ele>326.28</ele>
        <time>2020-09-30T09:24:57Z</time>
      </trkpt>
      <trkpt lat="47.65561" lon="6.21756">
        <ele>326.27</ele>
        <time>2020-09-30T09:25:00Z</time>
      </trkpt>
      <trkpt lat="47.6556" lon="6.21764">
        <ele>326.27</ele>
        <time>2020-09-30T09:25:02Z</time>
      </trkpt>
      <trkpt lat="47.65559" lon="6.21771">
        <ele>326.27</ele>
        <time>2020-09-30T09:25:06Z</time>
      </trkpt>
      <trkpt lat="47.65558" lon="6.2178">
        <ele>326.27</ele>
        <time>2020-09-30T09:25:09Z</time>
      </trkpt>
      <trkpt lat="47.65559" lon="6.21788">
        <ele>326.27</ele>
        <time>2020-09-30T09:25:14Z</time>
      </trkpt>
      <trkpt lat="47.6556" lon="6.21795">
        <ele>326.27</ele>
        <time>2020-09-30T09:25:16Z</time>
      </trkpt>
      <trkpt lat="47.65563" lon="6.21801">
        <ele>326.27</ele>
        <time>2020-09-30T09:25:19Z</time>
      </trkpt>
      <trkpt lat="47.65565" lon="6.21809">
        <ele>326.27</ele>
        <time>2020-09-30T09:25:23Z</time>
      </trkpt>
      <trkpt lat="47.65568" lon="6.21815">
        <ele>326.27</ele>
        <time>2020-09-30T09:25:28Z</time>
      </trkpt>
      <trkpt lat="47.65571" lon="6.21821">
        <ele>326.27</ele>
        <time>2020-09-30T09:25:30Z</time>
      </trkpt>
      <trkpt lat="47.65575" lon="6.21826">
        <ele>326.27</ele>
        <time>2020-09-30T09:25:32Z</time>
      </trkpt>
      <trkpt lat="47.65579" lon="6.21832">
        <ele>326.28</ele>
        <time>2020-09-30T09:25:33Z</time>
      </trkpt>
      <trkpt lat="47.65583" lon="6.2184">
        <ele>326.28</ele>
        <time>2020-09-30T09:25:36Z</time>
      </trkpt>
      <trkpt lat="47.65589" lon="6.21846">
        <ele>326.29</ele>
        <time>2020-09-30T09:25:40Z</time>
      </trkpt>
      <trkpt lat="47.65592" lon="6.21851">
        <ele>326.29</ele>
        <time>2020-09-30T09:25:43Z</time>
      </trkpt>
      <trkpt lat="47.65597" lon="6.21856">
        <ele>326.3</ele>
        <time>2020-09-30T09:25:46Z</time>
      </trkpt>
      <trkpt lat="47.656" lon="6.21861">
        <ele>326.31</ele>
        <time>2020-09-30T09:25:49Z</time>
      </trkpt>
      <trkpt lat="47.65605" lon="6.21867">
        <ele>326.33</ele>
        <time>2020-09-30T09:25:52Z</time>
      </trkpt>
      <trkpt lat="47.65609" lon="6.21871">
        <ele>326.34</ele>
        <time>2020-09-30T09:25:55Z</time>
      </trkpt>
      <trkpt lat="47.65613" lon="6.21877">
        <ele>326.36</ele>
        <time>2020-09-30T09:25:58Z</time>
      </trkpt>
      <trkpt lat="47.65618" lon="6.21882">
        <ele>326.37</ele>
        <time>2020-09-30T09:26:01Z</time>
      </trkpt>
      <trkpt lat="47.65621" lon="6.21888">
        <ele>326.39</ele>
        <time>2020-09-30T09:26:06Z</time>
      </trkpt>
      <trkpt lat="47.65625" lon="6.21895">
        <ele>326.41</ele>
        <time>2020-09-30T09:26:07Z</time>
      </trkpt>
      <trkpt lat="47.6563" lon="6.21899">
        <ele>326.43</ele>
        <time>2020-09-30T09:26:12Z</time>
      </trkpt>
      <trkpt lat="47.65634" lon="6.21904">
        <ele>326.45</ele>
        <time>2020-09-30T09:26:15Z</time>
      </trkpt>
      <trkpt lat="47.65638" lon="6.2191">
        <ele>326.48</ele>
        <time>2020-09-30T09:26:16Z</time>
      </trkpt>
      <trkpt lat="47.65643" lon="6.21916">
        <ele>326.5</ele>
        <time>2020-09-30T09:26:19Z</time>
      </trkpt>
      <trkpt lat="47.65646" lon="6.2192">
        <ele>326.52</ele>
        <time>2020-09-30T09:26:24Z</time>
      </trkpt>
      <trkpt lat="47.65651" lon="6.21926">
        <ele>326.55</ele>
        <time>2020-09-30T09:26:25Z</time>
      </trkpt>
      <trkpt lat="47.65655" lon="6.21931">
        <ele>326.58</ele>
        <time>2020-09-30T09:26:28Z</time>
      </trkpt>
      <trkpt lat="47.65657" lon="6.21938">
        <ele>326.61</ele>
        <time>2020-09-30T09:26:31Z</time>
      </trkpt>
      <trkpt lat="47.65658" lon="6.21945">
        <ele>326.63</ele>
        <time>2020-09-30T09:26:34Z</time>
      </trkpt>
      <trkpt lat="47.65659" lon="6.21951">
        <ele>326.66</ele>
        <time>2020-09-30T09:26:37Z</time>
      </trkpt>
      <trkpt lat="47.65659" lon="6.2196">
        <ele>326.7</ele>
        <time>2020-09-30T09:26:41Z</time>
      </trkpt>
      <trkpt lat="47.65659" lon="6.21967">
        <ele>326.72</ele>
        <time>2020-09-30T09:26:44Z</time>
      </trkpt>
      <trkpt lat="47.65658" lon="6.21976">
        <ele>326.76</ele>
        <time>2020-09-30T09:26:48Z</time>
      </trkpt>
      <trkpt lat="47.65657" lon="6.21984">
        <ele>326.79</ele>
        <time>2020-09-30T09:26:52Z</time>
      </trkpt>
      <trkpt lat="47.65653" lon="6.2199">
        <ele>326.84</ele>
        <time>2020-09-30T09:26:57Z</time>
      </trkpt>
      <trkpt lat="47.6565" lon="6.21996">
        <ele>326.87</ele>
        <time>2020-09-30T09:27:01Z</time>
      </trkpt>
      <trkpt lat="47.65646" lon="6.22">
        <ele>326.91</ele>
        <time>2020-09-30T09:27:04Z</time>
      </trkpt>
      <trkpt lat="47.65642" lon="6.22004">
        <ele>326.94</ele>
        <time>2020-09-30T09:27:07Z</time>
      </trkpt>
      <trkpt lat="47.65638" lon="6.22009">
        <ele>326.99</ele>
        <time>2020-09-30T09:27:11Z</time>
      </trkpt>
      <trkpt lat="47.65634" lon="6.22014">
        <ele>327.04</ele>
        <time>2020-09-30T09:27:15Z</time>
      </trkpt>
      <trkpt lat="47.65632" lon="6.22019">
        <ele>327.1</ele>
        <time>2020-09-30T09:27:19Z</time>
      </trkpt>
      <trkpt lat="47.65627" lon="6.22024">
        <ele>327.17</ele>
        <time>2020-09-30T09:27:24Z</time>
      </trkpt>
      <trkpt lat="47.65623" lon="6.2203">
        <ele>327.24</ele>
        <time>2020-09-30T09:27:29Z</time>
      </trkpt>
      <trkpt lat="47.65616" lon="6.22041">
        <ele>327.41</ele>
        <time>2020-09-30T09:27:40Z</time>
      </trkpt>
      <trkpt lat="47.65611" lon="6.22047">
        <ele>327.45</ele>
        <time>2020-09-30T09:27:42Z</time>
      </trkpt>
      <trkpt lat="47.65607" lon="6.22052">
        <ele>327.5</ele>
        <time>2020-09-30T09:27:45Z</time>
      </trkpt>
      <trkpt lat="47.65604" lon="6.22057">
        <ele>327.58</ele>
        <time>2020-09-30T09:27:49Z</time>
      </trkpt>
      <trkpt lat="47.656" lon="6.22063">
        <ele>327.65</ele>
        <time>2020-09-30T09:27:53Z</time>
      </trkpt>
      <trkpt lat="47.65596" lon="6.22068">
        <ele>327.71</ele>
        <time>2020-09-30T09:27:56Z</time>
      </trkpt>
      <trkpt lat="47.65593" lon="6.22076">
        <ele>327.93</ele>
        <time>2020-09-30T09:28:06Z</time>
      </trkpt>
      <trkpt lat="47.65589" lon="6.2208">
        <ele>328.07</ele>
        <time>2020-09-30T09:28:12Z</time>
      </trkpt>
      <trkpt lat="47.65583" lon="6.22087">
        <ele>328.16</ele>
        <time>2020-09-30T09:28:17Z</time>
      </trkpt>
      <trkpt lat="47.65581" lon="6.22094">
        <ele>328.26</ele>
        <time>2020-09-30T09:28:22Z</time>
      </trkpt>
      <trkpt lat="47.65576" lon="6.22103">
        <ele>328.3</ele>
        <time>2020-09-30T09:28:24Z</time>
      </trkpt>
      <trkpt lat="47.65572" lon="6.22107">
        <ele>328.38</ele>
        <time>2020-09-30T09:28:26Z</time>
      </trkpt>
      <trkpt lat="47.65567" lon="6.22107">
        <ele>328.48</ele>
        <time>2020-09-30T09:28:28Z</time>
      </trkpt>
      <trkpt lat="47.65563" lon="6.22111">
        <ele>328.57</ele>
        <time>2020-09-30T09:28:33Z</time>
      </trkpt>
      <trkpt lat="47.6556" lon="6.22117">
        <ele>328.66</ele>
        <time>2020-09-30T09:28:37Z</time>
      </trkpt>
      <trkpt lat="47.65556" lon="6.22123">
        <ele>328.79</ele>
        <time>2020-09-30T09:28:39Z</time>
      </trkpt>
      <trkpt lat="47.65552" lon="6.22127">
        <ele>328.9</ele>
        <time>2020-09-30T09:28:43Z</time>
      </trkpt>
      <trkpt lat="47.65548" lon="6.22134">
        <ele>329.01</ele>
        <time>2020-09-30T09:28:47Z</time>
      </trkpt>
      <trkpt lat="47.65544" lon="6.22139">
        <ele>329.1</ele>
        <time>2020-09-30T09:28:50Z</time>
      </trkpt>
      <trkpt lat="47.65541" lon="6.22144">
        <ele>329.18</ele>
        <time>2020-09-30T09:28:53Z</time>
      </trkpt>
      <trkpt lat="47.65537" lon="6.2215">
        <ele>329.25</ele>
        <time>2020-09-30T09:28:58Z</time>
      </trkpt>
      <trkpt lat="47.65533" lon="6.22155">
        <ele>329.36</ele>
        <time>2020-09-30T09:28:59Z</time>
      </trkpt>
      <trkpt lat="47.6553" lon="6.2216">
        <ele>329.45</ele>
        <time>2020-09-30T09:29:02Z</time>
      </trkpt>
      <trkpt lat="47.65529" lon="6.22167">
        <ele>329.98</ele>
        <time>2020-09-30T09:30:04Z</time>
      </trkpt>
      <trkpt lat="47.65526" lon="6.22174">
        <ele>330.28</ele>
        <time>2020-09-30T09:30:10Z</time>
      </trkpt>
      <trkpt lat="47.65523" lon="6.22179">
        <ele>330.42</ele>
        <time>2020-09-30T09:30:13Z</time>
      </trkpt>
      <trkpt lat="47.65515" lon="6.22195">
        <ele>330.56</ele>
        <time>2020-09-30T09:30:15Z</time>
      </trkpt>
      <trkpt lat="47.65511" lon="6.22204">
        <ele>330.67</ele>
        <time>2020-09-30T09:30:16Z</time>
      </trkpt>
      <trkpt lat="47.65507" lon="6.22211">
        <ele>330.74</ele>
        <time>2020-09-30T09:30:20Z</time>
      </trkpt>
      <trkpt lat="47.65502" lon="6.22227">
        <ele>330.9</ele>
        <time>2020-09-30T09:30:23Z</time>
      </trkpt>
      <trkpt lat="47.655" lon="6.22234">
        <ele>330.96</ele>
        <time>2020-09-30T09:30:25Z</time>
      </trkpt>
      <trkpt lat="47.65498" lon="6.22243">
        <ele>331.03</ele>
        <time>2020-09-30T09:30:26Z</time>
      </trkpt>
      <trkpt lat="47.65496" lon="6.2225">
        <ele>331.08</ele>
        <time>2020-09-30T09:30:28Z</time>
      </trkpt>
      <trkpt lat="47.65494" lon="6.2226">
        <ele>331.76</ele>
        <time>2020-09-30T09:30:30Z</time>
      </trkpt>
      <trkpt lat="47.65492" lon="6.2227">
        <ele>332.23</ele>
        <time>2020-09-30T09:30:31Z</time>
      </trkpt>
      <trkpt lat="47.65491" lon="6.22278">
        <ele>332.48</ele>
        <time>2020-09-30T09:30:33Z</time>
      </trkpt>
      <trkpt lat="47.65489" lon="6.22288">
        <ele>332.73</ele>
        <time>2020-09-30T09:30:34Z</time>
      </trkpt>
      <trkpt lat="47.65488" lon="6.22297">
        <ele>332.85</ele>
        <time>2020-09-30T09:30:36Z</time>
      </trkpt>
      <trkpt lat="47.65487" lon="6.2232">
        <ele>333.09</ele>
        <time>2020-09-30T09:30:40Z</time>
      </trkpt>
      <trkpt lat="47.65486" lon="6.22341">
        <ele>333.13</ele>
        <time>2020-09-30T09:30:43Z</time>
      </trkpt>
      <trkpt lat="47.65486" lon="6.22351">
        <ele>333.21</ele>
        <time>2020-09-30T09:30:46Z</time>
      </trkpt>
      <trkpt lat="47.65486" lon="6.22362">
        <ele>333.38</ele>
        <time>2020-09-30T09:30:48Z</time>
      </trkpt>
      <trkpt lat="47.65486" lon="6.22379">
        <ele>333.56</ele>
        <time>2020-09-30T09:30:50Z</time>
      </trkpt>
      <trkpt lat="47.65486" lon="6.22386">
        <ele>333.6</ele>
        <time>2020-09-30T09:30:52Z</time>
      </trkpt>
      <trkpt lat="47.65486" lon="6.22399">
        <ele>333.67</ele>
        <time>2020-09-30T09:30:54Z</time>
      </trkpt>
      <trkpt lat="47.65486" lon="6.22411">
        <ele>333.72</ele>
        <time>2020-09-30T09:30:56Z</time>
      </trkpt>
      <trkpt lat="47.65486" lon="6.22424">
        <ele>333.75</ele>
        <time>2020-09-30T09:30:57Z</time>
      </trkpt>
      <trkpt lat="47.65487" lon="6.22443">
        <ele>333.8</ele>
        <time>2020-09-30T09:31:01Z</time>
      </trkpt>
      <trkpt lat="47.65488" lon="6.22453">
        <ele>333.83</ele>
        <time>2020-09-30T09:31:02Z</time>
      </trkpt>
      <trkpt lat="47.65488" lon="6.22464">
        <ele>333.85</ele>
        <time>2020-09-30T09:31:04Z</time>
      </trkpt>
      <trkpt lat="47.65488" lon="6.22484">
        <ele>333.88</ele>
        <time>2020-09-30T09:31:07Z</time>
      </trkpt>
      <trkpt lat="47.65488" lon="6.22495">
        <ele>333.89</ele>
        <time>2020-09-30T09:31:09Z</time>
      </trkpt>
      <trkpt lat="47.65488" lon="6.22502">
        <ele>333.89</ele>
        <time>2020-09-30T09:31:10Z</time>
      </trkpt>
      <trkpt lat="47.65488" lon="6.22515">
        <ele>333.9</ele>
        <time>2020-09-30T09:31:12Z</time>
      </trkpt>
      <trkpt lat="47.65488" lon="6.2254">
        <ele>333.94</ele>
        <time>2020-09-30T09:31:13Z</time>
      </trkpt>
      <trkpt lat="47.65488" lon="6.22547">
        <ele>333.96</ele>
        <time>2020-09-30T09:31:14Z</time>
      </trkpt>
      <trkpt lat="47.65488" lon="6.22555">
        <ele>333.98</ele>
        <time>2020-09-30T09:31:15Z</time>
      </trkpt>
      <trkpt lat="47.65487" lon="6.22562">
        <ele>334.01</ele>
        <time>2020-09-30T09:31:16Z</time>
      </trkpt>
      <trkpt lat="47.65487" lon="6.22569">
        <ele>334.04</ele>
        <time>2020-09-30T09:31:17Z</time>
      </trkpt>
      <trkpt lat="47.65486" lon="6.22575">
        <ele>334.06</ele>
        <time>2020-09-30T09:31:18Z</time>
      </trkpt>
      <trkpt lat="47.65485" lon="6.22586">
        <ele>334.1</ele>
        <time>2020-09-30T09:31:22Z</time>
      </trkpt>
      <trkpt lat="47.65483" lon="6.22596">
        <ele>334.16</ele>
        <time>2020-09-30T09:31:24Z</time>
      </trkpt>
      <trkpt lat="47.65481" lon="6.22606">
        <ele>334.21</ele>
        <time>2020-09-30T09:31:26Z</time>
      </trkpt>
      <trkpt lat="47.6548" lon="6.22612">
        <ele>334.25</ele>
        <time>2020-09-30T09:31:27Z</time>
      </trkpt>
      <trkpt lat="47.65478" lon="6.22621">
        <ele>334.32</ele>
        <time>2020-09-30T09:31:28Z</time>
      </trkpt>
      <trkpt lat="47.65477" lon="6.2263">
        <ele>334.35</ele>
        <time>2020-09-30T09:31:30Z</time>
      </trkpt>
      <trkpt lat="47.65475" lon="6.22641">
        <ele>334.4</ele>
        <time>2020-09-30T09:31:32Z</time>
      </trkpt>
      <trkpt lat="47.65474" lon="6.22649">
        <ele>334.44</ele>
        <time>2020-09-30T09:31:33Z</time>
      </trkpt>
      <trkpt lat="47.65474" lon="6.22658">
        <ele>334.47</ele>
        <time>2020-09-30T09:31:34Z</time>
      </trkpt>
      <trkpt lat="47.65473" lon="6.22665">
        <ele>334.49</ele>
        <time>2020-09-30T09:31:35Z</time>
      </trkpt>
      <trkpt lat="47.65473" lon="6.22686">
        <ele>334.55</ele>
        <time>2020-09-30T09:31:36Z</time>
      </trkpt>
      <trkpt lat="47.65473" lon="6.22694">
        <ele>334.57</ele>
        <time>2020-09-30T09:31:37Z</time>
      </trkpt>
      <trkpt lat="47.65474" lon="6.22701">
        <ele>334.59</ele>
        <time>2020-09-30T09:31:38Z</time>
      </trkpt>
      <trkpt lat="47.65474" lon="6.22708">
        <ele>334.6</ele>
        <time>2020-09-30T09:31:39Z</time>
      </trkpt>
      <trkpt lat="47.65475" lon="6.22715">
        <ele>334.62</ele>
        <time>2020-09-30T09:31:40Z</time>
      </trkpt>
      <trkpt lat="47.65476" lon="6.22722">
        <ele>334.64</ele>
        <time>2020-09-30T09:31:41Z</time>
      </trkpt>
      <trkpt lat="47.65477" lon="6.22728">
        <ele>334.66</ele>
        <time>2020-09-30T09:31:42Z</time>
      </trkpt>
      <trkpt lat="47.65478" lon="6.22735">
        <ele>334.68</ele>
        <time>2020-09-30T09:31:43Z</time>
      </trkpt>
      <trkpt lat="47.65479" lon="6.22746">
        <ele>334.72</ele>
        <time>2020-09-30T09:31:48Z</time>
      </trkpt>
      <trkpt lat="47.65481" lon="6.22755">
        <ele>334.74</ele>
        <time>2020-09-30T09:31:49Z</time>
      </trkpt>
      <trkpt lat="47.65483" lon="6.22764">
        <ele>334.79</ele>
        <time>2020-09-30T09:31:50Z</time>
      </trkpt>
      <trkpt lat="47.65488" lon="6.22785">
        <ele>334.86</ele>
        <time>2020-09-30T09:31:51Z</time>
      </trkpt>
      <trkpt lat="47.65488" lon="6.22793">
        <ele>334.89</ele>
        <time>2020-09-30T09:31:52Z</time>
      </trkpt>
      <trkpt lat="47.65489" lon="6.228">
        <ele>334.91</ele>
        <time>2020-09-30T09:31:53Z</time>
      </trkpt>
      <trkpt lat="47.65489" lon="6.22808">
        <ele>334.93</ele>
        <time>2020-09-30T09:31:54Z</time>
      </trkpt>
      <trkpt lat="47.65488" lon="6.22815">
        <ele>334.94</ele>
        <time>2020-09-30T09:31:55Z</time>
      </trkpt>
      <trkpt lat="47.65488" lon="6.22822">
        <ele>334.96</ele>
        <time>2020-09-30T09:31:56Z</time>
      </trkpt>
      <trkpt lat="47.65488" lon="6.22829">
        <ele>334.97</ele>
        <time>2020-09-30T09:31:57Z</time>
      </trkpt>
      <trkpt lat="47.65488" lon="6.22836">
        <ele>334.99</ele>
        <time>2020-09-30T09:31:58Z</time>
      </trkpt>
      <trkpt lat="47.65487" lon="6.22843">
        <ele>335.01</ele>
        <time>2020-09-30T09:31:59Z</time>
      </trkpt>
      <trkpt lat="47.65487" lon="6.2285">
        <ele>335.03</ele>
        <time>2020-09-30T09:32:00Z</time>
      </trkpt>
      <trkpt lat="47.65487" lon="6.22858">
        <ele>335.05</ele>
        <time>2020-09-30T09:32:01Z</time>
      </trkpt>
      <trkpt lat="47.65487" lon="6.22865">
        <ele>335.08</ele>
        <time>2020-09-30T09:32:02Z</time>
      </trkpt>
      <trkpt lat="47.65487" lon="6.22873">
        <ele>335.1</ele>
        <time>2020-09-30T09:32:03Z</time>
      </trkpt>
      <trkpt lat="47.65487" lon="6.22881">
        <ele>335.13</ele>
        <time>2020-09-30T09:32:04Z</time>
      </trkpt>
      <trkpt lat="47.65488" lon="6.22888">
        <ele>335.16</ele>
        <time>2020-09-30T09:32:05Z</time>
      </trkpt>
      <trkpt lat="47.65488" lon="6.22896">
        <ele>335.18</ele>
        <time>2020-09-30T09:32:06Z</time>
      </trkpt>
      <trkpt lat="47.65488" lon="6.22904">
        <ele>335.21</ele>
        <time>2020-09-30T09:32:07Z</time>
      </trkpt>
      <trkpt lat="47.65489" lon="6.22912">
        <ele>335.24</ele>
        <time>2020-09-30T09:32:08Z</time>
      </trkpt>
      <trkpt lat="47.65491" lon="6.22919">
        <ele>335.27</ele>
        <time>2020-09-30T09:32:09Z</time>
      </trkpt>
      <trkpt lat="47.65492" lon="6.22927">
        <ele>335.3</ele>
        <time>2020-09-30T09:32:10Z</time>
      </trkpt>
      <trkpt lat="47.65493" lon="6.22934">
        <ele>335.33</ele>
        <time>2020-09-30T09:32:11Z</time>
      </trkpt>
      <trkpt lat="47.65495" lon="6.22941">
        <ele>335.35</ele>
        <time>2020-09-30T09:32:12Z</time>
      </trkpt>
      <trkpt lat="47.65496" lon="6.22949">
        <ele>335.38</ele>
        <time>2020-09-30T09:32:13Z</time>
      </trkpt>
      <trkpt lat="47.65498" lon="6.22956">
        <ele>335.4</ele>
        <time>2020-09-30T09:32:14Z</time>
      </trkpt>
      <trkpt lat="47.655" lon="6.22964">
        <ele>335.41</ele>
        <time>2020-09-30T09:32:15Z</time>
      </trkpt>
      <trkpt lat="47.65502" lon="6.22972">
        <ele>335.42</ele>
        <time>2020-09-30T09:32:16Z</time>
      </trkpt>
      <trkpt lat="47.65504" lon="6.2298">
        <ele>335.44</ele>
        <time>2020-09-30T09:32:17Z</time>
      </trkpt>
      <trkpt lat="47.65506" lon="6.22989">
        <ele>335.45</ele>
        <time>2020-09-30T09:32:18Z</time>
      </trkpt>
      <trkpt lat="47.65507" lon="6.22998">
        <ele>335.45</ele>
        <time>2020-09-30T09:32:19Z</time>
      </trkpt>
      <trkpt lat="47.65508" lon="6.23007">
        <ele>335.46</ele>
        <time>2020-09-30T09:32:20Z</time>
      </trkpt>
      <trkpt lat="47.65508" lon="6.23016">
        <ele>335.47</ele>
        <time>2020-09-30T09:32:21Z</time>
      </trkpt>
      <trkpt lat="47.65507" lon="6.23025">
        <ele>335.49</ele>
        <time>2020-09-30T09:32:22Z</time>
      </trkpt>
      <trkpt lat="47.65507" lon="6.23034">
        <ele>335.51</ele>
        <time>2020-09-30T09:32:23Z</time>
      </trkpt>
      <trkpt lat="47.65506" lon="6.23043">
        <ele>335.53</ele>
        <time>2020-09-30T09:32:24Z</time>
      </trkpt>
      <trkpt lat="47.65505" lon="6.23052">
        <ele>335.56</ele>
        <time>2020-09-30T09:32:25Z</time>
      </trkpt>
      <trkpt lat="47.65505" lon="6.23061">
        <ele>335.6</ele>
        <time>2020-09-30T09:32:26Z</time>
      </trkpt>
      <trkpt lat="47.65505" lon="6.2307">
        <ele>335.64</ele>
        <time>2020-09-30T09:32:27Z</time>
      </trkpt>
      <trkpt lat="47.65505" lon="6.23077">
        <ele>335.68</ele>
        <time>2020-09-30T09:32:28Z</time>
      </trkpt>
      <trkpt lat="47.65504" lon="6.23085">
        <ele>335.72</ele>
        <time>2020-09-30T09:32:29Z</time>
      </trkpt>
      <trkpt lat="47.65504" lon="6.23093">
        <ele>335.76</ele>
        <time>2020-09-30T09:32:30Z</time>
      </trkpt>
      <trkpt lat="47.65503" lon="6.23101">
        <ele>335.79</ele>
        <time>2020-09-30T09:32:31Z</time>
      </trkpt>
      <trkpt lat="47.65503" lon="6.2311">
        <ele>335.82</ele>
        <time>2020-09-30T09:32:32Z</time>
      </trkpt>
      <trkpt lat="47.65502" lon="6.23118">
        <ele>335.85</ele>
        <time>2020-09-30T09:32:33Z</time>
      </trkpt>
      <trkpt lat="47.65502" lon="6.23127">
        <ele>335.87</ele>
        <time>2020-09-30T09:32:34Z</time>
      </trkpt>
      <trkpt lat="47.65502" lon="6.23136">
        <ele>335.75</ele>
        <time>2020-09-30T09:32:35Z</time>
      </trkpt>
      <trkpt lat="47.65503" lon="6.23145">
        <ele>335.56</ele>
        <time>2020-09-30T09:32:36Z</time>
      </trkpt>
      <trkpt lat="47.65504" lon="6.23156">
        <ele>335.23</ele>
        <time>2020-09-30T09:32:37Z</time>
      </trkpt>
      <trkpt lat="47.65505" lon="6.23166">
        <ele>334.75</ele>
        <time>2020-09-30T09:32:38Z</time>
      </trkpt>
      <trkpt lat="47.65505" lon="6.23177">
        <ele>334.11</ele>
        <time>2020-09-30T09:32:39Z</time>
      </trkpt>
      <trkpt lat="47.65505" lon="6.23189">
        <ele>333.44</ele>
        <time>2020-09-30T09:32:40Z</time>
      </trkpt>
      <trkpt lat="47.65506" lon="6.23201">
        <ele>332.84</ele>
        <time>2020-09-30T09:32:41Z</time>
      </trkpt>
      <trkpt lat="47.65508" lon="6.23213">
        <ele>332.33</ele>
        <time>2020-09-30T09:32:42Z</time>
      </trkpt>
      <trkpt lat="47.6551" lon="6.23225">
        <ele>331.92</ele>
        <time>2020-09-30T09:32:43Z</time>
      </trkpt>
      <trkpt lat="47.65514" lon="6.23237">
        <ele>331.52</ele>
        <time>2020-09-30T09:32:44Z</time>
      </trkpt>
      <trkpt lat="47.65518" lon="6.23248">
        <ele>331.15</ele>
        <time>2020-09-30T09:32:45Z</time>
      </trkpt>
      <trkpt lat="47.65523" lon="6.23259">
        <ele>330.76</ele>
        <time>2020-09-30T09:32:46Z</time>
      </trkpt>
      <trkpt lat="47.6553" lon="6.23268">
        <ele>330.37</ele>
        <time>2020-09-30T09:32:47Z</time>
      </trkpt>
      <trkpt lat="47.65537" lon="6.23277">
        <ele>330.04</ele>
        <time>2020-09-30T09:32:48Z</time>
      </trkpt>
      <trkpt lat="47.65544" lon="6.23286">
        <ele>329.74</ele>
        <time>2020-09-30T09:32:49Z</time>
      </trkpt>
      <trkpt lat="47.65551" lon="6.23295">
        <ele>329.54</ele>
        <time>2020-09-30T09:32:50Z</time>
      </trkpt>
      <trkpt lat="47.65557" lon="6.23304">
        <ele>329.39</ele>
        <time>2020-09-30T09:32:51Z</time>
      </trkpt>
      <trkpt lat="47.65563" lon="6.23312">
        <ele>329.27</ele>
        <time>2020-09-30T09:32:52Z</time>
      </trkpt>
      <trkpt lat="47.6557" lon="6.2332">
        <ele>329.26</ele>
        <time>2020-09-30T09:32:53Z</time>
      </trkpt>
      <trkpt lat="47.65576" lon="6.23329">
        <ele>329.29</ele>
        <time>2020-09-30T09:32:54Z</time>
      </trkpt>
      <trkpt lat="47.65582" lon="6.23337">
        <ele>329.34</ele>
        <time>2020-09-30T09:32:55Z</time>
      </trkpt>
      <trkpt lat="47.65587" lon="6.23345">
        <ele>329.37</ele>
        <time>2020-09-30T09:32:56Z</time>
      </trkpt>
      <trkpt lat="47.65593" lon="6.23353">
        <ele>329.39</ele>
        <time>2020-09-30T09:32:57Z</time>
      </trkpt>
      <trkpt lat="47.65598" lon="6.23361">
        <ele>329.42</ele>
        <time>2020-09-30T09:32:58Z</time>
      </trkpt>
      <trkpt lat="47.65602" lon="6.23369">
        <ele>329.4</ele>
        <time>2020-09-30T09:32:59Z</time>
      </trkpt>
      <trkpt lat="47.65607" lon="6.23377">
        <ele>329.35</ele>
        <time>2020-09-30T09:33:00Z</time>
      </trkpt>
      <trkpt lat="47.65611" lon="6.23385">
        <ele>329.31</ele>
        <time>2020-09-30T09:33:01Z</time>
      </trkpt>
      <trkpt lat="47.65615" lon="6.23392">
        <ele>329.28</ele>
        <time>2020-09-30T09:33:02Z</time>
      </trkpt>
      <trkpt lat="47.65619" lon="6.23399">
        <ele>329.22</ele>
        <time>2020-09-30T09:33:03Z</time>
      </trkpt>
      <trkpt lat="47.65623" lon="6.23406">
        <ele>329.19</ele>
        <time>2020-09-30T09:33:04Z</time>
      </trkpt>
      <trkpt lat="47.65627" lon="6.23413">
        <ele>329.21</ele>
        <time>2020-09-30T09:33:05Z</time>
      </trkpt>
      <trkpt lat="47.6563" lon="6.23418">
        <ele>329.24</ele>
        <time>2020-09-30T09:33:06Z</time>
      </trkpt>
      <trkpt lat="47.65633" lon="6.23424">
        <ele>329.28</ele>
        <time>2020-09-30T09:33:07Z</time>
      </trkpt>
      <trkpt lat="47.65639" lon="6.23431">
        <ele>329.3</ele>
        <time>2020-09-30T09:33:09Z</time>
      </trkpt>
      <trkpt lat="47.65645" lon="6.23429">
        <ele>329.31</ele>
        <time>2020-09-30T09:33:11Z</time>
      </trkpt>
      <trkpt lat="47.65652" lon="6.23423">
        <ele>329.32</ele>
        <time>2020-09-30T09:33:13Z</time>
      </trkpt>
      <trkpt lat="47.65656" lon="6.23417">
        <ele>329.31</ele>
        <time>2020-09-30T09:33:15Z</time>
      </trkpt>
      <trkpt lat="47.6566" lon="6.23411">
        <ele>329.29</ele>
        <time>2020-09-30T09:33:20Z</time>
      </trkpt>
      <trkpt lat="47.65669" lon="6.23397">
        <ele>329.29</ele>
        <time>2020-09-30T09:33:22Z</time>
      </trkpt>
      <trkpt lat="47.65676" lon="6.23382">
        <ele>329.28</ele>
        <time>2020-09-30T09:33:25Z</time>
      </trkpt>
      <trkpt lat="47.65678" lon="6.23368">
        <ele>329.27</ele>
        <time>2020-09-30T09:33:28Z</time>
      </trkpt>
      <trkpt lat="47.65679" lon="6.23361">
        <ele>329.26</ele>
        <time>2020-09-30T09:33:29Z</time>
      </trkpt>
      <trkpt lat="47.6568" lon="6.23353">
        <ele>329.25</ele>
        <time>2020-09-30T09:33:31Z</time>
      </trkpt>
      <trkpt lat="47.65681" lon="6.23335">
        <ele>329.24</ele>
        <time>2020-09-30T09:33:36Z</time>
      </trkpt>
      <trkpt lat="47.6568" lon="6.23327">
        <ele>329.7</ele>
        <time>2020-09-30T09:37:53Z</time>
      </trkpt>
      <trkpt lat="47.65679" lon="6.2332">
        <ele>329.46</ele>
        <time>2020-09-30T09:41:41Z</time>
      </trkpt>
      <trkpt lat="47.65681" lon="6.23327">
        <ele>329.33</ele>
        <time>2020-09-30T09:42:38Z</time>
      </trkpt>
      <trkpt lat="47.65682" lon="6.2332">
        <ele>328.61</ele>
        <time>2020-09-30T09:44:21Z</time>
      </trkpt>
      <trkpt lat="47.6568" lon="6.23313">
        <ele>328.15</ele>
        <time>2020-09-30T09:44:42Z</time>
      </trkpt>
      <trkpt lat="47.65681" lon="6.23306">
        <ele>328.02</ele>
        <time>2020-09-30T09:44:46Z</time>
      </trkpt>
      <trkpt lat="47.65682" lon="6.23299">
        <ele>327.88</ele>
        <time>2020-09-30T09:44:51Z</time>
      </trkpt>
      <trkpt lat="47.65683" lon="6.23291">
        <ele>327.78</ele>
        <time>2020-09-30T09:45:08Z</time>
      </trkpt>
      <trkpt lat="47.65685" lon="6.23285">
        <ele>327.51</ele>
        <time>2020-09-30T09:45:15Z</time>
      </trkpt>
      <trkpt lat="47.65686" lon="6.23277">
        <ele>327.4</ele>
        <time>2020-09-30T09:45:29Z</time>
      </trkpt>
      <trkpt lat="47.65685" lon="6.23284">
        <ele>327.08</ele>
        <time>2020-09-30T09:46:40Z</time>
      </trkpt>
      <trkpt lat="47.65682" lon="6.23277">
        <ele>326.86</ele>
        <time>2020-09-30T09:46:57Z</time>
      </trkpt>
      <trkpt lat="47.65681" lon="6.23271">
        <ele>326.68</ele>
        <time>2020-09-30T09:47:17Z</time>
      </trkpt>
      <trkpt lat="47.65683" lon="6.23258">
        <ele>326.59</ele>
        <time>2020-09-30T09:47:17Z</time>
      </trkpt>
      <trkpt lat="47.65684" lon="6.2325">
        <ele>326.52</ele>
        <time>2020-09-30T09:47:20Z</time>
      </trkpt>
      <trkpt lat="47.65685" lon="6.23243">
        <ele>326.46</ele>
        <time>2020-09-30T09:47:23Z</time>
      </trkpt>
      <trkpt lat="47.65687" lon="6.23232">
        <ele>326.4</ele>
        <time>2020-09-30T09:47:26Z</time>
      </trkpt>
      <trkpt lat="47.65688" lon="6.23224">
        <ele>326.37</ele>
        <time>2020-09-30T09:47:31Z</time>
      </trkpt>
      <trkpt lat="47.65689" lon="6.23215">
        <ele>326.31</ele>
        <time>2020-09-30T09:47:34Z</time>
      </trkpt>
      <trkpt lat="47.65689" lon="6.23207">
        <ele>326.26</ele>
        <time>2020-09-30T09:47:36Z</time>
      </trkpt>
      <trkpt lat="47.65691" lon="6.232">
        <ele>326.22</ele>
        <time>2020-09-30T09:47:38Z</time>
      </trkpt>
      <trkpt lat="47.65693" lon="6.23193">
        <ele>326.17</ele>
        <time>2020-09-30T09:47:40Z</time>
      </trkpt>
      <trkpt lat="47.65695" lon="6.23186">
        <ele>326.03</ele>
        <time>2020-09-30T09:47:59Z</time>
      </trkpt>
      <trkpt lat="47.65698" lon="6.23169">
        <ele>325.92</ele>
        <time>2020-09-30T09:48:04Z</time>
      </trkpt>
      <trkpt lat="47.65699" lon="6.23161">
        <ele>325.78</ele>
        <time>2020-09-30T09:48:06Z</time>
      </trkpt>
      <trkpt lat="47.65699" lon="6.2315">
        <ele>325.63</ele>
        <time>2020-09-30T09:48:07Z</time>
      </trkpt>
      <trkpt lat="47.657" lon="6.23139">
        <ele>325.49</ele>
        <time>2020-09-30T09:48:08Z</time>
      </trkpt>
      <trkpt lat="47.657" lon="6.23129">
        <ele>325.28</ele>
        <time>2020-09-30T09:48:09Z</time>
      </trkpt>
      <trkpt lat="47.65701" lon="6.2312">
        <ele>325.2</ele>
        <time>2020-09-30T09:48:10Z</time>
      </trkpt>
      <trkpt lat="47.65703" lon="6.2311">
        <ele>325.09</ele>
        <time>2020-09-30T09:48:12Z</time>
      </trkpt>
      <trkpt lat="47.65706" lon="6.23091">
        <ele>324.97</ele>
        <time>2020-09-30T09:48:15Z</time>
      </trkpt>
      <trkpt lat="47.65707" lon="6.23084">
        <ele>324.95</ele>
        <time>2020-09-30T09:48:17Z</time>
      </trkpt>
      <trkpt lat="47.65708" lon="6.23075">
        <ele>324.91</ele>
        <time>2020-09-30T09:48:18Z</time>
      </trkpt>
      <trkpt lat="47.65709" lon="6.23066">
        <ele>324.89</ele>
        <time>2020-09-30T09:48:19Z</time>
      </trkpt>
      <trkpt lat="47.6571" lon="6.2306">
        <ele>324.88</ele>
        <time>2020-09-30T09:48:21Z</time>
      </trkpt>
      <trkpt lat="47.65711" lon="6.23053">
        <ele>324.86</ele>
        <time>2020-09-30T09:48:22Z</time>
      </trkpt>
      <trkpt lat="47.65713" lon="6.23037">
        <ele>324.8</ele>
        <time>2020-09-30T09:48:24Z</time>
      </trkpt>
      <trkpt lat="47.65714" lon="6.23029">
        <ele>324.78</ele>
        <time>2020-09-30T09:48:25Z</time>
      </trkpt>
      <trkpt lat="47.65716" lon="6.23015">
        <ele>324.73</ele>
        <time>2020-09-30T09:48:28Z</time>
      </trkpt>
      <trkpt lat="47.65717" lon="6.23008">
        <ele>324.69</ele>
        <time>2020-09-30T09:48:29Z</time>
      </trkpt>
      <trkpt lat="47.65717" lon="6.23001">
        <ele>324.66</ele>
        <time>2020-09-30T09:48:30Z</time>
      </trkpt>
      <trkpt lat="47.65718" lon="6.22989">
        <ele>324.65</ele>
        <time>2020-09-30T09:48:33Z</time>
      </trkpt>
      <trkpt lat="47.65717" lon="6.22974">
        <ele>324.63</ele>
        <time>2020-09-30T09:48:35Z</time>
      </trkpt>
      <trkpt lat="47.65717" lon="6.22962">
        <ele>324.58</ele>
        <time>2020-09-30T09:48:38Z</time>
      </trkpt>
      <trkpt lat="47.65715" lon="6.22951">
        <ele>324.47</ele>
        <time>2020-09-30T09:48:39Z</time>
      </trkpt>
      <trkpt lat="47.65714" lon="6.22945">
        <ele>324.42</ele>
        <time>2020-09-30T09:48:40Z</time>
      </trkpt>
      <trkpt lat="47.65714" lon="6.22938">
        <ele>324.38</ele>
        <time>2020-09-30T09:48:41Z</time>
      </trkpt>
      <trkpt lat="47.65711" lon="6.2292">
        <ele>324.26</ele>
        <time>2020-09-30T09:48:44Z</time>
      </trkpt>
      <trkpt lat="47.6571" lon="6.22911">
        <ele>324.22</ele>
        <time>2020-09-30T09:48:45Z</time>
      </trkpt>
      <trkpt lat="47.65709" lon="6.22899">
        <ele>324.17</ele>
        <time>2020-09-30T09:48:47Z</time>
      </trkpt>
      <trkpt lat="47.65708" lon="6.22891">
        <ele>324.13</ele>
        <time>2020-09-30T09:48:49Z</time>
      </trkpt>
      <trkpt lat="47.65706" lon="6.22884">
        <ele>324.11</ele>
        <time>2020-09-30T09:48:50Z</time>
      </trkpt>
      <trkpt lat="47.65698" lon="6.22859">
        <ele>324</ele>
        <time>2020-09-30T09:48:51Z</time>
      </trkpt>
      <trkpt lat="47.65694" lon="6.22851">
        <ele>323.96</ele>
        <time>2020-09-30T09:48:52Z</time>
      </trkpt>
      <trkpt lat="47.65692" lon="6.22843">
        <ele>323.93</ele>
        <time>2020-09-30T09:48:53Z</time>
      </trkpt>
      <trkpt lat="47.65689" lon="6.22834">
        <ele>323.89</ele>
        <time>2020-09-30T09:48:54Z</time>
      </trkpt>
      <trkpt lat="47.65686" lon="6.22826">
        <ele>323.85</ele>
        <time>2020-09-30T09:48:55Z</time>
      </trkpt>
      <trkpt lat="47.65684" lon="6.22818">
        <ele>323.81</ele>
        <time>2020-09-30T09:48:56Z</time>
      </trkpt>
      <trkpt lat="47.65681" lon="6.22811">
        <ele>323.78</ele>
        <time>2020-09-30T09:48:57Z</time>
      </trkpt>
      <trkpt lat="47.65679" lon="6.22804">
        <ele>323.74</ele>
        <time>2020-09-30T09:48:58Z</time>
      </trkpt>
      <trkpt lat="47.65677" lon="6.22798">
        <ele>323.7</ele>
        <time>2020-09-30T09:48:59Z</time>
      </trkpt>
      <trkpt lat="47.65675" lon="6.22792">
        <ele>323.67</ele>
        <time>2020-09-30T09:49:00Z</time>
      </trkpt>
      <trkpt lat="47.65673" lon="6.22785">
        <ele>323.64</ele>
        <time>2020-09-30T09:49:01Z</time>
      </trkpt>
      <trkpt lat="47.65672" lon="6.22777">
        <ele>323.61</ele>
        <time>2020-09-30T09:49:02Z</time>
      </trkpt>
      <trkpt lat="47.65671" lon="6.22769">
        <ele>323.58</ele>
        <time>2020-09-30T09:49:03Z</time>
      </trkpt>
      <trkpt lat="47.65671" lon="6.2276">
        <ele>323.55</ele>
        <time>2020-09-30T09:49:04Z</time>
      </trkpt>
      <trkpt lat="47.65671" lon="6.22751">
        <ele>323.51</ele>
        <time>2020-09-30T09:49:05Z</time>
      </trkpt>
      <trkpt lat="47.65673" lon="6.22741">
        <ele>323.48</ele>
        <time>2020-09-30T09:49:06Z</time>
      </trkpt>
      <trkpt lat="47.65676" lon="6.22732">
        <ele>323.44</ele>
        <time>2020-09-30T09:49:07Z</time>
      </trkpt>
      <trkpt lat="47.6568" lon="6.22722">
        <ele>323.39</ele>
        <time>2020-09-30T09:49:08Z</time>
      </trkpt>
      <trkpt lat="47.65684" lon="6.22713">
        <ele>323.35</ele>
        <time>2020-09-30T09:49:09Z</time>
      </trkpt>
      <trkpt lat="47.6569" lon="6.22704">
        <ele>323.33</ele>
        <time>2020-09-30T09:49:10Z</time>
      </trkpt>
      <trkpt lat="47.65697" lon="6.22697">
        <ele>323.29</ele>
        <time>2020-09-30T09:49:11Z</time>
      </trkpt>
      <trkpt lat="47.65704" lon="6.22692">
        <ele>323.26</ele>
        <time>2020-09-30T09:49:12Z</time>
      </trkpt>
      <trkpt lat="47.65711" lon="6.22688">
        <ele>323.22</ele>
        <time>2020-09-30T09:49:13Z</time>
      </trkpt>
      <trkpt lat="47.65719" lon="6.22686">
        <ele>323.18</ele>
        <time>2020-09-30T09:49:14Z</time>
      </trkpt>
      <trkpt lat="47.65725" lon="6.22684">
        <ele>323.14</ele>
        <time>2020-09-30T09:49:15Z</time>
      </trkpt>
      <trkpt lat="47.6573" lon="6.22683">
        <ele>323.09</ele>
        <time>2020-09-30T09:49:16Z</time>
      </trkpt>
      <trkpt lat="47.65737" lon="6.22682">
        <ele>323.06</ele>
        <time>2020-09-30T09:49:18Z</time>
      </trkpt>
      <trkpt lat="47.65742" lon="6.22681">
        <ele>323.02</ele>
        <time>2020-09-30T09:49:21Z</time>
      </trkpt>
      <trkpt lat="47.65748" lon="6.22679">
        <ele>322.79</ele>
        <time>2020-09-30T09:49:24Z</time>
      </trkpt>
      <trkpt lat="47.65753" lon="6.22676">
        <ele>322.57</ele>
        <time>2020-09-30T09:49:25Z</time>
      </trkpt>
      <trkpt lat="47.65757" lon="6.22671">
        <ele>322.51</ele>
        <time>2020-09-30T09:49:28Z</time>
      </trkpt>
      <trkpt lat="47.65783" lon="6.22638">
        <ele>320.79</ele>
        <time>2020-09-30T09:49:29Z</time>
      </trkpt>
      <trkpt lat="47.65789" lon="6.22627">
        <ele>320.01</ele>
        <time>2020-09-30T09:49:30Z</time>
      </trkpt>
      <trkpt lat="47.65795" lon="6.22617">
        <ele>319.17</ele>
        <time>2020-09-30T09:49:31Z</time>
      </trkpt>
      <trkpt lat="47.65801" lon="6.22606">
        <ele>318.35</ele>
        <time>2020-09-30T09:49:32Z</time>
      </trkpt>
      <trkpt lat="47.65806" lon="6.22595">
        <ele>317.69</ele>
        <time>2020-09-30T09:49:33Z</time>
      </trkpt>
      <trkpt lat="47.65809" lon="6.22582">
        <ele>317.31</ele>
        <time>2020-09-30T09:49:34Z</time>
      </trkpt>
      <trkpt lat="47.65812" lon="6.2257">
        <ele>316.99</ele>
        <time>2020-09-30T09:49:35Z</time>
      </trkpt>
      <trkpt lat="47.65813" lon="6.22557">
        <ele>316.69</ele>
        <time>2020-09-30T09:49:36Z</time>
      </trkpt>
      <trkpt lat="47.65813" lon="6.22544">
        <ele>316.39</ele>
        <time>2020-09-30T09:49:37Z</time>
      </trkpt>
      <trkpt lat="47.65813" lon="6.22532">
        <ele>316.1</ele>
        <time>2020-09-30T09:49:38Z</time>
      </trkpt>
      <trkpt lat="47.65812" lon="6.2252">
        <ele>315.82</ele>
        <time>2020-09-30T09:49:39Z</time>
      </trkpt>
      <trkpt lat="47.65812" lon="6.22509">
        <ele>315.5</ele>
        <time>2020-09-30T09:49:40Z</time>
      </trkpt>
      <trkpt lat="47.65811" lon="6.22499">
        <ele>315.25</ele>
        <time>2020-09-30T09:49:41Z</time>
      </trkpt>
      <trkpt lat="47.65811" lon="6.22489">
        <ele>315.08</ele>
        <time>2020-09-30T09:49:42Z</time>
      </trkpt>
      <trkpt lat="47.65811" lon="6.22481">
        <ele>314.96</ele>
        <time>2020-09-30T09:49:43Z</time>
      </trkpt>
      <trkpt lat="47.65811" lon="6.22473">
        <ele>314.76</ele>
        <time>2020-09-30T09:49:44Z</time>
      </trkpt>
      <trkpt lat="47.65811" lon="6.22466">
        <ele>314.58</ele>
        <time>2020-09-30T09:49:45Z</time>
      </trkpt>
      <trkpt lat="47.6581" lon="6.22459">
        <ele>314.43</ele>
        <time>2020-09-30T09:49:46Z</time>
      </trkpt>
      <trkpt lat="47.6581" lon="6.22449">
        <ele>314.37</ele>
        <time>2020-09-30T09:49:48Z</time>
      </trkpt>
      <trkpt lat="47.6581" lon="6.22438">
        <ele>314.38</ele>
        <time>2020-09-30T09:49:50Z</time>
      </trkpt>
      <trkpt lat="47.6581" lon="6.22429">
        <ele>313.88</ele>
        <time>2020-09-30T09:49:52Z</time>
      </trkpt>
      <trkpt lat="47.65813" lon="6.22409">
        <ele>312.88</ele>
        <time>2020-09-30T09:49:54Z</time>
      </trkpt>
      <trkpt lat="47.65814" lon="6.224">
        <ele>312.33</ele>
        <time>2020-09-30T09:49:55Z</time>
      </trkpt>
      <trkpt lat="47.65815" lon="6.22391">
        <ele>311.86</ele>
        <time>2020-09-30T09:49:56Z</time>
      </trkpt>
      <trkpt lat="47.65815" lon="6.22383">
        <ele>311.5</ele>
        <time>2020-09-30T09:49:57Z</time>
      </trkpt>
      <trkpt lat="47.65816" lon="6.22376">
        <ele>311.38</ele>
        <time>2020-09-30T09:49:58Z</time>
      </trkpt>
      <trkpt lat="47.65817" lon="6.22367">
        <ele>311.36</ele>
        <time>2020-09-30T09:50:00Z</time>
      </trkpt>
      <trkpt lat="47.65817" lon="6.22359">
        <ele>311.37</ele>
        <time>2020-09-30T09:50:03Z</time>
      </trkpt>
      <trkpt lat="47.65815" lon="6.22347">
        <ele>311.39</ele>
        <time>2020-09-30T09:50:06Z</time>
      </trkpt>
      <trkpt lat="47.65814" lon="6.22341">
        <ele>311.39</ele>
        <time>2020-09-30T09:50:08Z</time>
      </trkpt>
      <trkpt lat="47.65813" lon="6.2233">
        <ele>311.38</ele>
        <time>2020-09-30T09:50:11Z</time>
      </trkpt>
      <trkpt lat="47.65811" lon="6.22314">
        <ele>311.29</ele>
        <time>2020-09-30T09:50:15Z</time>
      </trkpt>
      <trkpt lat="47.65811" lon="6.22306">
        <ele>311.17</ele>
        <time>2020-09-30T09:50:17Z</time>
      </trkpt>
      <trkpt lat="47.6581" lon="6.22296">
        <ele>311.01</ele>
        <time>2020-09-30T09:50:20Z</time>
      </trkpt>
      <trkpt lat="47.6581" lon="6.22287">
        <ele>310.8</ele>
        <time>2020-09-30T09:50:22Z</time>
      </trkpt>
      <trkpt lat="47.6581" lon="6.22277">
        <ele>310.6</ele>
        <time>2020-09-30T09:50:24Z</time>
      </trkpt>
      <trkpt lat="47.6581" lon="6.22268">
        <ele>310.42</ele>
        <time>2020-09-30T09:50:25Z</time>
      </trkpt>
      <trkpt lat="47.65811" lon="6.22249">
        <ele>310.14</ele>
        <time>2020-09-30T09:50:29Z</time>
      </trkpt>
      <trkpt lat="47.65811" lon="6.22241">
        <ele>309.98</ele>
        <time>2020-09-30T09:50:30Z</time>
      </trkpt>
      <trkpt lat="47.65813" lon="6.22233">
        <ele>309.87</ele>
        <time>2020-09-30T09:50:32Z</time>
      </trkpt>
      <trkpt lat="47.65814" lon="6.22223">
        <ele>309.7</ele>
        <time>2020-09-30T09:50:34Z</time>
      </trkpt>
      <trkpt lat="47.65815" lon="6.22215">
        <ele>309.54</ele>
        <time>2020-09-30T09:50:36Z</time>
      </trkpt>
      <trkpt lat="47.65816" lon="6.22206">
        <ele>309.35</ele>
        <time>2020-09-30T09:50:38Z</time>
      </trkpt>
      <trkpt lat="47.65819" lon="6.22187">
        <ele>308.91</ele>
        <time>2020-09-30T09:50:41Z</time>
      </trkpt>
      <trkpt lat="47.65821" lon="6.22177">
        <ele>308.72</ele>
        <time>2020-09-30T09:50:43Z</time>
      </trkpt>
      <trkpt lat="47.65825" lon="6.22163">
        <ele>308.41</ele>
        <time>2020-09-30T09:50:46Z</time>
      </trkpt>
      <trkpt lat="47.65827" lon="6.22157">
        <ele>308.31</ele>
        <time>2020-09-30T09:50:48Z</time>
      </trkpt>
      <trkpt lat="47.65832" lon="6.22144">
        <ele>308.03</ele>
        <time>2020-09-30T09:50:50Z</time>
      </trkpt>
      <trkpt lat="47.65836" lon="6.22133">
        <ele>307.85</ele>
        <time>2020-09-30T09:50:52Z</time>
      </trkpt>
      <trkpt lat="47.6584" lon="6.22123">
        <ele>307.6</ele>
        <time>2020-09-30T09:50:53Z</time>
      </trkpt>
      <trkpt lat="47.65842" lon="6.22116">
        <ele>307.48</ele>
        <time>2020-09-30T09:50:56Z</time>
      </trkpt>
      <trkpt lat="47.65843" lon="6.22108">
        <ele>307.39</ele>
        <time>2020-09-30T09:50:58Z</time>
      </trkpt>
      <trkpt lat="47.65845" lon="6.22099">
        <ele>306.61</ele>
        <time>2020-09-30T09:51:00Z</time>
      </trkpt>
      <trkpt lat="47.65848" lon="6.22082">
        <ele>306.12</ele>
        <time>2020-09-30T09:51:02Z</time>
      </trkpt>
      <trkpt lat="47.65848" lon="6.22072">
        <ele>305.98</ele>
        <time>2020-09-30T09:51:04Z</time>
      </trkpt>
      <trkpt lat="47.65848" lon="6.22064">
        <ele>305.83</ele>
        <time>2020-09-30T09:51:07Z</time>
      </trkpt>
      <trkpt lat="47.65851" lon="6.22063">
        <ele>305.41</ele>
        <time>2020-09-30T09:51:33Z</time>
      </trkpt>
      <trkpt lat="47.65855" lon="6.22064">
        <ele>305.06</ele>
        <time>2020-09-30T09:51:48Z</time>
      </trkpt>
      <trkpt lat="47.65859" lon="6.22061">
        <ele>304.94</ele>
        <time>2020-09-30T09:51:52Z</time>
      </trkpt>
      <trkpt lat="47.65855" lon="6.22058">
        <ele>303.25</ele>
        <time>2020-09-30T09:53:34Z</time>
      </trkpt>
      <trkpt lat="47.65859" lon="6.22053">
        <ele>301.49</ele>
        <time>2020-09-30T09:54:23Z</time>
      </trkpt>
      <trkpt lat="47.65864" lon="6.22055">
        <ele>300.57</ele>
        <time>2020-09-30T09:55:25Z</time>
      </trkpt>
      <trkpt lat="47.65861" lon="6.22061">
        <ele>300.31</ele>
        <time>2020-09-30T09:55:48Z</time>
      </trkpt>
      <trkpt lat="47.65857" lon="6.22063">
        <ele>299.1</ele>
        <time>2020-09-30T09:57:00Z</time>
      </trkpt>
      <trkpt lat="47.65855" lon="6.22056">
        <ele>298.61</ele>
        <time>2020-09-30T09:57:12Z</time>
      </trkpt>
      <trkpt lat="47.65853" lon="6.22049">
        <ele>298.54</ele>
        <time>2020-09-30T09:57:14Z</time>
      </trkpt>
      <trkpt lat="47.65854" lon="6.22034">
        <ele>298.27</ele>
        <time>2020-09-30T09:57:16Z</time>
      </trkpt>
      <trkpt lat="47.65855" lon="6.22026">
        <ele>298.16</ele>
        <time>2020-09-30T09:57:18Z</time>
      </trkpt>
      <trkpt lat="47.65857" lon="6.22016">
        <ele>298.05</ele>
        <time>2020-09-30T09:57:23Z</time>
      </trkpt>
      <trkpt lat="47.65857" lon="6.22005">
        <ele>297.95</ele>
        <time>2020-09-30T09:57:24Z</time>
      </trkpt>
      <trkpt lat="47.65858" lon="6.21998">
        <ele>297.9</ele>
        <time>2020-09-30T09:57:25Z</time>
      </trkpt>
      <trkpt lat="47.65861" lon="6.21986">
        <ele>297.85</ele>
        <time>2020-09-30T09:57:27Z</time>
      </trkpt>
      <trkpt lat="47.65864" lon="6.21975">
        <ele>297.76</ele>
        <time>2020-09-30T09:57:28Z</time>
      </trkpt>
      <trkpt lat="47.65865" lon="6.21968">
        <ele>297.7</ele>
        <time>2020-09-30T09:57:30Z</time>
      </trkpt>
      <trkpt lat="47.65868" lon="6.21953">
        <ele>297.47</ele>
        <time>2020-09-30T09:57:35Z</time>
      </trkpt>
      <trkpt lat="47.6587" lon="6.21946">
        <ele>297.17</ele>
        <time>2020-09-30T09:57:54Z</time>
      </trkpt>
      <trkpt lat="47.65872" lon="6.21939">
        <ele>297.04</ele>
        <time>2020-09-30T09:57:56Z</time>
      </trkpt>
      <trkpt lat="47.65874" lon="6.21929">
        <ele>296.92</ele>
        <time>2020-09-30T09:58:00Z</time>
      </trkpt>
      <trkpt lat="47.65875" lon="6.2192">
        <ele>296.8</ele>
        <time>2020-09-30T09:58:03Z</time>
      </trkpt>
      <trkpt lat="47.65878" lon="6.2191">
        <ele>296.73</ele>
        <time>2020-09-30T09:58:04Z</time>
      </trkpt>
      <trkpt lat="47.65879" lon="6.21902">
        <ele>296.69</ele>
        <time>2020-09-30T09:58:06Z</time>
      </trkpt>
      <trkpt lat="47.65881" lon="6.21893">
        <ele>296.61</ele>
        <time>2020-09-30T09:58:07Z</time>
      </trkpt>
      <trkpt lat="47.65882" lon="6.21884">
        <ele>296.57</ele>
        <time>2020-09-30T09:58:09Z</time>
      </trkpt>
      <trkpt lat="47.65883" lon="6.21873">
        <ele>296.21</ele>
        <time>2020-09-30T09:58:11Z</time>
      </trkpt>
      <trkpt lat="47.65886" lon="6.21857">
        <ele>296.1</ele>
        <time>2020-09-30T09:58:14Z</time>
      </trkpt>
      <trkpt lat="47.65889" lon="6.21836">
        <ele>295.98</ele>
        <time>2020-09-30T09:58:16Z</time>
      </trkpt>
      <trkpt lat="47.65891" lon="6.21828">
        <ele>295.94</ele>
        <time>2020-09-30T09:58:18Z</time>
      </trkpt>
      <trkpt lat="47.65893" lon="6.2182">
        <ele>295.88</ele>
        <time>2020-09-30T09:58:22Z</time>
      </trkpt>
      <trkpt lat="47.65894" lon="6.21813">
        <ele>295.84</ele>
        <time>2020-09-30T09:58:25Z</time>
      </trkpt>
      <trkpt lat="47.65893" lon="6.21806">
        <ele>295.69</ele>
        <time>2020-09-30T09:58:36Z</time>
      </trkpt>
      <trkpt lat="47.65899" lon="6.21805">
        <ele>294.14</ele>
        <time>2020-09-30T10:04:22Z</time>
      </trkpt>
      <trkpt lat="47.65905" lon="6.21801">
        <ele>293.99</ele>
        <time>2020-09-30T10:04:23Z</time>
      </trkpt>
      <trkpt lat="47.6591" lon="6.21797">
        <ele>293.87</ele>
        <time>2020-09-30T10:04:26Z</time>
      </trkpt>
      <trkpt lat="47.65914" lon="6.21794">
        <ele>293.81</ele>
        <time>2020-09-30T10:04:28Z</time>
      </trkpt>
      <trkpt lat="47.65921" lon="6.21789">
        <ele>293.76</ele>
        <time>2020-09-30T10:04:33Z</time>
      </trkpt>
      <trkpt lat="47.65927" lon="6.21785">
        <ele>293.69</ele>
        <time>2020-09-30T10:04:34Z</time>
      </trkpt>
      <trkpt lat="47.65937" lon="6.21776">
        <ele>293.57</ele>
        <time>2020-09-30T10:04:39Z</time>
      </trkpt>
      <trkpt lat="47.65943" lon="6.21772">
        <ele>293.48</ele>
        <time>2020-09-30T10:04:41Z</time>
      </trkpt>
      <trkpt lat="47.65947" lon="6.21768">
        <ele>293.42</ele>
        <time>2020-09-30T10:04:43Z</time>
      </trkpt>
      <trkpt lat="47.65953" lon="6.21764">
        <ele>293.34</ele>
        <time>2020-09-30T10:04:46Z</time>
      </trkpt>
      <trkpt lat="47.65958" lon="6.21762">
        <ele>293.29</ele>
        <time>2020-09-30T10:04:48Z</time>
      </trkpt>
      <trkpt lat="47.65964" lon="6.21759">
        <ele>293.24</ele>
        <time>2020-09-30T10:04:50Z</time>
      </trkpt>
      <trkpt lat="47.6597" lon="6.21755">
        <ele>293.19</ele>
        <time>2020-09-30T10:04:52Z</time>
      </trkpt>
      <trkpt lat="47.65975" lon="6.21752">
        <ele>293.15</ele>
        <time>2020-09-30T10:04:54Z</time>
      </trkpt>
      <trkpt lat="47.65983" lon="6.21749">
        <ele>292.81</ele>
        <time>2020-09-30T10:04:57Z</time>
      </trkpt>
      <trkpt lat="47.65991" lon="6.21747">
        <ele>292.6</ele>
        <time>2020-09-30T10:04:59Z</time>
      </trkpt>
      <trkpt lat="47.65998" lon="6.21747">
        <ele>292.56</ele>
        <time>2020-09-30T10:05:00Z</time>
      </trkpt>
      <trkpt lat="47.66007" lon="6.21748">
        <ele>292.54</ele>
        <time>2020-09-30T10:05:02Z</time>
      </trkpt>
      <trkpt lat="47.66017" lon="6.21752">
        <ele>292.5</ele>
        <time>2020-09-30T10:05:06Z</time>
      </trkpt>
      <trkpt lat="47.66023" lon="6.21756">
        <ele>292.48</ele>
        <time>2020-09-30T10:05:08Z</time>
      </trkpt>
      <trkpt lat="47.66032" lon="6.21765">
        <ele>292.33</ele>
        <time>2020-09-30T10:05:10Z</time>
      </trkpt>
      <trkpt lat="47.66037" lon="6.21772">
        <ele>292.24</ele>
        <time>2020-09-30T10:05:12Z</time>
      </trkpt>
      <trkpt lat="47.6604" lon="6.21777">
        <ele>292.23</ele>
        <time>2020-09-30T10:05:14Z</time>
      </trkpt>
      <trkpt lat="47.66048" lon="6.21787">
        <ele>292.17</ele>
        <time>2020-09-30T10:05:16Z</time>
      </trkpt>
      <trkpt lat="47.66051" lon="6.21792">
        <ele>292.11</ele>
        <time>2020-09-30T10:05:18Z</time>
      </trkpt>
      <trkpt lat="47.66056" lon="6.218">
        <ele>292.03</ele>
        <time>2020-09-30T10:05:20Z</time>
      </trkpt>
      <trkpt lat="47.66062" lon="6.21809">
        <ele>291.95</ele>
        <time>2020-09-30T10:05:22Z</time>
      </trkpt>
      <trkpt lat="47.66067" lon="6.21817">
        <ele>291.89</ele>
        <time>2020-09-30T10:05:23Z</time>
      </trkpt>
      <trkpt lat="47.66071" lon="6.21822">
        <ele>291.86</ele>
        <time>2020-09-30T10:05:24Z</time>
      </trkpt>
      <trkpt lat="47.66076" lon="6.2183">
        <ele>291.82</ele>
        <time>2020-09-30T10:05:26Z</time>
      </trkpt>
      <trkpt lat="47.66096" lon="6.21859">
        <ele>291.66</ele>
        <time>2020-09-30T10:05:26Z</time>
      </trkpt>
      <trkpt lat="47.66102" lon="6.21867">
        <ele>291.6</ele>
        <time>2020-09-30T10:05:27Z</time>
      </trkpt>
      <trkpt lat="47.66108" lon="6.21875">
        <ele>291.54</ele>
        <time>2020-09-30T10:05:28Z</time>
      </trkpt>
      <trkpt lat="47.66114" lon="6.21883">
        <ele>291.47</ele>
        <time>2020-09-30T10:05:29Z</time>
      </trkpt>
      <trkpt lat="47.66121" lon="6.21892">
        <ele>291.34</ele>
        <time>2020-09-30T10:05:30Z</time>
      </trkpt>
      <trkpt lat="47.66127" lon="6.21901">
        <ele>291.15</ele>
        <time>2020-09-30T10:05:31Z</time>
      </trkpt>
      <trkpt lat="47.66134" lon="6.21911">
        <ele>290.97</ele>
        <time>2020-09-30T10:05:32Z</time>
      </trkpt>
      <trkpt lat="47.66141" lon="6.21921">
        <ele>290.8</ele>
        <time>2020-09-30T10:05:33Z</time>
      </trkpt>
      <trkpt lat="47.66148" lon="6.21931">
        <ele>290.64</ele>
        <time>2020-09-30T10:05:34Z</time>
      </trkpt>
      <trkpt lat="47.66156" lon="6.2194">
        <ele>290.5</ele>
        <time>2020-09-30T10:05:35Z</time>
      </trkpt>
      <trkpt lat="47.66162" lon="6.21948">
        <ele>290.38</ele>
        <time>2020-09-30T10:05:36Z</time>
      </trkpt>
      <trkpt lat="47.66169" lon="6.21955">
        <ele>290.28</ele>
        <time>2020-09-30T10:05:37Z</time>
      </trkpt>
      <trkpt lat="47.66177" lon="6.21959">
        <ele>290.2</ele>
        <time>2020-09-30T10:05:38Z</time>
      </trkpt>
      <trkpt lat="47.66184" lon="6.21961">
        <ele>290.14</ele>
        <time>2020-09-30T10:05:39Z</time>
      </trkpt>
      <trkpt lat="47.66192" lon="6.2196">
        <ele>290.07</ele>
        <time>2020-09-30T10:05:40Z</time>
      </trkpt>
      <trkpt lat="47.662" lon="6.21956">
        <ele>290</ele>
        <time>2020-09-30T10:05:41Z</time>
      </trkpt>
      <trkpt lat="47.66209" lon="6.2195">
        <ele>289.95</ele>
        <time>2020-09-30T10:05:42Z</time>
      </trkpt>
      <trkpt lat="47.66217" lon="6.21943">
        <ele>289.86</ele>
        <time>2020-09-30T10:05:43Z</time>
      </trkpt>
      <trkpt lat="47.66225" lon="6.21933">
        <ele>289.76</ele>
        <time>2020-09-30T10:05:44Z</time>
      </trkpt>
      <trkpt lat="47.66233" lon="6.21923">
        <ele>289.68</ele>
        <time>2020-09-30T10:05:45Z</time>
      </trkpt>
      <trkpt lat="47.66242" lon="6.21916">
        <ele>289.61</ele>
        <time>2020-09-30T10:05:46Z</time>
      </trkpt>
      <trkpt lat="47.6625" lon="6.21908">
        <ele>289.47</ele>
        <time>2020-09-30T10:05:47Z</time>
      </trkpt>
      <trkpt lat="47.66257" lon="6.21903">
        <ele>289.23</ele>
        <time>2020-09-30T10:05:48Z</time>
      </trkpt>
      <trkpt lat="47.66263" lon="6.219">
        <ele>288.95</ele>
        <time>2020-09-30T10:05:49Z</time>
      </trkpt>
      <trkpt lat="47.66269" lon="6.21896">
        <ele>287.73</ele>
        <time>2020-09-30T10:05:50Z</time>
      </trkpt>
      <trkpt lat="47.66273" lon="6.21892">
        <ele>286.16</ele>
        <time>2020-09-30T10:05:51Z</time>
      </trkpt>
      <trkpt lat="47.66276" lon="6.21887">
        <ele>284.55</ele>
        <time>2020-09-30T10:05:52Z</time>
      </trkpt>
      <trkpt lat="47.66277" lon="6.21879">
        <ele>282.99</ele>
        <time>2020-09-30T10:05:53Z</time>
      </trkpt>
      <trkpt lat="47.66277" lon="6.2187">
        <ele>281.51</ele>
        <time>2020-09-30T10:05:54Z</time>
      </trkpt>
      <trkpt lat="47.66278" lon="6.2186">
        <ele>280.16</ele>
        <time>2020-09-30T10:05:55Z</time>
      </trkpt>
      <trkpt lat="47.66279" lon="6.21852">
        <ele>278.96</ele>
        <time>2020-09-30T10:05:56Z</time>
      </trkpt>
      <trkpt lat="47.6628" lon="6.21845">
        <ele>278.53</ele>
        <time>2020-09-30T10:05:57Z</time>
      </trkpt>
      <trkpt lat="47.66285" lon="6.2184">
        <ele>278.2</ele>
        <time>2020-09-30T10:05:59Z</time>
      </trkpt>
      <trkpt lat="47.6629" lon="6.21833">
        <ele>277.4</ele>
        <time>2020-09-30T10:06:01Z</time>
      </trkpt>
      <trkpt lat="47.66295" lon="6.21822">
        <ele>276.37</ele>
        <time>2020-09-30T10:06:03Z</time>
      </trkpt>
      <trkpt lat="47.66299" lon="6.21812">
        <ele>246.29</ele>
        <time>2020-09-30T10:06:07Z</time>
      </trkpt>
      <trkpt lat="47.66304" lon="6.21799">
        <ele>234.7</ele>
        <time>2020-09-30T10:06:07Z</time>
      </trkpt>
      <trkpt lat="47.66307" lon="6.21789">
        <ele>233.65</ele>
        <time>2020-09-30T10:06:09Z</time>
      </trkpt>
      <trkpt lat="47.66311" lon="6.21773">
        <ele>233.56</ele>
        <time>2020-09-30T10:06:11Z</time>
      </trkpt>
      <trkpt lat="47.66313" lon="6.21766">
        <ele>233.55</ele>
        <time>2020-09-30T10:06:12Z</time>
      </trkpt>
      <trkpt lat="47.66315" lon="6.21758">
        <ele>233.55</ele>
        <time>2020-09-30T10:06:13Z</time>
      </trkpt>
      <trkpt lat="47.66316" lon="6.21751">
        <ele>233.55</ele>
        <time>2020-09-30T10:06:14Z</time>
      </trkpt>
      <trkpt lat="47.66317" lon="6.21743">
        <ele>233.55</ele>
        <time>2020-09-30T10:06:15Z</time>
      </trkpt>
      <trkpt lat="47.66318" lon="6.21735">
        <ele>233.55</ele>
        <time>2020-09-30T10:06:16Z</time>
      </trkpt>
      <trkpt lat="47.66319" lon="6.21727">
        <ele>233.55</ele>
        <time>2020-09-30T10:06:17Z</time>
      </trkpt>
      <trkpt lat="47.6632" lon="6.21719">
        <ele>233.55</ele>
        <time>2020-09-30T10:06:18Z</time>
      </trkpt>
      <trkpt lat="47.66321" lon="6.21711">
        <ele>233.55</ele>
        <time>2020-09-30T10:06:19Z</time>
      </trkpt>
      <trkpt lat="47.66322" lon="6.21703">
        <ele>233.55</ele>
        <time>2020-09-30T10:06:20Z</time>
      </trkpt>
      <trkpt lat="47.66322" lon="6.21695">
        <ele>233.55</ele>
        <time>2020-09-30T10:06:21Z</time>
      </trkpt>
      <trkpt lat="47.66323" lon="6.21687">
        <ele>233.55</ele>
        <time>2020-09-30T10:06:22Z</time>
      </trkpt>
      <trkpt lat="47.66323" lon="6.21679">
        <ele>233.55</ele>
        <time>2020-09-30T10:06:23Z</time>
      </trkpt>
      <trkpt lat="47.66323" lon="6.21672">
        <ele>233.55</ele>
        <time>2020-09-30T10:06:24Z</time>
      </trkpt>
      <trkpt lat="47.66323" lon="6.21664">
        <ele>233.55</ele>
        <time>2020-09-30T10:06:25Z</time>
      </trkpt>
      <trkpt lat="47.66323" lon="6.21656">
        <ele>233.55</ele>
        <time>2020-09-30T10:06:26Z</time>
      </trkpt>
      <trkpt lat="47.66322" lon="6.21649">
        <ele>233.55</ele>
        <time>2020-09-30T10:06:27Z</time>
      </trkpt>
      <trkpt lat="47.66321" lon="6.21641">
        <ele>233.55</ele>
        <time>2020-09-30T10:06:28Z</time>
      </trkpt>
      <trkpt lat="47.6632" lon="6.21634">
        <ele>233.55</ele>
        <time>2020-09-30T10:06:29Z</time>
      </trkpt>
      <trkpt lat="47.66319" lon="6.21626">
        <ele>233.55</ele>
        <time>2020-09-30T10:06:30Z</time>
      </trkpt>
      <trkpt lat="47.66317" lon="6.21617">
        <ele>233.55</ele>
        <time>2020-09-30T10:06:31Z</time>
      </trkpt>
      <trkpt lat="47.66316" lon="6.21607">
        <ele>233.55</ele>
        <time>2020-09-30T10:06:32Z</time>
      </trkpt>
      <trkpt lat="47.66315" lon="6.21598">
        <ele>233.55</ele>
        <time>2020-09-30T10:06:33Z</time>
      </trkpt>
      <trkpt lat="47.66314" lon="6.21588">
        <ele>233.55</ele>
        <time>2020-09-30T10:06:34Z</time>
      </trkpt>
      <trkpt lat="47.66312" lon="6.21579">
        <ele>233.55</ele>
        <time>2020-09-30T10:06:35Z</time>
      </trkpt>
      <trkpt lat="47.66311" lon="6.21569">
        <ele>233.55</ele>
        <time>2020-09-30T10:06:36Z</time>
      </trkpt>
      <trkpt lat="47.66309" lon="6.21558">
        <ele>233.55</ele>
        <time>2020-09-30T10:06:37Z</time>
      </trkpt>
      <trkpt lat="47.66307" lon="6.21548">
        <ele>233.55</ele>
        <time>2020-09-30T10:06:38Z</time>
      </trkpt>
      <trkpt lat="47.66305" lon="6.21538">
        <ele>233.55</ele>
        <time>2020-09-30T10:06:39Z</time>
      </trkpt>
      <trkpt lat="47.66303" lon="6.21527">
        <ele>233.55</ele>
        <time>2020-09-30T10:06:40Z</time>
      </trkpt>
      <trkpt lat="47.66302" lon="6.21516">
        <ele>233.55</ele>
        <time>2020-09-30T10:06:41Z</time>
      </trkpt>
      <trkpt lat="47.66301" lon="6.21505">
        <ele>233.55</ele>
        <time>2020-09-30T10:06:42Z</time>
      </trkpt>
      <trkpt lat="47.66301" lon="6.21493">
        <ele>233.55</ele>
        <time>2020-09-30T10:06:43Z</time>
      </trkpt>
      <trkpt lat="47.66301" lon="6.21482">
        <ele>233.55</ele>
        <time>2020-09-30T10:06:44Z</time>
      </trkpt>
      <trkpt lat="47.66303" lon="6.21471">
        <ele>233.55</ele>
        <time>2020-09-30T10:06:45Z</time>
      </trkpt>
      <trkpt lat="47.66304" lon="6.21459">
        <ele>233.55</ele>
        <time>2020-09-30T10:06:46Z</time>
      </trkpt>
      <trkpt lat="47.66305" lon="6.21448">
        <ele>233.55</ele>
        <time>2020-09-30T10:06:47Z</time>
      </trkpt>
      <trkpt lat="47.66307" lon="6.21437">
        <ele>233.55</ele>
        <time>2020-09-30T10:06:48Z</time>
      </trkpt>
      <trkpt lat="47.66307" lon="6.21427">
        <ele>233.55</ele>
        <time>2020-09-30T10:06:49Z</time>
      </trkpt>
      <trkpt lat="47.66307" lon="6.21417">
        <ele>233.55</ele>
        <time>2020-09-30T10:06:50Z</time>
      </trkpt>
      <trkpt lat="47.66308" lon="6.21408">
        <ele>233.55</ele>
        <time>2020-09-30T10:06:51Z</time>
      </trkpt>
      <trkpt lat="47.66309" lon="6.21399">
        <ele>233.55</ele>
        <time>2020-09-30T10:06:52Z</time>
      </trkpt>
      <trkpt lat="47.66311" lon="6.21391">
        <ele>233.55</ele>
        <time>2020-09-30T10:06:53Z</time>
      </trkpt>
      <trkpt lat="47.66313" lon="6.21384">
        <ele>233.55</ele>
        <time>2020-09-30T10:06:54Z</time>
      </trkpt>
      <trkpt lat="47.66317" lon="6.21374">
        <ele>233.55</ele>
        <time>2020-09-30T10:06:56Z</time>
      </trkpt>
      <trkpt lat="47.6632" lon="6.21367">
        <ele>233.55</ele>
        <time>2020-09-30T10:06:58Z</time>
      </trkpt>
      <trkpt lat="47.66324" lon="6.21358">
        <ele>233.55</ele>
        <time>2020-09-30T10:07:00Z</time>
      </trkpt>
      <trkpt lat="47.66328" lon="6.21345">
        <ele>233.55</ele>
        <time>2020-09-30T10:07:02Z</time>
      </trkpt>
      <trkpt lat="47.66329" lon="6.21337">
        <ele>233.55</ele>
        <time>2020-09-30T10:07:03Z</time>
      </trkpt>
      <trkpt lat="47.66331" lon="6.21329">
        <ele>233.55</ele>
        <time>2020-09-30T10:07:04Z</time>
      </trkpt>
      <trkpt lat="47.66332" lon="6.2132">
        <ele>253.3</ele>
        <time>2020-09-30T10:07:05Z</time>
      </trkpt>
      <trkpt lat="47.66334" lon="6.21312">
        <ele>258.82</ele>
        <time>2020-09-30T10:07:06Z</time>
      </trkpt>
      <trkpt lat="47.66336" lon="6.21304">
        <ele>260.11</ele>
        <time>2020-09-30T10:07:07Z</time>
      </trkpt>
      <trkpt lat="47.66338" lon="6.21296">
        <ele>260.18</ele>
        <time>2020-09-30T10:07:08Z</time>
      </trkpt>
      <trkpt lat="47.6634" lon="6.21289">
        <ele>259.96</ele>
        <time>2020-09-30T10:07:09Z</time>
      </trkpt>
      <trkpt lat="47.66342" lon="6.21281">
        <ele>259.7</ele>
        <time>2020-09-30T10:07:10Z</time>
      </trkpt>
      <trkpt lat="47.66344" lon="6.21273">
        <ele>259.48</ele>
        <time>2020-09-30T10:07:11Z</time>
      </trkpt>
      <trkpt lat="47.66347" lon="6.21266">
        <ele>259.28</ele>
        <time>2020-09-30T10:07:12Z</time>
      </trkpt>
      <trkpt lat="47.6635" lon="6.21258">
        <ele>259.12</ele>
        <time>2020-09-30T10:07:13Z</time>
      </trkpt>
      <trkpt lat="47.66353" lon="6.21251">
        <ele>258.93</ele>
        <time>2020-09-30T10:07:14Z</time>
      </trkpt>
      <trkpt lat="47.66357" lon="6.21244">
        <ele>258.71</ele>
        <time>2020-09-30T10:07:15Z</time>
      </trkpt>
      <trkpt lat="47.6636" lon="6.21238">
        <ele>258.54</ele>
        <time>2020-09-30T10:07:16Z</time>
      </trkpt>
      <trkpt lat="47.66363" lon="6.21231">
        <ele>258.42</ele>
        <time>2020-09-30T10:07:17Z</time>
      </trkpt>
      <trkpt lat="47.66367" lon="6.21225">
        <ele>258.33</ele>
        <time>2020-09-30T10:07:18Z</time>
      </trkpt>
      <trkpt lat="47.6637" lon="6.21219">
        <ele>258.18</ele>
        <time>2020-09-30T10:07:19Z</time>
      </trkpt>
      <trkpt lat="47.66373" lon="6.21213">
        <ele>258.01</ele>
        <time>2020-09-30T10:07:20Z</time>
      </trkpt>
      <trkpt lat="47.66376" lon="6.21207">
        <ele>257.84</ele>
        <time>2020-09-30T10:07:21Z</time>
      </trkpt>
      <trkpt lat="47.66379" lon="6.21201">
        <ele>257.64</ele>
        <time>2020-09-30T10:07:22Z</time>
      </trkpt>
      <trkpt lat="47.66382" lon="6.21196">
        <ele>257.34</ele>
        <time>2020-09-30T10:07:23Z</time>
      </trkpt>
      <trkpt lat="47.66387" lon="6.21187">
        <ele>256.83</ele>
        <time>2020-09-30T10:07:25Z</time>
      </trkpt>
      <trkpt lat="47.66391" lon="6.21178">
        <ele>256.66</ele>
        <time>2020-09-30T10:07:27Z</time>
      </trkpt>
      <trkpt lat="47.66395" lon="6.21168">
        <ele>256.51</ele>
        <time>2020-09-30T10:07:29Z</time>
      </trkpt>
      <trkpt lat="47.66399" lon="6.21164">
        <ele>239.85</ele>
        <time>2020-09-30T10:07:31Z</time>
      </trkpt>
      <trkpt lat="47.66401" lon="6.21157">
        <ele>233.39</ele>
        <time>2020-09-30T10:07:36Z</time>
      </trkpt>
      <trkpt lat="47.66404" lon="6.21148">
        <ele>232.81</ele>
        <time>2020-09-30T10:07:38Z</time>
      </trkpt>
      <trkpt lat="47.66405" lon="6.21134">
        <ele>232.75</ele>
        <time>2020-09-30T10:07:39Z</time>
      </trkpt>
      <trkpt lat="47.66404" lon="6.21127">
        <ele>232.75</ele>
        <time>2020-09-30T10:07:42Z</time>
      </trkpt>
      <trkpt lat="47.66404" lon="6.21118">
        <ele>232.75</ele>
        <time>2020-09-30T10:07:45Z</time>
      </trkpt>
      <trkpt lat="47.66404" lon="6.21111">
        <ele>232.75</ele>
        <time>2020-09-30T10:07:47Z</time>
      </trkpt>
      <trkpt lat="47.66403" lon="6.21103">
        <ele>232.75</ele>
        <time>2020-09-30T10:07:50Z</time>
      </trkpt>
      <trkpt lat="47.66403" lon="6.21095">
        <ele>232.75</ele>
        <time>2020-09-30T10:07:56Z</time>
      </trkpt>
      <trkpt lat="47.66403" lon="6.21087">
        <ele>232.75</ele>
        <time>2020-09-30T10:07:58Z</time>
      </trkpt>
      <trkpt lat="47.664" lon="6.2108">
        <ele>232.75</ele>
        <time>2020-09-30T10:08:02Z</time>
      </trkpt>
      <trkpt lat="47.66398" lon="6.21072">
        <ele>232.75</ele>
        <time>2020-09-30T10:08:02Z</time>
      </trkpt>
      <trkpt lat="47.66399" lon="6.21063">
        <ele>232.75</ele>
        <time>2020-09-30T10:08:09Z</time>
      </trkpt>
      <trkpt lat="47.66399" lon="6.21056">
        <ele>232.75</ele>
        <time>2020-09-30T10:08:09Z</time>
      </trkpt>
      <trkpt lat="47.664" lon="6.21049">
        <ele>232.75</ele>
        <time>2020-09-30T10:08:13Z</time>
      </trkpt>
      <trkpt lat="47.664" lon="6.21042">
        <ele>232.75</ele>
        <time>2020-09-30T10:08:17Z</time>
      </trkpt>
      <trkpt lat="47.66399" lon="6.21031">
        <ele>221.34</ele>
        <time>2020-09-30T10:08:21Z</time>
      </trkpt>
      <trkpt lat="47.66399" lon="6.21023">
        <ele>221.26</ele>
        <time>2020-09-30T10:08:26Z</time>
      </trkpt>
      <trkpt lat="47.66399" lon="6.21016">
        <ele>221.25</ele>
        <time>2020-09-30T10:08:28Z</time>
      </trkpt>
      <trkpt lat="47.664" lon="6.21008">
        <ele>221.25</ele>
        <time>2020-09-30T10:08:31Z</time>
      </trkpt>
      <trkpt lat="47.664" lon="6.21001">
        <ele>221.25</ele>
        <time>2020-09-30T10:08:32Z</time>
      </trkpt>
      <trkpt lat="47.66402" lon="6.20994">
        <ele>221.25</ele>
        <time>2020-09-30T10:08:35Z</time>
      </trkpt>
      <trkpt lat="47.66402" lon="6.20986">
        <ele>221.25</ele>
        <time>2020-09-30T10:08:42Z</time>
      </trkpt>
      <trkpt lat="47.66402" lon="6.20979">
        <ele>221.25</ele>
        <time>2020-09-30T10:08:48Z</time>
      </trkpt>
      <trkpt lat="47.66402" lon="6.20971">
        <ele>239.75</ele>
        <time>2020-09-30T10:08:54Z</time>
      </trkpt>
      <trkpt lat="47.66403" lon="6.20964">
        <ele>239.75</ele>
        <time>2020-09-30T10:08:57Z</time>
      </trkpt>
      <trkpt lat="47.66404" lon="6.20956">
        <ele>239.75</ele>
        <time>2020-09-30T10:08:58Z</time>
      </trkpt>
      <trkpt lat="47.66403" lon="6.20949">
        <ele>239.75</ele>
        <time>2020-09-30T10:09:03Z</time>
      </trkpt>
      <trkpt lat="47.66401" lon="6.20941">
        <ele>242.28</ele>
        <time>2020-09-30T10:09:08Z</time>
      </trkpt>
      <trkpt lat="47.66401" lon="6.20932">
        <ele>242.35</ele>
        <time>2020-09-30T10:09:11Z</time>
      </trkpt>
      <trkpt lat="47.66399" lon="6.20925">
        <ele>242.35</ele>
        <time>2020-09-30T10:09:16Z</time>
      </trkpt>
      <trkpt lat="47.66397" lon="6.20909">
        <ele>242.35</ele>
        <time>2020-09-30T10:09:17Z</time>
      </trkpt>
      <trkpt lat="47.66395" lon="6.20901">
        <ele>242.35</ele>
        <time>2020-09-30T10:09:19Z</time>
      </trkpt>
      <trkpt lat="47.66393" lon="6.20893">
        <ele>242.35</ele>
        <time>2020-09-30T10:09:25Z</time>
      </trkpt>
      <trkpt lat="47.6639" lon="6.20879">
        <ele>242.35</ele>
        <time>2020-09-30T10:09:26Z</time>
      </trkpt>
      <trkpt lat="47.66389" lon="6.20873">
        <ele>242.35</ele>
        <time>2020-09-30T10:09:28Z</time>
      </trkpt>
      <trkpt lat="47.66387" lon="6.20865">
        <ele>242.35</ele>
        <time>2020-09-30T10:09:30Z</time>
      </trkpt>
      <trkpt lat="47.66385" lon="6.20858">
        <ele>242.35</ele>
        <time>2020-09-30T10:09:34Z</time>
      </trkpt>
      <trkpt lat="47.66384" lon="6.20851">
        <ele>242.35</ele>
        <time>2020-09-30T10:09:34Z</time>
      </trkpt>
      <trkpt lat="47.66384" lon="6.20842">
        <ele>242.35</ele>
        <time>2020-09-30T10:09:39Z</time>
      </trkpt>
      <trkpt lat="47.66383" lon="6.20834">
        <ele>242.35</ele>
        <time>2020-09-30T10:09:42Z</time>
      </trkpt>
      <trkpt lat="47.66379" lon="6.20822">
        <ele>242.35</ele>
        <time>2020-09-30T10:09:46Z</time>
      </trkpt>
      <trkpt lat="47.66378" lon="6.20815">
        <ele>242.35</ele>
        <time>2020-09-30T10:09:50Z</time>
      </trkpt>
      <trkpt lat="47.66372" lon="6.20801">
        <ele>242.35</ele>
        <time>2020-09-30T10:09:52Z</time>
      </trkpt>
      <trkpt lat="47.66368" lon="6.20794">
        <ele>242.35</ele>
        <time>2020-09-30T10:09:55Z</time>
      </trkpt>
      <trkpt lat="47.66366" lon="6.20786">
        <ele>242.35</ele>
        <time>2020-09-30T10:10:01Z</time>
      </trkpt>
      <trkpt lat="47.66362" lon="6.20777">
        <ele>242.35</ele>
        <time>2020-09-30T10:10:04Z</time>
      </trkpt>
      <trkpt lat="47.6636" lon="6.20768">
        <ele>242.35</ele>
        <time>2020-09-30T10:10:06Z</time>
      </trkpt>
      <trkpt lat="47.66358" lon="6.2076">
        <ele>248.38</ele>
        <time>2020-09-30T10:10:09Z</time>
      </trkpt>
      <trkpt lat="47.66355" lon="6.20753">
        <ele>250.94</ele>
        <time>2020-09-30T10:10:12Z</time>
      </trkpt>
      <trkpt lat="47.66351" lon="6.20748">
        <ele>250.98</ele>
        <time>2020-09-30T10:10:12Z</time>
      </trkpt>
      <trkpt lat="47.66347" lon="6.20744">
        <ele>251.01</ele>
        <time>2020-09-30T10:10:15Z</time>
      </trkpt>
      <trkpt lat="47.66343" lon="6.20738">
        <ele>251.03</ele>
        <time>2020-09-30T10:10:18Z</time>
      </trkpt>
      <trkpt lat="47.66339" lon="6.20735">
        <ele>251.06</ele>
        <time>2020-09-30T10:10:21Z</time>
      </trkpt>
      <trkpt lat="47.66333" lon="6.20731">
        <ele>251.11</ele>
        <time>2020-09-30T10:10:25Z</time>
      </trkpt>
      <trkpt lat="47.66329" lon="6.20729">
        <ele>251.17</ele>
        <time>2020-09-30T10:10:28Z</time>
      </trkpt>
      <trkpt lat="47.66323" lon="6.20726">
        <ele>251.22</ele>
        <time>2020-09-30T10:10:34Z</time>
      </trkpt>
      <trkpt lat="47.66318" lon="6.20724">
        <ele>251.32</ele>
        <time>2020-09-30T10:10:37Z</time>
      </trkpt>
      <trkpt lat="47.66312" lon="6.20725">
        <ele>251.42</ele>
        <time>2020-09-30T10:10:40Z</time>
      </trkpt>
      <trkpt lat="47.66307" lon="6.20724">
        <ele>251.59</ele>
        <time>2020-09-30T10:10:40Z</time>
      </trkpt>
      <trkpt lat="47.66303" lon="6.20723">
        <ele>251.73</ele>
        <time>2020-09-30T10:10:43Z</time>
      </trkpt>
      <trkpt lat="47.66298" lon="6.20722">
        <ele>251.85</ele>
        <time>2020-09-30T10:10:49Z</time>
      </trkpt>
      <trkpt lat="47.66292" lon="6.20721">
        <ele>252.08</ele>
        <time>2020-09-30T10:10:53Z</time>
      </trkpt>
      <trkpt lat="47.66287" lon="6.2072">
        <ele>252.32</ele>
        <time>2020-09-30T10:10:53Z</time>
      </trkpt>
      <trkpt lat="47.66281" lon="6.2072">
        <ele>252.56</ele>
        <time>2020-09-30T10:10:57Z</time>
      </trkpt>
      <trkpt lat="47.66276" lon="6.20718">
        <ele>252.81</ele>
        <time>2020-09-30T10:11:01Z</time>
      </trkpt>
      <trkpt lat="47.66271" lon="6.20715">
        <ele>253.06</ele>
        <time>2020-09-30T10:11:08Z</time>
      </trkpt>
      <trkpt lat="47.66266" lon="6.20715">
        <ele>245.57</ele>
        <time>2020-09-30T10:11:10Z</time>
      </trkpt>
      <trkpt lat="47.66262" lon="6.20711">
        <ele>242.25</ele>
        <time>2020-09-30T10:11:16Z</time>
      </trkpt>
      <trkpt lat="47.66259" lon="6.20705">
        <ele>242.25</ele>
        <time>2020-09-30T10:11:22Z</time>
      </trkpt>
      <trkpt lat="47.66255" lon="6.20701">
        <ele>242.25</ele>
        <time>2020-09-30T10:11:29Z</time>
      </trkpt>
      <trkpt lat="47.66251" lon="6.20696">
        <ele>242.25</ele>
        <time>2020-09-30T10:11:30Z</time>
      </trkpt>
      <trkpt lat="47.66246" lon="6.20692">
        <ele>242.25</ele>
        <time>2020-09-30T10:11:36Z</time>
      </trkpt>
      <trkpt lat="47.66241" lon="6.20688">
        <ele>242.25</ele>
        <time>2020-09-30T10:11:40Z</time>
      </trkpt>
      <trkpt lat="47.66237" lon="6.20684">
        <ele>242.25</ele>
        <time>2020-09-30T10:11:43Z</time>
      </trkpt>
      <trkpt lat="47.66234" lon="6.20678">
        <ele>242.25</ele>
        <time>2020-09-30T10:11:43Z</time>
      </trkpt>
      <trkpt lat="47.66232" lon="6.20672">
        <ele>242.25</ele>
        <time>2020-09-30T10:11:50Z</time>
      </trkpt>
      <trkpt lat="47.66229" lon="6.20666">
        <ele>242.25</ele>
        <time>2020-09-30T10:11:55Z</time>
      </trkpt>
      <trkpt lat="47.66226" lon="6.20661">
        <ele>242.25</ele>
        <time>2020-09-30T10:12:00Z</time>
      </trkpt>
      <trkpt lat="47.66223" lon="6.20655">
        <ele>242.25</ele>
        <time>2020-09-30T10:12:04Z</time>
      </trkpt>
      <trkpt lat="47.66222" lon="6.20648">
        <ele>242.25</ele>
        <time>2020-09-30T10:12:09Z</time>
      </trkpt>
      <trkpt lat="47.66217" lon="6.20642">
        <ele>242.25</ele>
        <time>2020-09-30T10:12:14Z</time>
      </trkpt>
      <trkpt lat="47.66213" lon="6.2064">
        <ele>242.25</ele>
        <time>2020-09-30T10:12:16Z</time>
      </trkpt>
      <trkpt lat="47.6621" lon="6.20635">
        <ele>242.25</ele>
        <time>2020-09-30T10:12:23Z</time>
      </trkpt>
      <trkpt lat="47.66205" lon="6.20633">
        <ele>242.25</ele>
        <time>2020-09-30T10:12:30Z</time>
      </trkpt>
      <trkpt lat="47.662" lon="6.20632">
        <ele>242.25</ele>
        <time>2020-09-30T10:12:33Z</time>
      </trkpt>
      <trkpt lat="47.66196" lon="6.20628">
        <ele>242.25</ele>
        <time>2020-09-30T10:12:36Z</time>
      </trkpt>
      <trkpt lat="47.66192" lon="6.20622">
        <ele>242.25</ele>
        <time>2020-09-30T10:12:40Z</time>
      </trkpt>
      <trkpt lat="47.66188" lon="6.20618">
        <ele>242.25</ele>
        <time>2020-09-30T10:12:43Z</time>
      </trkpt>
      <trkpt lat="47.66182" lon="6.20615">
        <ele>247.5</ele>
        <time>2020-09-30T10:12:47Z</time>
      </trkpt>
      <trkpt lat="47.66178" lon="6.20611">
        <ele>249.73</ele>
        <time>2020-09-30T10:12:53Z</time>
      </trkpt>
      <trkpt lat="47.66174" lon="6.20607">
        <ele>249.75</ele>
        <time>2020-09-30T10:12:55Z</time>
      </trkpt>
      <trkpt lat="47.66169" lon="6.20604">
        <ele>249.75</ele>
        <time>2020-09-30T10:12:57Z</time>
      </trkpt>
      <trkpt lat="47.66164" lon="6.20602">
        <ele>249.75</ele>
        <time>2020-09-30T10:13:01Z</time>
      </trkpt>
      <trkpt lat="47.66157" lon="6.20599">
        <ele>249.75</ele>
        <time>2020-09-30T10:13:04Z</time>
      </trkpt>
      <trkpt lat="47.66153" lon="6.20596">
        <ele>249.75</ele>
        <time>2020-09-30T10:13:12Z</time>
      </trkpt>
      <trkpt lat="47.66147" lon="6.20595">
        <ele>249.75</ele>
        <time>2020-09-30T10:13:16Z</time>
      </trkpt>
      <trkpt lat="47.66142" lon="6.20593">
        <ele>249.75</ele>
        <time>2020-09-30T10:13:19Z</time>
      </trkpt>
      <trkpt lat="47.66138" lon="6.20594">
        <ele>249.75</ele>
        <time>2020-09-30T10:13:22Z</time>
      </trkpt>
      <trkpt lat="47.66133" lon="6.20592">
        <ele>261.32</ele>
        <time>2020-09-30T10:13:53Z</time>
      </trkpt>
      <trkpt lat="47.66128" lon="6.2059">
        <ele>261.59</ele>
        <time>2020-09-30T10:13:56Z</time>
      </trkpt>
      <trkpt lat="47.66124" lon="6.20588">
        <ele>262.3</ele>
        <time>2020-09-30T10:13:58Z</time>
      </trkpt>
      <trkpt lat="47.66118" lon="6.20584">
        <ele>263.17</ele>
        <time>2020-09-30T10:14:01Z</time>
      </trkpt>
      <trkpt lat="47.66111" lon="6.2058">
        <ele>263.88</ele>
        <time>2020-09-30T10:14:03Z</time>
      </trkpt>
      <trkpt lat="47.66081" lon="6.20561">
        <ele>264.69</ele>
        <time>2020-09-30T10:14:04Z</time>
      </trkpt>
      <trkpt lat="47.66075" lon="6.20558">
        <ele>264.82</ele>
        <time>2020-09-30T10:14:05Z</time>
      </trkpt>
      <trkpt lat="47.66069" lon="6.20555">
        <ele>264.94</ele>
        <time>2020-09-30T10:14:06Z</time>
      </trkpt>
      <trkpt lat="47.66063" lon="6.20551">
        <ele>265.03</ele>
        <time>2020-09-30T10:14:07Z</time>
      </trkpt>
      <trkpt lat="47.66057" lon="6.20547">
        <ele>265.11</ele>
        <time>2020-09-30T10:14:08Z</time>
      </trkpt>
      <trkpt lat="47.66052" lon="6.20544">
        <ele>265.18</ele>
        <time>2020-09-30T10:14:09Z</time>
      </trkpt>
      <trkpt lat="47.66047" lon="6.20541">
        <ele>265.23</ele>
        <time>2020-09-30T10:14:10Z</time>
      </trkpt>
      <trkpt lat="47.66042" lon="6.20538">
        <ele>265.29</ele>
        <time>2020-09-30T10:14:11Z</time>
      </trkpt>
      <trkpt lat="47.66036" lon="6.20534">
        <ele>265.34</ele>
        <time>2020-09-30T10:14:12Z</time>
      </trkpt>
      <trkpt lat="47.6603" lon="6.2053">
        <ele>265.4</ele>
        <time>2020-09-30T10:14:13Z</time>
      </trkpt>
      <trkpt lat="47.66024" lon="6.20527">
        <ele>265.46</ele>
        <time>2020-09-30T10:14:14Z</time>
      </trkpt>
      <trkpt lat="47.66019" lon="6.20524">
        <ele>265.51</ele>
        <time>2020-09-30T10:14:15Z</time>
      </trkpt>
      <trkpt lat="47.66014" lon="6.20521">
        <ele>265.57</ele>
        <time>2020-09-30T10:14:16Z</time>
      </trkpt>
      <trkpt lat="47.66008" lon="6.20518">
        <ele>265.63</ele>
        <time>2020-09-30T10:14:17Z</time>
      </trkpt>
      <trkpt lat="47.66003" lon="6.20516">
        <ele>265.7</ele>
        <time>2020-09-30T10:14:18Z</time>
      </trkpt>
      <trkpt lat="47.65998" lon="6.20514">
        <ele>265.77</ele>
        <time>2020-09-30T10:14:19Z</time>
      </trkpt>
      <trkpt lat="47.65994" lon="6.20512">
        <ele>265.85</ele>
        <time>2020-09-30T10:14:20Z</time>
      </trkpt>
      <trkpt lat="47.65985" lon="6.20507">
        <ele>266</ele>
        <time>2020-09-30T10:14:22Z</time>
      </trkpt>
      <trkpt lat="47.65977" lon="6.20502">
        <ele>266.16</ele>
        <time>2020-09-30T10:14:24Z</time>
      </trkpt>
      <trkpt lat="47.6597" lon="6.20497">
        <ele>266.33</ele>
        <time>2020-09-30T10:14:26Z</time>
      </trkpt>
      <trkpt lat="47.65964" lon="6.20491">
        <ele>266.53</ele>
        <time>2020-09-30T10:14:28Z</time>
      </trkpt>
      <trkpt lat="47.65957" lon="6.20485">
        <ele>266.67</ele>
        <time>2020-09-30T10:14:30Z</time>
      </trkpt>
      <trkpt lat="47.65952" lon="6.20482">
        <ele>266.69</ele>
        <time>2020-09-30T10:14:34Z</time>
      </trkpt>
      <trkpt lat="47.65946" lon="6.20479">
        <ele>266.73</ele>
        <time>2020-09-30T10:14:34Z</time>
      </trkpt>
      <trkpt lat="47.65939" lon="6.20475">
        <ele>266.77</ele>
        <time>2020-09-30T10:14:36Z</time>
      </trkpt>
      <trkpt lat="47.65933" lon="6.20471">
        <ele>266.8</ele>
        <time>2020-09-30T10:14:40Z</time>
      </trkpt>
      <trkpt lat="47.65927" lon="6.20467">
        <ele>266.84</ele>
        <time>2020-09-30T10:14:41Z</time>
      </trkpt>
      <trkpt lat="47.65919" lon="6.20461">
        <ele>267.24</ele>
        <time>2020-09-30T10:14:44Z</time>
      </trkpt>
      <trkpt lat="47.65913" lon="6.20456">
        <ele>267.59</ele>
        <time>2020-09-30T10:14:45Z</time>
      </trkpt>
      <trkpt lat="47.65909" lon="6.20451">
        <ele>267.67</ele>
        <time>2020-09-30T10:14:47Z</time>
      </trkpt>
      <trkpt lat="47.65905" lon="6.20446">
        <ele>267.71</ele>
        <time>2020-09-30T10:14:48Z</time>
      </trkpt>
      <trkpt lat="47.65899" lon="6.20439">
        <ele>267.75</ele>
        <time>2020-09-30T10:14:51Z</time>
      </trkpt>
      <trkpt lat="47.65894" lon="6.20434">
        <ele>267.82</ele>
        <time>2020-09-30T10:14:53Z</time>
      </trkpt>
      <trkpt lat="47.65889" lon="6.2043">
        <ele>267.89</ele>
        <time>2020-09-30T10:14:56Z</time>
      </trkpt>
      <trkpt lat="47.65879" lon="6.20421">
        <ele>268</ele>
        <time>2020-09-30T10:15:00Z</time>
      </trkpt>
      <trkpt lat="47.65873" lon="6.20417">
        <ele>268.42</ele>
        <time>2020-09-30T10:15:01Z</time>
      </trkpt>
      <trkpt lat="47.65868" lon="6.20412">
        <ele>268.6</ele>
        <time>2020-09-30T10:15:03Z</time>
      </trkpt>
      <trkpt lat="47.65863" lon="6.20408">
        <ele>268.84</ele>
        <time>2020-09-30T10:15:04Z</time>
      </trkpt>
      <trkpt lat="47.65848" lon="6.20394">
        <ele>269.02</ele>
        <time>2020-09-30T10:15:05Z</time>
      </trkpt>
      <trkpt lat="47.65843" lon="6.2039">
        <ele>269.05</ele>
        <time>2020-09-30T10:15:06Z</time>
      </trkpt>
      <trkpt lat="47.65839" lon="6.20385">
        <ele>269.1</ele>
        <time>2020-09-30T10:15:07Z</time>
      </trkpt>
      <trkpt lat="47.65834" lon="6.2038">
        <ele>269.14</ele>
        <time>2020-09-30T10:15:08Z</time>
      </trkpt>
      <trkpt lat="47.6583" lon="6.20375">
        <ele>269.18</ele>
        <time>2020-09-30T10:15:09Z</time>
      </trkpt>
      <trkpt lat="47.65826" lon="6.20371">
        <ele>269.21</ele>
        <time>2020-09-30T10:15:10Z</time>
      </trkpt>
      <trkpt lat="47.65822" lon="6.20367">
        <ele>269.23</ele>
        <time>2020-09-30T10:15:11Z</time>
      </trkpt>
      <trkpt lat="47.65818" lon="6.20362">
        <ele>269.26</ele>
        <time>2020-09-30T10:15:12Z</time>
      </trkpt>
      <trkpt lat="47.65814" lon="6.20358">
        <ele>269.31</ele>
        <time>2020-09-30T10:15:13Z</time>
      </trkpt>
      <trkpt lat="47.65809" lon="6.20359">
        <ele>269.37</ele>
        <time>2020-09-30T10:15:15Z</time>
      </trkpt>
      <trkpt lat="47.65804" lon="6.20349">
        <ele>269.4</ele>
        <time>2020-09-30T10:15:19Z</time>
      </trkpt>
      <trkpt lat="47.658" lon="6.20343">
        <ele>269.43</ele>
        <time>2020-09-30T10:15:21Z</time>
      </trkpt>
      <trkpt lat="47.65795" lon="6.20338">
        <ele>269.47</ele>
        <time>2020-09-30T10:15:23Z</time>
      </trkpt>
      <trkpt lat="47.65786" lon="6.20328">
        <ele>269.57</ele>
        <time>2020-09-30T10:15:28Z</time>
      </trkpt>
      <trkpt lat="47.65781" lon="6.20322">
        <ele>269.64</ele>
        <time>2020-09-30T10:15:31Z</time>
      </trkpt>
      <trkpt lat="47.65772" lon="6.20311">
        <ele>269.74</ele>
        <time>2020-09-30T10:15:35Z</time>
      </trkpt>
      <trkpt lat="47.65763" lon="6.20301">
        <ele>269.86</ele>
        <time>2020-09-30T10:15:36Z</time>
      </trkpt>
      <trkpt lat="47.65757" lon="6.20295">
        <ele>269.92</ele>
        <time>2020-09-30T10:15:40Z</time>
      </trkpt>
      <trkpt lat="47.65753" lon="6.20289">
        <ele>269.97</ele>
        <time>2020-09-30T10:15:43Z</time>
      </trkpt>
      <trkpt lat="47.65744" lon="6.2028">
        <ele>270.11</ele>
        <time>2020-09-30T10:15:45Z</time>
      </trkpt>
      <trkpt lat="47.6574" lon="6.20276">
        <ele>270.16</ele>
        <time>2020-09-30T10:15:49Z</time>
      </trkpt>
      <trkpt lat="47.65734" lon="6.2027">
        <ele>270.27</ele>
        <time>2020-09-30T10:15:51Z</time>
      </trkpt>
      <trkpt lat="47.65729" lon="6.20265">
        <ele>270.36</ele>
        <time>2020-09-30T10:15:54Z</time>
      </trkpt>
      <trkpt lat="47.65725" lon="6.20261">
        <ele>270.44</ele>
        <time>2020-09-30T10:15:56Z</time>
      </trkpt>
      <trkpt lat="47.65721" lon="6.20255">
        <ele>270.52</ele>
        <time>2020-09-30T10:15:57Z</time>
      </trkpt>
      <trkpt lat="47.65717" lon="6.20249">
        <ele>270.58</ele>
        <time>2020-09-30T10:15:59Z</time>
      </trkpt>
      <trkpt lat="47.65712" lon="6.20244">
        <ele>270.66</ele>
        <time>2020-09-30T10:16:01Z</time>
      </trkpt>
      <trkpt lat="47.65708" lon="6.20239">
        <ele>270.73</ele>
        <time>2020-09-30T10:16:04Z</time>
      </trkpt>
      <trkpt lat="47.65703" lon="6.20234">
        <ele>270.81</ele>
        <time>2020-09-30T10:16:06Z</time>
      </trkpt>
      <trkpt lat="47.6569" lon="6.20219">
        <ele>271.32</ele>
        <time>2020-09-30T10:16:10Z</time>
      </trkpt>
      <trkpt lat="47.65683" lon="6.20211">
        <ele>271.4</ele>
        <time>2020-09-30T10:16:12Z</time>
      </trkpt>
      <trkpt lat="47.65678" lon="6.20205">
        <ele>271.49</ele>
        <time>2020-09-30T10:16:13Z</time>
      </trkpt>
      <trkpt lat="47.65674" lon="6.20199">
        <ele>271.53</ele>
        <time>2020-09-30T10:16:15Z</time>
      </trkpt>
      <trkpt lat="47.6567" lon="6.20193">
        <ele>271.6</ele>
        <time>2020-09-30T10:16:16Z</time>
      </trkpt>
      <trkpt lat="47.65664" lon="6.20186">
        <ele>271.68</ele>
        <time>2020-09-30T10:16:19Z</time>
      </trkpt>
      <trkpt lat="47.6566" lon="6.20182">
        <ele>271.77</ele>
        <time>2020-09-30T10:16:20Z</time>
      </trkpt>
      <trkpt lat="47.65655" lon="6.20176">
        <ele>271.88</ele>
        <time>2020-09-30T10:16:21Z</time>
      </trkpt>
      <trkpt lat="47.65649" lon="6.2017">
        <ele>272</ele>
        <time>2020-09-30T10:16:24Z</time>
      </trkpt>
      <trkpt lat="47.65645" lon="6.20165">
        <ele>272.06</ele>
        <time>2020-09-30T10:16:28Z</time>
      </trkpt>
      <trkpt lat="47.65641" lon="6.2016">
        <ele>272.21</ele>
        <time>2020-09-30T10:16:29Z</time>
      </trkpt>
      <trkpt lat="47.65637" lon="6.20157">
        <ele>272.36</ele>
        <time>2020-09-30T10:16:34Z</time>
      </trkpt>
      <trkpt lat="47.65632" lon="6.20154">
        <ele>272.53</ele>
        <time>2020-09-30T10:16:36Z</time>
      </trkpt>
      <trkpt lat="47.65628" lon="6.2015">
        <ele>272.63</ele>
        <time>2020-09-30T10:16:41Z</time>
      </trkpt>
      <trkpt lat="47.65624" lon="6.20145">
        <ele>272.73</ele>
        <time>2020-09-30T10:16:43Z</time>
      </trkpt>
      <trkpt lat="47.6562" lon="6.2014">
        <ele>272.81</ele>
        <time>2020-09-30T10:16:46Z</time>
      </trkpt>
      <trkpt lat="47.65616" lon="6.20134">
        <ele>272.89</ele>
        <time>2020-09-30T10:16:48Z</time>
      </trkpt>
      <trkpt lat="47.65612" lon="6.20129">
        <ele>272.97</ele>
        <time>2020-09-30T10:16:50Z</time>
      </trkpt>
      <trkpt lat="47.65607" lon="6.20125">
        <ele>273.09</ele>
        <time>2020-09-30T10:16:53Z</time>
      </trkpt>
      <trkpt lat="47.65601" lon="6.2012">
        <ele>273.21</ele>
        <time>2020-09-30T10:16:55Z</time>
      </trkpt>
      <trkpt lat="47.65597" lon="6.20116">
        <ele>273.3</ele>
        <time>2020-09-30T10:16:58Z</time>
      </trkpt>
      <trkpt lat="47.65592" lon="6.20111">
        <ele>273.4</ele>
        <time>2020-09-30T10:17:00Z</time>
      </trkpt>
      <trkpt lat="47.65588" lon="6.20107">
        <ele>273.52</ele>
        <time>2020-09-30T10:17:03Z</time>
      </trkpt>
      <trkpt lat="47.65583" lon="6.20103">
        <ele>273.67</ele>
        <time>2020-09-30T10:17:05Z</time>
      </trkpt>
      <trkpt lat="47.65577" lon="6.20097">
        <ele>273.76</ele>
        <time>2020-09-30T10:17:10Z</time>
      </trkpt>
      <trkpt lat="47.65572" lon="6.20092">
        <ele>274.19</ele>
        <time>2020-09-30T10:17:12Z</time>
      </trkpt>
      <trkpt lat="47.65567" lon="6.20087">
        <ele>274.28</ele>
        <time>2020-09-30T10:17:13Z</time>
      </trkpt>
      <trkpt lat="47.65563" lon="6.20083">
        <ele>274.32</ele>
        <time>2020-09-30T10:17:15Z</time>
      </trkpt>
      <trkpt lat="47.65558" lon="6.20076">
        <ele>274.39</ele>
        <time>2020-09-30T10:17:17Z</time>
      </trkpt>
      <trkpt lat="47.65554" lon="6.20071">
        <ele>274.45</ele>
        <time>2020-09-30T10:17:18Z</time>
      </trkpt>
      <trkpt lat="47.65549" lon="6.20066">
        <ele>274.51</ele>
        <time>2020-09-30T10:17:20Z</time>
      </trkpt>
      <trkpt lat="47.65543" lon="6.2006">
        <ele>274.57</ele>
        <time>2020-09-30T10:17:22Z</time>
      </trkpt>
      <trkpt lat="47.65538" lon="6.20054">
        <ele>274.62</ele>
        <time>2020-09-30T10:17:25Z</time>
      </trkpt>
      <trkpt lat="47.65534" lon="6.20049">
        <ele>274.67</ele>
        <time>2020-09-30T10:17:26Z</time>
      </trkpt>
      <trkpt lat="47.65528" lon="6.20043">
        <ele>274.72</ele>
        <time>2020-09-30T10:17:29Z</time>
      </trkpt>
      <trkpt lat="47.6552" lon="6.2003">
        <ele>274.8</ele>
        <time>2020-09-30T10:17:32Z</time>
      </trkpt>
      <trkpt lat="47.65516" lon="6.20024">
        <ele>274.84</ele>
        <time>2020-09-30T10:17:35Z</time>
      </trkpt>
      <trkpt lat="47.65512" lon="6.20017">
        <ele>274.89</ele>
        <time>2020-09-30T10:17:38Z</time>
      </trkpt>
      <trkpt lat="47.65508" lon="6.20013">
        <ele>274.94</ele>
        <time>2020-09-30T10:17:40Z</time>
      </trkpt>
      <trkpt lat="47.65503" lon="6.20008">
        <ele>274.99</ele>
        <time>2020-09-30T10:17:44Z</time>
      </trkpt>
      <trkpt lat="47.655" lon="6.20003">
        <ele>275.03</ele>
        <time>2020-09-30T10:17:47Z</time>
      </trkpt>
      <trkpt lat="47.65496" lon="6.19997">
        <ele>275.07</ele>
        <time>2020-09-30T10:17:48Z</time>
      </trkpt>
      <trkpt lat="47.65492" lon="6.19993">
        <ele>275.09</ele>
        <time>2020-09-30T10:17:53Z</time>
      </trkpt>
      <trkpt lat="47.65488" lon="6.19987">
        <ele>275.1</ele>
        <time>2020-09-30T10:17:55Z</time>
      </trkpt>
      <trkpt lat="47.65484" lon="6.19981">
        <ele>275.11</ele>
        <time>2020-09-30T10:17:56Z</time>
      </trkpt>
      <trkpt lat="47.6548" lon="6.19973">
        <ele>275.12</ele>
        <time>2020-09-30T10:17:58Z</time>
      </trkpt>
      <trkpt lat="47.65477" lon="6.19966">
        <ele>275.13</ele>
        <time>2020-09-30T10:18:00Z</time>
      </trkpt>
      <trkpt lat="47.65473" lon="6.19959">
        <ele>275.14</ele>
        <time>2020-09-30T10:18:02Z</time>
      </trkpt>
      <trkpt lat="47.65469" lon="6.19952">
        <ele>275.16</ele>
        <time>2020-09-30T10:18:03Z</time>
      </trkpt>
      <trkpt lat="47.65466" lon="6.19946">
        <ele>275.17</ele>
        <time>2020-09-30T10:18:07Z</time>
      </trkpt>
      <trkpt lat="47.65463" lon="6.1994">
        <ele>275.19</ele>
        <time>2020-09-30T10:18:10Z</time>
      </trkpt>
      <trkpt lat="47.65461" lon="6.19935">
        <ele>275.21</ele>
        <time>2020-09-30T10:18:13Z</time>
      </trkpt>
      <trkpt lat="47.65457" lon="6.1993">
        <ele>275.23</ele>
        <time>2020-09-30T10:18:16Z</time>
      </trkpt>
      <trkpt lat="47.65454" lon="6.19922">
        <ele>275.27</ele>
        <time>2020-09-30T10:18:20Z</time>
      </trkpt>
      <trkpt lat="47.65451" lon="6.19915">
        <ele>275.32</ele>
        <time>2020-09-30T10:18:22Z</time>
      </trkpt>
      <trkpt lat="47.65448" lon="6.19909">
        <ele>275.34</ele>
        <time>2020-09-30T10:18:26Z</time>
      </trkpt>
      <trkpt lat="47.65445" lon="6.19902">
        <ele>275.36</ele>
        <time>2020-09-30T10:18:29Z</time>
      </trkpt>
      <trkpt lat="47.65442" lon="6.19895">
        <ele>275.38</ele>
        <time>2020-09-30T10:18:31Z</time>
      </trkpt>
      <trkpt lat="47.6544" lon="6.19889">
        <ele>275.4</ele>
        <time>2020-09-30T10:18:33Z</time>
      </trkpt>
      <trkpt lat="47.65437" lon="6.19882">
        <ele>275.41</ele>
        <time>2020-09-30T10:18:35Z</time>
      </trkpt>
      <trkpt lat="47.65435" lon="6.19875">
        <ele>275.43</ele>
        <time>2020-09-30T10:18:36Z</time>
      </trkpt>
      <trkpt lat="47.65433" lon="6.19868">
        <ele>275.44</ele>
        <time>2020-09-30T10:18:39Z</time>
      </trkpt>
      <trkpt lat="47.6543" lon="6.19862">
        <ele>275.45</ele>
        <time>2020-09-30T10:18:43Z</time>
      </trkpt>
      <trkpt lat="47.65428" lon="6.19856">
        <ele>275.46</ele>
        <time>2020-09-30T10:18:46Z</time>
      </trkpt>
      <trkpt lat="47.65424" lon="6.1985">
        <ele>275.47</ele>
        <time>2020-09-30T10:18:48Z</time>
      </trkpt>
      <trkpt lat="47.6542" lon="6.19844">
        <ele>275.47</ele>
        <time>2020-09-30T10:18:51Z</time>
      </trkpt>
      <trkpt lat="47.65416" lon="6.19838">
        <ele>275.46</ele>
        <time>2020-09-30T10:18:54Z</time>
      </trkpt>
      <trkpt lat="47.65412" lon="6.19832">
        <ele>275.45</ele>
        <time>2020-09-30T10:18:56Z</time>
      </trkpt>
      <trkpt lat="47.65406" lon="6.19819">
        <ele>275.43</ele>
        <time>2020-09-30T10:19:00Z</time>
      </trkpt>
      <trkpt lat="47.65402" lon="6.19812">
        <ele>275.41</ele>
        <time>2020-09-30T10:19:01Z</time>
      </trkpt>
      <trkpt lat="47.65397" lon="6.19807">
        <ele>275.4</ele>
        <time>2020-09-30T10:19:03Z</time>
      </trkpt>
      <trkpt lat="47.65394" lon="6.19801">
        <ele>275.38</ele>
        <time>2020-09-30T10:19:05Z</time>
      </trkpt>
      <trkpt lat="47.65389" lon="6.19794">
        <ele>275.36</ele>
        <time>2020-09-30T10:19:08Z</time>
      </trkpt>
      <trkpt lat="47.65385" lon="6.19788">
        <ele>275.34</ele>
        <time>2020-09-30T10:19:10Z</time>
      </trkpt>
      <trkpt lat="47.65381" lon="6.19781">
        <ele>275.31</ele>
        <time>2020-09-30T10:19:12Z</time>
      </trkpt>
      <trkpt lat="47.65375" lon="6.1977">
        <ele>275.26</ele>
        <time>2020-09-30T10:19:16Z</time>
      </trkpt>
      <trkpt lat="47.65372" lon="6.19764">
        <ele>275.23</ele>
        <time>2020-09-30T10:19:18Z</time>
      </trkpt>
      <trkpt lat="47.65369" lon="6.19757">
        <ele>275.2</ele>
        <time>2020-09-30T10:19:20Z</time>
      </trkpt>
      <trkpt lat="47.65365" lon="6.19748">
        <ele>275.17</ele>
        <time>2020-09-30T10:19:21Z</time>
      </trkpt>
      <trkpt lat="47.65362" lon="6.19739">
        <ele>275.15</ele>
        <time>2020-09-30T10:19:23Z</time>
      </trkpt>
      <trkpt lat="47.6536" lon="6.19733">
        <ele>275.13</ele>
        <time>2020-09-30T10:19:25Z</time>
      </trkpt>
      <trkpt lat="47.65357" lon="6.19724">
        <ele>275.11</ele>
        <time>2020-09-30T10:19:27Z</time>
      </trkpt>
      <trkpt lat="47.65354" lon="6.19715">
        <ele>275.09</ele>
        <time>2020-09-30T10:19:29Z</time>
      </trkpt>
      <trkpt lat="47.6535" lon="6.19705">
        <ele>275.06</ele>
        <time>2020-09-30T10:19:31Z</time>
      </trkpt>
      <trkpt lat="47.65346" lon="6.19695">
        <ele>275.03</ele>
        <time>2020-09-30T10:19:34Z</time>
      </trkpt>
      <trkpt lat="47.65343" lon="6.19687">
        <ele>275</ele>
        <time>2020-09-30T10:19:36Z</time>
      </trkpt>
      <trkpt lat="47.65337" lon="6.19673">
        <ele>274.96</ele>
        <time>2020-09-30T10:19:39Z</time>
      </trkpt>
      <trkpt lat="47.65334" lon="6.19667">
        <ele>274.94</ele>
        <time>2020-09-30T10:19:41Z</time>
      </trkpt>
      <trkpt lat="47.6533" lon="6.19657">
        <ele>274.92</ele>
        <time>2020-09-30T10:19:44Z</time>
      </trkpt>
      <trkpt lat="47.65326" lon="6.19648">
        <ele>274.9</ele>
        <time>2020-09-30T10:19:46Z</time>
      </trkpt>
      <trkpt lat="47.65322" lon="6.19629">
        <ele>274.86</ele>
        <time>2020-09-30T10:19:48Z</time>
      </trkpt>
      <trkpt lat="47.65321" lon="6.19622">
        <ele>274.86</ele>
        <time>2020-09-30T10:19:51Z</time>
      </trkpt>
      <trkpt lat="47.65318" lon="6.19607">
        <ele>274.83</ele>
        <time>2020-09-30T10:19:55Z</time>
      </trkpt>
      <trkpt lat="47.65316" lon="6.196">
        <ele>274.82</ele>
        <time>2020-09-30T10:19:57Z</time>
      </trkpt>
      <trkpt lat="47.65314" lon="6.19593">
        <ele>274.81</ele>
        <time>2020-09-30T10:19:59Z</time>
      </trkpt>
      <trkpt lat="47.65311" lon="6.19585">
        <ele>274.8</ele>
        <time>2020-09-30T10:20:02Z</time>
      </trkpt>
      <trkpt lat="47.65307" lon="6.19576">
        <ele>274.78</ele>
        <time>2020-09-30T10:20:04Z</time>
      </trkpt>
      <trkpt lat="47.65303" lon="6.19569">
        <ele>274.77</ele>
        <time>2020-09-30T10:20:05Z</time>
      </trkpt>
      <trkpt lat="47.65295" lon="6.19554">
        <ele>274.75</ele>
        <time>2020-09-30T10:20:10Z</time>
      </trkpt>
      <trkpt lat="47.65292" lon="6.19547">
        <ele>274.74</ele>
        <time>2020-09-30T10:20:12Z</time>
      </trkpt>
      <trkpt lat="47.6529" lon="6.1954">
        <ele>274.73</ele>
        <time>2020-09-30T10:20:14Z</time>
      </trkpt>
      <trkpt lat="47.65287" lon="6.19533">
        <ele>274.72</ele>
        <time>2020-09-30T10:20:16Z</time>
      </trkpt>
      <trkpt lat="47.65285" lon="6.19527">
        <ele>274.71</ele>
        <time>2020-09-30T10:20:17Z</time>
      </trkpt>
      <trkpt lat="47.65283" lon="6.19521">
        <ele>274.7</ele>
        <time>2020-09-30T10:20:19Z</time>
      </trkpt>
      <trkpt lat="47.65282" lon="6.19513">
        <ele>274.69</ele>
        <time>2020-09-30T10:20:21Z</time>
      </trkpt>
      <trkpt lat="47.65279" lon="6.19504">
        <ele>274.68</ele>
        <time>2020-09-30T10:20:24Z</time>
      </trkpt>
      <trkpt lat="47.65276" lon="6.19497">
        <ele>274.68</ele>
        <time>2020-09-30T10:20:27Z</time>
      </trkpt>
      <trkpt lat="47.65274" lon="6.19491">
        <ele>274.67</ele>
        <time>2020-09-30T10:20:29Z</time>
      </trkpt>
      <trkpt lat="47.6527" lon="6.19485">
        <ele>274.67</ele>
        <time>2020-09-30T10:20:30Z</time>
      </trkpt>
      <trkpt lat="47.65266" lon="6.19477">
        <ele>274.66</ele>
        <time>2020-09-30T10:20:31Z</time>
      </trkpt>
      <trkpt lat="47.65262" lon="6.19471">
        <ele>274.66</ele>
        <time>2020-09-30T10:20:33Z</time>
      </trkpt>
      <trkpt lat="47.65259" lon="6.19465">
        <ele>274.66</ele>
        <time>2020-09-30T10:20:35Z</time>
      </trkpt>
      <trkpt lat="47.65258" lon="6.19459">
        <ele>274.7</ele>
        <time>2020-09-30T10:20:58Z</time>
      </trkpt>
      <trkpt lat="47.65255" lon="6.19453">
        <ele>274.73</ele>
        <time>2020-09-30T10:21:03Z</time>
      </trkpt>
      <trkpt lat="47.65251" lon="6.19447">
        <ele>274.75</ele>
        <time>2020-09-30T10:21:06Z</time>
      </trkpt>
      <trkpt lat="47.65245" lon="6.19441">
        <ele>274.77</ele>
        <time>2020-09-30T10:21:07Z</time>
      </trkpt>
      <trkpt lat="47.65242" lon="6.19437">
        <ele>274.79</ele>
        <time>2020-09-30T10:21:10Z</time>
      </trkpt>
      <trkpt lat="47.65236" lon="6.19428">
        <ele>274.95</ele>
        <time>2020-09-30T10:21:11Z</time>
      </trkpt>
      <trkpt lat="47.65225" lon="6.1941">
        <ele>275.14</ele>
        <time>2020-09-30T10:21:12Z</time>
      </trkpt>
      <trkpt lat="47.65222" lon="6.19403">
        <ele>275.19</ele>
        <time>2020-09-30T10:21:13Z</time>
      </trkpt>
      <trkpt lat="47.65219" lon="6.19396">
        <ele>275.23</ele>
        <time>2020-09-30T10:21:14Z</time>
      </trkpt>
      <trkpt lat="47.65217" lon="6.1939">
        <ele>275.26</ele>
        <time>2020-09-30T10:21:15Z</time>
      </trkpt>
      <trkpt lat="47.65213" lon="6.19381">
        <ele>275.29</ele>
        <time>2020-09-30T10:21:17Z</time>
      </trkpt>
      <trkpt lat="47.6521" lon="6.19374">
        <ele>275.29</ele>
        <time>2020-09-30T10:21:21Z</time>
      </trkpt>
      <trkpt lat="47.65208" lon="6.19367">
        <ele>275.3</ele>
        <time>2020-09-30T10:21:23Z</time>
      </trkpt>
      <trkpt lat="47.65204" lon="6.19361">
        <ele>275.3</ele>
        <time>2020-09-30T10:21:25Z</time>
      </trkpt>
      <trkpt lat="47.65202" lon="6.19354">
        <ele>275.3</ele>
        <time>2020-09-30T10:21:26Z</time>
      </trkpt>
      <trkpt lat="47.65199" lon="6.19347">
        <ele>275.3</ele>
        <time>2020-09-30T10:21:28Z</time>
      </trkpt>
      <trkpt lat="47.65195" lon="6.19342">
        <ele>275.29</ele>
        <time>2020-09-30T10:21:30Z</time>
      </trkpt>
      <trkpt lat="47.65192" lon="6.19336">
        <ele>275.29</ele>
        <time>2020-09-30T10:21:33Z</time>
      </trkpt>
      <trkpt lat="47.65187" lon="6.1933">
        <ele>275.27</ele>
        <time>2020-09-30T10:21:35Z</time>
      </trkpt>
      <trkpt lat="47.65182" lon="6.19323">
        <ele>275.26</ele>
        <time>2020-09-30T10:21:38Z</time>
      </trkpt>
      <trkpt lat="47.65173" lon="6.19312">
        <ele>275.23</ele>
        <time>2020-09-30T10:21:42Z</time>
      </trkpt>
      <trkpt lat="47.65162" lon="6.19302">
        <ele>275.19</ele>
        <time>2020-09-30T10:21:45Z</time>
      </trkpt>
      <trkpt lat="47.65157" lon="6.19296">
        <ele>275.17</ele>
        <time>2020-09-30T10:21:47Z</time>
      </trkpt>
      <trkpt lat="47.65152" lon="6.19291">
        <ele>275.15</ele>
        <time>2020-09-30T10:21:49Z</time>
      </trkpt>
      <trkpt lat="47.65144" lon="6.19285">
        <ele>275.07</ele>
        <time>2020-09-30T10:21:51Z</time>
      </trkpt>
      <trkpt lat="47.6514" lon="6.19281">
        <ele>274.98</ele>
        <time>2020-09-30T10:21:53Z</time>
      </trkpt>
      <trkpt lat="47.65133" lon="6.19275">
        <ele>274.87</ele>
        <time>2020-09-30T10:21:54Z</time>
      </trkpt>
      <trkpt lat="47.65128" lon="6.1927">
        <ele>274.85</ele>
        <time>2020-09-30T10:21:56Z</time>
      </trkpt>
      <trkpt lat="47.65124" lon="6.19265">
        <ele>274.84</ele>
        <time>2020-09-30T10:21:58Z</time>
      </trkpt>
      <trkpt lat="47.65119" lon="6.19259">
        <ele>274.83</ele>
        <time>2020-09-30T10:22:00Z</time>
      </trkpt>
      <trkpt lat="47.65112" lon="6.19251">
        <ele>274.74</ele>
        <time>2020-09-30T10:22:02Z</time>
      </trkpt>
      <trkpt lat="47.65107" lon="6.19244">
        <ele>274.72</ele>
        <time>2020-09-30T10:22:04Z</time>
      </trkpt>
      <trkpt lat="47.65097" lon="6.19229">
        <ele>274.6</ele>
        <time>2020-09-30T10:22:08Z</time>
      </trkpt>
      <trkpt lat="47.65091" lon="6.1922">
        <ele>274.51</ele>
        <time>2020-09-30T10:22:10Z</time>
      </trkpt>
      <trkpt lat="47.65086" lon="6.19213">
        <ele>274.46</ele>
        <time>2020-09-30T10:22:11Z</time>
      </trkpt>
      <trkpt lat="47.65082" lon="6.19208">
        <ele>274.43</ele>
        <time>2020-09-30T10:22:13Z</time>
      </trkpt>
      <trkpt lat="47.65076" lon="6.19199">
        <ele>274.4</ele>
        <time>2020-09-30T10:22:15Z</time>
      </trkpt>
      <trkpt lat="47.65073" lon="6.19194">
        <ele>274.38</ele>
        <time>2020-09-30T10:22:16Z</time>
      </trkpt>
      <trkpt lat="47.65069" lon="6.19189">
        <ele>274.37</ele>
        <time>2020-09-30T10:22:17Z</time>
      </trkpt>
      <trkpt lat="47.65063" lon="6.19179">
        <ele>274.36</ele>
        <time>2020-09-30T10:22:18Z</time>
      </trkpt>
      <trkpt lat="47.65059" lon="6.19172">
        <ele>274.36</ele>
        <time>2020-09-30T10:22:21Z</time>
      </trkpt>
      <trkpt lat="47.65054" lon="6.19163">
        <ele>274.36</ele>
        <time>2020-09-30T10:22:22Z</time>
      </trkpt>
      <trkpt lat="47.6505" lon="6.19155">
        <ele>274.35</ele>
        <time>2020-09-30T10:22:24Z</time>
      </trkpt>
      <trkpt lat="47.65046" lon="6.19149">
        <ele>274.35</ele>
        <time>2020-09-30T10:22:27Z</time>
      </trkpt>
      <trkpt lat="47.65043" lon="6.19144">
        <ele>274.34</ele>
        <time>2020-09-30T10:22:28Z</time>
      </trkpt>
      <trkpt lat="47.65039" lon="6.19135">
        <ele>274.33</ele>
        <time>2020-09-30T10:22:30Z</time>
      </trkpt>
      <trkpt lat="47.65027" lon="6.19116">
        <ele>274.29</ele>
        <time>2020-09-30T10:22:31Z</time>
      </trkpt>
      <trkpt lat="47.65024" lon="6.19111">
        <ele>274.28</ele>
        <time>2020-09-30T10:22:32Z</time>
      </trkpt>
      <trkpt lat="47.65021" lon="6.19106">
        <ele>274.27</ele>
        <time>2020-09-30T10:22:33Z</time>
      </trkpt>
      <trkpt lat="47.65015" lon="6.19097">
        <ele>274.28</ele>
        <time>2020-09-30T10:22:35Z</time>
      </trkpt>
      <trkpt lat="47.65011" lon="6.19092">
        <ele>274.28</ele>
        <time>2020-09-30T10:22:36Z</time>
      </trkpt>
      <trkpt lat="47.65008" lon="6.19087">
        <ele>274.28</ele>
        <time>2020-09-30T10:22:37Z</time>
      </trkpt>
      <trkpt lat="47.65005" lon="6.19082">
        <ele>274.28</ele>
        <time>2020-09-30T10:22:38Z</time>
      </trkpt>
      <trkpt lat="47.65002" lon="6.19076">
        <ele>274.27</ele>
        <time>2020-09-30T10:22:39Z</time>
      </trkpt>
      <trkpt lat="47.64999" lon="6.19071">
        <ele>274.27</ele>
        <time>2020-09-30T10:22:40Z</time>
      </trkpt>
      <trkpt lat="47.64995" lon="6.19066">
        <ele>274.26</ele>
        <time>2020-09-30T10:22:41Z</time>
      </trkpt>
      <trkpt lat="47.6499" lon="6.19057">
        <ele>274.29</ele>
        <time>2020-09-30T10:22:43Z</time>
      </trkpt>
      <trkpt lat="47.64985" lon="6.19047">
        <ele>274.33</ele>
        <time>2020-09-30T10:22:45Z</time>
      </trkpt>
      <trkpt lat="47.64981" lon="6.19039">
        <ele>274.37</ele>
        <time>2020-09-30T10:22:47Z</time>
      </trkpt>
      <trkpt lat="47.64978" lon="6.19033">
        <ele>274.4</ele>
        <time>2020-09-30T10:22:48Z</time>
      </trkpt>
      <trkpt lat="47.64972" lon="6.19023">
        <ele>274.43</ele>
        <time>2020-09-30T10:22:50Z</time>
      </trkpt>
      <trkpt lat="47.64968" lon="6.19017">
        <ele>274.46</ele>
        <time>2020-09-30T10:22:51Z</time>
      </trkpt>
      <trkpt lat="47.64965" lon="6.19012">
        <ele>274.49</ele>
        <time>2020-09-30T10:22:52Z</time>
      </trkpt>
      <trkpt lat="47.64961" lon="6.19005">
        <ele>274.53</ele>
        <time>2020-09-30T10:22:53Z</time>
      </trkpt>
      <trkpt lat="47.64958" lon="6.18999">
        <ele>274.57</ele>
        <time>2020-09-30T10:22:54Z</time>
      </trkpt>
      <trkpt lat="47.64954" lon="6.18993">
        <ele>274.62</ele>
        <time>2020-09-30T10:22:55Z</time>
      </trkpt>
      <trkpt lat="47.64951" lon="6.18988">
        <ele>274.67</ele>
        <time>2020-09-30T10:22:56Z</time>
      </trkpt>
      <trkpt lat="47.64947" lon="6.18982">
        <ele>274.71</ele>
        <time>2020-09-30T10:22:57Z</time>
      </trkpt>
      <trkpt lat="47.64944" lon="6.18977">
        <ele>274.75</ele>
        <time>2020-09-30T10:22:58Z</time>
      </trkpt>
      <trkpt lat="47.64941" lon="6.18971">
        <ele>274.79</ele>
        <time>2020-09-30T10:22:59Z</time>
      </trkpt>
      <trkpt lat="47.64938" lon="6.18966">
        <ele>274.83</ele>
        <time>2020-09-30T10:23:00Z</time>
      </trkpt>
      <trkpt lat="47.64934" lon="6.1896">
        <ele>274.87</ele>
        <time>2020-09-30T10:23:01Z</time>
      </trkpt>
      <trkpt lat="47.64931" lon="6.18955">
        <ele>274.9</ele>
        <time>2020-09-30T10:23:02Z</time>
      </trkpt>
      <trkpt lat="47.64928" lon="6.1895">
        <ele>274.92</ele>
        <time>2020-09-30T10:23:03Z</time>
      </trkpt>
      <trkpt lat="47.64925" lon="6.18945">
        <ele>274.94</ele>
        <time>2020-09-30T10:23:04Z</time>
      </trkpt>
      <trkpt lat="47.64922" lon="6.18939">
        <ele>274.95</ele>
        <time>2020-09-30T10:23:05Z</time>
      </trkpt>
      <trkpt lat="47.64918" lon="6.18934">
        <ele>274.96</ele>
        <time>2020-09-30T10:23:06Z</time>
      </trkpt>
      <trkpt lat="47.64915" lon="6.18929">
        <ele>274.97</ele>
        <time>2020-09-30T10:23:07Z</time>
      </trkpt>
      <trkpt lat="47.64912" lon="6.18924">
        <ele>274.98</ele>
        <time>2020-09-30T10:23:08Z</time>
      </trkpt>
      <trkpt lat="47.64909" lon="6.18919">
        <ele>274.99</ele>
        <time>2020-09-30T10:23:09Z</time>
      </trkpt>
      <trkpt lat="47.64903" lon="6.1891">
        <ele>275.03</ele>
        <time>2020-09-30T10:23:11Z</time>
      </trkpt>
      <trkpt lat="47.64898" lon="6.18901">
        <ele>275.06</ele>
        <time>2020-09-30T10:23:13Z</time>
      </trkpt>
      <trkpt lat="47.64893" lon="6.18891">
        <ele>275.07</ele>
        <time>2020-09-30T10:23:15Z</time>
      </trkpt>
      <trkpt lat="47.64896" lon="6.18876">
        <ele>275.08</ele>
        <time>2020-09-30T10:23:19Z</time>
      </trkpt>
      <trkpt lat="47.6489" lon="6.18874">
        <ele>275.08</ele>
        <time>2020-09-30T10:23:20Z</time>
      </trkpt>
      <trkpt lat="47.64879" lon="6.18858">
        <ele>275.08</ele>
        <time>2020-09-30T10:23:21Z</time>
      </trkpt>
      <trkpt lat="47.64875" lon="6.18851">
        <ele>275.08</ele>
        <time>2020-09-30T10:23:24Z</time>
      </trkpt>
      <trkpt lat="47.64871" lon="6.18844">
        <ele>275.08</ele>
        <time>2020-09-30T10:23:26Z</time>
      </trkpt>
      <trkpt lat="47.64867" lon="6.18835">
        <ele>275.09</ele>
        <time>2020-09-30T10:23:28Z</time>
      </trkpt>
      <trkpt lat="47.64856" lon="6.18813">
        <ele>275.07</ele>
        <time>2020-09-30T10:23:29Z</time>
      </trkpt>
      <trkpt lat="47.64853" lon="6.18807">
        <ele>275.06</ele>
        <time>2020-09-30T10:23:30Z</time>
      </trkpt>
      <trkpt lat="47.6485" lon="6.188">
        <ele>275.06</ele>
        <time>2020-09-30T10:23:31Z</time>
      </trkpt>
      <trkpt lat="47.64847" lon="6.18794">
        <ele>275.06</ele>
        <time>2020-09-30T10:23:32Z</time>
      </trkpt>
      <trkpt lat="47.64844" lon="6.18788">
        <ele>275.06</ele>
        <time>2020-09-30T10:23:33Z</time>
      </trkpt>
      <trkpt lat="47.64842" lon="6.18782">
        <ele>275.06</ele>
        <time>2020-09-30T10:23:34Z</time>
      </trkpt>
      <trkpt lat="47.64839" lon="6.18776">
        <ele>275.05</ele>
        <time>2020-09-30T10:23:35Z</time>
      </trkpt>
      <trkpt lat="47.64836" lon="6.1877">
        <ele>275.05</ele>
        <time>2020-09-30T10:23:36Z</time>
      </trkpt>
      <trkpt lat="47.64834" lon="6.18763">
        <ele>275.06</ele>
        <time>2020-09-30T10:23:37Z</time>
      </trkpt>
      <trkpt lat="47.64831" lon="6.18757">
        <ele>275.06</ele>
        <time>2020-09-30T10:23:38Z</time>
      </trkpt>
      <trkpt lat="47.64828" lon="6.18751">
        <ele>275.07</ele>
        <time>2020-09-30T10:23:39Z</time>
      </trkpt>
      <trkpt lat="47.64825" lon="6.18745">
        <ele>275.07</ele>
        <time>2020-09-30T10:23:40Z</time>
      </trkpt>
      <trkpt lat="47.64822" lon="6.18739">
        <ele>275.07</ele>
        <time>2020-09-30T10:23:41Z</time>
      </trkpt>
      <trkpt lat="47.64819" lon="6.18732">
        <ele>275.06</ele>
        <time>2020-09-30T10:23:42Z</time>
      </trkpt>
      <trkpt lat="47.64815" lon="6.18726">
        <ele>275.05</ele>
        <time>2020-09-30T10:23:43Z</time>
      </trkpt>
      <trkpt lat="47.64811" lon="6.1872">
        <ele>275.04</ele>
        <time>2020-09-30T10:23:44Z</time>
      </trkpt>
      <trkpt lat="47.64807" lon="6.18713">
        <ele>275.02</ele>
        <time>2020-09-30T10:23:45Z</time>
      </trkpt>
      <trkpt lat="47.64803" lon="6.18706">
        <ele>275</ele>
        <time>2020-09-30T10:23:46Z</time>
      </trkpt>
      <trkpt lat="47.64799" lon="6.18699">
        <ele>274.97</ele>
        <time>2020-09-30T10:23:47Z</time>
      </trkpt>
      <trkpt lat="47.64795" lon="6.18692">
        <ele>274.92</ele>
        <time>2020-09-30T10:23:48Z</time>
      </trkpt>
      <trkpt lat="47.64791" lon="6.18684">
        <ele>274.88</ele>
        <time>2020-09-30T10:23:49Z</time>
      </trkpt>
      <trkpt lat="47.64787" lon="6.18676">
        <ele>274.83</ele>
        <time>2020-09-30T10:23:50Z</time>
      </trkpt>
      <trkpt lat="47.64783" lon="6.18667">
        <ele>274.78</ele>
        <time>2020-09-30T10:23:51Z</time>
      </trkpt>
      <trkpt lat="47.64778" lon="6.18658">
        <ele>274.72</ele>
        <time>2020-09-30T10:23:52Z</time>
      </trkpt>
      <trkpt lat="47.64774" lon="6.18649">
        <ele>274.66</ele>
        <time>2020-09-30T10:23:53Z</time>
      </trkpt>
      <trkpt lat="47.64769" lon="6.1864">
        <ele>274.58</ele>
        <time>2020-09-30T10:23:54Z</time>
      </trkpt>
      <trkpt lat="47.64765" lon="6.18632">
        <ele>274.52</ele>
        <time>2020-09-30T10:23:55Z</time>
      </trkpt>
      <trkpt lat="47.6476" lon="6.18623">
        <ele>274.45</ele>
        <time>2020-09-30T10:23:56Z</time>
      </trkpt>
      <trkpt lat="47.64756" lon="6.18616">
        <ele>274.4</ele>
        <time>2020-09-30T10:23:57Z</time>
      </trkpt>
      <trkpt lat="47.64752" lon="6.18608">
        <ele>274.35</ele>
        <time>2020-09-30T10:23:58Z</time>
      </trkpt>
      <trkpt lat="47.64748" lon="6.186">
        <ele>274.31</ele>
        <time>2020-09-30T10:23:59Z</time>
      </trkpt>
      <trkpt lat="47.64744" lon="6.18593">
        <ele>274.27</ele>
        <time>2020-09-30T10:24:00Z</time>
      </trkpt>
      <trkpt lat="47.6474" lon="6.18586">
        <ele>274.25</ele>
        <time>2020-09-30T10:24:01Z</time>
      </trkpt>
      <trkpt lat="47.64736" lon="6.18579">
        <ele>274.21</ele>
        <time>2020-09-30T10:24:02Z</time>
      </trkpt>
      <trkpt lat="47.64732" lon="6.18572">
        <ele>274.17</ele>
        <time>2020-09-30T10:24:03Z</time>
      </trkpt>
      <trkpt lat="47.64729" lon="6.18565">
        <ele>274.11</ele>
        <time>2020-09-30T10:24:04Z</time>
      </trkpt>
      <trkpt lat="47.64725" lon="6.18558">
        <ele>274.04</ele>
        <time>2020-09-30T10:24:05Z</time>
      </trkpt>
      <trkpt lat="47.64721" lon="6.18551">
        <ele>273.98</ele>
        <time>2020-09-30T10:24:06Z</time>
      </trkpt>
      <trkpt lat="47.64718" lon="6.18543">
        <ele>273.93</ele>
        <time>2020-09-30T10:24:07Z</time>
      </trkpt>
      <trkpt lat="47.64715" lon="6.18536">
        <ele>273.89</ele>
        <time>2020-09-30T10:24:08Z</time>
      </trkpt>
      <trkpt lat="47.64711" lon="6.18529">
        <ele>273.84</ele>
        <time>2020-09-30T10:24:09Z</time>
      </trkpt>
      <trkpt lat="47.64708" lon="6.18522">
        <ele>273.78</ele>
        <time>2020-09-30T10:24:10Z</time>
      </trkpt>
      <trkpt lat="47.64705" lon="6.18515">
        <ele>273.75</ele>
        <time>2020-09-30T10:24:11Z</time>
      </trkpt>
      <trkpt lat="47.64701" lon="6.18509">
        <ele>273.75</ele>
        <time>2020-09-30T10:24:12Z</time>
      </trkpt>
      <trkpt lat="47.64697" lon="6.18504">
        <ele>273.75</ele>
        <time>2020-09-30T10:24:13Z</time>
      </trkpt>
      <trkpt lat="47.64694" lon="6.18499">
        <ele>273.71</ele>
        <time>2020-09-30T10:24:14Z</time>
      </trkpt>
      <trkpt lat="47.64691" lon="6.18494">
        <ele>273.67</ele>
        <time>2020-09-30T10:24:15Z</time>
      </trkpt>
      <trkpt lat="47.64685" lon="6.18485">
        <ele>273.56</ele>
        <time>2020-09-30T10:24:17Z</time>
      </trkpt>
      <trkpt lat="47.64682" lon="6.1848">
        <ele>273.49</ele>
        <time>2020-09-30T10:24:18Z</time>
      </trkpt>
      <trkpt lat="47.64678" lon="6.18475">
        <ele>273.44</ele>
        <time>2020-09-30T10:24:19Z</time>
      </trkpt>
      <trkpt lat="47.64674" lon="6.1847">
        <ele>273.42</ele>
        <time>2020-09-30T10:24:20Z</time>
      </trkpt>
      <trkpt lat="47.64671" lon="6.18465">
        <ele>273.39</ele>
        <time>2020-09-30T10:24:21Z</time>
      </trkpt>
      <trkpt lat="47.64667" lon="6.18461">
        <ele>273.37</ele>
        <time>2020-09-30T10:24:22Z</time>
      </trkpt>
      <trkpt lat="47.64663" lon="6.18456">
        <ele>273.35</ele>
        <time>2020-09-30T10:24:23Z</time>
      </trkpt>
      <trkpt lat="47.6466" lon="6.18451">
        <ele>273.34</ele>
        <time>2020-09-30T10:24:24Z</time>
      </trkpt>
      <trkpt lat="47.64657" lon="6.18446">
        <ele>273.32</ele>
        <time>2020-09-30T10:24:25Z</time>
      </trkpt>
      <trkpt lat="47.64653" lon="6.18441">
        <ele>273.29</ele>
        <time>2020-09-30T10:24:26Z</time>
      </trkpt>
      <trkpt lat="47.6465" lon="6.18436">
        <ele>273.26</ele>
        <time>2020-09-30T10:24:27Z</time>
      </trkpt>
      <trkpt lat="47.64647" lon="6.18431">
        <ele>273.24</ele>
        <time>2020-09-30T10:24:28Z</time>
      </trkpt>
      <trkpt lat="47.64644" lon="6.18426">
        <ele>273.24</ele>
        <time>2020-09-30T10:24:29Z</time>
      </trkpt>
      <trkpt lat="47.6464" lon="6.18421">
        <ele>273.23</ele>
        <time>2020-09-30T10:24:30Z</time>
      </trkpt>
      <trkpt lat="47.64637" lon="6.18416">
        <ele>273.19</ele>
        <time>2020-09-30T10:24:31Z</time>
      </trkpt>
      <trkpt lat="47.64633" lon="6.18412">
        <ele>273.14</ele>
        <time>2020-09-30T10:24:32Z</time>
      </trkpt>
      <trkpt lat="47.6463" lon="6.18407">
        <ele>273.09</ele>
        <time>2020-09-30T10:24:33Z</time>
      </trkpt>
      <trkpt lat="47.64623" lon="6.18398">
        <ele>272.95</ele>
        <time>2020-09-30T10:24:35Z</time>
      </trkpt>
      <trkpt lat="47.64619" lon="6.18395">
        <ele>272.88</ele>
        <time>2020-09-30T10:24:36Z</time>
      </trkpt>
      <trkpt lat="47.64614" lon="6.18389">
        <ele>272.84</ele>
        <time>2020-09-30T10:24:38Z</time>
      </trkpt>
      <trkpt lat="47.64608" lon="6.18382">
        <ele>272.65</ele>
        <time>2020-09-30T10:24:40Z</time>
      </trkpt>
      <trkpt lat="47.64602" lon="6.18373">
        <ele>272.45</ele>
        <time>2020-09-30T10:24:42Z</time>
      </trkpt>
      <trkpt lat="47.64595" lon="6.18359">
        <ele>272.34</ele>
        <time>2020-09-30T10:24:45Z</time>
      </trkpt>
      <trkpt lat="47.64589" lon="6.18344">
        <ele>272.04</ele>
        <time>2020-09-30T10:24:47Z</time>
      </trkpt>
      <trkpt lat="47.64585" lon="6.18337">
        <ele>271.87</ele>
        <time>2020-09-30T10:24:48Z</time>
      </trkpt>
      <trkpt lat="47.64582" lon="6.18328">
        <ele>271.7</ele>
        <time>2020-09-30T10:24:49Z</time>
      </trkpt>
      <trkpt lat="47.64578" lon="6.1832">
        <ele>271.53</ele>
        <time>2020-09-30T10:24:50Z</time>
      </trkpt>
      <trkpt lat="47.64573" lon="6.18312">
        <ele>271.32</ele>
        <time>2020-09-30T10:24:51Z</time>
      </trkpt>
      <trkpt lat="47.64568" lon="6.18304">
        <ele>271.03</ele>
        <time>2020-09-30T10:24:52Z</time>
      </trkpt>
      <trkpt lat="47.64564" lon="6.18297">
        <ele>270.71</ele>
        <time>2020-09-30T10:24:53Z</time>
      </trkpt>
      <trkpt lat="47.6456" lon="6.1829">
        <ele>270.4</ele>
        <time>2020-09-30T10:24:54Z</time>
      </trkpt>
      <trkpt lat="47.64557" lon="6.18283">
        <ele>270</ele>
        <time>2020-09-30T10:24:55Z</time>
      </trkpt>
      <trkpt lat="47.64554" lon="6.18274">
        <ele>269.61</ele>
        <time>2020-09-30T10:24:56Z</time>
      </trkpt>
      <trkpt lat="47.64552" lon="6.18265">
        <ele>269.24</ele>
        <time>2020-09-30T10:24:57Z</time>
      </trkpt>
      <trkpt lat="47.64551" lon="6.18253">
        <ele>268.84</ele>
        <time>2020-09-30T10:24:58Z</time>
      </trkpt>
      <trkpt lat="47.6455" lon="6.1824">
        <ele>268.41</ele>
        <time>2020-09-30T10:24:59Z</time>
      </trkpt>
      <trkpt lat="47.64551" lon="6.18226">
        <ele>267.84</ele>
        <time>2020-09-30T10:24:59Z</time>
      </trkpt>
      <trkpt lat="47.64552" lon="6.18211">
        <ele>267.26</ele>
        <time>2020-09-30T10:25:00Z</time>
      </trkpt>
      <trkpt lat="47.64554" lon="6.18198">
        <ele>266.73</ele>
        <time>2020-09-30T10:25:01Z</time>
      </trkpt>
      <trkpt lat="47.64555" lon="6.18186">
        <ele>266.23</ele>
        <time>2020-09-30T10:25:02Z</time>
      </trkpt>
      <trkpt lat="47.64557" lon="6.18176">
        <ele>265.75</ele>
        <time>2020-09-30T10:25:03Z</time>
      </trkpt>
      <trkpt lat="47.64558" lon="6.18166">
        <ele>265.27</ele>
        <time>2020-09-30T10:25:04Z</time>
      </trkpt>
      <trkpt lat="47.6456" lon="6.18158">
        <ele>264.78</ele>
        <time>2020-09-30T10:25:05Z</time>
      </trkpt>
      <trkpt lat="47.64561" lon="6.1815">
        <ele>264.25</ele>
        <time>2020-09-30T10:25:06Z</time>
      </trkpt>
      <trkpt lat="47.64563" lon="6.18143">
        <ele>263.69</ele>
        <time>2020-09-30T10:25:07Z</time>
      </trkpt>
      <trkpt lat="47.64563" lon="6.18135">
        <ele>263.05</ele>
        <time>2020-09-30T10:25:08Z</time>
      </trkpt>
      <trkpt lat="47.64561" lon="6.18127">
        <ele>262.35</ele>
        <time>2020-09-30T10:25:09Z</time>
      </trkpt>
      <trkpt lat="47.64558" lon="6.18119">
        <ele>261.6</ele>
        <time>2020-09-30T10:25:10Z</time>
      </trkpt>
      <trkpt lat="47.64555" lon="6.18111">
        <ele>260.93</ele>
        <time>2020-09-30T10:25:11Z</time>
      </trkpt>
      <trkpt lat="47.64551" lon="6.18103">
        <ele>260.28</ele>
        <time>2020-09-30T10:25:12Z</time>
      </trkpt>
      <trkpt lat="47.64548" lon="6.18093">
        <ele>259.6</ele>
        <time>2020-09-30T10:25:13Z</time>
      </trkpt>
      <trkpt lat="47.64547" lon="6.18082">
        <ele>258.85</ele>
        <time>2020-09-30T10:25:14Z</time>
      </trkpt>
      <trkpt lat="47.64546" lon="6.18072">
        <ele>258.12</ele>
        <time>2020-09-30T10:25:15Z</time>
      </trkpt>
      <trkpt lat="47.64545" lon="6.18063">
        <ele>257.29</ele>
        <time>2020-09-30T10:25:16Z</time>
      </trkpt>
      <trkpt lat="47.64544" lon="6.18055">
        <ele>256.38</ele>
        <time>2020-09-30T10:25:17Z</time>
      </trkpt>
      <trkpt lat="47.64543" lon="6.18049">
        <ele>255.45</ele>
        <time>2020-09-30T10:25:18Z</time>
      </trkpt>
      <trkpt lat="47.64541" lon="6.18042">
        <ele>254.95</ele>
        <time>2020-09-30T10:25:20Z</time>
      </trkpt>
      <trkpt lat="47.64537" lon="6.18038">
        <ele>254.05</ele>
        <time>2020-09-30T10:25:22Z</time>
      </trkpt>
      <trkpt lat="47.64527" lon="6.1804">
        <ele>252.23</ele>
        <time>2020-09-30T10:25:24Z</time>
      </trkpt>
      <trkpt lat="47.64521" lon="6.18043">
        <ele>251.36</ele>
        <time>2020-09-30T10:25:25Z</time>
      </trkpt>
      <trkpt lat="47.64514" lon="6.18045">
        <ele>250.8</ele>
        <time>2020-09-30T10:25:26Z</time>
      </trkpt>
      <trkpt lat="47.64506" lon="6.18046">
        <ele>250.43</ele>
        <time>2020-09-30T10:25:27Z</time>
      </trkpt>
      <trkpt lat="47.64499" lon="6.18044">
        <ele>250.15</ele>
        <time>2020-09-30T10:25:28Z</time>
      </trkpt>
      <trkpt lat="47.64493" lon="6.18041">
        <ele>249.87</ele>
        <time>2020-09-30T10:25:29Z</time>
      </trkpt>
      <trkpt lat="47.64487" lon="6.18037">
        <ele>249.47</ele>
        <time>2020-09-30T10:25:30Z</time>
      </trkpt>
      <trkpt lat="47.64482" lon="6.18033">
        <ele>249.09</ele>
        <time>2020-09-30T10:25:31Z</time>
      </trkpt>
      <trkpt lat="47.64477" lon="6.18029">
        <ele>248.87</ele>
        <time>2020-09-30T10:25:33Z</time>
      </trkpt>
      <trkpt lat="47.64472" lon="6.18024">
        <ele>248.78</ele>
        <time>2020-09-30T10:25:38Z</time>
      </trkpt>
      <trkpt lat="47.64461" lon="6.18031">
        <ele>248.49</ele>
        <time>2020-09-30T10:25:39Z</time>
      </trkpt>
      <trkpt lat="47.64461" lon="6.18038">
        <ele>230.4</ele>
        <time>2020-09-30T10:25:50Z</time>
      </trkpt>
      <trkpt lat="47.64465" lon="6.18043">
        <ele>223.11</ele>
        <time>2020-09-30T10:26:01Z</time>
      </trkpt>
    </trkseg>
  </trk>
</gpx>